<?xml version="1.0" encoding="UTF-8" standalone="no" ?>
<gpx xmlns="http://www.topografix.com/GPX/1/1" xmlns:xsi="http://www.w3.org/2001/XMLSchema-instance" xsi:schemaLocation="http://www.topografix.com/GPX/1/1 http://www.topografix.com/GPX/1/1/gpx.xsd" version="1.1" creator="VisuGPX - https://www.visugpx.com">
  <metadata>
    <name>Armeau-Guerchy</name>
    <desc><![CDATA[Chemin de Compostelle 2014-1 : Armeau-Guerchy]]></desc>
  </metadata>
  <trk>
    <name><![CDATA[8 Armeau Guerchy]]></name>
    <trkseg>
      <trkpt lat="48.04499" lon="3.3201">
        <ele>75</ele>
        <time>2014-04-14T06:30:30Z</time>
      </trkpt>
      <trkpt lat="48.04496" lon="3.32007">
        <ele>75</ele>
        <time>2014-04-14T06:30:37Z</time>
      </trkpt>
      <trkpt lat="48.04491" lon="3.32007">
        <ele>75</ele>
        <time>2014-04-14T06:30:42Z</time>
      </trkpt>
      <trkpt lat="48.04488" lon="3.32012">
        <ele>75</ele>
        <time>2014-04-14T06:30:47Z</time>
      </trkpt>
      <trkpt lat="48.04485" lon="3.32018">
        <ele>74</ele>
        <time>2014-04-14T06:30:51Z</time>
      </trkpt>
      <trkpt lat="48.04481" lon="3.32024">
        <ele>74</ele>
        <time>2014-04-14T06:30:55Z</time>
      </trkpt>
      <trkpt lat="48.04477" lon="3.32028">
        <ele>74</ele>
        <time>2014-04-14T06:30:59Z</time>
      </trkpt>
      <trkpt lat="48.04471" lon="3.32034">
        <ele>74</ele>
        <time>2014-04-14T06:31:05Z</time>
      </trkpt>
      <trkpt lat="48.04468" lon="3.32041">
        <ele>74</ele>
        <time>2014-04-14T06:31:12Z</time>
      </trkpt>
      <trkpt lat="48.04464" lon="3.32044">
        <ele>74</ele>
        <time>2014-04-14T06:31:16Z</time>
      </trkpt>
      <trkpt lat="48.04462" lon="3.32049">
        <ele>74</ele>
        <time>2014-04-14T06:31:21Z</time>
      </trkpt>
      <trkpt lat="48.04457" lon="3.32055">
        <ele>74</ele>
        <time>2014-04-14T06:31:26Z</time>
      </trkpt>
      <trkpt lat="48.04454" lon="3.32059">
        <ele>74</ele>
        <time>2014-04-14T06:31:30Z</time>
      </trkpt>
      <trkpt lat="48.0445" lon="3.32065">
        <ele>74</ele>
        <time>2014-04-14T06:31:34Z</time>
      </trkpt>
      <trkpt lat="48.04447" lon="3.32071">
        <ele>74</ele>
        <time>2014-04-14T06:31:38Z</time>
      </trkpt>
      <trkpt lat="48.04443" lon="3.32076">
        <ele>74</ele>
        <time>2014-04-14T06:31:43Z</time>
      </trkpt>
      <trkpt lat="48.04439" lon="3.3208">
        <ele>74</ele>
        <time>2014-04-14T06:31:47Z</time>
      </trkpt>
      <trkpt lat="48.04434" lon="3.32084">
        <ele>74</ele>
        <time>2014-04-14T06:31:52Z</time>
      </trkpt>
      <trkpt lat="48.04429" lon="3.32087">
        <ele>74</ele>
        <time>2014-04-14T06:31:56Z</time>
      </trkpt>
      <trkpt lat="48.04426" lon="3.32091">
        <ele>74</ele>
        <time>2014-04-14T06:32:00Z</time>
      </trkpt>
      <trkpt lat="48.04421" lon="3.32095">
        <ele>74</ele>
        <time>2014-04-14T06:32:04Z</time>
      </trkpt>
      <trkpt lat="48.04416" lon="3.32098">
        <ele>73</ele>
        <time>2014-04-14T06:32:08Z</time>
      </trkpt>
      <trkpt lat="48.04412" lon="3.32102">
        <ele>73</ele>
        <time>2014-04-14T06:32:12Z</time>
      </trkpt>
      <trkpt lat="48.04407" lon="3.32105">
        <ele>73</ele>
        <time>2014-04-14T06:32:15Z</time>
      </trkpt>
      <trkpt lat="48.04402" lon="3.32106">
        <ele>73</ele>
        <time>2014-04-14T06:32:19Z</time>
      </trkpt>
      <trkpt lat="48.04396" lon="3.32106">
        <ele>73</ele>
        <time>2014-04-14T06:32:23Z</time>
      </trkpt>
      <trkpt lat="48.04391" lon="3.32106">
        <ele>73</ele>
        <time>2014-04-14T06:32:27Z</time>
      </trkpt>
      <trkpt lat="48.04386" lon="3.32109">
        <ele>73</ele>
        <time>2014-04-14T06:32:31Z</time>
      </trkpt>
      <trkpt lat="48.04381" lon="3.32111">
        <ele>73</ele>
        <time>2014-04-14T06:32:35Z</time>
      </trkpt>
      <trkpt lat="48.04375" lon="3.32113">
        <ele>73</ele>
        <time>2014-04-14T06:32:39Z</time>
      </trkpt>
      <trkpt lat="48.0437" lon="3.32114">
        <ele>73</ele>
        <time>2014-04-14T06:32:45Z</time>
      </trkpt>
      <trkpt lat="48.04365" lon="3.32115">
        <ele>73</ele>
        <time>2014-04-14T06:32:49Z</time>
      </trkpt>
      <trkpt lat="48.04361" lon="3.32115">
        <ele>73</ele>
        <time>2014-04-14T06:32:53Z</time>
      </trkpt>
      <trkpt lat="48.04356" lon="3.32113">
        <ele>72</ele>
        <time>2014-04-14T06:32:57Z</time>
      </trkpt>
      <trkpt lat="48.04351" lon="3.32113">
        <ele>72</ele>
        <time>2014-04-14T06:33:02Z</time>
      </trkpt>
      <trkpt lat="48.04346" lon="3.32111">
        <ele>72</ele>
        <time>2014-04-14T06:33:06Z</time>
      </trkpt>
      <trkpt lat="48.0434" lon="3.32108">
        <ele>72</ele>
        <time>2014-04-14T06:33:11Z</time>
      </trkpt>
      <trkpt lat="48.04335" lon="3.32105">
        <ele>72</ele>
        <time>2014-04-14T06:33:15Z</time>
      </trkpt>
      <trkpt lat="48.04329" lon="3.32102">
        <ele>73</ele>
        <time>2014-04-14T06:33:19Z</time>
      </trkpt>
      <trkpt lat="48.04325" lon="3.32099">
        <ele>73</ele>
        <time>2014-04-14T06:33:22Z</time>
      </trkpt>
      <trkpt lat="48.04321" lon="3.32096">
        <ele>73</ele>
        <time>2014-04-14T06:33:25Z</time>
      </trkpt>
      <trkpt lat="48.04316" lon="3.32092">
        <ele>73</ele>
        <time>2014-04-14T06:33:28Z</time>
      </trkpt>
      <trkpt lat="48.04312" lon="3.32088">
        <ele>73</ele>
        <time>2014-04-14T06:33:33Z</time>
      </trkpt>
      <trkpt lat="48.04307" lon="3.32086">
        <ele>73</ele>
        <time>2014-04-14T06:33:38Z</time>
      </trkpt>
      <trkpt lat="48.04302" lon="3.32085">
        <ele>73</ele>
        <time>2014-04-14T06:33:42Z</time>
      </trkpt>
      <trkpt lat="48.04297" lon="3.32082">
        <ele>74</ele>
        <time>2014-04-14T06:33:46Z</time>
      </trkpt>
      <trkpt lat="48.04292" lon="3.3208">
        <ele>74</ele>
        <time>2014-04-14T06:33:51Z</time>
      </trkpt>
      <trkpt lat="48.04286" lon="3.32079">
        <ele>74</ele>
        <time>2014-04-14T06:33:54Z</time>
      </trkpt>
      <trkpt lat="48.04281" lon="3.32077">
        <ele>74</ele>
        <time>2014-04-14T06:33:57Z</time>
      </trkpt>
      <trkpt lat="48.04276" lon="3.32076">
        <ele>74</ele>
        <time>2014-04-14T06:34:00Z</time>
      </trkpt>
      <trkpt lat="48.04271" lon="3.32075">
        <ele>74</ele>
        <time>2014-04-14T06:34:04Z</time>
      </trkpt>
      <trkpt lat="48.04267" lon="3.32071">
        <ele>74</ele>
        <time>2014-04-14T06:34:08Z</time>
      </trkpt>
      <trkpt lat="48.04263" lon="3.32067">
        <ele>74</ele>
        <time>2014-04-14T06:34:12Z</time>
      </trkpt>
      <trkpt lat="48.04258" lon="3.32064">
        <ele>74</ele>
        <time>2014-04-14T06:34:17Z</time>
      </trkpt>
      <trkpt lat="48.04254" lon="3.32061">
        <ele>74</ele>
        <time>2014-04-14T06:34:22Z</time>
      </trkpt>
      <trkpt lat="48.04248" lon="3.3206">
        <ele>75</ele>
        <time>2014-04-14T06:34:26Z</time>
      </trkpt>
      <trkpt lat="48.04244" lon="3.32057">
        <ele>75</ele>
        <time>2014-04-14T06:34:31Z</time>
      </trkpt>
      <trkpt lat="48.04241" lon="3.32052">
        <ele>75</ele>
        <time>2014-04-14T06:34:36Z</time>
      </trkpt>
      <trkpt lat="48.04237" lon="3.32046">
        <ele>75</ele>
        <time>2014-04-14T06:34:41Z</time>
      </trkpt>
      <trkpt lat="48.04232" lon="3.32043">
        <ele>75</ele>
        <time>2014-04-14T06:34:45Z</time>
      </trkpt>
      <trkpt lat="48.04227" lon="3.32041">
        <ele>75</ele>
        <time>2014-04-14T06:34:48Z</time>
      </trkpt>
      <trkpt lat="48.04222" lon="3.32038">
        <ele>75</ele>
        <time>2014-04-14T06:34:52Z</time>
      </trkpt>
      <trkpt lat="48.04218" lon="3.32033">
        <ele>75</ele>
        <time>2014-04-14T06:34:56Z</time>
      </trkpt>
      <trkpt lat="48.04213" lon="3.32032">
        <ele>75</ele>
        <time>2014-04-14T06:35:00Z</time>
      </trkpt>
      <trkpt lat="48.04208" lon="3.32029">
        <ele>75</ele>
        <time>2014-04-14T06:35:04Z</time>
      </trkpt>
      <trkpt lat="48.04204" lon="3.32024">
        <ele>75</ele>
        <time>2014-04-14T06:35:09Z</time>
      </trkpt>
      <trkpt lat="48.042" lon="3.32021">
        <ele>75</ele>
        <time>2014-04-14T06:35:15Z</time>
      </trkpt>
      <trkpt lat="48.04195" lon="3.32019">
        <ele>75</ele>
        <time>2014-04-14T06:35:19Z</time>
      </trkpt>
      <trkpt lat="48.04191" lon="3.32017">
        <ele>75</ele>
        <time>2014-04-14T06:35:24Z</time>
      </trkpt>
      <trkpt lat="48.04187" lon="3.32012">
        <ele>75</ele>
        <time>2014-04-14T06:35:30Z</time>
      </trkpt>
      <trkpt lat="48.04185" lon="3.32006">
        <ele>75</ele>
        <time>2014-04-14T06:35:38Z</time>
      </trkpt>
      <trkpt lat="48.04181" lon="3.32005">
        <ele>75</ele>
        <time>2014-04-14T06:35:41Z</time>
      </trkpt>
      <trkpt lat="48.04176" lon="3.32005">
        <ele>75</ele>
        <time>2014-04-14T06:35:44Z</time>
      </trkpt>
      <trkpt lat="48.0417" lon="3.32004">
        <ele>75</ele>
        <time>2014-04-14T06:35:47Z</time>
      </trkpt>
      <trkpt lat="48.04165" lon="3.32">
        <ele>75</ele>
        <time>2014-04-14T06:35:50Z</time>
      </trkpt>
      <trkpt lat="48.04161" lon="3.31999">
        <ele>75</ele>
        <time>2014-04-14T06:35:53Z</time>
      </trkpt>
      <trkpt lat="48.04157" lon="3.31997">
        <ele>75</ele>
        <time>2014-04-14T06:35:56Z</time>
      </trkpt>
      <trkpt lat="48.04152" lon="3.31994">
        <ele>74</ele>
        <time>2014-04-14T06:36:01Z</time>
      </trkpt>
      <trkpt lat="48.04148" lon="3.31991">
        <ele>74</ele>
        <time>2014-04-14T06:36:06Z</time>
      </trkpt>
      <trkpt lat="48.04143" lon="3.31988">
        <ele>74</ele>
        <time>2014-04-14T06:36:13Z</time>
      </trkpt>
      <trkpt lat="48.04138" lon="3.31986">
        <ele>74</ele>
        <time>2014-04-14T06:36:17Z</time>
      </trkpt>
      <trkpt lat="48.04132" lon="3.31984">
        <ele>74</ele>
        <time>2014-04-14T06:36:21Z</time>
      </trkpt>
      <trkpt lat="48.04127" lon="3.31983">
        <ele>74</ele>
        <time>2014-04-14T06:36:25Z</time>
      </trkpt>
      <trkpt lat="48.04122" lon="3.31983">
        <ele>74</ele>
        <time>2014-04-14T06:36:29Z</time>
      </trkpt>
      <trkpt lat="48.04117" lon="3.3198">
        <ele>74</ele>
        <time>2014-04-14T06:36:33Z</time>
      </trkpt>
      <trkpt lat="48.04113" lon="3.31977">
        <ele>74</ele>
        <time>2014-04-14T06:36:35Z</time>
      </trkpt>
      <trkpt lat="48.04109" lon="3.31972">
        <ele>74</ele>
        <time>2014-04-14T06:36:38Z</time>
      </trkpt>
      <trkpt lat="48.04104" lon="3.31967">
        <ele>74</ele>
        <time>2014-04-14T06:36:41Z</time>
      </trkpt>
      <trkpt lat="48.041" lon="3.31967">
        <ele>74</ele>
        <time>2014-04-14T06:36:46Z</time>
      </trkpt>
      <trkpt lat="48.04095" lon="3.31966">
        <ele>74</ele>
        <time>2014-04-14T06:36:50Z</time>
      </trkpt>
      <trkpt lat="48.0409" lon="3.31966">
        <ele>74</ele>
        <time>2014-04-14T06:36:54Z</time>
      </trkpt>
      <trkpt lat="48.04085" lon="3.31963">
        <ele>74</ele>
        <time>2014-04-14T06:36:59Z</time>
      </trkpt>
      <trkpt lat="48.04081" lon="3.3196">
        <ele>74</ele>
        <time>2014-04-14T06:37:05Z</time>
      </trkpt>
      <trkpt lat="48.04076" lon="3.31958">
        <ele>74</ele>
        <time>2014-04-14T06:37:10Z</time>
      </trkpt>
      <trkpt lat="48.0407" lon="3.31957">
        <ele>74</ele>
        <time>2014-04-14T06:37:14Z</time>
      </trkpt>
      <trkpt lat="48.04065" lon="3.31956">
        <ele>74</ele>
        <time>2014-04-14T06:37:18Z</time>
      </trkpt>
      <trkpt lat="48.04059" lon="3.31955">
        <ele>73</ele>
        <time>2014-04-14T06:37:23Z</time>
      </trkpt>
      <trkpt lat="48.04054" lon="3.31954">
        <ele>73</ele>
        <time>2014-04-14T06:37:28Z</time>
      </trkpt>
      <trkpt lat="48.04049" lon="3.31953">
        <ele>73</ele>
        <time>2014-04-14T06:37:34Z</time>
      </trkpt>
      <trkpt lat="48.04045" lon="3.31951">
        <ele>73</ele>
        <time>2014-04-14T06:37:38Z</time>
      </trkpt>
      <trkpt lat="48.0404" lon="3.31949">
        <ele>73</ele>
        <time>2014-04-14T06:37:43Z</time>
      </trkpt>
      <trkpt lat="48.04035" lon="3.31948">
        <ele>73</ele>
        <time>2014-04-14T06:37:47Z</time>
      </trkpt>
      <trkpt lat="48.04031" lon="3.31947">
        <ele>73</ele>
        <time>2014-04-14T06:37:51Z</time>
      </trkpt>
      <trkpt lat="48.04026" lon="3.31944">
        <ele>73</ele>
        <time>2014-04-14T06:37:56Z</time>
      </trkpt>
      <trkpt lat="48.04021" lon="3.31942">
        <ele>73</ele>
        <time>2014-04-14T06:38:01Z</time>
      </trkpt>
      <trkpt lat="48.04015" lon="3.31942">
        <ele>73</ele>
        <time>2014-04-14T06:38:05Z</time>
      </trkpt>
      <trkpt lat="48.04011" lon="3.31941">
        <ele>73</ele>
        <time>2014-04-14T06:38:09Z</time>
      </trkpt>
      <trkpt lat="48.04006" lon="3.31941">
        <ele>73</ele>
        <time>2014-04-14T06:38:13Z</time>
      </trkpt>
      <trkpt lat="48.04" lon="3.31941">
        <ele>73</ele>
        <time>2014-04-14T06:38:17Z</time>
      </trkpt>
      <trkpt lat="48.03995" lon="3.31942">
        <ele>72</ele>
        <time>2014-04-14T06:38:21Z</time>
      </trkpt>
      <trkpt lat="48.03991" lon="3.31941">
        <ele>72</ele>
        <time>2014-04-14T06:38:25Z</time>
      </trkpt>
      <trkpt lat="48.03986" lon="3.31939">
        <ele>72</ele>
        <time>2014-04-14T06:38:29Z</time>
      </trkpt>
      <trkpt lat="48.03981" lon="3.31939">
        <ele>72</ele>
        <time>2014-04-14T06:38:32Z</time>
      </trkpt>
      <trkpt lat="48.03976" lon="3.31939">
        <ele>72</ele>
        <time>2014-04-14T06:38:36Z</time>
      </trkpt>
      <trkpt lat="48.0397" lon="3.31938">
        <ele>72</ele>
        <time>2014-04-14T06:38:40Z</time>
      </trkpt>
      <trkpt lat="48.03965" lon="3.31939">
        <ele>72</ele>
        <time>2014-04-14T06:38:45Z</time>
      </trkpt>
      <trkpt lat="48.0396" lon="3.31938">
        <ele>72</ele>
        <time>2014-04-14T06:38:49Z</time>
      </trkpt>
      <trkpt lat="48.03954" lon="3.31938">
        <ele>71</ele>
        <time>2014-04-14T06:38:53Z</time>
      </trkpt>
      <trkpt lat="48.03949" lon="3.31938">
        <ele>71</ele>
        <time>2014-04-14T06:38:58Z</time>
      </trkpt>
      <trkpt lat="48.03945" lon="3.31936">
        <ele>71</ele>
        <time>2014-04-14T06:39:04Z</time>
      </trkpt>
      <trkpt lat="48.0394" lon="3.31934">
        <ele>71</ele>
        <time>2014-04-14T06:39:08Z</time>
      </trkpt>
      <trkpt lat="48.03935" lon="3.31934">
        <ele>71</ele>
        <time>2014-04-14T06:39:13Z</time>
      </trkpt>
      <trkpt lat="48.0393" lon="3.31933">
        <ele>71</ele>
        <time>2014-04-14T06:39:17Z</time>
      </trkpt>
      <trkpt lat="48.03925" lon="3.31934">
        <ele>71</ele>
        <time>2014-04-14T06:39:20Z</time>
      </trkpt>
      <trkpt lat="48.0392" lon="3.31936">
        <ele>71</ele>
        <time>2014-04-14T06:39:23Z</time>
      </trkpt>
      <trkpt lat="48.03915" lon="3.31936">
        <ele>71</ele>
        <time>2014-04-14T06:39:26Z</time>
      </trkpt>
      <trkpt lat="48.0391" lon="3.31935">
        <ele>71</ele>
        <time>2014-04-14T06:39:31Z</time>
      </trkpt>
      <trkpt lat="48.03905" lon="3.31934">
        <ele>71</ele>
        <time>2014-04-14T06:39:36Z</time>
      </trkpt>
      <trkpt lat="48.039" lon="3.31933">
        <ele>71</ele>
        <time>2014-04-14T06:39:40Z</time>
      </trkpt>
      <trkpt lat="48.03894" lon="3.31933">
        <ele>71</ele>
        <time>2014-04-14T06:39:44Z</time>
      </trkpt>
      <trkpt lat="48.0389" lon="3.31934">
        <ele>71</ele>
        <time>2014-04-14T06:39:47Z</time>
      </trkpt>
      <trkpt lat="48.03885" lon="3.31932">
        <ele>71</ele>
        <time>2014-04-14T06:39:54Z</time>
      </trkpt>
      <trkpt lat="48.0388" lon="3.31927">
        <ele>71</ele>
        <time>2014-04-14T06:39:58Z</time>
      </trkpt>
      <trkpt lat="48.03875" lon="3.31927">
        <ele>71</ele>
        <time>2014-04-14T06:40:01Z</time>
      </trkpt>
      <trkpt lat="48.0387" lon="3.31928">
        <ele>71</ele>
        <time>2014-04-14T06:40:05Z</time>
      </trkpt>
      <trkpt lat="48.03864" lon="3.31929">
        <ele>71</ele>
        <time>2014-04-14T06:40:09Z</time>
      </trkpt>
      <trkpt lat="48.03859" lon="3.31929">
        <ele>71</ele>
        <time>2014-04-14T06:40:14Z</time>
      </trkpt>
      <trkpt lat="48.03854" lon="3.31929">
        <ele>71</ele>
        <time>2014-04-14T06:40:19Z</time>
      </trkpt>
      <trkpt lat="48.03848" lon="3.31931">
        <ele>71</ele>
        <time>2014-04-14T06:40:23Z</time>
      </trkpt>
      <trkpt lat="48.03843" lon="3.31931">
        <ele>71</ele>
        <time>2014-04-14T06:40:28Z</time>
      </trkpt>
      <trkpt lat="48.03838" lon="3.3193">
        <ele>71</ele>
        <time>2014-04-14T06:40:33Z</time>
      </trkpt>
      <trkpt lat="48.03833" lon="3.31932">
        <ele>71</ele>
        <time>2014-04-14T06:40:40Z</time>
      </trkpt>
      <trkpt lat="48.03827" lon="3.31933">
        <ele>71</ele>
        <time>2014-04-14T06:40:45Z</time>
      </trkpt>
      <trkpt lat="48.03822" lon="3.31933">
        <ele>71</ele>
        <time>2014-04-14T06:40:49Z</time>
      </trkpt>
      <trkpt lat="48.03816" lon="3.31934">
        <ele>71</ele>
        <time>2014-04-14T06:40:53Z</time>
      </trkpt>
      <trkpt lat="48.03811" lon="3.31934">
        <ele>71</ele>
        <time>2014-04-14T06:40:58Z</time>
      </trkpt>
      <trkpt lat="48.03806" lon="3.31934">
        <ele>71</ele>
        <time>2014-04-14T06:41:01Z</time>
      </trkpt>
      <trkpt lat="48.03801" lon="3.31935">
        <ele>71</ele>
        <time>2014-04-14T06:41:04Z</time>
      </trkpt>
      <trkpt lat="48.03797" lon="3.31929">
        <ele>71</ele>
        <time>2014-04-14T06:41:10Z</time>
      </trkpt>
      <trkpt lat="48.03792" lon="3.31928">
        <ele>71</ele>
        <time>2014-04-14T06:41:16Z</time>
      </trkpt>
      <trkpt lat="48.03786" lon="3.31927">
        <ele>71</ele>
        <time>2014-04-14T06:41:21Z</time>
      </trkpt>
      <trkpt lat="48.03781" lon="3.31927">
        <ele>71</ele>
        <time>2014-04-14T06:41:25Z</time>
      </trkpt>
      <trkpt lat="48.03776" lon="3.31926">
        <ele>71</ele>
        <time>2014-04-14T06:41:29Z</time>
      </trkpt>
      <trkpt lat="48.03771" lon="3.31927">
        <ele>72</ele>
        <time>2014-04-14T06:41:33Z</time>
      </trkpt>
      <trkpt lat="48.03766" lon="3.31928">
        <ele>72</ele>
        <time>2014-04-14T06:41:38Z</time>
      </trkpt>
      <trkpt lat="48.03761" lon="3.31928">
        <ele>72</ele>
        <time>2014-04-14T06:41:44Z</time>
      </trkpt>
      <trkpt lat="48.03757" lon="3.31932">
        <ele>72</ele>
        <time>2014-04-14T06:41:48Z</time>
      </trkpt>
      <trkpt lat="48.03752" lon="3.31933">
        <ele>72</ele>
        <time>2014-04-14T06:41:52Z</time>
      </trkpt>
      <trkpt lat="48.03746" lon="3.31932">
        <ele>72</ele>
        <time>2014-04-14T06:41:57Z</time>
      </trkpt>
      <trkpt lat="48.0374" lon="3.3193">
        <ele>72</ele>
        <time>2014-04-14T06:42:01Z</time>
      </trkpt>
      <trkpt lat="48.03734" lon="3.31929">
        <ele>72</ele>
        <time>2014-04-14T06:42:05Z</time>
      </trkpt>
      <trkpt lat="48.03729" lon="3.3193">
        <ele>72</ele>
        <time>2014-04-14T06:42:09Z</time>
      </trkpt>
      <trkpt lat="48.03724" lon="3.31928">
        <ele>72</ele>
        <time>2014-04-14T06:42:16Z</time>
      </trkpt>
      <trkpt lat="48.03719" lon="3.31927">
        <ele>72</ele>
        <time>2014-04-14T06:42:20Z</time>
      </trkpt>
      <trkpt lat="48.03713" lon="3.31929">
        <ele>71</ele>
        <time>2014-04-14T06:42:24Z</time>
      </trkpt>
      <trkpt lat="48.03708" lon="3.31931">
        <ele>71</ele>
        <time>2014-04-14T06:42:28Z</time>
      </trkpt>
      <trkpt lat="48.03702" lon="3.31932">
        <ele>71</ele>
        <time>2014-04-14T06:42:32Z</time>
      </trkpt>
      <trkpt lat="48.03697" lon="3.31932">
        <ele>71</ele>
        <time>2014-04-14T06:42:36Z</time>
      </trkpt>
      <trkpt lat="48.03693" lon="3.31934">
        <ele>71</ele>
        <time>2014-04-14T06:42:39Z</time>
      </trkpt>
      <trkpt lat="48.03688" lon="3.31935">
        <ele>71</ele>
        <time>2014-04-14T06:42:42Z</time>
      </trkpt>
      <trkpt lat="48.03683" lon="3.31935">
        <ele>72</ele>
        <time>2014-04-14T06:42:47Z</time>
      </trkpt>
      <trkpt lat="48.03677" lon="3.31936">
        <ele>72</ele>
        <time>2014-04-14T06:42:51Z</time>
      </trkpt>
      <trkpt lat="48.03673" lon="3.31937">
        <ele>72</ele>
        <time>2014-04-14T06:42:55Z</time>
      </trkpt>
      <trkpt lat="48.03668" lon="3.31938">
        <ele>72</ele>
        <time>2014-04-14T06:43:01Z</time>
      </trkpt>
      <trkpt lat="48.03663" lon="3.31937">
        <ele>72</ele>
        <time>2014-04-14T06:43:07Z</time>
      </trkpt>
      <trkpt lat="48.03658" lon="3.31938">
        <ele>72</ele>
        <time>2014-04-14T06:43:10Z</time>
      </trkpt>
      <trkpt lat="48.03653" lon="3.31938">
        <ele>72</ele>
        <time>2014-04-14T06:43:13Z</time>
      </trkpt>
      <trkpt lat="48.03648" lon="3.31938">
        <ele>72</ele>
        <time>2014-04-14T06:43:17Z</time>
      </trkpt>
      <trkpt lat="48.03643" lon="3.31939">
        <ele>72</ele>
        <time>2014-04-14T06:43:21Z</time>
      </trkpt>
      <trkpt lat="48.03638" lon="3.3194">
        <ele>72</ele>
        <time>2014-04-14T06:43:25Z</time>
      </trkpt>
      <trkpt lat="48.03633" lon="3.31942">
        <ele>72</ele>
        <time>2014-04-14T06:43:31Z</time>
      </trkpt>
      <trkpt lat="48.03627" lon="3.31944">
        <ele>72</ele>
        <time>2014-04-14T06:43:35Z</time>
      </trkpt>
      <trkpt lat="48.03623" lon="3.31942">
        <ele>72</ele>
        <time>2014-04-14T06:43:39Z</time>
      </trkpt>
      <trkpt lat="48.03618" lon="3.31942">
        <ele>72</ele>
        <time>2014-04-14T06:43:42Z</time>
      </trkpt>
      <trkpt lat="48.03613" lon="3.3194">
        <ele>72</ele>
        <time>2014-04-14T06:43:48Z</time>
      </trkpt>
      <trkpt lat="48.03607" lon="3.31941">
        <ele>72</ele>
        <time>2014-04-14T06:43:52Z</time>
      </trkpt>
      <trkpt lat="48.03603" lon="3.31942">
        <ele>73</ele>
        <time>2014-04-14T06:43:55Z</time>
      </trkpt>
      <trkpt lat="48.03597" lon="3.31944">
        <ele>73</ele>
        <time>2014-04-14T06:43:59Z</time>
      </trkpt>
      <trkpt lat="48.03591" lon="3.31944">
        <ele>73</ele>
        <time>2014-04-14T06:44:03Z</time>
      </trkpt>
      <trkpt lat="48.03586" lon="3.31945">
        <ele>73</ele>
        <time>2014-04-14T06:44:07Z</time>
      </trkpt>
      <trkpt lat="48.0358" lon="3.31945">
        <ele>73</ele>
        <time>2014-04-14T06:44:11Z</time>
      </trkpt>
      <trkpt lat="48.03576" lon="3.31942">
        <ele>73</ele>
        <time>2014-04-14T06:44:17Z</time>
      </trkpt>
      <trkpt lat="48.03571" lon="3.3194">
        <ele>73</ele>
        <time>2014-04-14T06:44:22Z</time>
      </trkpt>
      <trkpt lat="48.03566" lon="3.31942">
        <ele>73</ele>
        <time>2014-04-14T06:44:25Z</time>
      </trkpt>
      <trkpt lat="48.03561" lon="3.31946">
        <ele>73</ele>
        <time>2014-04-14T06:44:29Z</time>
      </trkpt>
      <trkpt lat="48.03556" lon="3.31949">
        <ele>73</ele>
        <time>2014-04-14T06:44:33Z</time>
      </trkpt>
      <trkpt lat="48.03551" lon="3.31951">
        <ele>73</ele>
        <time>2014-04-14T06:44:37Z</time>
      </trkpt>
      <trkpt lat="48.03547" lon="3.31952">
        <ele>73</ele>
        <time>2014-04-14T06:44:42Z</time>
      </trkpt>
      <trkpt lat="48.03541" lon="3.31956">
        <ele>73</ele>
        <time>2014-04-14T06:44:47Z</time>
      </trkpt>
      <trkpt lat="48.03537" lon="3.31956">
        <ele>73</ele>
        <time>2014-04-14T06:44:50Z</time>
      </trkpt>
      <trkpt lat="48.03532" lon="3.31955">
        <ele>73</ele>
        <time>2014-04-14T06:44:53Z</time>
      </trkpt>
      <trkpt lat="48.03527" lon="3.31953">
        <ele>73</ele>
        <time>2014-04-14T06:44:57Z</time>
      </trkpt>
      <trkpt lat="48.03521" lon="3.31953">
        <ele>73</ele>
        <time>2014-04-14T06:45:01Z</time>
      </trkpt>
      <trkpt lat="48.03516" lon="3.31955">
        <ele>73</ele>
        <time>2014-04-14T06:45:05Z</time>
      </trkpt>
      <trkpt lat="48.03511" lon="3.31954">
        <ele>73</ele>
        <time>2014-04-14T06:45:10Z</time>
      </trkpt>
      <trkpt lat="48.03506" lon="3.31954">
        <ele>73</ele>
        <time>2014-04-14T06:45:16Z</time>
      </trkpt>
      <trkpt lat="48.03501" lon="3.31955">
        <ele>73</ele>
        <time>2014-04-14T06:45:20Z</time>
      </trkpt>
      <trkpt lat="48.03495" lon="3.31956">
        <ele>73</ele>
        <time>2014-04-14T06:45:31Z</time>
      </trkpt>
      <trkpt lat="48.03489" lon="3.31955">
        <ele>73</ele>
        <time>2014-04-14T06:45:34Z</time>
      </trkpt>
      <trkpt lat="48.03484" lon="3.31953">
        <ele>73</ele>
        <time>2014-04-14T06:45:36Z</time>
      </trkpt>
      <trkpt lat="48.03478" lon="3.31952">
        <ele>73</ele>
        <time>2014-04-14T06:45:39Z</time>
      </trkpt>
      <trkpt lat="48.03473" lon="3.31952">
        <ele>73</ele>
        <time>2014-04-14T06:45:42Z</time>
      </trkpt>
      <trkpt lat="48.03468" lon="3.31953">
        <ele>73</ele>
        <time>2014-04-14T06:45:46Z</time>
      </trkpt>
      <trkpt lat="48.03464" lon="3.31954">
        <ele>73</ele>
        <time>2014-04-14T06:45:50Z</time>
      </trkpt>
      <trkpt lat="48.03459" lon="3.31954">
        <ele>73</ele>
        <time>2014-04-14T06:45:54Z</time>
      </trkpt>
      <trkpt lat="48.03454" lon="3.31954">
        <ele>72</ele>
        <time>2014-04-14T06:45:59Z</time>
      </trkpt>
      <trkpt lat="48.03449" lon="3.31954">
        <ele>72</ele>
        <time>2014-04-14T06:46:04Z</time>
      </trkpt>
      <trkpt lat="48.03444" lon="3.31953">
        <ele>72</ele>
        <time>2014-04-14T06:46:08Z</time>
      </trkpt>
      <trkpt lat="48.03439" lon="3.31954">
        <ele>72</ele>
        <time>2014-04-14T06:46:12Z</time>
      </trkpt>
      <trkpt lat="48.03434" lon="3.31956">
        <ele>72</ele>
        <time>2014-04-14T06:46:17Z</time>
      </trkpt>
      <trkpt lat="48.03429" lon="3.31957">
        <ele>72</ele>
        <time>2014-04-14T06:46:22Z</time>
      </trkpt>
      <trkpt lat="48.03424" lon="3.3196">
        <ele>72</ele>
        <time>2014-04-14T06:46:29Z</time>
      </trkpt>
      <trkpt lat="48.03419" lon="3.31958">
        <ele>72</ele>
        <time>2014-04-14T06:46:33Z</time>
      </trkpt>
      <trkpt lat="48.03413" lon="3.31957">
        <ele>72</ele>
        <time>2014-04-14T06:46:37Z</time>
      </trkpt>
      <trkpt lat="48.03407" lon="3.31956">
        <ele>72</ele>
        <time>2014-04-14T06:46:40Z</time>
      </trkpt>
      <trkpt lat="48.03402" lon="3.31954">
        <ele>72</ele>
        <time>2014-04-14T06:46:43Z</time>
      </trkpt>
      <trkpt lat="48.03398" lon="3.31952">
        <ele>72</ele>
        <time>2014-04-14T06:46:46Z</time>
      </trkpt>
      <trkpt lat="48.03393" lon="3.31951">
        <ele>72</ele>
        <time>2014-04-14T06:46:50Z</time>
      </trkpt>
      <trkpt lat="48.03389" lon="3.3195">
        <ele>72</ele>
        <time>2014-04-14T06:46:54Z</time>
      </trkpt>
      <trkpt lat="48.03384" lon="3.31951">
        <ele>72</ele>
        <time>2014-04-14T06:46:59Z</time>
      </trkpt>
      <trkpt lat="48.0338" lon="3.3195">
        <ele>72</ele>
        <time>2014-04-14T06:47:02Z</time>
      </trkpt>
      <trkpt lat="48.03374" lon="3.31949">
        <ele>72</ele>
        <time>2014-04-14T06:47:06Z</time>
      </trkpt>
      <trkpt lat="48.03369" lon="3.31948">
        <ele>72</ele>
        <time>2014-04-14T06:47:10Z</time>
      </trkpt>
      <trkpt lat="48.03365" lon="3.31947">
        <ele>72</ele>
        <time>2014-04-14T06:47:14Z</time>
      </trkpt>
      <trkpt lat="48.0336" lon="3.31947">
        <ele>72</ele>
        <time>2014-04-14T06:47:18Z</time>
      </trkpt>
      <trkpt lat="48.03355" lon="3.31948">
        <ele>72</ele>
        <time>2014-04-14T06:47:23Z</time>
      </trkpt>
      <trkpt lat="48.03352" lon="3.31941">
        <ele>72</ele>
        <time>2014-04-14T06:47:27Z</time>
      </trkpt>
      <trkpt lat="48.03349" lon="3.31935">
        <ele>72</ele>
        <time>2014-04-14T06:47:30Z</time>
      </trkpt>
      <trkpt lat="48.03345" lon="3.31935">
        <ele>72</ele>
        <time>2014-04-14T06:47:34Z</time>
      </trkpt>
      <trkpt lat="48.03339" lon="3.31937">
        <ele>72</ele>
        <time>2014-04-14T06:47:38Z</time>
      </trkpt>
      <trkpt lat="48.03334" lon="3.31938">
        <ele>72</ele>
        <time>2014-04-14T06:47:41Z</time>
      </trkpt>
      <trkpt lat="48.03329" lon="3.31937">
        <ele>73</ele>
        <time>2014-04-14T06:47:45Z</time>
      </trkpt>
      <trkpt lat="48.03324" lon="3.31937">
        <ele>73</ele>
        <time>2014-04-14T06:47:49Z</time>
      </trkpt>
      <trkpt lat="48.03319" lon="3.31936">
        <ele>72</ele>
        <time>2014-04-14T06:47:54Z</time>
      </trkpt>
      <trkpt lat="48.03315" lon="3.31935">
        <ele>72</ele>
        <time>2014-04-14T06:47:58Z</time>
      </trkpt>
      <trkpt lat="48.0331" lon="3.31934">
        <ele>72</ele>
        <time>2014-04-14T06:48:02Z</time>
      </trkpt>
      <trkpt lat="48.03305" lon="3.31934">
        <ele>72</ele>
        <time>2014-04-14T06:48:06Z</time>
      </trkpt>
      <trkpt lat="48.03301" lon="3.31931">
        <ele>72</ele>
        <time>2014-04-14T06:48:10Z</time>
      </trkpt>
      <trkpt lat="48.03296" lon="3.31929">
        <ele>72</ele>
        <time>2014-04-14T06:48:14Z</time>
      </trkpt>
      <trkpt lat="48.03291" lon="3.31927">
        <ele>72</ele>
        <time>2014-04-14T06:48:19Z</time>
      </trkpt>
      <trkpt lat="48.03287" lon="3.31925">
        <ele>73</ele>
        <time>2014-04-14T06:48:23Z</time>
      </trkpt>
      <trkpt lat="48.03281" lon="3.31924">
        <ele>73</ele>
        <time>2014-04-14T06:48:28Z</time>
      </trkpt>
      <trkpt lat="48.03276" lon="3.31922">
        <ele>73</ele>
        <time>2014-04-14T06:48:32Z</time>
      </trkpt>
      <trkpt lat="48.03272" lon="3.31922">
        <ele>73</ele>
        <time>2014-04-14T06:48:36Z</time>
      </trkpt>
      <trkpt lat="48.03267" lon="3.3192">
        <ele>73</ele>
        <time>2014-04-14T06:48:40Z</time>
      </trkpt>
      <trkpt lat="48.03262" lon="3.31919">
        <ele>73</ele>
        <time>2014-04-14T06:48:45Z</time>
      </trkpt>
      <trkpt lat="48.03257" lon="3.3192">
        <ele>73</ele>
        <time>2014-04-14T06:48:52Z</time>
      </trkpt>
      <trkpt lat="48.03252" lon="3.31918">
        <ele>73</ele>
        <time>2014-04-14T06:48:58Z</time>
      </trkpt>
      <trkpt lat="48.03247" lon="3.31916">
        <ele>73</ele>
        <time>2014-04-14T06:49:02Z</time>
      </trkpt>
      <trkpt lat="48.03241" lon="3.31915">
        <ele>73</ele>
        <time>2014-04-14T06:49:06Z</time>
      </trkpt>
      <trkpt lat="48.03238" lon="3.3191">
        <ele>73</ele>
        <time>2014-04-14T06:49:09Z</time>
      </trkpt>
      <trkpt lat="48.03232" lon="3.3191">
        <ele>73</ele>
        <time>2014-04-14T06:49:13Z</time>
      </trkpt>
      <trkpt lat="48.03226" lon="3.3191">
        <ele>73</ele>
        <time>2014-04-14T06:49:17Z</time>
      </trkpt>
      <trkpt lat="48.03222" lon="3.31907">
        <ele>73</ele>
        <time>2014-04-14T06:49:23Z</time>
      </trkpt>
      <trkpt lat="48.03217" lon="3.31904">
        <ele>73</ele>
        <time>2014-04-14T06:49:28Z</time>
      </trkpt>
      <trkpt lat="48.03211" lon="3.31901">
        <ele>73</ele>
        <time>2014-04-14T06:49:32Z</time>
      </trkpt>
      <trkpt lat="48.03206" lon="3.319">
        <ele>73</ele>
        <time>2014-04-14T06:49:35Z</time>
      </trkpt>
      <trkpt lat="48.03201" lon="3.31897">
        <ele>73</ele>
        <time>2014-04-14T06:49:39Z</time>
      </trkpt>
      <trkpt lat="48.03196" lon="3.31895">
        <ele>73</ele>
        <time>2014-04-14T06:49:44Z</time>
      </trkpt>
      <trkpt lat="48.03191" lon="3.31893">
        <ele>73</ele>
        <time>2014-04-14T06:49:49Z</time>
      </trkpt>
      <trkpt lat="48.03187" lon="3.31889">
        <ele>73</ele>
        <time>2014-04-14T06:49:53Z</time>
      </trkpt>
      <trkpt lat="48.03182" lon="3.31885">
        <ele>73</ele>
        <time>2014-04-14T06:49:58Z</time>
      </trkpt>
      <trkpt lat="48.03178" lon="3.31881">
        <ele>73</ele>
        <time>2014-04-14T06:50:03Z</time>
      </trkpt>
      <trkpt lat="48.03174" lon="3.31878">
        <ele>73</ele>
        <time>2014-04-14T06:50:08Z</time>
      </trkpt>
      <trkpt lat="48.03169" lon="3.31876">
        <ele>73</ele>
        <time>2014-04-14T06:50:13Z</time>
      </trkpt>
      <trkpt lat="48.03165" lon="3.31876">
        <ele>73</ele>
        <time>2014-04-14T06:50:20Z</time>
      </trkpt>
      <trkpt lat="48.03159" lon="3.31875">
        <ele>73</ele>
        <time>2014-04-14T06:50:25Z</time>
      </trkpt>
      <trkpt lat="48.03154" lon="3.31874">
        <ele>73</ele>
        <time>2014-04-14T06:50:28Z</time>
      </trkpt>
      <trkpt lat="48.03149" lon="3.31869">
        <ele>73</ele>
        <time>2014-04-14T06:50:32Z</time>
      </trkpt>
      <trkpt lat="48.03145" lon="3.31865">
        <ele>73</ele>
        <time>2014-04-14T06:50:36Z</time>
      </trkpt>
      <trkpt lat="48.0314" lon="3.31863">
        <ele>73</ele>
        <time>2014-04-14T06:50:41Z</time>
      </trkpt>
      <trkpt lat="48.03135" lon="3.31861">
        <ele>73</ele>
        <time>2014-04-14T06:50:45Z</time>
      </trkpt>
      <trkpt lat="48.0313" lon="3.31857">
        <ele>73</ele>
        <time>2014-04-14T06:50:49Z</time>
      </trkpt>
      <trkpt lat="48.03126" lon="3.31854">
        <ele>73</ele>
        <time>2014-04-14T06:50:53Z</time>
      </trkpt>
      <trkpt lat="48.03121" lon="3.31851">
        <ele>73</ele>
        <time>2014-04-14T06:50:58Z</time>
      </trkpt>
      <trkpt lat="48.03117" lon="3.31846">
        <ele>73</ele>
        <time>2014-04-14T06:51:02Z</time>
      </trkpt>
      <trkpt lat="48.03112" lon="3.31842">
        <ele>73</ele>
        <time>2014-04-14T06:51:07Z</time>
      </trkpt>
      <trkpt lat="48.03108" lon="3.31841">
        <ele>73</ele>
        <time>2014-04-14T06:51:11Z</time>
      </trkpt>
      <trkpt lat="48.03102" lon="3.31839">
        <ele>73</ele>
        <time>2014-04-14T06:51:16Z</time>
      </trkpt>
      <trkpt lat="48.03097" lon="3.31839">
        <ele>73</ele>
        <time>2014-04-14T06:51:20Z</time>
      </trkpt>
      <trkpt lat="48.03092" lon="3.31837">
        <ele>74</ele>
        <time>2014-04-14T06:51:24Z</time>
      </trkpt>
      <trkpt lat="48.03086" lon="3.31834">
        <ele>74</ele>
        <time>2014-04-14T06:51:29Z</time>
      </trkpt>
      <trkpt lat="48.03081" lon="3.31831">
        <ele>74</ele>
        <time>2014-04-14T06:51:34Z</time>
      </trkpt>
      <trkpt lat="48.03077" lon="3.3183">
        <ele>74</ele>
        <time>2014-04-14T06:51:38Z</time>
      </trkpt>
      <trkpt lat="48.03072" lon="3.31828">
        <ele>74</ele>
        <time>2014-04-14T06:51:43Z</time>
      </trkpt>
      <trkpt lat="48.03067" lon="3.31827">
        <ele>74</ele>
        <time>2014-04-14T06:51:50Z</time>
      </trkpt>
      <trkpt lat="48.03062" lon="3.31826">
        <ele>73</ele>
        <time>2014-04-14T06:51:54Z</time>
      </trkpt>
      <trkpt lat="48.03057" lon="3.31826">
        <ele>73</ele>
        <time>2014-04-14T06:51:58Z</time>
      </trkpt>
      <trkpt lat="48.03052" lon="3.31826">
        <ele>73</ele>
        <time>2014-04-14T06:52:01Z</time>
      </trkpt>
      <trkpt lat="48.03048" lon="3.31826">
        <ele>73</ele>
        <time>2014-04-14T06:52:04Z</time>
      </trkpt>
      <trkpt lat="48.03043" lon="3.31824">
        <ele>73</ele>
        <time>2014-04-14T06:52:08Z</time>
      </trkpt>
      <trkpt lat="48.03038" lon="3.31822">
        <ele>73</ele>
        <time>2014-04-14T06:52:11Z</time>
      </trkpt>
      <trkpt lat="48.03032" lon="3.31823">
        <ele>73</ele>
        <time>2014-04-14T06:52:15Z</time>
      </trkpt>
      <trkpt lat="48.03027" lon="3.31823">
        <ele>73</ele>
        <time>2014-04-14T06:52:19Z</time>
      </trkpt>
      <trkpt lat="48.03023" lon="3.31823">
        <ele>73</ele>
        <time>2014-04-14T06:52:24Z</time>
      </trkpt>
      <trkpt lat="48.03018" lon="3.31819">
        <ele>73</ele>
        <time>2014-04-14T06:52:28Z</time>
      </trkpt>
      <trkpt lat="48.03013" lon="3.31817">
        <ele>73</ele>
        <time>2014-04-14T06:52:32Z</time>
      </trkpt>
      <trkpt lat="48.03008" lon="3.31816">
        <ele>73</ele>
        <time>2014-04-14T06:52:35Z</time>
      </trkpt>
      <trkpt lat="48.03003" lon="3.31815">
        <ele>73</ele>
        <time>2014-04-14T06:52:39Z</time>
      </trkpt>
      <trkpt lat="48.02998" lon="3.31815">
        <ele>73</ele>
        <time>2014-04-14T06:52:47Z</time>
      </trkpt>
      <trkpt lat="48.03" lon="3.31812">
        <ele>73</ele>
        <time>2014-04-14T06:54:04Z</time>
      </trkpt>
      <trkpt lat="48.03003" lon="3.3181">
        <ele>73</ele>
        <time>2014-04-14T06:56:42Z</time>
      </trkpt>
      <trkpt lat="48.03003" lon="3.31803">
        <ele>73</ele>
        <time>2014-04-14T06:56:59Z</time>
      </trkpt>
      <trkpt lat="48.03" lon="3.31799">
        <ele>73</ele>
        <time>2014-04-14T06:57:03Z</time>
      </trkpt>
      <trkpt lat="48.02995" lon="3.31795">
        <ele>73</ele>
        <time>2014-04-14T06:57:08Z</time>
      </trkpt>
      <trkpt lat="48.02991" lon="3.31791">
        <ele>73</ele>
        <time>2014-04-14T06:57:13Z</time>
      </trkpt>
      <trkpt lat="48.02987" lon="3.31788">
        <ele>73</ele>
        <time>2014-04-14T06:57:17Z</time>
      </trkpt>
      <trkpt lat="48.02982" lon="3.31783">
        <ele>73</ele>
        <time>2014-04-14T06:57:21Z</time>
      </trkpt>
      <trkpt lat="48.02977" lon="3.31783">
        <ele>73</ele>
        <time>2014-04-14T06:57:24Z</time>
      </trkpt>
      <trkpt lat="48.02973" lon="3.3178">
        <ele>73</ele>
        <time>2014-04-14T06:57:27Z</time>
      </trkpt>
      <trkpt lat="48.02969" lon="3.31774">
        <ele>73</ele>
        <time>2014-04-14T06:57:32Z</time>
      </trkpt>
      <trkpt lat="48.02965" lon="3.3177">
        <ele>73</ele>
        <time>2014-04-14T06:57:36Z</time>
      </trkpt>
      <trkpt lat="48.0296" lon="3.31766">
        <ele>73</ele>
        <time>2014-04-14T06:57:40Z</time>
      </trkpt>
      <trkpt lat="48.02954" lon="3.31762">
        <ele>74</ele>
        <time>2014-04-14T06:57:44Z</time>
      </trkpt>
      <trkpt lat="48.0295" lon="3.31757">
        <ele>74</ele>
        <time>2014-04-14T06:57:48Z</time>
      </trkpt>
      <trkpt lat="48.02945" lon="3.31753">
        <ele>74</ele>
        <time>2014-04-14T06:57:52Z</time>
      </trkpt>
      <trkpt lat="48.02941" lon="3.31749">
        <ele>74</ele>
        <time>2014-04-14T06:57:57Z</time>
      </trkpt>
      <trkpt lat="48.02937" lon="3.31745">
        <ele>74</ele>
        <time>2014-04-14T06:58:01Z</time>
      </trkpt>
      <trkpt lat="48.02933" lon="3.31741">
        <ele>74</ele>
        <time>2014-04-14T06:58:05Z</time>
      </trkpt>
      <trkpt lat="48.02929" lon="3.31737">
        <ele>74</ele>
        <time>2014-04-14T06:58:09Z</time>
      </trkpt>
      <trkpt lat="48.02926" lon="3.31731">
        <ele>74</ele>
        <time>2014-04-14T06:58:14Z</time>
      </trkpt>
      <trkpt lat="48.02922" lon="3.31728">
        <ele>74</ele>
        <time>2014-04-14T06:58:17Z</time>
      </trkpt>
      <trkpt lat="48.02917" lon="3.31723">
        <ele>74</ele>
        <time>2014-04-14T06:58:20Z</time>
      </trkpt>
      <trkpt lat="48.02913" lon="3.31719">
        <ele>74</ele>
        <time>2014-04-14T06:58:24Z</time>
      </trkpt>
      <trkpt lat="48.0291" lon="3.31714">
        <ele>74</ele>
        <time>2014-04-14T06:58:28Z</time>
      </trkpt>
      <trkpt lat="48.02907" lon="3.31708">
        <ele>74</ele>
        <time>2014-04-14T06:58:34Z</time>
      </trkpt>
      <trkpt lat="48.02903" lon="3.31703">
        <ele>74</ele>
        <time>2014-04-14T06:58:39Z</time>
      </trkpt>
      <trkpt lat="48.02901" lon="3.31697">
        <ele>74</ele>
        <time>2014-04-14T06:58:43Z</time>
      </trkpt>
      <trkpt lat="48.02898" lon="3.31689">
        <ele>74</ele>
        <time>2014-04-14T06:58:47Z</time>
      </trkpt>
      <trkpt lat="48.02895" lon="3.31684">
        <ele>74</ele>
        <time>2014-04-14T06:58:51Z</time>
      </trkpt>
      <trkpt lat="48.02891" lon="3.31679">
        <ele>74</ele>
        <time>2014-04-14T06:58:55Z</time>
      </trkpt>
      <trkpt lat="48.0289" lon="3.31671">
        <ele>74</ele>
        <time>2014-04-14T06:59:00Z</time>
      </trkpt>
      <trkpt lat="48.02888" lon="3.31663">
        <ele>73</ele>
        <time>2014-04-14T06:59:05Z</time>
      </trkpt>
      <trkpt lat="48.02884" lon="3.31657">
        <ele>73</ele>
        <time>2014-04-14T06:59:10Z</time>
      </trkpt>
      <trkpt lat="48.0288" lon="3.31652">
        <ele>73</ele>
        <time>2014-04-14T06:59:14Z</time>
      </trkpt>
      <trkpt lat="48.02876" lon="3.31648">
        <ele>73</ele>
        <time>2014-04-14T06:59:18Z</time>
      </trkpt>
      <trkpt lat="48.02871" lon="3.31643">
        <ele>74</ele>
        <time>2014-04-14T06:59:23Z</time>
      </trkpt>
      <trkpt lat="48.02868" lon="3.31637">
        <ele>74</ele>
        <time>2014-04-14T06:59:27Z</time>
      </trkpt>
      <trkpt lat="48.02864" lon="3.31632">
        <ele>74</ele>
        <time>2014-04-14T06:59:32Z</time>
      </trkpt>
      <trkpt lat="48.02861" lon="3.31626">
        <ele>74</ele>
        <time>2014-04-14T06:59:37Z</time>
      </trkpt>
      <trkpt lat="48.02855" lon="3.31627">
        <ele>74</ele>
        <time>2014-04-14T06:59:48Z</time>
      </trkpt>
      <trkpt lat="48.02852" lon="3.31628">
        <ele>74</ele>
        <time>2014-04-14T07:00:00Z</time>
      </trkpt>
      <trkpt lat="48.02849" lon="3.31622">
        <ele>74</ele>
        <time>2014-04-14T07:00:06Z</time>
      </trkpt>
      <trkpt lat="48.02846" lon="3.31616">
        <ele>74</ele>
        <time>2014-04-14T07:00:09Z</time>
      </trkpt>
      <trkpt lat="48.02845" lon="3.31608">
        <ele>74</ele>
        <time>2014-04-14T07:00:14Z</time>
      </trkpt>
      <trkpt lat="48.02842" lon="3.31601">
        <ele>74</ele>
        <time>2014-04-14T07:00:18Z</time>
      </trkpt>
      <trkpt lat="48.02839" lon="3.31595">
        <ele>74</ele>
        <time>2014-04-14T07:00:23Z</time>
      </trkpt>
      <trkpt lat="48.02835" lon="3.3159">
        <ele>74</ele>
        <time>2014-04-14T07:00:28Z</time>
      </trkpt>
      <trkpt lat="48.02831" lon="3.31585">
        <ele>74</ele>
        <time>2014-04-14T07:00:31Z</time>
      </trkpt>
      <trkpt lat="48.02826" lon="3.31582">
        <ele>74</ele>
        <time>2014-04-14T07:00:39Z</time>
      </trkpt>
      <trkpt lat="48.02823" lon="3.31576">
        <ele>74</ele>
        <time>2014-04-14T07:00:43Z</time>
      </trkpt>
      <trkpt lat="48.02821" lon="3.3157">
        <ele>74</ele>
        <time>2014-04-14T07:00:49Z</time>
      </trkpt>
      <trkpt lat="48.02816" lon="3.31565">
        <ele>74</ele>
        <time>2014-04-14T07:00:53Z</time>
      </trkpt>
      <trkpt lat="48.02812" lon="3.31559">
        <ele>74</ele>
        <time>2014-04-14T07:00:57Z</time>
      </trkpt>
      <trkpt lat="48.02809" lon="3.31553">
        <ele>74</ele>
        <time>2014-04-14T07:01:01Z</time>
      </trkpt>
      <trkpt lat="48.02806" lon="3.31546">
        <ele>74</ele>
        <time>2014-04-14T07:01:09Z</time>
      </trkpt>
      <trkpt lat="48.02801" lon="3.31541">
        <ele>74</ele>
        <time>2014-04-14T07:01:13Z</time>
      </trkpt>
      <trkpt lat="48.02798" lon="3.31536">
        <ele>74</ele>
        <time>2014-04-14T07:01:17Z</time>
      </trkpt>
      <trkpt lat="48.02795" lon="3.3153">
        <ele>74</ele>
        <time>2014-04-14T07:01:21Z</time>
      </trkpt>
      <trkpt lat="48.02791" lon="3.31524">
        <ele>74</ele>
        <time>2014-04-14T07:01:25Z</time>
      </trkpt>
      <trkpt lat="48.02789" lon="3.31516">
        <ele>74</ele>
        <time>2014-04-14T07:01:31Z</time>
      </trkpt>
      <trkpt lat="48.02786" lon="3.31511">
        <ele>74</ele>
        <time>2014-04-14T07:01:35Z</time>
      </trkpt>
      <trkpt lat="48.02782" lon="3.31505">
        <ele>74</ele>
        <time>2014-04-14T07:01:39Z</time>
      </trkpt>
      <trkpt lat="48.02777" lon="3.31501">
        <ele>74</ele>
        <time>2014-04-14T07:01:42Z</time>
      </trkpt>
      <trkpt lat="48.02774" lon="3.31495">
        <ele>74</ele>
        <time>2014-04-14T07:01:47Z</time>
      </trkpt>
      <trkpt lat="48.02771" lon="3.3149">
        <ele>74</ele>
        <time>2014-04-14T07:01:51Z</time>
      </trkpt>
      <trkpt lat="48.02768" lon="3.31484">
        <ele>74</ele>
        <time>2014-04-14T07:01:56Z</time>
      </trkpt>
      <trkpt lat="48.02764" lon="3.3148">
        <ele>74</ele>
        <time>2014-04-14T07:02:00Z</time>
      </trkpt>
      <trkpt lat="48.02762" lon="3.31473">
        <ele>73</ele>
        <time>2014-04-14T07:02:03Z</time>
      </trkpt>
      <trkpt lat="48.02759" lon="3.31467">
        <ele>73</ele>
        <time>2014-04-14T07:02:06Z</time>
      </trkpt>
      <trkpt lat="48.02756" lon="3.31461">
        <ele>73</ele>
        <time>2014-04-14T07:02:09Z</time>
      </trkpt>
      <trkpt lat="48.02755" lon="3.31454">
        <ele>73</ele>
        <time>2014-04-14T07:02:13Z</time>
      </trkpt>
      <trkpt lat="48.02752" lon="3.31448">
        <ele>73</ele>
        <time>2014-04-14T07:02:19Z</time>
      </trkpt>
      <trkpt lat="48.02747" lon="3.31444">
        <ele>74</ele>
        <time>2014-04-14T07:02:22Z</time>
      </trkpt>
      <trkpt lat="48.02744" lon="3.3144">
        <ele>74</ele>
        <time>2014-04-14T07:02:28Z</time>
      </trkpt>
      <trkpt lat="48.02741" lon="3.31432">
        <ele>74</ele>
        <time>2014-04-14T07:02:32Z</time>
      </trkpt>
      <trkpt lat="48.02737" lon="3.31428">
        <ele>74</ele>
        <time>2014-04-14T07:02:35Z</time>
      </trkpt>
      <trkpt lat="48.02733" lon="3.31423">
        <ele>74</ele>
        <time>2014-04-14T07:02:38Z</time>
      </trkpt>
      <trkpt lat="48.02729" lon="3.31418">
        <ele>74</ele>
        <time>2014-04-14T07:02:42Z</time>
      </trkpt>
      <trkpt lat="48.02725" lon="3.31412">
        <ele>74</ele>
        <time>2014-04-14T07:02:49Z</time>
      </trkpt>
      <trkpt lat="48.02723" lon="3.31406">
        <ele>74</ele>
        <time>2014-04-14T07:02:54Z</time>
      </trkpt>
      <trkpt lat="48.02716" lon="3.314">
        <ele>74</ele>
        <time>2014-04-14T07:03:00Z</time>
      </trkpt>
      <trkpt lat="48.02714" lon="3.31393">
        <ele>74</ele>
        <time>2014-04-14T07:03:50Z</time>
      </trkpt>
      <trkpt lat="48.02708" lon="3.31388">
        <ele>74</ele>
        <time>2014-04-14T07:04:59Z</time>
      </trkpt>
      <trkpt lat="48.02706" lon="3.31383">
        <ele>74</ele>
        <time>2014-04-14T07:05:03Z</time>
      </trkpt>
      <trkpt lat="48.02702" lon="3.31377">
        <ele>74</ele>
        <time>2014-04-14T07:05:06Z</time>
      </trkpt>
      <trkpt lat="48.02698" lon="3.31372">
        <ele>74</ele>
        <time>2014-04-14T07:05:09Z</time>
      </trkpt>
      <trkpt lat="48.02694" lon="3.31367">
        <ele>74</ele>
        <time>2014-04-14T07:05:12Z</time>
      </trkpt>
      <trkpt lat="48.0269" lon="3.31361">
        <ele>74</ele>
        <time>2014-04-14T07:05:16Z</time>
      </trkpt>
      <trkpt lat="48.02687" lon="3.31355">
        <ele>74</ele>
        <time>2014-04-14T07:05:20Z</time>
      </trkpt>
      <trkpt lat="48.02683" lon="3.31349">
        <ele>74</ele>
        <time>2014-04-14T07:05:24Z</time>
      </trkpt>
      <trkpt lat="48.02679" lon="3.31345">
        <ele>74</ele>
        <time>2014-04-14T07:05:28Z</time>
      </trkpt>
      <trkpt lat="48.02674" lon="3.31339">
        <ele>74</ele>
        <time>2014-04-14T07:05:32Z</time>
      </trkpt>
      <trkpt lat="48.0267" lon="3.31335">
        <ele>74</ele>
        <time>2014-04-14T07:05:35Z</time>
      </trkpt>
      <trkpt lat="48.02666" lon="3.3133">
        <ele>74</ele>
        <time>2014-04-14T07:05:39Z</time>
      </trkpt>
      <trkpt lat="48.02662" lon="3.31323">
        <ele>74</ele>
        <time>2014-04-14T07:05:44Z</time>
      </trkpt>
      <trkpt lat="48.02659" lon="3.31317">
        <ele>74</ele>
        <time>2014-04-14T07:05:48Z</time>
      </trkpt>
      <trkpt lat="48.02655" lon="3.31311">
        <ele>74</ele>
        <time>2014-04-14T07:05:53Z</time>
      </trkpt>
      <trkpt lat="48.0265" lon="3.31308">
        <ele>74</ele>
        <time>2014-04-14T07:05:57Z</time>
      </trkpt>
      <trkpt lat="48.02646" lon="3.31303">
        <ele>74</ele>
        <time>2014-04-14T07:06:01Z</time>
      </trkpt>
      <trkpt lat="48.02643" lon="3.31296">
        <ele>74</ele>
        <time>2014-04-14T07:06:07Z</time>
      </trkpt>
      <trkpt lat="48.0264" lon="3.31292">
        <ele>74</ele>
        <time>2014-04-14T07:06:11Z</time>
      </trkpt>
      <trkpt lat="48.02637" lon="3.31285">
        <ele>74</ele>
        <time>2014-04-14T07:06:15Z</time>
      </trkpt>
      <trkpt lat="48.02634" lon="3.31279">
        <ele>74</ele>
        <time>2014-04-14T07:06:19Z</time>
      </trkpt>
      <trkpt lat="48.02631" lon="3.31274">
        <ele>74</ele>
        <time>2014-04-14T07:06:23Z</time>
      </trkpt>
      <trkpt lat="48.02627" lon="3.3127">
        <ele>74</ele>
        <time>2014-04-14T07:06:27Z</time>
      </trkpt>
      <trkpt lat="48.02624" lon="3.31265">
        <ele>74</ele>
        <time>2014-04-14T07:06:31Z</time>
      </trkpt>
      <trkpt lat="48.0262" lon="3.3126">
        <ele>74</ele>
        <time>2014-04-14T07:06:35Z</time>
      </trkpt>
      <trkpt lat="48.02617" lon="3.31255">
        <ele>74</ele>
        <time>2014-04-14T07:06:39Z</time>
      </trkpt>
      <trkpt lat="48.02614" lon="3.31248">
        <ele>74</ele>
        <time>2014-04-14T07:06:44Z</time>
      </trkpt>
      <trkpt lat="48.02611" lon="3.31241">
        <ele>74</ele>
        <time>2014-04-14T07:06:50Z</time>
      </trkpt>
      <trkpt lat="48.02607" lon="3.31236">
        <ele>74</ele>
        <time>2014-04-14T07:06:53Z</time>
      </trkpt>
      <trkpt lat="48.02602" lon="3.31232">
        <ele>74</ele>
        <time>2014-04-14T07:06:56Z</time>
      </trkpt>
      <trkpt lat="48.02599" lon="3.31226">
        <ele>74</ele>
        <time>2014-04-14T07:06:59Z</time>
      </trkpt>
      <trkpt lat="48.02596" lon="3.31219">
        <ele>74</ele>
        <time>2014-04-14T07:07:04Z</time>
      </trkpt>
      <trkpt lat="48.02593" lon="3.31213">
        <ele>74</ele>
        <time>2014-04-14T07:07:08Z</time>
      </trkpt>
      <trkpt lat="48.02589" lon="3.31209">
        <ele>74</ele>
        <time>2014-04-14T07:07:13Z</time>
      </trkpt>
      <trkpt lat="48.02584" lon="3.31206">
        <ele>74</ele>
        <time>2014-04-14T07:07:17Z</time>
      </trkpt>
      <trkpt lat="48.0258" lon="3.31201">
        <ele>75</ele>
        <time>2014-04-14T07:07:22Z</time>
      </trkpt>
      <trkpt lat="48.02577" lon="3.31195">
        <ele>75</ele>
        <time>2014-04-14T07:07:27Z</time>
      </trkpt>
      <trkpt lat="48.02573" lon="3.31191">
        <ele>75</ele>
        <time>2014-04-14T07:07:30Z</time>
      </trkpt>
      <trkpt lat="48.02568" lon="3.31188">
        <ele>75</ele>
        <time>2014-04-14T07:07:34Z</time>
      </trkpt>
      <trkpt lat="48.02563" lon="3.31185">
        <ele>75</ele>
        <time>2014-04-14T07:07:38Z</time>
      </trkpt>
      <trkpt lat="48.02559" lon="3.31182">
        <ele>75</ele>
        <time>2014-04-14T07:07:42Z</time>
      </trkpt>
      <trkpt lat="48.02555" lon="3.31177">
        <ele>75</ele>
        <time>2014-04-14T07:07:46Z</time>
      </trkpt>
      <trkpt lat="48.02552" lon="3.31172">
        <ele>75</ele>
        <time>2014-04-14T07:07:50Z</time>
      </trkpt>
      <trkpt lat="48.02549" lon="3.31166">
        <ele>73</ele>
        <time>2014-04-14T07:07:54Z</time>
      </trkpt>
      <trkpt lat="48.02545" lon="3.3116">
        <ele>73</ele>
        <time>2014-04-14T07:07:59Z</time>
      </trkpt>
      <trkpt lat="48.02542" lon="3.31155">
        <ele>73</ele>
        <time>2014-04-14T07:08:03Z</time>
      </trkpt>
      <trkpt lat="48.02538" lon="3.31151">
        <ele>73</ele>
        <time>2014-04-14T07:08:08Z</time>
      </trkpt>
      <trkpt lat="48.02533" lon="3.31148">
        <ele>73</ele>
        <time>2014-04-14T07:08:12Z</time>
      </trkpt>
      <trkpt lat="48.02528" lon="3.31143">
        <ele>73</ele>
        <time>2014-04-14T07:08:16Z</time>
      </trkpt>
      <trkpt lat="48.02524" lon="3.3114">
        <ele>73</ele>
        <time>2014-04-14T07:08:21Z</time>
      </trkpt>
      <trkpt lat="48.02519" lon="3.31137">
        <ele>73</ele>
        <time>2014-04-14T07:08:25Z</time>
      </trkpt>
      <trkpt lat="48.02513" lon="3.31136">
        <ele>73</ele>
        <time>2014-04-14T07:08:29Z</time>
      </trkpt>
      <trkpt lat="48.02509" lon="3.31134">
        <ele>73</ele>
        <time>2014-04-14T07:08:32Z</time>
      </trkpt>
      <trkpt lat="48.02504" lon="3.31132">
        <ele>73</ele>
        <time>2014-04-14T07:08:36Z</time>
      </trkpt>
      <trkpt lat="48.02499" lon="3.31133">
        <ele>73</ele>
        <time>2014-04-14T07:08:40Z</time>
      </trkpt>
      <trkpt lat="48.02493" lon="3.31133">
        <ele>73</ele>
        <time>2014-04-14T07:08:48Z</time>
      </trkpt>
      <trkpt lat="48.02488" lon="3.31131">
        <ele>73</ele>
        <time>2014-04-14T07:08:52Z</time>
      </trkpt>
      <trkpt lat="48.02484" lon="3.31131">
        <ele>73</ele>
        <time>2014-04-14T07:08:57Z</time>
      </trkpt>
      <trkpt lat="48.02479" lon="3.31131">
        <ele>73</ele>
        <time>2014-04-14T07:09:02Z</time>
      </trkpt>
      <trkpt lat="48.02474" lon="3.31129">
        <ele>73</ele>
        <time>2014-04-14T07:09:08Z</time>
      </trkpt>
      <trkpt lat="48.02469" lon="3.31127">
        <ele>73</ele>
        <time>2014-04-14T07:09:12Z</time>
      </trkpt>
      <trkpt lat="48.02464" lon="3.31126">
        <ele>73</ele>
        <time>2014-04-14T07:09:16Z</time>
      </trkpt>
      <trkpt lat="48.02458" lon="3.31127">
        <ele>73</ele>
        <time>2014-04-14T07:09:20Z</time>
      </trkpt>
      <trkpt lat="48.02453" lon="3.31127">
        <ele>72</ele>
        <time>2014-04-14T07:09:25Z</time>
      </trkpt>
      <trkpt lat="48.02448" lon="3.31129">
        <ele>72</ele>
        <time>2014-04-14T07:09:30Z</time>
      </trkpt>
      <trkpt lat="48.02443" lon="3.31129">
        <ele>72</ele>
        <time>2014-04-14T07:09:35Z</time>
      </trkpt>
      <trkpt lat="48.02437" lon="3.31128">
        <ele>72</ele>
        <time>2014-04-14T07:09:39Z</time>
      </trkpt>
      <trkpt lat="48.02432" lon="3.31128">
        <ele>72</ele>
        <time>2014-04-14T07:09:43Z</time>
      </trkpt>
      <trkpt lat="48.02427" lon="3.31126">
        <ele>72</ele>
        <time>2014-04-14T07:09:47Z</time>
      </trkpt>
      <trkpt lat="48.02421" lon="3.31127">
        <ele>72</ele>
        <time>2014-04-14T07:09:51Z</time>
      </trkpt>
      <trkpt lat="48.02415" lon="3.31128">
        <ele>73</ele>
        <time>2014-04-14T07:09:55Z</time>
      </trkpt>
      <trkpt lat="48.02411" lon="3.31127">
        <ele>73</ele>
        <time>2014-04-14T07:09:59Z</time>
      </trkpt>
      <trkpt lat="48.02405" lon="3.31125">
        <ele>73</ele>
        <time>2014-04-14T07:10:04Z</time>
      </trkpt>
      <trkpt lat="48.024" lon="3.31124">
        <ele>73</ele>
        <time>2014-04-14T07:10:09Z</time>
      </trkpt>
      <trkpt lat="48.02395" lon="3.31124">
        <ele>73</ele>
        <time>2014-04-14T07:10:12Z</time>
      </trkpt>
      <trkpt lat="48.02389" lon="3.31124">
        <ele>73</ele>
        <time>2014-04-14T07:10:15Z</time>
      </trkpt>
      <trkpt lat="48.02384" lon="3.31123">
        <ele>74</ele>
        <time>2014-04-14T07:10:18Z</time>
      </trkpt>
      <trkpt lat="48.0238" lon="3.31122">
        <ele>74</ele>
        <time>2014-04-14T07:10:21Z</time>
      </trkpt>
      <trkpt lat="48.02375" lon="3.31121">
        <ele>74</ele>
        <time>2014-04-14T07:10:27Z</time>
      </trkpt>
      <trkpt lat="48.0237" lon="3.3112">
        <ele>74</ele>
        <time>2014-04-14T07:10:32Z</time>
      </trkpt>
      <trkpt lat="48.02364" lon="3.3112">
        <ele>74</ele>
        <time>2014-04-14T07:10:36Z</time>
      </trkpt>
      <trkpt lat="48.02359" lon="3.31118">
        <ele>74</ele>
        <time>2014-04-14T07:10:41Z</time>
      </trkpt>
      <trkpt lat="48.02354" lon="3.31118">
        <ele>74</ele>
        <time>2014-04-14T07:10:46Z</time>
      </trkpt>
      <trkpt lat="48.02348" lon="3.31118">
        <ele>74</ele>
        <time>2014-04-14T07:10:51Z</time>
      </trkpt>
      <trkpt lat="48.02343" lon="3.31117">
        <ele>74</ele>
        <time>2014-04-14T07:10:55Z</time>
      </trkpt>
      <trkpt lat="48.02338" lon="3.31115">
        <ele>74</ele>
        <time>2014-04-14T07:10:59Z</time>
      </trkpt>
      <trkpt lat="48.02333" lon="3.31114">
        <ele>76</ele>
        <time>2014-04-14T07:11:03Z</time>
      </trkpt>
      <trkpt lat="48.02328" lon="3.31114">
        <ele>76</ele>
        <time>2014-04-14T07:11:07Z</time>
      </trkpt>
      <trkpt lat="48.02323" lon="3.31112">
        <ele>76</ele>
        <time>2014-04-14T07:11:12Z</time>
      </trkpt>
      <trkpt lat="48.02319" lon="3.3111">
        <ele>76</ele>
        <time>2014-04-14T07:11:16Z</time>
      </trkpt>
      <trkpt lat="48.02314" lon="3.31107">
        <ele>76</ele>
        <time>2014-04-14T07:11:20Z</time>
      </trkpt>
      <trkpt lat="48.02309" lon="3.31106">
        <ele>76</ele>
        <time>2014-04-14T07:11:24Z</time>
      </trkpt>
      <trkpt lat="48.02305" lon="3.31104">
        <ele>76</ele>
        <time>2014-04-14T07:11:29Z</time>
      </trkpt>
      <trkpt lat="48.023" lon="3.31103">
        <ele>76</ele>
        <time>2014-04-14T07:11:34Z</time>
      </trkpt>
      <trkpt lat="48.02294" lon="3.31101">
        <ele>76</ele>
        <time>2014-04-14T07:11:38Z</time>
      </trkpt>
      <trkpt lat="48.0229" lon="3.31099">
        <ele>76</ele>
        <time>2014-04-14T07:11:42Z</time>
      </trkpt>
      <trkpt lat="48.02285" lon="3.31096">
        <ele>76</ele>
        <time>2014-04-14T07:11:47Z</time>
      </trkpt>
      <trkpt lat="48.0228" lon="3.31095">
        <ele>76</ele>
        <time>2014-04-14T07:11:51Z</time>
      </trkpt>
      <trkpt lat="48.02276" lon="3.31094">
        <ele>76</ele>
        <time>2014-04-14T07:11:54Z</time>
      </trkpt>
      <trkpt lat="48.02271" lon="3.31092">
        <ele>76</ele>
        <time>2014-04-14T07:11:58Z</time>
      </trkpt>
      <trkpt lat="48.02266" lon="3.31091">
        <ele>75</ele>
        <time>2014-04-14T07:12:02Z</time>
      </trkpt>
      <trkpt lat="48.02263" lon="3.31087">
        <ele>75</ele>
        <time>2014-04-14T07:12:06Z</time>
      </trkpt>
      <trkpt lat="48.02258" lon="3.31086">
        <ele>75</ele>
        <time>2014-04-14T07:12:10Z</time>
      </trkpt>
      <trkpt lat="48.02253" lon="3.31083">
        <ele>74</ele>
        <time>2014-04-14T07:12:14Z</time>
      </trkpt>
      <trkpt lat="48.02249" lon="3.31079">
        <ele>74</ele>
        <time>2014-04-14T07:12:18Z</time>
      </trkpt>
      <trkpt lat="48.02245" lon="3.31075">
        <ele>74</ele>
        <time>2014-04-14T07:12:23Z</time>
      </trkpt>
      <trkpt lat="48.02239" lon="3.31075">
        <ele>74</ele>
        <time>2014-04-14T07:12:26Z</time>
      </trkpt>
      <trkpt lat="48.02233" lon="3.31075">
        <ele>74</ele>
        <time>2014-04-14T07:12:29Z</time>
      </trkpt>
      <trkpt lat="48.02227" lon="3.31076">
        <ele>74</ele>
        <time>2014-04-14T07:12:33Z</time>
      </trkpt>
      <trkpt lat="48.02222" lon="3.31073">
        <ele>74</ele>
        <time>2014-04-14T07:12:37Z</time>
      </trkpt>
      <trkpt lat="48.02218" lon="3.3107">
        <ele>74</ele>
        <time>2014-04-14T07:12:41Z</time>
      </trkpt>
      <trkpt lat="48.02216" lon="3.3107">
        <ele>74</ele>
        <time>2014-04-14T07:12:47Z</time>
      </trkpt>
      <trkpt lat="48.0221" lon="3.31067">
        <ele>74</ele>
        <time>2014-04-14T07:12:52Z</time>
      </trkpt>
      <trkpt lat="48.02205" lon="3.31064">
        <ele>74</ele>
        <time>2014-04-14T07:12:56Z</time>
      </trkpt>
      <trkpt lat="48.022" lon="3.3106">
        <ele>74</ele>
        <time>2014-04-14T07:12:59Z</time>
      </trkpt>
      <trkpt lat="48.02196" lon="3.31057">
        <ele>74</ele>
        <time>2014-04-14T07:13:03Z</time>
      </trkpt>
      <trkpt lat="48.02191" lon="3.31055">
        <ele>74</ele>
        <time>2014-04-14T07:13:07Z</time>
      </trkpt>
      <trkpt lat="48.02185" lon="3.31054">
        <ele>74</ele>
        <time>2014-04-14T07:13:10Z</time>
      </trkpt>
      <trkpt lat="48.0218" lon="3.31053">
        <ele>75</ele>
        <time>2014-04-14T07:13:13Z</time>
      </trkpt>
      <trkpt lat="48.02177" lon="3.31051">
        <ele>75</ele>
        <time>2014-04-14T07:13:21Z</time>
      </trkpt>
      <trkpt lat="48.02176" lon="3.31047">
        <ele>74</ele>
        <time>2014-04-14T07:13:28Z</time>
      </trkpt>
      <trkpt lat="48.02171" lon="3.31047">
        <ele>74</ele>
        <time>2014-04-14T07:13:32Z</time>
      </trkpt>
      <trkpt lat="48.02167" lon="3.31042">
        <ele>74</ele>
        <time>2014-04-14T07:13:37Z</time>
      </trkpt>
      <trkpt lat="48.02161" lon="3.3104">
        <ele>76</ele>
        <time>2014-04-14T07:13:41Z</time>
      </trkpt>
      <trkpt lat="48.02157" lon="3.31039">
        <ele>76</ele>
        <time>2014-04-14T07:13:44Z</time>
      </trkpt>
      <trkpt lat="48.02151" lon="3.31037">
        <ele>76</ele>
        <time>2014-04-14T07:13:48Z</time>
      </trkpt>
      <trkpt lat="48.02146" lon="3.31035">
        <ele>76</ele>
        <time>2014-04-14T07:13:55Z</time>
      </trkpt>
      <trkpt lat="48.0214" lon="3.31035">
        <ele>76</ele>
        <time>2014-04-14T07:13:59Z</time>
      </trkpt>
      <trkpt lat="48.02136" lon="3.31032">
        <ele>76</ele>
        <time>2014-04-14T07:14:02Z</time>
      </trkpt>
      <trkpt lat="48.02131" lon="3.31029">
        <ele>76</ele>
        <time>2014-04-14T07:14:06Z</time>
      </trkpt>
      <trkpt lat="48.02127" lon="3.31025">
        <ele>76</ele>
        <time>2014-04-14T07:14:11Z</time>
      </trkpt>
      <trkpt lat="48.02124" lon="3.3102">
        <ele>76</ele>
        <time>2014-04-14T07:14:16Z</time>
      </trkpt>
      <trkpt lat="48.0212" lon="3.31017">
        <ele>76</ele>
        <time>2014-04-14T07:14:21Z</time>
      </trkpt>
      <trkpt lat="48.02115" lon="3.31016">
        <ele>77</ele>
        <time>2014-04-14T07:14:24Z</time>
      </trkpt>
      <trkpt lat="48.0211" lon="3.31015">
        <ele>77</ele>
        <time>2014-04-14T07:14:26Z</time>
      </trkpt>
      <trkpt lat="48.02105" lon="3.31012">
        <ele>77</ele>
        <time>2014-04-14T07:14:30Z</time>
      </trkpt>
      <trkpt lat="48.021" lon="3.3101">
        <ele>77</ele>
        <time>2014-04-14T07:14:34Z</time>
      </trkpt>
      <trkpt lat="48.02096" lon="3.31009">
        <ele>76</ele>
        <time>2014-04-14T07:14:38Z</time>
      </trkpt>
      <trkpt lat="48.0209" lon="3.31007">
        <ele>76</ele>
        <time>2014-04-14T07:14:43Z</time>
      </trkpt>
      <trkpt lat="48.02085" lon="3.31006">
        <ele>76</ele>
        <time>2014-04-14T07:14:47Z</time>
      </trkpt>
      <trkpt lat="48.0208" lon="3.31003">
        <ele>77</ele>
        <time>2014-04-14T07:14:51Z</time>
      </trkpt>
      <trkpt lat="48.02075" lon="3.30999">
        <ele>76</ele>
        <time>2014-04-14T07:14:55Z</time>
      </trkpt>
      <trkpt lat="48.02071" lon="3.30996">
        <ele>76</ele>
        <time>2014-04-14T07:15:00Z</time>
      </trkpt>
      <trkpt lat="48.02067" lon="3.30993">
        <ele>76</ele>
        <time>2014-04-14T07:15:05Z</time>
      </trkpt>
      <trkpt lat="48.02062" lon="3.30989">
        <ele>76</ele>
        <time>2014-04-14T07:15:10Z</time>
      </trkpt>
      <trkpt lat="48.02056" lon="3.30988">
        <ele>76</ele>
        <time>2014-04-14T07:15:14Z</time>
      </trkpt>
      <trkpt lat="48.02052" lon="3.30986">
        <ele>76</ele>
        <time>2014-04-14T07:15:18Z</time>
      </trkpt>
      <trkpt lat="48.02046" lon="3.30984">
        <ele>77</ele>
        <time>2014-04-14T07:15:22Z</time>
      </trkpt>
      <trkpt lat="48.02041" lon="3.30982">
        <ele>77</ele>
        <time>2014-04-14T07:15:25Z</time>
      </trkpt>
      <trkpt lat="48.02036" lon="3.30979">
        <ele>77</ele>
        <time>2014-04-14T07:15:29Z</time>
      </trkpt>
      <trkpt lat="48.0203" lon="3.30978">
        <ele>77</ele>
        <time>2014-04-14T07:15:33Z</time>
      </trkpt>
      <trkpt lat="48.02026" lon="3.30974">
        <ele>77</ele>
        <time>2014-04-14T07:15:37Z</time>
      </trkpt>
      <trkpt lat="48.02021" lon="3.30973">
        <ele>77</ele>
        <time>2014-04-14T07:15:41Z</time>
      </trkpt>
      <trkpt lat="48.02017" lon="3.30974">
        <ele>77</ele>
        <time>2014-04-14T07:15:46Z</time>
      </trkpt>
      <trkpt lat="48.02012" lon="3.3097">
        <ele>77</ele>
        <time>2014-04-14T07:15:51Z</time>
      </trkpt>
      <trkpt lat="48.02007" lon="3.30966">
        <ele>77</ele>
        <time>2014-04-14T07:15:55Z</time>
      </trkpt>
      <trkpt lat="48.02002" lon="3.30963">
        <ele>77</ele>
        <time>2014-04-14T07:15:58Z</time>
      </trkpt>
      <trkpt lat="48.01998" lon="3.3096">
        <ele>78</ele>
        <time>2014-04-14T07:16:02Z</time>
      </trkpt>
      <trkpt lat="48.01993" lon="3.30955">
        <ele>78</ele>
        <time>2014-04-14T07:16:07Z</time>
      </trkpt>
      <trkpt lat="48.01989" lon="3.30953">
        <ele>78</ele>
        <time>2014-04-14T07:16:13Z</time>
      </trkpt>
      <trkpt lat="48.01984" lon="3.30951">
        <ele>78</ele>
        <time>2014-04-14T07:16:17Z</time>
      </trkpt>
      <trkpt lat="48.0198" lon="3.30946">
        <ele>78</ele>
        <time>2014-04-14T07:16:21Z</time>
      </trkpt>
      <trkpt lat="48.01975" lon="3.30944">
        <ele>78</ele>
        <time>2014-04-14T07:16:26Z</time>
      </trkpt>
      <trkpt lat="48.0197" lon="3.3094">
        <ele>78</ele>
        <time>2014-04-14T07:16:30Z</time>
      </trkpt>
      <trkpt lat="48.01966" lon="3.30936">
        <ele>78</ele>
        <time>2014-04-14T07:16:34Z</time>
      </trkpt>
      <trkpt lat="48.01961" lon="3.30932">
        <ele>77</ele>
        <time>2014-04-14T07:16:39Z</time>
      </trkpt>
      <trkpt lat="48.01956" lon="3.30931">
        <ele>77</ele>
        <time>2014-04-14T07:16:44Z</time>
      </trkpt>
      <trkpt lat="48.01952" lon="3.30929">
        <ele>77</ele>
        <time>2014-04-14T07:16:48Z</time>
      </trkpt>
      <trkpt lat="48.01946" lon="3.30929">
        <ele>77</ele>
        <time>2014-04-14T07:16:52Z</time>
      </trkpt>
      <trkpt lat="48.01942" lon="3.30925">
        <ele>77</ele>
        <time>2014-04-14T07:16:56Z</time>
      </trkpt>
      <trkpt lat="48.01938" lon="3.30919">
        <ele>77</ele>
        <time>2014-04-14T07:16:59Z</time>
      </trkpt>
      <trkpt lat="48.01934" lon="3.30914">
        <ele>75</ele>
        <time>2014-04-14T07:17:05Z</time>
      </trkpt>
      <trkpt lat="48.0193" lon="3.30909">
        <ele>75</ele>
        <time>2014-04-14T07:17:09Z</time>
      </trkpt>
      <trkpt lat="48.01925" lon="3.30905">
        <ele>75</ele>
        <time>2014-04-14T07:17:13Z</time>
      </trkpt>
      <trkpt lat="48.01921" lon="3.30902">
        <ele>75</ele>
        <time>2014-04-14T07:17:17Z</time>
      </trkpt>
      <trkpt lat="48.01917" lon="3.30898">
        <ele>75</ele>
        <time>2014-04-14T07:17:20Z</time>
      </trkpt>
      <trkpt lat="48.01912" lon="3.30895">
        <ele>74</ele>
        <time>2014-04-14T07:17:24Z</time>
      </trkpt>
      <trkpt lat="48.01907" lon="3.30892">
        <ele>74</ele>
        <time>2014-04-14T07:17:32Z</time>
      </trkpt>
      <trkpt lat="48.01904" lon="3.30886">
        <ele>74</ele>
        <time>2014-04-14T07:17:39Z</time>
      </trkpt>
      <trkpt lat="48.01899" lon="3.30883">
        <ele>74</ele>
        <time>2014-04-14T07:17:42Z</time>
      </trkpt>
      <trkpt lat="48.01894" lon="3.30881">
        <ele>74</ele>
        <time>2014-04-14T07:17:45Z</time>
      </trkpt>
      <trkpt lat="48.01891" lon="3.30877">
        <ele>74</ele>
        <time>2014-04-14T07:17:48Z</time>
      </trkpt>
      <trkpt lat="48.01886" lon="3.30873">
        <ele>74</ele>
        <time>2014-04-14T07:17:51Z</time>
      </trkpt>
      <trkpt lat="48.0188" lon="3.30869">
        <ele>74</ele>
        <time>2014-04-14T07:17:54Z</time>
      </trkpt>
      <trkpt lat="48.01876" lon="3.30867">
        <ele>74</ele>
        <time>2014-04-14T07:17:58Z</time>
      </trkpt>
      <trkpt lat="48.01871" lon="3.30865">
        <ele>74</ele>
        <time>2014-04-14T07:18:02Z</time>
      </trkpt>
      <trkpt lat="48.01867" lon="3.30862">
        <ele>74</ele>
        <time>2014-04-14T07:18:06Z</time>
      </trkpt>
      <trkpt lat="48.01862" lon="3.30861">
        <ele>74</ele>
        <time>2014-04-14T07:18:09Z</time>
      </trkpt>
      <trkpt lat="48.01857" lon="3.30859">
        <ele>74</ele>
        <time>2014-04-14T07:18:13Z</time>
      </trkpt>
      <trkpt lat="48.01852" lon="3.30857">
        <ele>74</ele>
        <time>2014-04-14T07:18:21Z</time>
      </trkpt>
      <trkpt lat="48.01849" lon="3.30852">
        <ele>73</ele>
        <time>2014-04-14T07:18:25Z</time>
      </trkpt>
      <trkpt lat="48.01845" lon="3.30846">
        <ele>73</ele>
        <time>2014-04-14T07:18:29Z</time>
      </trkpt>
      <trkpt lat="48.0184" lon="3.30844">
        <ele>73</ele>
        <time>2014-04-14T07:18:33Z</time>
      </trkpt>
      <trkpt lat="48.01835" lon="3.30842">
        <ele>73</ele>
        <time>2014-04-14T07:18:37Z</time>
      </trkpt>
      <trkpt lat="48.0183" lon="3.30839">
        <ele>73</ele>
        <time>2014-04-14T07:18:41Z</time>
      </trkpt>
      <trkpt lat="48.01825" lon="3.30836">
        <ele>73</ele>
        <time>2014-04-14T07:18:45Z</time>
      </trkpt>
      <trkpt lat="48.01822" lon="3.30835">
        <ele>73</ele>
        <time>2014-04-14T07:19:03Z</time>
      </trkpt>
      <trkpt lat="48.01817" lon="3.30832">
        <ele>72</ele>
        <time>2014-04-14T07:19:14Z</time>
      </trkpt>
      <trkpt lat="48.01813" lon="3.30829">
        <ele>72</ele>
        <time>2014-04-14T07:19:17Z</time>
      </trkpt>
      <trkpt lat="48.01808" lon="3.30826">
        <ele>72</ele>
        <time>2014-04-14T07:19:20Z</time>
      </trkpt>
      <trkpt lat="48.01804" lon="3.30824">
        <ele>72</ele>
        <time>2014-04-14T07:19:23Z</time>
      </trkpt>
      <trkpt lat="48.01799" lon="3.30822">
        <ele>73</ele>
        <time>2014-04-14T07:19:27Z</time>
      </trkpt>
      <trkpt lat="48.01794" lon="3.30819">
        <ele>73</ele>
        <time>2014-04-14T07:19:30Z</time>
      </trkpt>
      <trkpt lat="48.0179" lon="3.30814">
        <ele>73</ele>
        <time>2014-04-14T07:19:35Z</time>
      </trkpt>
      <trkpt lat="48.01788" lon="3.30808">
        <ele>73</ele>
        <time>2014-04-14T07:19:42Z</time>
      </trkpt>
      <trkpt lat="48.01783" lon="3.30806">
        <ele>73</ele>
        <time>2014-04-14T07:19:49Z</time>
      </trkpt>
      <trkpt lat="48.01779" lon="3.30804">
        <ele>73</ele>
        <time>2014-04-14T07:19:54Z</time>
      </trkpt>
      <trkpt lat="48.01774" lon="3.30803">
        <ele>73</ele>
        <time>2014-04-14T07:19:58Z</time>
      </trkpt>
      <trkpt lat="48.01769" lon="3.308">
        <ele>73</ele>
        <time>2014-04-14T07:20:02Z</time>
      </trkpt>
      <trkpt lat="48.01764" lon="3.308">
        <ele>73</ele>
        <time>2014-04-14T07:20:06Z</time>
      </trkpt>
      <trkpt lat="48.0176" lon="3.30797">
        <ele>73</ele>
        <time>2014-04-14T07:20:10Z</time>
      </trkpt>
      <trkpt lat="48.01756" lon="3.30794">
        <ele>73</ele>
        <time>2014-04-14T07:20:13Z</time>
      </trkpt>
      <trkpt lat="48.01751" lon="3.30793">
        <ele>73</ele>
        <time>2014-04-14T07:20:15Z</time>
      </trkpt>
      <trkpt lat="48.01745" lon="3.30792">
        <ele>73</ele>
        <time>2014-04-14T07:20:18Z</time>
      </trkpt>
      <trkpt lat="48.0174" lon="3.3079">
        <ele>73</ele>
        <time>2014-04-14T07:20:22Z</time>
      </trkpt>
      <trkpt lat="48.01735" lon="3.30791">
        <ele>73</ele>
        <time>2014-04-14T07:20:27Z</time>
      </trkpt>
      <trkpt lat="48.01729" lon="3.30791">
        <ele>73</ele>
        <time>2014-04-14T07:20:30Z</time>
      </trkpt>
      <trkpt lat="48.01724" lon="3.30789">
        <ele>73</ele>
        <time>2014-04-14T07:20:34Z</time>
      </trkpt>
      <trkpt lat="48.01719" lon="3.30788">
        <ele>73</ele>
        <time>2014-04-14T07:20:40Z</time>
      </trkpt>
      <trkpt lat="48.01714" lon="3.30785">
        <ele>72</ele>
        <time>2014-04-14T07:20:43Z</time>
      </trkpt>
      <trkpt lat="48.01709" lon="3.30783">
        <ele>72</ele>
        <time>2014-04-14T07:20:47Z</time>
      </trkpt>
      <trkpt lat="48.01704" lon="3.30784">
        <ele>72</ele>
        <time>2014-04-14T07:20:51Z</time>
      </trkpt>
      <trkpt lat="48.01698" lon="3.30783">
        <ele>72</ele>
        <time>2014-04-14T07:20:54Z</time>
      </trkpt>
      <trkpt lat="48.01693" lon="3.3078">
        <ele>72</ele>
        <time>2014-04-14T07:20:57Z</time>
      </trkpt>
      <trkpt lat="48.01689" lon="3.30777">
        <ele>72</ele>
        <time>2014-04-14T07:21:02Z</time>
      </trkpt>
      <trkpt lat="48.01684" lon="3.30775">
        <ele>72</ele>
        <time>2014-04-14T07:21:07Z</time>
      </trkpt>
      <trkpt lat="48.01679" lon="3.30774">
        <ele>72</ele>
        <time>2014-04-14T07:21:11Z</time>
      </trkpt>
      <trkpt lat="48.01673" lon="3.30774">
        <ele>72</ele>
        <time>2014-04-14T07:21:15Z</time>
      </trkpt>
      <trkpt lat="48.01668" lon="3.30773">
        <ele>72</ele>
        <time>2014-04-14T07:21:22Z</time>
      </trkpt>
      <trkpt lat="48.01663" lon="3.30772">
        <ele>72</ele>
        <time>2014-04-14T07:21:25Z</time>
      </trkpt>
      <trkpt lat="48.01658" lon="3.30771">
        <ele>72</ele>
        <time>2014-04-14T07:21:28Z</time>
      </trkpt>
      <trkpt lat="48.01653" lon="3.3077">
        <ele>72</ele>
        <time>2014-04-14T07:21:31Z</time>
      </trkpt>
      <trkpt lat="48.01648" lon="3.30769">
        <ele>72</ele>
        <time>2014-04-14T07:21:36Z</time>
      </trkpt>
      <trkpt lat="48.01643" lon="3.30767">
        <ele>72</ele>
        <time>2014-04-14T07:21:39Z</time>
      </trkpt>
      <trkpt lat="48.01638" lon="3.30765">
        <ele>72</ele>
        <time>2014-04-14T07:21:43Z</time>
      </trkpt>
      <trkpt lat="48.01633" lon="3.30763">
        <ele>72</ele>
        <time>2014-04-14T07:21:47Z</time>
      </trkpt>
      <trkpt lat="48.01628" lon="3.30761">
        <ele>72</ele>
        <time>2014-04-14T07:21:50Z</time>
      </trkpt>
      <trkpt lat="48.01624" lon="3.30759">
        <ele>72</ele>
        <time>2014-04-14T07:21:53Z</time>
      </trkpt>
      <trkpt lat="48.01619" lon="3.30757">
        <ele>72</ele>
        <time>2014-04-14T07:21:57Z</time>
      </trkpt>
      <trkpt lat="48.01613" lon="3.30755">
        <ele>72</ele>
        <time>2014-04-14T07:22:01Z</time>
      </trkpt>
      <trkpt lat="48.01608" lon="3.30753">
        <ele>72</ele>
        <time>2014-04-14T07:22:06Z</time>
      </trkpt>
      <trkpt lat="48.01603" lon="3.3075">
        <ele>72</ele>
        <time>2014-04-14T07:22:11Z</time>
      </trkpt>
      <trkpt lat="48.01598" lon="3.30749">
        <ele>72</ele>
        <time>2014-04-14T07:22:15Z</time>
      </trkpt>
      <trkpt lat="48.01593" lon="3.30748">
        <ele>72</ele>
        <time>2014-04-14T07:22:19Z</time>
      </trkpt>
      <trkpt lat="48.01588" lon="3.30747">
        <ele>72</ele>
        <time>2014-04-14T07:22:22Z</time>
      </trkpt>
      <trkpt lat="48.01583" lon="3.30745">
        <ele>72</ele>
        <time>2014-04-14T07:22:28Z</time>
      </trkpt>
      <trkpt lat="48.01578" lon="3.30743">
        <ele>72</ele>
        <time>2014-04-14T07:22:32Z</time>
      </trkpt>
      <trkpt lat="48.01572" lon="3.30742">
        <ele>72</ele>
        <time>2014-04-14T07:22:36Z</time>
      </trkpt>
      <trkpt lat="48.01568" lon="3.3074">
        <ele>72</ele>
        <time>2014-04-14T07:22:40Z</time>
      </trkpt>
      <trkpt lat="48.01563" lon="3.30738">
        <ele>72</ele>
        <time>2014-04-14T07:22:44Z</time>
      </trkpt>
      <trkpt lat="48.01557" lon="3.30737">
        <ele>71</ele>
        <time>2014-04-14T07:22:49Z</time>
      </trkpt>
      <trkpt lat="48.01551" lon="3.30735">
        <ele>71</ele>
        <time>2014-04-14T07:22:53Z</time>
      </trkpt>
      <trkpt lat="48.01547" lon="3.30733">
        <ele>71</ele>
        <time>2014-04-14T07:22:57Z</time>
      </trkpt>
      <trkpt lat="48.01541" lon="3.30731">
        <ele>71</ele>
        <time>2014-04-14T07:23:03Z</time>
      </trkpt>
      <trkpt lat="48.01536" lon="3.30729">
        <ele>71</ele>
        <time>2014-04-14T07:23:07Z</time>
      </trkpt>
      <trkpt lat="48.01531" lon="3.30728">
        <ele>71</ele>
        <time>2014-04-14T07:23:12Z</time>
      </trkpt>
      <trkpt lat="48.01527" lon="3.30726">
        <ele>71</ele>
        <time>2014-04-14T07:23:15Z</time>
      </trkpt>
      <trkpt lat="48.01522" lon="3.30724">
        <ele>71</ele>
        <time>2014-04-14T07:23:19Z</time>
      </trkpt>
      <trkpt lat="48.01517" lon="3.30723">
        <ele>71</ele>
        <time>2014-04-14T07:23:24Z</time>
      </trkpt>
      <trkpt lat="48.01512" lon="3.30721">
        <ele>71</ele>
        <time>2014-04-14T07:23:27Z</time>
      </trkpt>
      <trkpt lat="48.01507" lon="3.30719">
        <ele>71</ele>
        <time>2014-04-14T07:23:32Z</time>
      </trkpt>
      <trkpt lat="48.01502" lon="3.30718">
        <ele>71</ele>
        <time>2014-04-14T07:23:36Z</time>
      </trkpt>
      <trkpt lat="48.01497" lon="3.30717">
        <ele>71</ele>
        <time>2014-04-14T07:23:40Z</time>
      </trkpt>
      <trkpt lat="48.01492" lon="3.30715">
        <ele>71</ele>
        <time>2014-04-14T07:23:44Z</time>
      </trkpt>
      <trkpt lat="48.01487" lon="3.30713">
        <ele>71</ele>
        <time>2014-04-14T07:23:48Z</time>
      </trkpt>
      <trkpt lat="48.01484" lon="3.30712">
        <ele>71</ele>
        <time>2014-04-14T07:23:55Z</time>
      </trkpt>
      <trkpt lat="48.01478" lon="3.30712">
        <ele>71</ele>
        <time>2014-04-14T07:24:05Z</time>
      </trkpt>
      <trkpt lat="48.01473" lon="3.30711">
        <ele>71</ele>
        <time>2014-04-14T07:24:09Z</time>
      </trkpt>
      <trkpt lat="48.01469" lon="3.30708">
        <ele>71</ele>
        <time>2014-04-14T07:24:13Z</time>
      </trkpt>
      <trkpt lat="48.01464" lon="3.30706">
        <ele>71</ele>
        <time>2014-04-14T07:24:18Z</time>
      </trkpt>
      <trkpt lat="48.01459" lon="3.30704">
        <ele>71</ele>
        <time>2014-04-14T07:24:22Z</time>
      </trkpt>
      <trkpt lat="48.01455" lon="3.30701">
        <ele>71</ele>
        <time>2014-04-14T07:24:27Z</time>
      </trkpt>
      <trkpt lat="48.01449" lon="3.307">
        <ele>71</ele>
        <time>2014-04-14T07:24:32Z</time>
      </trkpt>
      <trkpt lat="48.01444" lon="3.30699">
        <ele>71</ele>
        <time>2014-04-14T07:24:36Z</time>
      </trkpt>
      <trkpt lat="48.01439" lon="3.30697">
        <ele>71</ele>
        <time>2014-04-14T07:24:40Z</time>
      </trkpt>
      <trkpt lat="48.01435" lon="3.30694">
        <ele>71</ele>
        <time>2014-04-14T07:24:44Z</time>
      </trkpt>
      <trkpt lat="48.0143" lon="3.30692">
        <ele>71</ele>
        <time>2014-04-14T07:24:48Z</time>
      </trkpt>
      <trkpt lat="48.01426" lon="3.30691">
        <ele>71</ele>
        <time>2014-04-14T07:24:52Z</time>
      </trkpt>
      <trkpt lat="48.0142" lon="3.3069">
        <ele>71</ele>
        <time>2014-04-14T07:24:56Z</time>
      </trkpt>
      <trkpt lat="48.01415" lon="3.30689">
        <ele>71</ele>
        <time>2014-04-14T07:25:00Z</time>
      </trkpt>
      <trkpt lat="48.01411" lon="3.30687">
        <ele>71</ele>
        <time>2014-04-14T07:25:04Z</time>
      </trkpt>
      <trkpt lat="48.01406" lon="3.30686">
        <ele>71</ele>
        <time>2014-04-14T07:25:07Z</time>
      </trkpt>
      <trkpt lat="48.01401" lon="3.30685">
        <ele>71</ele>
        <time>2014-04-14T07:25:11Z</time>
      </trkpt>
      <trkpt lat="48.01397" lon="3.30681">
        <ele>71</ele>
        <time>2014-04-14T07:25:15Z</time>
      </trkpt>
      <trkpt lat="48.01393" lon="3.30679">
        <ele>71</ele>
        <time>2014-04-14T07:25:20Z</time>
      </trkpt>
      <trkpt lat="48.01386" lon="3.30678">
        <ele>71</ele>
        <time>2014-04-14T07:25:24Z</time>
      </trkpt>
      <trkpt lat="48.01382" lon="3.30676">
        <ele>71</ele>
        <time>2014-04-14T07:25:27Z</time>
      </trkpt>
      <trkpt lat="48.01377" lon="3.30675">
        <ele>71</ele>
        <time>2014-04-14T07:25:32Z</time>
      </trkpt>
      <trkpt lat="48.01371" lon="3.30674">
        <ele>71</ele>
        <time>2014-04-14T07:25:36Z</time>
      </trkpt>
      <trkpt lat="48.01367" lon="3.30673">
        <ele>71</ele>
        <time>2014-04-14T07:25:40Z</time>
      </trkpt>
      <trkpt lat="48.01362" lon="3.30672">
        <ele>71</ele>
        <time>2014-04-14T07:25:44Z</time>
      </trkpt>
      <trkpt lat="48.01357" lon="3.3067">
        <ele>72</ele>
        <time>2014-04-14T07:25:48Z</time>
      </trkpt>
      <trkpt lat="48.01351" lon="3.30669">
        <ele>72</ele>
        <time>2014-04-14T07:25:53Z</time>
      </trkpt>
      <trkpt lat="48.01352" lon="3.30666">
        <ele>72</ele>
        <time>2014-04-14T07:26:23Z</time>
      </trkpt>
      <trkpt lat="48.01352" lon="3.30664">
        <ele>72</ele>
        <time>2014-04-14T07:26:41Z</time>
      </trkpt>
      <trkpt lat="48.01348" lon="3.30662">
        <ele>72</ele>
        <time>2014-04-14T07:26:44Z</time>
      </trkpt>
      <trkpt lat="48.01342" lon="3.30662">
        <ele>72</ele>
        <time>2014-04-14T07:26:47Z</time>
      </trkpt>
      <trkpt lat="48.01336" lon="3.30663">
        <ele>72</ele>
        <time>2014-04-14T07:27:05Z</time>
      </trkpt>
      <trkpt lat="48.01332" lon="3.30662">
        <ele>72</ele>
        <time>2014-04-14T07:27:09Z</time>
      </trkpt>
      <trkpt lat="48.01327" lon="3.30663">
        <ele>72</ele>
        <time>2014-04-14T07:27:13Z</time>
      </trkpt>
      <trkpt lat="48.01321" lon="3.30663">
        <ele>72</ele>
        <time>2014-04-14T07:27:17Z</time>
      </trkpt>
      <trkpt lat="48.01316" lon="3.30661">
        <ele>72</ele>
        <time>2014-04-14T07:27:22Z</time>
      </trkpt>
      <trkpt lat="48.01311" lon="3.30662">
        <ele>72</ele>
        <time>2014-04-14T07:27:26Z</time>
      </trkpt>
      <trkpt lat="48.01307" lon="3.30661">
        <ele>72</ele>
        <time>2014-04-14T07:27:30Z</time>
      </trkpt>
      <trkpt lat="48.01304" lon="3.30661">
        <ele>72</ele>
        <time>2014-04-14T07:27:36Z</time>
      </trkpt>
      <trkpt lat="48.013" lon="3.3066">
        <ele>71</ele>
        <time>2014-04-14T07:28:27Z</time>
      </trkpt>
      <trkpt lat="48.01295" lon="3.30658">
        <ele>71</ele>
        <time>2014-04-14T07:28:31Z</time>
      </trkpt>
      <trkpt lat="48.0129" lon="3.30657">
        <ele>71</ele>
        <time>2014-04-14T07:28:34Z</time>
      </trkpt>
      <trkpt lat="48.01286" lon="3.30656">
        <ele>71</ele>
        <time>2014-04-14T07:28:37Z</time>
      </trkpt>
      <trkpt lat="48.01281" lon="3.30655">
        <ele>71</ele>
        <time>2014-04-14T07:28:40Z</time>
      </trkpt>
      <trkpt lat="48.01276" lon="3.30654">
        <ele>71</ele>
        <time>2014-04-14T07:28:44Z</time>
      </trkpt>
      <trkpt lat="48.01271" lon="3.30652">
        <ele>71</ele>
        <time>2014-04-14T07:28:48Z</time>
      </trkpt>
      <trkpt lat="48.01267" lon="3.30648">
        <ele>71</ele>
        <time>2014-04-14T07:28:53Z</time>
      </trkpt>
      <trkpt lat="48.01263" lon="3.30644">
        <ele>71</ele>
        <time>2014-04-14T07:28:58Z</time>
      </trkpt>
      <trkpt lat="48.01258" lon="3.30645">
        <ele>71</ele>
        <time>2014-04-14T07:29:03Z</time>
      </trkpt>
      <trkpt lat="48.01248" lon="3.30643">
        <ele>71</ele>
        <time>2014-04-14T07:29:16Z</time>
      </trkpt>
      <trkpt lat="48.01243" lon="3.30643">
        <ele>71</ele>
        <time>2014-04-14T07:29:19Z</time>
      </trkpt>
      <trkpt lat="48.01238" lon="3.30643">
        <ele>71</ele>
        <time>2014-04-14T07:29:23Z</time>
      </trkpt>
      <trkpt lat="48.01232" lon="3.30642">
        <ele>71</ele>
        <time>2014-04-14T07:29:27Z</time>
      </trkpt>
      <trkpt lat="48.01227" lon="3.30642">
        <ele>71</ele>
        <time>2014-04-14T07:29:30Z</time>
      </trkpt>
      <trkpt lat="48.01222" lon="3.30643">
        <ele>71</ele>
        <time>2014-04-14T07:29:33Z</time>
      </trkpt>
      <trkpt lat="48.01217" lon="3.30642">
        <ele>71</ele>
        <time>2014-04-14T07:29:38Z</time>
      </trkpt>
      <trkpt lat="48.01211" lon="3.30641">
        <ele>71</ele>
        <time>2014-04-14T07:29:42Z</time>
      </trkpt>
      <trkpt lat="48.01206" lon="3.30643">
        <ele>71</ele>
        <time>2014-04-14T07:29:45Z</time>
      </trkpt>
      <trkpt lat="48.01201" lon="3.30647">
        <ele>71</ele>
        <time>2014-04-14T07:29:48Z</time>
      </trkpt>
      <trkpt lat="48.01197" lon="3.30652">
        <ele>71</ele>
        <time>2014-04-14T07:29:51Z</time>
      </trkpt>
      <trkpt lat="48.01193" lon="3.30655">
        <ele>72</ele>
        <time>2014-04-14T07:29:55Z</time>
      </trkpt>
      <trkpt lat="48.01188" lon="3.30656">
        <ele>72</ele>
        <time>2014-04-14T07:30:01Z</time>
      </trkpt>
      <trkpt lat="48.01182" lon="3.30657">
        <ele>72</ele>
        <time>2014-04-14T07:30:04Z</time>
      </trkpt>
      <trkpt lat="48.01178" lon="3.30658">
        <ele>72</ele>
        <time>2014-04-14T07:30:06Z</time>
      </trkpt>
      <trkpt lat="48.01172" lon="3.30657">
        <ele>72</ele>
        <time>2014-04-14T07:30:10Z</time>
      </trkpt>
      <trkpt lat="48.01167" lon="3.30657">
        <ele>72</ele>
        <time>2014-04-14T07:30:15Z</time>
      </trkpt>
      <trkpt lat="48.01163" lon="3.30657">
        <ele>72</ele>
        <time>2014-04-14T07:30:20Z</time>
      </trkpt>
      <trkpt lat="48.01158" lon="3.30658">
        <ele>72</ele>
        <time>2014-04-14T07:30:24Z</time>
      </trkpt>
      <trkpt lat="48.01153" lon="3.30659">
        <ele>72</ele>
        <time>2014-04-14T07:30:28Z</time>
      </trkpt>
      <trkpt lat="48.01148" lon="3.30661">
        <ele>72</ele>
        <time>2014-04-14T07:30:32Z</time>
      </trkpt>
      <trkpt lat="48.01143" lon="3.30662">
        <ele>72</ele>
        <time>2014-04-14T07:30:35Z</time>
      </trkpt>
      <trkpt lat="48.01137" lon="3.30662">
        <ele>72</ele>
        <time>2014-04-14T07:30:51Z</time>
      </trkpt>
      <trkpt lat="48.01133" lon="3.30662">
        <ele>72</ele>
        <time>2014-04-14T07:30:55Z</time>
      </trkpt>
      <trkpt lat="48.01128" lon="3.30663">
        <ele>72</ele>
        <time>2014-04-14T07:30:59Z</time>
      </trkpt>
      <trkpt lat="48.01123" lon="3.30665">
        <ele>72</ele>
        <time>2014-04-14T07:31:03Z</time>
      </trkpt>
      <trkpt lat="48.01119" lon="3.30668">
        <ele>72</ele>
        <time>2014-04-14T07:31:07Z</time>
      </trkpt>
      <trkpt lat="48.01115" lon="3.30671">
        <ele>72</ele>
        <time>2014-04-14T07:31:11Z</time>
      </trkpt>
      <trkpt lat="48.0111" lon="3.30675">
        <ele>72</ele>
        <time>2014-04-14T07:31:15Z</time>
      </trkpt>
      <trkpt lat="48.01106" lon="3.30679">
        <ele>72</ele>
        <time>2014-04-14T07:31:19Z</time>
      </trkpt>
      <trkpt lat="48.01101" lon="3.30681">
        <ele>71</ele>
        <time>2014-04-14T07:31:24Z</time>
      </trkpt>
      <trkpt lat="48.01097" lon="3.30684">
        <ele>71</ele>
        <time>2014-04-14T07:31:28Z</time>
      </trkpt>
      <trkpt lat="48.01092" lon="3.30687">
        <ele>71</ele>
        <time>2014-04-14T07:31:34Z</time>
      </trkpt>
      <trkpt lat="48.01086" lon="3.30686">
        <ele>71</ele>
        <time>2014-04-14T07:31:38Z</time>
      </trkpt>
      <trkpt lat="48.01082" lon="3.30692">
        <ele>71</ele>
        <time>2014-04-14T07:31:46Z</time>
      </trkpt>
      <trkpt lat="48.01078" lon="3.30696">
        <ele>71</ele>
        <time>2014-04-14T07:31:49Z</time>
      </trkpt>
      <trkpt lat="48.01075" lon="3.307">
        <ele>71</ele>
        <time>2014-04-14T07:31:52Z</time>
      </trkpt>
      <trkpt lat="48.0107" lon="3.30705">
        <ele>71</ele>
        <time>2014-04-14T07:31:56Z</time>
      </trkpt>
      <trkpt lat="48.01064" lon="3.3071">
        <ele>71</ele>
        <time>2014-04-14T07:32:01Z</time>
      </trkpt>
      <trkpt lat="48.0106" lon="3.30719">
        <ele>71</ele>
        <time>2014-04-14T07:32:03Z</time>
      </trkpt>
      <trkpt lat="48.01056" lon="3.30725">
        <ele>71</ele>
        <time>2014-04-14T07:32:05Z</time>
      </trkpt>
      <trkpt lat="48.01053" lon="3.3073">
        <ele>71</ele>
        <time>2014-04-14T07:32:10Z</time>
      </trkpt>
      <trkpt lat="48.01049" lon="3.30734">
        <ele>71</ele>
        <time>2014-04-14T07:32:14Z</time>
      </trkpt>
      <trkpt lat="48.01045" lon="3.30737">
        <ele>71</ele>
        <time>2014-04-14T07:32:19Z</time>
      </trkpt>
      <trkpt lat="48.0104" lon="3.30738">
        <ele>71</ele>
        <time>2014-04-14T07:32:23Z</time>
      </trkpt>
      <trkpt lat="48.01036" lon="3.30743">
        <ele>71</ele>
        <time>2014-04-14T07:32:27Z</time>
      </trkpt>
      <trkpt lat="48.01031" lon="3.30744">
        <ele>71</ele>
        <time>2014-04-14T07:32:32Z</time>
      </trkpt>
      <trkpt lat="48.01026" lon="3.30749">
        <ele>71</ele>
        <time>2014-04-14T07:32:36Z</time>
      </trkpt>
      <trkpt lat="48.01021" lon="3.3075">
        <ele>71</ele>
        <time>2014-04-14T07:32:42Z</time>
      </trkpt>
      <trkpt lat="48.01017" lon="3.30754">
        <ele>71</ele>
        <time>2014-04-14T07:32:45Z</time>
      </trkpt>
      <trkpt lat="48.01014" lon="3.30761">
        <ele>71</ele>
        <time>2014-04-14T07:32:48Z</time>
      </trkpt>
      <trkpt lat="48.0101" lon="3.30767">
        <ele>71</ele>
        <time>2014-04-14T07:32:51Z</time>
      </trkpt>
      <trkpt lat="48.01006" lon="3.30762">
        <ele>71</ele>
        <time>2014-04-14T07:32:56Z</time>
      </trkpt>
      <trkpt lat="48.01001" lon="3.30765">
        <ele>71</ele>
        <time>2014-04-14T07:33:01Z</time>
      </trkpt>
      <trkpt lat="48.00997" lon="3.3077">
        <ele>72</ele>
        <time>2014-04-14T07:33:04Z</time>
      </trkpt>
      <trkpt lat="48.00992" lon="3.30772">
        <ele>72</ele>
        <time>2014-04-14T07:33:07Z</time>
      </trkpt>
      <trkpt lat="48.00987" lon="3.30775">
        <ele>72</ele>
        <time>2014-04-14T07:33:11Z</time>
      </trkpt>
      <trkpt lat="48.00982" lon="3.30776">
        <ele>72</ele>
        <time>2014-04-14T07:33:15Z</time>
      </trkpt>
      <trkpt lat="48.00977" lon="3.30781">
        <ele>72</ele>
        <time>2014-04-14T07:33:19Z</time>
      </trkpt>
      <trkpt lat="48.00973" lon="3.30787">
        <ele>72</ele>
        <time>2014-04-14T07:33:23Z</time>
      </trkpt>
      <trkpt lat="48.00968" lon="3.30789">
        <ele>72</ele>
        <time>2014-04-14T07:33:28Z</time>
      </trkpt>
      <trkpt lat="48.00964" lon="3.30792">
        <ele>72</ele>
        <time>2014-04-14T07:33:33Z</time>
      </trkpt>
      <trkpt lat="48.0096" lon="3.30796">
        <ele>72</ele>
        <time>2014-04-14T07:33:38Z</time>
      </trkpt>
      <trkpt lat="48.00955" lon="3.30798">
        <ele>72</ele>
        <time>2014-04-14T07:33:41Z</time>
      </trkpt>
      <trkpt lat="48.0095" lon="3.308">
        <ele>72</ele>
        <time>2014-04-14T07:33:44Z</time>
      </trkpt>
      <trkpt lat="48.00946" lon="3.30802">
        <ele>72</ele>
        <time>2014-04-14T07:33:47Z</time>
      </trkpt>
      <trkpt lat="48.0094" lon="3.30804">
        <ele>72</ele>
        <time>2014-04-14T07:33:51Z</time>
      </trkpt>
      <trkpt lat="48.00935" lon="3.30806">
        <ele>72</ele>
        <time>2014-04-14T07:33:55Z</time>
      </trkpt>
      <trkpt lat="48.00929" lon="3.30807">
        <ele>72</ele>
        <time>2014-04-14T07:34:00Z</time>
      </trkpt>
      <trkpt lat="48.00924" lon="3.30807">
        <ele>72</ele>
        <time>2014-04-14T07:34:05Z</time>
      </trkpt>
      <trkpt lat="48.00919" lon="3.30809">
        <ele>72</ele>
        <time>2014-04-14T07:34:10Z</time>
      </trkpt>
      <trkpt lat="48.00914" lon="3.30809">
        <ele>73</ele>
        <time>2014-04-14T07:34:15Z</time>
      </trkpt>
      <trkpt lat="48.00908" lon="3.30809">
        <ele>73</ele>
        <time>2014-04-14T07:34:20Z</time>
      </trkpt>
      <trkpt lat="48.00904" lon="3.30811">
        <ele>73</ele>
        <time>2014-04-14T07:34:24Z</time>
      </trkpt>
      <trkpt lat="48.00899" lon="3.30813">
        <ele>73</ele>
        <time>2014-04-14T07:34:29Z</time>
      </trkpt>
      <trkpt lat="48.00893" lon="3.30816">
        <ele>73</ele>
        <time>2014-04-14T07:34:33Z</time>
      </trkpt>
      <trkpt lat="48.00889" lon="3.30818">
        <ele>73</ele>
        <time>2014-04-14T07:34:36Z</time>
      </trkpt>
      <trkpt lat="48.00883" lon="3.30822">
        <ele>73</ele>
        <time>2014-04-14T07:34:39Z</time>
      </trkpt>
      <trkpt lat="48.00879" lon="3.30826">
        <ele>73</ele>
        <time>2014-04-14T07:34:43Z</time>
      </trkpt>
      <trkpt lat="48.00875" lon="3.3083">
        <ele>72</ele>
        <time>2014-04-14T07:34:46Z</time>
      </trkpt>
      <trkpt lat="48.0087" lon="3.30833">
        <ele>72</ele>
        <time>2014-04-14T07:34:49Z</time>
      </trkpt>
      <trkpt lat="48.00866" lon="3.30834">
        <ele>72</ele>
        <time>2014-04-14T07:34:52Z</time>
      </trkpt>
      <trkpt lat="48.00861" lon="3.30837">
        <ele>72</ele>
        <time>2014-04-14T07:34:56Z</time>
      </trkpt>
      <trkpt lat="48.00857" lon="3.30839">
        <ele>72</ele>
        <time>2014-04-14T07:35:01Z</time>
      </trkpt>
      <trkpt lat="48.00852" lon="3.30842">
        <ele>72</ele>
        <time>2014-04-14T07:35:04Z</time>
      </trkpt>
      <trkpt lat="48.00847" lon="3.30843">
        <ele>72</ele>
        <time>2014-04-14T07:35:08Z</time>
      </trkpt>
      <trkpt lat="48.00842" lon="3.30847">
        <ele>72</ele>
        <time>2014-04-14T07:35:14Z</time>
      </trkpt>
      <trkpt lat="48.00838" lon="3.30851">
        <ele>72</ele>
        <time>2014-04-14T07:35:17Z</time>
      </trkpt>
      <trkpt lat="48.00834" lon="3.30855">
        <ele>72</ele>
        <time>2014-04-14T07:35:20Z</time>
      </trkpt>
      <trkpt lat="48.00829" lon="3.30859">
        <ele>73</ele>
        <time>2014-04-14T07:35:24Z</time>
      </trkpt>
      <trkpt lat="48.00824" lon="3.30859">
        <ele>73</ele>
        <time>2014-04-14T07:35:29Z</time>
      </trkpt>
      <trkpt lat="48.00819" lon="3.30858">
        <ele>73</ele>
        <time>2014-04-14T07:35:33Z</time>
      </trkpt>
      <trkpt lat="48.00815" lon="3.30858">
        <ele>73</ele>
        <time>2014-04-14T07:35:37Z</time>
      </trkpt>
      <trkpt lat="48.0081" lon="3.30862">
        <ele>73</ele>
        <time>2014-04-14T07:35:41Z</time>
      </trkpt>
      <trkpt lat="48.00806" lon="3.30866">
        <ele>73</ele>
        <time>2014-04-14T07:35:45Z</time>
      </trkpt>
      <trkpt lat="48.00801" lon="3.30868">
        <ele>73</ele>
        <time>2014-04-14T07:35:49Z</time>
      </trkpt>
      <trkpt lat="48.00795" lon="3.30869">
        <ele>73</ele>
        <time>2014-04-14T07:35:53Z</time>
      </trkpt>
      <trkpt lat="48.00791" lon="3.30874">
        <ele>73</ele>
        <time>2014-04-14T07:35:57Z</time>
      </trkpt>
      <trkpt lat="48.00787" lon="3.30879">
        <ele>73</ele>
        <time>2014-04-14T07:36:01Z</time>
      </trkpt>
      <trkpt lat="48.00782" lon="3.30881">
        <ele>73</ele>
        <time>2014-04-14T07:36:07Z</time>
      </trkpt>
      <trkpt lat="48.00778" lon="3.30886">
        <ele>73</ele>
        <time>2014-04-14T07:36:12Z</time>
      </trkpt>
      <trkpt lat="48.00774" lon="3.30891">
        <ele>73</ele>
        <time>2014-04-14T07:36:15Z</time>
      </trkpt>
      <trkpt lat="48.00769" lon="3.3089">
        <ele>74</ele>
        <time>2014-04-14T07:36:20Z</time>
      </trkpt>
      <trkpt lat="48.00765" lon="3.3089">
        <ele>74</ele>
        <time>2014-04-14T07:36:25Z</time>
      </trkpt>
      <trkpt lat="48.00761" lon="3.30896">
        <ele>74</ele>
        <time>2014-04-14T07:36:29Z</time>
      </trkpt>
      <trkpt lat="48.00757" lon="3.30898">
        <ele>74</ele>
        <time>2014-04-14T07:36:34Z</time>
      </trkpt>
      <trkpt lat="48.00754" lon="3.30904">
        <ele>74</ele>
        <time>2014-04-14T07:36:39Z</time>
      </trkpt>
      <trkpt lat="48.00751" lon="3.3091">
        <ele>74</ele>
        <time>2014-04-14T07:36:43Z</time>
      </trkpt>
      <trkpt lat="48.00747" lon="3.30917">
        <ele>74</ele>
        <time>2014-04-14T07:36:47Z</time>
      </trkpt>
      <trkpt lat="48.00745" lon="3.30924">
        <ele>74</ele>
        <time>2014-04-14T07:36:51Z</time>
      </trkpt>
      <trkpt lat="48.00742" lon="3.3093">
        <ele>73</ele>
        <time>2014-04-14T07:36:55Z</time>
      </trkpt>
      <trkpt lat="48.0074" lon="3.30936">
        <ele>73</ele>
        <time>2014-04-14T07:36:59Z</time>
      </trkpt>
      <trkpt lat="48.00739" lon="3.30943">
        <ele>73</ele>
        <time>2014-04-14T07:37:03Z</time>
      </trkpt>
      <trkpt lat="48.00738" lon="3.30951">
        <ele>73</ele>
        <time>2014-04-14T07:37:07Z</time>
      </trkpt>
      <trkpt lat="48.00735" lon="3.30957">
        <ele>73</ele>
        <time>2014-04-14T07:37:11Z</time>
      </trkpt>
      <trkpt lat="48.00732" lon="3.30964">
        <ele>73</ele>
        <time>2014-04-14T07:37:15Z</time>
      </trkpt>
      <trkpt lat="48.00729" lon="3.3097">
        <ele>73</ele>
        <time>2014-04-14T07:37:19Z</time>
      </trkpt>
      <trkpt lat="48.00727" lon="3.30976">
        <ele>73</ele>
        <time>2014-04-14T07:37:23Z</time>
      </trkpt>
      <trkpt lat="48.00724" lon="3.30983">
        <ele>73</ele>
        <time>2014-04-14T07:37:28Z</time>
      </trkpt>
      <trkpt lat="48.00722" lon="3.30989">
        <ele>73</ele>
        <time>2014-04-14T07:37:31Z</time>
      </trkpt>
      <trkpt lat="48.00721" lon="3.30996">
        <ele>73</ele>
        <time>2014-04-14T07:37:35Z</time>
      </trkpt>
      <trkpt lat="48.00718" lon="3.31003">
        <ele>72</ele>
        <time>2014-04-14T07:37:39Z</time>
      </trkpt>
      <trkpt lat="48.00715" lon="3.31009">
        <ele>72</ele>
        <time>2014-04-14T07:37:43Z</time>
      </trkpt>
      <trkpt lat="48.00712" lon="3.31017">
        <ele>72</ele>
        <time>2014-04-14T07:37:47Z</time>
      </trkpt>
      <trkpt lat="48.00708" lon="3.31023">
        <ele>72</ele>
        <time>2014-04-14T07:37:51Z</time>
      </trkpt>
      <trkpt lat="48.00705" lon="3.31029">
        <ele>72</ele>
        <time>2014-04-14T07:37:55Z</time>
      </trkpt>
      <trkpt lat="48.00701" lon="3.31034">
        <ele>72</ele>
        <time>2014-04-14T07:37:59Z</time>
      </trkpt>
      <trkpt lat="48.00698" lon="3.3104">
        <ele>72</ele>
        <time>2014-04-14T07:38:03Z</time>
      </trkpt>
      <trkpt lat="48.00695" lon="3.31047">
        <ele>72</ele>
        <time>2014-04-14T07:38:07Z</time>
      </trkpt>
      <trkpt lat="48.00692" lon="3.31052">
        <ele>72</ele>
        <time>2014-04-14T07:38:11Z</time>
      </trkpt>
      <trkpt lat="48.00688" lon="3.31057">
        <ele>72</ele>
        <time>2014-04-14T07:38:15Z</time>
      </trkpt>
      <trkpt lat="48.00685" lon="3.31063">
        <ele>72</ele>
        <time>2014-04-14T07:38:19Z</time>
      </trkpt>
      <trkpt lat="48.00682" lon="3.3107">
        <ele>72</ele>
        <time>2014-04-14T07:38:23Z</time>
      </trkpt>
      <trkpt lat="48.00678" lon="3.31077">
        <ele>72</ele>
        <time>2014-04-14T07:38:27Z</time>
      </trkpt>
      <trkpt lat="48.00675" lon="3.31082">
        <ele>72</ele>
        <time>2014-04-14T07:38:31Z</time>
      </trkpt>
      <trkpt lat="48.00672" lon="3.31087">
        <ele>72</ele>
        <time>2014-04-14T07:38:35Z</time>
      </trkpt>
      <trkpt lat="48.00667" lon="3.31092">
        <ele>72</ele>
        <time>2014-04-14T07:38:40Z</time>
      </trkpt>
      <trkpt lat="48.00665" lon="3.311">
        <ele>72</ele>
        <time>2014-04-14T07:38:44Z</time>
      </trkpt>
      <trkpt lat="48.00662" lon="3.31106">
        <ele>72</ele>
        <time>2014-04-14T07:38:47Z</time>
      </trkpt>
      <trkpt lat="48.00658" lon="3.31112">
        <ele>72</ele>
        <time>2014-04-14T07:38:51Z</time>
      </trkpt>
      <trkpt lat="48.00654" lon="3.31117">
        <ele>72</ele>
        <time>2014-04-14T07:38:55Z</time>
      </trkpt>
      <trkpt lat="48.00651" lon="3.31123">
        <ele>72</ele>
        <time>2014-04-14T07:38:59Z</time>
      </trkpt>
      <trkpt lat="48.00648" lon="3.31128">
        <ele>72</ele>
        <time>2014-04-14T07:39:04Z</time>
      </trkpt>
      <trkpt lat="48.00646" lon="3.31135">
        <ele>72</ele>
        <time>2014-04-14T07:39:09Z</time>
      </trkpt>
      <trkpt lat="48.00642" lon="3.31142">
        <ele>72</ele>
        <time>2014-04-14T07:39:13Z</time>
      </trkpt>
      <trkpt lat="48.00638" lon="3.31148">
        <ele>72</ele>
        <time>2014-04-14T07:39:17Z</time>
      </trkpt>
      <trkpt lat="48.00633" lon="3.31151">
        <ele>72</ele>
        <time>2014-04-14T07:39:20Z</time>
      </trkpt>
      <trkpt lat="48.00629" lon="3.31155">
        <ele>72</ele>
        <time>2014-04-14T07:39:23Z</time>
      </trkpt>
      <trkpt lat="48.00627" lon="3.31162">
        <ele>72</ele>
        <time>2014-04-14T07:39:27Z</time>
      </trkpt>
      <trkpt lat="48.00624" lon="3.31168">
        <ele>73</ele>
        <time>2014-04-14T07:39:31Z</time>
      </trkpt>
      <trkpt lat="48.0062" lon="3.31173">
        <ele>73</ele>
        <time>2014-04-14T07:39:35Z</time>
      </trkpt>
      <trkpt lat="48.00617" lon="3.31179">
        <ele>73</ele>
        <time>2014-04-14T07:39:40Z</time>
      </trkpt>
      <trkpt lat="48.00614" lon="3.31185">
        <ele>73</ele>
        <time>2014-04-14T07:39:44Z</time>
      </trkpt>
      <trkpt lat="48.00611" lon="3.31192">
        <ele>73</ele>
        <time>2014-04-14T07:39:48Z</time>
      </trkpt>
      <trkpt lat="48.00611" lon="3.31199">
        <ele>73</ele>
        <time>2014-04-14T07:39:51Z</time>
      </trkpt>
      <trkpt lat="48.00608" lon="3.31206">
        <ele>73</ele>
        <time>2014-04-14T07:39:55Z</time>
      </trkpt>
      <trkpt lat="48.00603" lon="3.31213">
        <ele>73</ele>
        <time>2014-04-14T07:39:59Z</time>
      </trkpt>
      <trkpt lat="48.00599" lon="3.31217">
        <ele>73</ele>
        <time>2014-04-14T07:40:03Z</time>
      </trkpt>
      <trkpt lat="48.00595" lon="3.31224">
        <ele>73</ele>
        <time>2014-04-14T07:40:07Z</time>
      </trkpt>
      <trkpt lat="48.00592" lon="3.3123">
        <ele>73</ele>
        <time>2014-04-14T07:40:11Z</time>
      </trkpt>
      <trkpt lat="48.00588" lon="3.31237">
        <ele>73</ele>
        <time>2014-04-14T07:40:16Z</time>
      </trkpt>
      <trkpt lat="48.00584" lon="3.31242">
        <ele>73</ele>
        <time>2014-04-14T07:40:20Z</time>
      </trkpt>
      <trkpt lat="48.00582" lon="3.31248">
        <ele>73</ele>
        <time>2014-04-14T07:40:24Z</time>
      </trkpt>
      <trkpt lat="48.00576" lon="3.31251">
        <ele>73</ele>
        <time>2014-04-14T07:40:50Z</time>
      </trkpt>
      <trkpt lat="48.00574" lon="3.31257">
        <ele>73</ele>
        <time>2014-04-14T07:40:56Z</time>
      </trkpt>
      <trkpt lat="48.00573" lon="3.31264">
        <ele>74</ele>
        <time>2014-04-14T07:41:06Z</time>
      </trkpt>
      <trkpt lat="48.00571" lon="3.31268">
        <ele>74</ele>
        <time>2014-04-14T07:43:33Z</time>
      </trkpt>
      <trkpt lat="48.0057" lon="3.31274">
        <ele>74</ele>
        <time>2014-04-14T07:43:38Z</time>
      </trkpt>
      <trkpt lat="48.00569" lon="3.31282">
        <ele>74</ele>
        <time>2014-04-14T07:43:44Z</time>
      </trkpt>
      <trkpt lat="48.00567" lon="3.31288">
        <ele>74</ele>
        <time>2014-04-14T07:43:49Z</time>
      </trkpt>
      <trkpt lat="48.00567" lon="3.31295">
        <ele>74</ele>
        <time>2014-04-14T07:43:54Z</time>
      </trkpt>
      <trkpt lat="48.00566" lon="3.31302">
        <ele>74</ele>
        <time>2014-04-14T07:43:58Z</time>
      </trkpt>
      <trkpt lat="48.00563" lon="3.31307">
        <ele>74</ele>
        <time>2014-04-14T07:44:02Z</time>
      </trkpt>
      <trkpt lat="48.00561" lon="3.31315">
        <ele>74</ele>
        <time>2014-04-14T07:44:07Z</time>
      </trkpt>
      <trkpt lat="48.0056" lon="3.31323">
        <ele>74</ele>
        <time>2014-04-14T07:44:11Z</time>
      </trkpt>
      <trkpt lat="48.00558" lon="3.31331">
        <ele>74</ele>
        <time>2014-04-14T07:44:15Z</time>
      </trkpt>
      <trkpt lat="48.00556" lon="3.31339">
        <ele>75</ele>
        <time>2014-04-14T07:44:19Z</time>
      </trkpt>
      <trkpt lat="48.00554" lon="3.31347">
        <ele>75</ele>
        <time>2014-04-14T07:44:23Z</time>
      </trkpt>
      <trkpt lat="48.00553" lon="3.31353">
        <ele>75</ele>
        <time>2014-04-14T07:44:27Z</time>
      </trkpt>
      <trkpt lat="48.00552" lon="3.31361">
        <ele>75</ele>
        <time>2014-04-14T07:44:31Z</time>
      </trkpt>
      <trkpt lat="48.00551" lon="3.31368">
        <ele>75</ele>
        <time>2014-04-14T07:44:35Z</time>
      </trkpt>
      <trkpt lat="48.00549" lon="3.31376">
        <ele>76</ele>
        <time>2014-04-14T07:44:39Z</time>
      </trkpt>
      <trkpt lat="48.00549" lon="3.31384">
        <ele>76</ele>
        <time>2014-04-14T07:44:43Z</time>
      </trkpt>
      <trkpt lat="48.00548" lon="3.31391">
        <ele>76</ele>
        <time>2014-04-14T07:44:47Z</time>
      </trkpt>
      <trkpt lat="48.00547" lon="3.31398">
        <ele>76</ele>
        <time>2014-04-14T07:44:51Z</time>
      </trkpt>
      <trkpt lat="48.00544" lon="3.31406">
        <ele>76</ele>
        <time>2014-04-14T07:44:55Z</time>
      </trkpt>
      <trkpt lat="48.00543" lon="3.31412">
        <ele>76</ele>
        <time>2014-04-14T07:44:58Z</time>
      </trkpt>
      <trkpt lat="48.00541" lon="3.3142">
        <ele>76</ele>
        <time>2014-04-14T07:45:02Z</time>
      </trkpt>
      <trkpt lat="48.0054" lon="3.31428">
        <ele>76</ele>
        <time>2014-04-14T07:45:05Z</time>
      </trkpt>
      <trkpt lat="48.00538" lon="3.31435">
        <ele>76</ele>
        <time>2014-04-14T07:45:09Z</time>
      </trkpt>
      <trkpt lat="48.00535" lon="3.31442">
        <ele>76</ele>
        <time>2014-04-14T07:45:13Z</time>
      </trkpt>
      <trkpt lat="48.00534" lon="3.31449">
        <ele>76</ele>
        <time>2014-04-14T07:45:17Z</time>
      </trkpt>
      <trkpt lat="48.00532" lon="3.31457">
        <ele>76</ele>
        <time>2014-04-14T07:45:21Z</time>
      </trkpt>
      <trkpt lat="48.0053" lon="3.31464">
        <ele>76</ele>
        <time>2014-04-14T07:45:25Z</time>
      </trkpt>
      <trkpt lat="48.00528" lon="3.31471">
        <ele>76</ele>
        <time>2014-04-14T07:45:29Z</time>
      </trkpt>
      <trkpt lat="48.00527" lon="3.31478">
        <ele>76</ele>
        <time>2014-04-14T07:45:33Z</time>
      </trkpt>
      <trkpt lat="48.00523" lon="3.31482">
        <ele>76</ele>
        <time>2014-04-14T07:45:39Z</time>
      </trkpt>
      <trkpt lat="48.00522" lon="3.31488">
        <ele>76</ele>
        <time>2014-04-14T07:45:44Z</time>
      </trkpt>
      <trkpt lat="48.00522" lon="3.31495">
        <ele>76</ele>
        <time>2014-04-14T07:45:49Z</time>
      </trkpt>
      <trkpt lat="48.00521" lon="3.31502">
        <ele>75</ele>
        <time>2014-04-14T07:45:54Z</time>
      </trkpt>
      <trkpt lat="48.00518" lon="3.31508">
        <ele>75</ele>
        <time>2014-04-14T07:45:58Z</time>
      </trkpt>
      <trkpt lat="48.00517" lon="3.31515">
        <ele>75</ele>
        <time>2014-04-14T07:46:03Z</time>
      </trkpt>
      <trkpt lat="48.00517" lon="3.31522">
        <ele>75</ele>
        <time>2014-04-14T07:46:08Z</time>
      </trkpt>
      <trkpt lat="48.00517" lon="3.31529">
        <ele>75</ele>
        <time>2014-04-14T07:46:12Z</time>
      </trkpt>
      <trkpt lat="48.00519" lon="3.31537">
        <ele>75</ele>
        <time>2014-04-14T07:46:18Z</time>
      </trkpt>
      <trkpt lat="48.00518" lon="3.31544">
        <ele>75</ele>
        <time>2014-04-14T07:46:22Z</time>
      </trkpt>
      <trkpt lat="48.00517" lon="3.31551">
        <ele>75</ele>
        <time>2014-04-14T07:46:26Z</time>
      </trkpt>
      <trkpt lat="48.00517" lon="3.31558">
        <ele>75</ele>
        <time>2014-04-14T07:46:31Z</time>
      </trkpt>
      <trkpt lat="48.00518" lon="3.31566">
        <ele>75</ele>
        <time>2014-04-14T07:46:36Z</time>
      </trkpt>
      <trkpt lat="48.00517" lon="3.31573">
        <ele>75</ele>
        <time>2014-04-14T07:46:39Z</time>
      </trkpt>
      <trkpt lat="48.00516" lon="3.3158">
        <ele>75</ele>
        <time>2014-04-14T07:46:42Z</time>
      </trkpt>
      <trkpt lat="48.00515" lon="3.31587">
        <ele>74</ele>
        <time>2014-04-14T07:46:45Z</time>
      </trkpt>
      <trkpt lat="48.00516" lon="3.31595">
        <ele>74</ele>
        <time>2014-04-14T07:46:49Z</time>
      </trkpt>
      <trkpt lat="48.00515" lon="3.31602">
        <ele>74</ele>
        <time>2014-04-14T07:46:53Z</time>
      </trkpt>
      <trkpt lat="48.00513" lon="3.31609">
        <ele>74</ele>
        <time>2014-04-14T07:46:58Z</time>
      </trkpt>
      <trkpt lat="48.00512" lon="3.31617">
        <ele>73</ele>
        <time>2014-04-14T07:47:03Z</time>
      </trkpt>
      <trkpt lat="48.00513" lon="3.31623">
        <ele>73</ele>
        <time>2014-04-14T07:47:07Z</time>
      </trkpt>
      <trkpt lat="48.00512" lon="3.3163">
        <ele>73</ele>
        <time>2014-04-14T07:47:11Z</time>
      </trkpt>
      <trkpt lat="48.00511" lon="3.31637">
        <ele>73</ele>
        <time>2014-04-14T07:47:14Z</time>
      </trkpt>
      <trkpt lat="48.00511" lon="3.31645">
        <ele>73</ele>
        <time>2014-04-14T07:47:17Z</time>
      </trkpt>
      <trkpt lat="48.00512" lon="3.31653">
        <ele>73</ele>
        <time>2014-04-14T07:47:20Z</time>
      </trkpt>
      <trkpt lat="48.00512" lon="3.31659">
        <ele>73</ele>
        <time>2014-04-14T07:47:23Z</time>
      </trkpt>
      <trkpt lat="48.0051" lon="3.31666">
        <ele>73</ele>
        <time>2014-04-14T07:47:26Z</time>
      </trkpt>
      <trkpt lat="48.00508" lon="3.31673">
        <ele>73</ele>
        <time>2014-04-14T07:47:29Z</time>
      </trkpt>
      <trkpt lat="48.00507" lon="3.31682">
        <ele>72</ele>
        <time>2014-04-14T07:47:33Z</time>
      </trkpt>
      <trkpt lat="48.00505" lon="3.31688">
        <ele>72</ele>
        <time>2014-04-14T07:47:36Z</time>
      </trkpt>
      <trkpt lat="48.00504" lon="3.31695">
        <ele>72</ele>
        <time>2014-04-14T07:47:39Z</time>
      </trkpt>
      <trkpt lat="48.00504" lon="3.31703">
        <ele>72</ele>
        <time>2014-04-14T07:47:43Z</time>
      </trkpt>
      <trkpt lat="48.00502" lon="3.3171">
        <ele>72</ele>
        <time>2014-04-14T07:47:47Z</time>
      </trkpt>
      <trkpt lat="48.005" lon="3.31718">
        <ele>73</ele>
        <time>2014-04-14T07:47:51Z</time>
      </trkpt>
      <trkpt lat="48.00498" lon="3.31725">
        <ele>73</ele>
        <time>2014-04-14T07:47:55Z</time>
      </trkpt>
      <trkpt lat="48.00496" lon="3.31732">
        <ele>72</ele>
        <time>2014-04-14T07:47:59Z</time>
      </trkpt>
      <trkpt lat="48.00493" lon="3.31739">
        <ele>72</ele>
        <time>2014-04-14T07:48:03Z</time>
      </trkpt>
      <trkpt lat="48.00492" lon="3.31747">
        <ele>72</ele>
        <time>2014-04-14T07:48:07Z</time>
      </trkpt>
      <trkpt lat="48.00492" lon="3.31755">
        <ele>73</ele>
        <time>2014-04-14T07:48:11Z</time>
      </trkpt>
      <trkpt lat="48.0049" lon="3.31762">
        <ele>73</ele>
        <time>2014-04-14T07:48:15Z</time>
      </trkpt>
      <trkpt lat="48.0049" lon="3.3177">
        <ele>73</ele>
        <time>2014-04-14T07:48:19Z</time>
      </trkpt>
      <trkpt lat="48.00488" lon="3.31778">
        <ele>73</ele>
        <time>2014-04-14T07:48:23Z</time>
      </trkpt>
      <trkpt lat="48.00487" lon="3.31785">
        <ele>73</ele>
        <time>2014-04-14T07:48:26Z</time>
      </trkpt>
      <trkpt lat="48.00487" lon="3.31792">
        <ele>73</ele>
        <time>2014-04-14T07:48:29Z</time>
      </trkpt>
      <trkpt lat="48.00488" lon="3.318">
        <ele>73</ele>
        <time>2014-04-14T07:48:33Z</time>
      </trkpt>
      <trkpt lat="48.00487" lon="3.31807">
        <ele>73</ele>
        <time>2014-04-14T07:48:37Z</time>
      </trkpt>
      <trkpt lat="48.00486" lon="3.31813">
        <ele>73</ele>
        <time>2014-04-14T07:48:40Z</time>
      </trkpt>
      <trkpt lat="48.00487" lon="3.31821">
        <ele>73</ele>
        <time>2014-04-14T07:48:43Z</time>
      </trkpt>
      <trkpt lat="48.00485" lon="3.31829">
        <ele>73</ele>
        <time>2014-04-14T07:48:47Z</time>
      </trkpt>
      <trkpt lat="48.00483" lon="3.31836">
        <ele>74</ele>
        <time>2014-04-14T07:48:51Z</time>
      </trkpt>
      <trkpt lat="48.00481" lon="3.31844">
        <ele>74</ele>
        <time>2014-04-14T07:48:57Z</time>
      </trkpt>
      <trkpt lat="48.00479" lon="3.3185">
        <ele>74</ele>
        <time>2014-04-14T07:49:02Z</time>
      </trkpt>
      <trkpt lat="48.00477" lon="3.31857">
        <ele>74</ele>
        <time>2014-04-14T07:49:06Z</time>
      </trkpt>
      <trkpt lat="48.00476" lon="3.31864">
        <ele>74</ele>
        <time>2014-04-14T07:49:11Z</time>
      </trkpt>
      <trkpt lat="48.00475" lon="3.31871">
        <ele>74</ele>
        <time>2014-04-14T07:49:14Z</time>
      </trkpt>
      <trkpt lat="48.00475" lon="3.31878">
        <ele>74</ele>
        <time>2014-04-14T07:49:17Z</time>
      </trkpt>
      <trkpt lat="48.00474" lon="3.31886">
        <ele>74</ele>
        <time>2014-04-14T07:49:21Z</time>
      </trkpt>
      <trkpt lat="48.00472" lon="3.31894">
        <ele>74</ele>
        <time>2014-04-14T07:49:25Z</time>
      </trkpt>
      <trkpt lat="48.0047" lon="3.319">
        <ele>74</ele>
        <time>2014-04-14T07:49:30Z</time>
      </trkpt>
      <trkpt lat="48.00467" lon="3.31906">
        <ele>74</ele>
        <time>2014-04-14T07:49:35Z</time>
      </trkpt>
      <trkpt lat="48.00465" lon="3.31912">
        <ele>74</ele>
        <time>2014-04-14T07:49:39Z</time>
      </trkpt>
      <trkpt lat="48.00464" lon="3.31919">
        <ele>74</ele>
        <time>2014-04-14T07:49:42Z</time>
      </trkpt>
      <trkpt lat="48.00463" lon="3.31926">
        <ele>74</ele>
        <time>2014-04-14T07:49:45Z</time>
      </trkpt>
      <trkpt lat="48.00462" lon="3.31933">
        <ele>74</ele>
        <time>2014-04-14T07:49:48Z</time>
      </trkpt>
      <trkpt lat="48.00462" lon="3.3194">
        <ele>74</ele>
        <time>2014-04-14T07:49:51Z</time>
      </trkpt>
      <trkpt lat="48.00462" lon="3.31947">
        <ele>74</ele>
        <time>2014-04-14T07:49:54Z</time>
      </trkpt>
      <trkpt lat="48.00462" lon="3.31956">
        <ele>74</ele>
        <time>2014-04-14T07:49:58Z</time>
      </trkpt>
      <trkpt lat="48.00461" lon="3.31964">
        <ele>74</ele>
        <time>2014-04-14T07:50:02Z</time>
      </trkpt>
      <trkpt lat="48.00458" lon="3.31969">
        <ele>74</ele>
        <time>2014-04-14T07:50:06Z</time>
      </trkpt>
      <trkpt lat="48.00454" lon="3.31975">
        <ele>74</ele>
        <time>2014-04-14T07:50:10Z</time>
      </trkpt>
      <trkpt lat="48.00453" lon="3.31982">
        <ele>74</ele>
        <time>2014-04-14T07:50:14Z</time>
      </trkpt>
      <trkpt lat="48.00453" lon="3.31989">
        <ele>74</ele>
        <time>2014-04-14T07:50:20Z</time>
      </trkpt>
      <trkpt lat="48.00453" lon="3.31996">
        <ele>74</ele>
        <time>2014-04-14T07:50:25Z</time>
      </trkpt>
      <trkpt lat="48.00451" lon="3.32005">
        <ele>73</ele>
        <time>2014-04-14T07:50:30Z</time>
      </trkpt>
      <trkpt lat="48.0045" lon="3.32011">
        <ele>73</ele>
        <time>2014-04-14T07:50:33Z</time>
      </trkpt>
      <trkpt lat="48.0045" lon="3.32019">
        <ele>73</ele>
        <time>2014-04-14T07:50:36Z</time>
      </trkpt>
      <trkpt lat="48.0045" lon="3.32027">
        <ele>73</ele>
        <time>2014-04-14T07:50:39Z</time>
      </trkpt>
      <trkpt lat="48.00449" lon="3.32034">
        <ele>73</ele>
        <time>2014-04-14T07:50:42Z</time>
      </trkpt>
      <trkpt lat="48.00449" lon="3.32041">
        <ele>73</ele>
        <time>2014-04-14T07:50:47Z</time>
      </trkpt>
      <trkpt lat="48.00447" lon="3.32048">
        <ele>73</ele>
        <time>2014-04-14T07:50:52Z</time>
      </trkpt>
      <trkpt lat="48.00446" lon="3.32056">
        <ele>73</ele>
        <time>2014-04-14T07:50:57Z</time>
      </trkpt>
      <trkpt lat="48.00444" lon="3.32063">
        <ele>73</ele>
        <time>2014-04-14T07:51:01Z</time>
      </trkpt>
      <trkpt lat="48.00442" lon="3.32072">
        <ele>73</ele>
        <time>2014-04-14T07:51:05Z</time>
      </trkpt>
      <trkpt lat="48.0044" lon="3.32079">
        <ele>73</ele>
        <time>2014-04-14T07:51:08Z</time>
      </trkpt>
      <trkpt lat="48.00438" lon="3.32086">
        <ele>73</ele>
        <time>2014-04-14T07:51:11Z</time>
      </trkpt>
      <trkpt lat="48.00435" lon="3.32094">
        <ele>73</ele>
        <time>2014-04-14T07:51:14Z</time>
      </trkpt>
      <trkpt lat="48.00432" lon="3.32101">
        <ele>73</ele>
        <time>2014-04-14T07:51:16Z</time>
      </trkpt>
      <trkpt lat="48.00431" lon="3.32108">
        <ele>73</ele>
        <time>2014-04-14T07:51:18Z</time>
      </trkpt>
      <trkpt lat="48.00432" lon="3.32115">
        <ele>73</ele>
        <time>2014-04-14T07:51:22Z</time>
      </trkpt>
      <trkpt lat="48.0043" lon="3.32122">
        <ele>73</ele>
        <time>2014-04-14T07:51:28Z</time>
      </trkpt>
      <trkpt lat="48.00429" lon="3.32131">
        <ele>73</ele>
        <time>2014-04-14T07:51:34Z</time>
      </trkpt>
      <trkpt lat="48.00427" lon="3.32138">
        <ele>73</ele>
        <time>2014-04-14T07:51:37Z</time>
      </trkpt>
      <trkpt lat="48.00426" lon="3.32144">
        <ele>72</ele>
        <time>2014-04-14T07:51:42Z</time>
      </trkpt>
      <trkpt lat="48.00425" lon="3.32152">
        <ele>72</ele>
        <time>2014-04-14T07:51:48Z</time>
      </trkpt>
      <trkpt lat="48.00423" lon="3.3216">
        <ele>72</ele>
        <time>2014-04-14T07:51:52Z</time>
      </trkpt>
      <trkpt lat="48.00422" lon="3.32168">
        <ele>72</ele>
        <time>2014-04-14T07:51:56Z</time>
      </trkpt>
      <trkpt lat="48.0042" lon="3.32175">
        <ele>72</ele>
        <time>2014-04-14T07:52:00Z</time>
      </trkpt>
      <trkpt lat="48.00419" lon="3.32181">
        <ele>72</ele>
        <time>2014-04-14T07:52:04Z</time>
      </trkpt>
      <trkpt lat="48.00417" lon="3.32188">
        <ele>72</ele>
        <time>2014-04-14T07:52:09Z</time>
      </trkpt>
      <trkpt lat="48.00415" lon="3.32194">
        <ele>72</ele>
        <time>2014-04-14T07:52:13Z</time>
      </trkpt>
      <trkpt lat="48.00414" lon="3.32203">
        <ele>72</ele>
        <time>2014-04-14T07:52:16Z</time>
      </trkpt>
      <trkpt lat="48.00412" lon="3.3221">
        <ele>72</ele>
        <time>2014-04-14T07:52:18Z</time>
      </trkpt>
      <trkpt lat="48.0041" lon="3.32216">
        <ele>72</ele>
        <time>2014-04-14T07:52:22Z</time>
      </trkpt>
      <trkpt lat="48.00409" lon="3.32223">
        <ele>72</ele>
        <time>2014-04-14T07:52:27Z</time>
      </trkpt>
      <trkpt lat="48.00407" lon="3.3223">
        <ele>72</ele>
        <time>2014-04-14T07:52:31Z</time>
      </trkpt>
      <trkpt lat="48.00406" lon="3.32238">
        <ele>72</ele>
        <time>2014-04-14T07:52:35Z</time>
      </trkpt>
      <trkpt lat="48.00403" lon="3.32244">
        <ele>72</ele>
        <time>2014-04-14T07:52:41Z</time>
      </trkpt>
      <trkpt lat="48.00401" lon="3.32251">
        <ele>72</ele>
        <time>2014-04-14T07:52:45Z</time>
      </trkpt>
      <trkpt lat="48.00399" lon="3.32259">
        <ele>72</ele>
        <time>2014-04-14T07:52:48Z</time>
      </trkpt>
      <trkpt lat="48.00398" lon="3.32261">
        <ele>72</ele>
        <time>2014-04-14T07:53:00Z</time>
      </trkpt>
      <trkpt lat="48.00398" lon="3.3227">
        <ele>72</ele>
        <time>2014-04-14T07:53:18Z</time>
      </trkpt>
      <trkpt lat="48.00397" lon="3.32279">
        <ele>72</ele>
        <time>2014-04-14T07:53:22Z</time>
      </trkpt>
      <trkpt lat="48.00397" lon="3.32286">
        <ele>72</ele>
        <time>2014-04-14T07:53:26Z</time>
      </trkpt>
      <trkpt lat="48.00395" lon="3.32293">
        <ele>72</ele>
        <time>2014-04-14T07:53:31Z</time>
      </trkpt>
      <trkpt lat="48.00392" lon="3.323">
        <ele>72</ele>
        <time>2014-04-14T07:53:35Z</time>
      </trkpt>
      <trkpt lat="48.0039" lon="3.32307">
        <ele>72</ele>
        <time>2014-04-14T07:53:40Z</time>
      </trkpt>
      <trkpt lat="48.00389" lon="3.32314">
        <ele>72</ele>
        <time>2014-04-14T07:53:44Z</time>
      </trkpt>
      <trkpt lat="48.00387" lon="3.32321">
        <ele>72</ele>
        <time>2014-04-14T07:53:47Z</time>
      </trkpt>
      <trkpt lat="48.00385" lon="3.32328">
        <ele>72</ele>
        <time>2014-04-14T07:53:50Z</time>
      </trkpt>
      <trkpt lat="48.00384" lon="3.32335">
        <ele>72</ele>
        <time>2014-04-14T07:53:55Z</time>
      </trkpt>
      <trkpt lat="48.00383" lon="3.32342">
        <ele>72</ele>
        <time>2014-04-14T07:53:58Z</time>
      </trkpt>
      <trkpt lat="48.00382" lon="3.32349">
        <ele>72</ele>
        <time>2014-04-14T07:54:01Z</time>
      </trkpt>
      <trkpt lat="48.00381" lon="3.32356">
        <ele>72</ele>
        <time>2014-04-14T07:54:05Z</time>
      </trkpt>
      <trkpt lat="48.0038" lon="3.32363">
        <ele>72</ele>
        <time>2014-04-14T07:54:10Z</time>
      </trkpt>
      <trkpt lat="48.00379" lon="3.32371">
        <ele>72</ele>
        <time>2014-04-14T07:54:14Z</time>
      </trkpt>
      <trkpt lat="48.00377" lon="3.32377">
        <ele>72</ele>
        <time>2014-04-14T07:54:18Z</time>
      </trkpt>
      <trkpt lat="48.00375" lon="3.32384">
        <ele>72</ele>
        <time>2014-04-14T07:54:22Z</time>
      </trkpt>
      <trkpt lat="48.00373" lon="3.32392">
        <ele>72</ele>
        <time>2014-04-14T07:54:26Z</time>
      </trkpt>
      <trkpt lat="48.0037" lon="3.32398">
        <ele>72</ele>
        <time>2014-04-14T07:54:29Z</time>
      </trkpt>
      <trkpt lat="48.00369" lon="3.32405">
        <ele>72</ele>
        <time>2014-04-14T07:54:32Z</time>
      </trkpt>
      <trkpt lat="48.00368" lon="3.32411">
        <ele>72</ele>
        <time>2014-04-14T07:54:35Z</time>
      </trkpt>
      <trkpt lat="48.00367" lon="3.3242">
        <ele>72</ele>
        <time>2014-04-14T07:54:40Z</time>
      </trkpt>
      <trkpt lat="48.00366" lon="3.32427">
        <ele>72</ele>
        <time>2014-04-14T07:54:45Z</time>
      </trkpt>
      <trkpt lat="48.00365" lon="3.3243">
        <ele>72</ele>
        <time>2014-04-14T07:54:51Z</time>
      </trkpt>
      <trkpt lat="48.00361" lon="3.32434">
        <ele>72</ele>
        <time>2014-04-14T07:54:58Z</time>
      </trkpt>
      <trkpt lat="48.00358" lon="3.3244">
        <ele>72</ele>
        <time>2014-04-14T07:55:02Z</time>
      </trkpt>
      <trkpt lat="48.00354" lon="3.32445">
        <ele>72</ele>
        <time>2014-04-14T07:55:07Z</time>
      </trkpt>
      <trkpt lat="48.0035" lon="3.3245">
        <ele>72</ele>
        <time>2014-04-14T07:55:12Z</time>
      </trkpt>
      <trkpt lat="48.00346" lon="3.32454">
        <ele>72</ele>
        <time>2014-04-14T07:55:16Z</time>
      </trkpt>
      <trkpt lat="48.00341" lon="3.32457">
        <ele>72</ele>
        <time>2014-04-14T07:55:20Z</time>
      </trkpt>
      <trkpt lat="48.00337" lon="3.32462">
        <ele>73</ele>
        <time>2014-04-14T07:55:24Z</time>
      </trkpt>
      <trkpt lat="48.00335" lon="3.32468">
        <ele>73</ele>
        <time>2014-04-14T07:55:28Z</time>
      </trkpt>
      <trkpt lat="48.00333" lon="3.32474">
        <ele>73</ele>
        <time>2014-04-14T07:55:32Z</time>
      </trkpt>
      <trkpt lat="48.00332" lon="3.32483">
        <ele>73</ele>
        <time>2014-04-14T07:55:36Z</time>
      </trkpt>
      <trkpt lat="48.00332" lon="3.32491">
        <ele>73</ele>
        <time>2014-04-14T07:55:40Z</time>
      </trkpt>
      <trkpt lat="48.00333" lon="3.32499">
        <ele>73</ele>
        <time>2014-04-14T07:55:44Z</time>
      </trkpt>
      <trkpt lat="48.00335" lon="3.32505">
        <ele>73</ele>
        <time>2014-04-14T07:55:48Z</time>
      </trkpt>
      <trkpt lat="48.00337" lon="3.32513">
        <ele>73</ele>
        <time>2014-04-14T07:55:52Z</time>
      </trkpt>
      <trkpt lat="48.00337" lon="3.3252">
        <ele>73</ele>
        <time>2014-04-14T07:55:57Z</time>
      </trkpt>
      <trkpt lat="48.00338" lon="3.32527">
        <ele>73</ele>
        <time>2014-04-14T07:56:01Z</time>
      </trkpt>
      <trkpt lat="48.0034" lon="3.32535">
        <ele>73</ele>
        <time>2014-04-14T07:56:05Z</time>
      </trkpt>
      <trkpt lat="48.00342" lon="3.32542">
        <ele>73</ele>
        <time>2014-04-14T07:56:09Z</time>
      </trkpt>
      <trkpt lat="48.00343" lon="3.32551">
        <ele>73</ele>
        <time>2014-04-14T07:56:14Z</time>
      </trkpt>
      <trkpt lat="48.00346" lon="3.32557">
        <ele>73</ele>
        <time>2014-04-14T07:56:18Z</time>
      </trkpt>
      <trkpt lat="48.00349" lon="3.32565">
        <ele>73</ele>
        <time>2014-04-14T07:56:21Z</time>
      </trkpt>
      <trkpt lat="48.00351" lon="3.32571">
        <ele>73</ele>
        <time>2014-04-14T07:56:24Z</time>
      </trkpt>
      <trkpt lat="48.00353" lon="3.32577">
        <ele>73</ele>
        <time>2014-04-14T07:56:28Z</time>
      </trkpt>
      <trkpt lat="48.00356" lon="3.32584">
        <ele>73</ele>
        <time>2014-04-14T07:56:32Z</time>
      </trkpt>
      <trkpt lat="48.00356" lon="3.32592">
        <ele>73</ele>
        <time>2014-04-14T07:56:36Z</time>
      </trkpt>
      <trkpt lat="48.00353" lon="3.32599">
        <ele>73</ele>
        <time>2014-04-14T07:56:39Z</time>
      </trkpt>
      <trkpt lat="48.00353" lon="3.32606">
        <ele>73</ele>
        <time>2014-04-14T07:56:44Z</time>
      </trkpt>
      <trkpt lat="48.00356" lon="3.32612">
        <ele>73</ele>
        <time>2014-04-14T07:56:47Z</time>
      </trkpt>
      <trkpt lat="48.00359" lon="3.32619">
        <ele>73</ele>
        <time>2014-04-14T07:56:51Z</time>
      </trkpt>
      <trkpt lat="48.00361" lon="3.32624">
        <ele>73</ele>
        <time>2014-04-14T07:56:53Z</time>
      </trkpt>
      <trkpt lat="48.00363" lon="3.32632">
        <ele>73</ele>
        <time>2014-04-14T07:56:57Z</time>
      </trkpt>
      <trkpt lat="48.00363" lon="3.32639">
        <ele>73</ele>
        <time>2014-04-14T07:57:01Z</time>
      </trkpt>
      <trkpt lat="48.00366" lon="3.32645">
        <ele>73</ele>
        <time>2014-04-14T07:57:04Z</time>
      </trkpt>
      <trkpt lat="48.00369" lon="3.3265">
        <ele>73</ele>
        <time>2014-04-14T07:57:07Z</time>
      </trkpt>
      <trkpt lat="48.00371" lon="3.32656">
        <ele>73</ele>
        <time>2014-04-14T07:57:10Z</time>
      </trkpt>
      <trkpt lat="48.00375" lon="3.32662">
        <ele>73</ele>
        <time>2014-04-14T07:57:14Z</time>
      </trkpt>
      <trkpt lat="48.00379" lon="3.32667">
        <ele>73</ele>
        <time>2014-04-14T07:57:18Z</time>
      </trkpt>
      <trkpt lat="48.00381" lon="3.32674">
        <ele>73</ele>
        <time>2014-04-14T07:57:22Z</time>
      </trkpt>
      <trkpt lat="48.00377" lon="3.32679">
        <ele>73</ele>
        <time>2014-04-14T07:57:26Z</time>
      </trkpt>
      <trkpt lat="48.00374" lon="3.32684">
        <ele>73</ele>
        <time>2014-04-14T07:57:30Z</time>
      </trkpt>
      <trkpt lat="48.0038" lon="3.32692">
        <ele>73</ele>
        <time>2014-04-14T07:57:34Z</time>
      </trkpt>
      <trkpt lat="48.00383" lon="3.32698">
        <ele>73</ele>
        <time>2014-04-14T07:57:37Z</time>
      </trkpt>
      <trkpt lat="48.00386" lon="3.32705">
        <ele>73</ele>
        <time>2014-04-14T07:57:40Z</time>
      </trkpt>
      <trkpt lat="48.00388" lon="3.32711">
        <ele>73</ele>
        <time>2014-04-14T07:57:43Z</time>
      </trkpt>
      <trkpt lat="48.00389" lon="3.32719">
        <ele>73</ele>
        <time>2014-04-14T07:57:47Z</time>
      </trkpt>
      <trkpt lat="48.0039" lon="3.32726">
        <ele>73</ele>
        <time>2014-04-14T07:57:51Z</time>
      </trkpt>
      <trkpt lat="48.00389" lon="3.32733">
        <ele>73</ele>
        <time>2014-04-14T07:57:55Z</time>
      </trkpt>
      <trkpt lat="48.00386" lon="3.32739">
        <ele>73</ele>
        <time>2014-04-14T07:57:59Z</time>
      </trkpt>
      <trkpt lat="48.00382" lon="3.32745">
        <ele>73</ele>
        <time>2014-04-14T07:58:04Z</time>
      </trkpt>
      <trkpt lat="48.0038" lon="3.32752">
        <ele>73</ele>
        <time>2014-04-14T07:58:07Z</time>
      </trkpt>
      <trkpt lat="48.00381" lon="3.32759">
        <ele>73</ele>
        <time>2014-04-14T07:58:11Z</time>
      </trkpt>
      <trkpt lat="48.00384" lon="3.32764">
        <ele>73</ele>
        <time>2014-04-14T07:58:13Z</time>
      </trkpt>
      <trkpt lat="48.00386" lon="3.3277">
        <ele>73</ele>
        <time>2014-04-14T07:58:16Z</time>
      </trkpt>
      <trkpt lat="48.00388" lon="3.32776">
        <ele>73</ele>
        <time>2014-04-14T07:58:19Z</time>
      </trkpt>
      <trkpt lat="48.0039" lon="3.32784">
        <ele>73</ele>
        <time>2014-04-14T07:58:23Z</time>
      </trkpt>
      <trkpt lat="48.0039" lon="3.32791">
        <ele>73</ele>
        <time>2014-04-14T07:58:28Z</time>
      </trkpt>
      <trkpt lat="48.00393" lon="3.32799">
        <ele>73</ele>
        <time>2014-04-14T07:58:32Z</time>
      </trkpt>
      <trkpt lat="48.00396" lon="3.32806">
        <ele>73</ele>
        <time>2014-04-14T07:58:35Z</time>
      </trkpt>
      <trkpt lat="48.00398" lon="3.32812">
        <ele>73</ele>
        <time>2014-04-14T07:58:39Z</time>
      </trkpt>
      <trkpt lat="48.00398" lon="3.3282">
        <ele>74</ele>
        <time>2014-04-14T07:58:44Z</time>
      </trkpt>
      <trkpt lat="48.00401" lon="3.32825">
        <ele>74</ele>
        <time>2014-04-14T07:58:47Z</time>
      </trkpt>
      <trkpt lat="48.00404" lon="3.32831">
        <ele>74</ele>
        <time>2014-04-14T07:58:52Z</time>
      </trkpt>
      <trkpt lat="48.00406" lon="3.32838">
        <ele>74</ele>
        <time>2014-04-14T07:58:57Z</time>
      </trkpt>
      <trkpt lat="48.0041" lon="3.32845">
        <ele>74</ele>
        <time>2014-04-14T07:59:00Z</time>
      </trkpt>
      <trkpt lat="48.00413" lon="3.32853">
        <ele>74</ele>
        <time>2014-04-14T07:59:03Z</time>
      </trkpt>
      <trkpt lat="48.00415" lon="3.3286">
        <ele>74</ele>
        <time>2014-04-14T07:59:06Z</time>
      </trkpt>
      <trkpt lat="48.00417" lon="3.32867">
        <ele>75</ele>
        <time>2014-04-14T07:59:09Z</time>
      </trkpt>
      <trkpt lat="48.00419" lon="3.32875">
        <ele>75</ele>
        <time>2014-04-14T07:59:13Z</time>
      </trkpt>
      <trkpt lat="48.0042" lon="3.32883">
        <ele>75</ele>
        <time>2014-04-14T07:59:17Z</time>
      </trkpt>
      <trkpt lat="48.00421" lon="3.3289">
        <ele>75</ele>
        <time>2014-04-14T07:59:22Z</time>
      </trkpt>
      <trkpt lat="48.00421" lon="3.32897">
        <ele>75</ele>
        <time>2014-04-14T07:59:25Z</time>
      </trkpt>
      <trkpt lat="48.00422" lon="3.32905">
        <ele>75</ele>
        <time>2014-04-14T07:59:29Z</time>
      </trkpt>
      <trkpt lat="48.00423" lon="3.32911">
        <ele>74</ele>
        <time>2014-04-14T07:59:33Z</time>
      </trkpt>
      <trkpt lat="48.00425" lon="3.32917">
        <ele>75</ele>
        <time>2014-04-14T07:59:37Z</time>
      </trkpt>
      <trkpt lat="48.00426" lon="3.32924">
        <ele>75</ele>
        <time>2014-04-14T07:59:41Z</time>
      </trkpt>
      <trkpt lat="48.00427" lon="3.32932">
        <ele>75</ele>
        <time>2014-04-14T07:59:45Z</time>
      </trkpt>
      <trkpt lat="48.00429" lon="3.3294">
        <ele>75</ele>
        <time>2014-04-14T07:59:48Z</time>
      </trkpt>
      <trkpt lat="48.00427" lon="3.32941">
        <ele>75</ele>
        <time>2014-04-14T07:59:54Z</time>
      </trkpt>
      <trkpt lat="48.00425" lon="3.32947">
        <ele>75</ele>
        <time>2014-04-14T08:00:05Z</time>
      </trkpt>
      <trkpt lat="48.00429" lon="3.32954">
        <ele>75</ele>
        <time>2014-04-14T08:00:10Z</time>
      </trkpt>
      <trkpt lat="48.00433" lon="3.32957">
        <ele>75</ele>
        <time>2014-04-14T08:00:15Z</time>
      </trkpt>
      <trkpt lat="48.00433" lon="3.32964">
        <ele>75</ele>
        <time>2014-04-14T08:00:19Z</time>
      </trkpt>
      <trkpt lat="48.00433" lon="3.32973">
        <ele>75</ele>
        <time>2014-04-14T08:00:23Z</time>
      </trkpt>
      <trkpt lat="48.00431" lon="3.32979">
        <ele>75</ele>
        <time>2014-04-14T08:00:26Z</time>
      </trkpt>
      <trkpt lat="48.00428" lon="3.32986">
        <ele>75</ele>
        <time>2014-04-14T08:00:29Z</time>
      </trkpt>
      <trkpt lat="48.00427" lon="3.32994">
        <ele>75</ele>
        <time>2014-04-14T08:00:33Z</time>
      </trkpt>
      <trkpt lat="48.00428" lon="3.33001">
        <ele>75</ele>
        <time>2014-04-14T08:00:37Z</time>
      </trkpt>
      <trkpt lat="48.00429" lon="3.33008">
        <ele>76</ele>
        <time>2014-04-14T08:00:41Z</time>
      </trkpt>
      <trkpt lat="48.00431" lon="3.33015">
        <ele>76</ele>
        <time>2014-04-14T08:00:46Z</time>
      </trkpt>
      <trkpt lat="48.00433" lon="3.33022">
        <ele>76</ele>
        <time>2014-04-14T08:00:51Z</time>
      </trkpt>
      <trkpt lat="48.00435" lon="3.33028">
        <ele>76</ele>
        <time>2014-04-14T08:00:55Z</time>
      </trkpt>
      <trkpt lat="48.00436" lon="3.33035">
        <ele>76</ele>
        <time>2014-04-14T08:00:59Z</time>
      </trkpt>
      <trkpt lat="48.00437" lon="3.33043">
        <ele>76</ele>
        <time>2014-04-14T08:01:03Z</time>
      </trkpt>
      <trkpt lat="48.00437" lon="3.3305">
        <ele>76</ele>
        <time>2014-04-14T08:01:06Z</time>
      </trkpt>
      <trkpt lat="48.00437" lon="3.33058">
        <ele>76</ele>
        <time>2014-04-14T08:01:10Z</time>
      </trkpt>
      <trkpt lat="48.00438" lon="3.33065">
        <ele>76</ele>
        <time>2014-04-14T08:01:13Z</time>
      </trkpt>
      <trkpt lat="48.00439" lon="3.33071">
        <ele>76</ele>
        <time>2014-04-14T08:01:16Z</time>
      </trkpt>
      <trkpt lat="48.00441" lon="3.33078">
        <ele>76</ele>
        <time>2014-04-14T08:01:20Z</time>
      </trkpt>
      <trkpt lat="48.0044" lon="3.33085">
        <ele>77</ele>
        <time>2014-04-14T08:01:25Z</time>
      </trkpt>
      <trkpt lat="48.0044" lon="3.33092">
        <ele>77</ele>
        <time>2014-04-14T08:01:30Z</time>
      </trkpt>
      <trkpt lat="48.00442" lon="3.331">
        <ele>77</ele>
        <time>2014-04-14T08:01:35Z</time>
      </trkpt>
      <trkpt lat="48.00443" lon="3.33108">
        <ele>77</ele>
        <time>2014-04-14T08:01:39Z</time>
      </trkpt>
      <trkpt lat="48.00444" lon="3.33116">
        <ele>77</ele>
        <time>2014-04-14T08:01:42Z</time>
      </trkpt>
      <trkpt lat="48.00443" lon="3.33124">
        <ele>77</ele>
        <time>2014-04-14T08:01:45Z</time>
      </trkpt>
      <trkpt lat="48.00441" lon="3.33131">
        <ele>77</ele>
        <time>2014-04-14T08:01:49Z</time>
      </trkpt>
      <trkpt lat="48.00441" lon="3.33138">
        <ele>77</ele>
        <time>2014-04-14T08:01:53Z</time>
      </trkpt>
      <trkpt lat="48.0044" lon="3.33146">
        <ele>77</ele>
        <time>2014-04-14T08:01:57Z</time>
      </trkpt>
      <trkpt lat="48.0044" lon="3.33154">
        <ele>77</ele>
        <time>2014-04-14T08:02:01Z</time>
      </trkpt>
      <trkpt lat="48.0044" lon="3.33161">
        <ele>77</ele>
        <time>2014-04-14T08:02:05Z</time>
      </trkpt>
      <trkpt lat="48.00439" lon="3.33169">
        <ele>79</ele>
        <time>2014-04-14T08:02:09Z</time>
      </trkpt>
      <trkpt lat="48.00437" lon="3.33176">
        <ele>79</ele>
        <time>2014-04-14T08:02:13Z</time>
      </trkpt>
      <trkpt lat="48.00437" lon="3.33184">
        <ele>79</ele>
        <time>2014-04-14T08:02:17Z</time>
      </trkpt>
      <trkpt lat="48.00437" lon="3.33192">
        <ele>79</ele>
        <time>2014-04-14T08:02:21Z</time>
      </trkpt>
      <trkpt lat="48.00436" lon="3.33199">
        <ele>80</ele>
        <time>2014-04-14T08:02:25Z</time>
      </trkpt>
      <trkpt lat="48.00434" lon="3.33206">
        <ele>80</ele>
        <time>2014-04-14T08:02:29Z</time>
      </trkpt>
      <trkpt lat="48.00433" lon="3.33214">
        <ele>80</ele>
        <time>2014-04-14T08:02:33Z</time>
      </trkpt>
      <trkpt lat="48.00431" lon="3.33222">
        <ele>79</ele>
        <time>2014-04-14T08:02:37Z</time>
      </trkpt>
      <trkpt lat="48.00429" lon="3.33229">
        <ele>79</ele>
        <time>2014-04-14T08:02:41Z</time>
      </trkpt>
      <trkpt lat="48.00427" lon="3.33236">
        <ele>78</ele>
        <time>2014-04-14T08:02:45Z</time>
      </trkpt>
      <trkpt lat="48.00427" lon="3.33243">
        <ele>78</ele>
        <time>2014-04-14T08:02:49Z</time>
      </trkpt>
      <trkpt lat="48.00427" lon="3.33251">
        <ele>79</ele>
        <time>2014-04-14T08:02:53Z</time>
      </trkpt>
      <trkpt lat="48.00426" lon="3.33258">
        <ele>79</ele>
        <time>2014-04-14T08:02:57Z</time>
      </trkpt>
      <trkpt lat="48.00425" lon="3.33266">
        <ele>81</ele>
        <time>2014-04-14T08:03:03Z</time>
      </trkpt>
      <trkpt lat="48.00422" lon="3.33273">
        <ele>82</ele>
        <time>2014-04-14T08:03:06Z</time>
      </trkpt>
      <trkpt lat="48.00421" lon="3.3328">
        <ele>82</ele>
        <time>2014-04-14T08:03:10Z</time>
      </trkpt>
      <trkpt lat="48.00421" lon="3.33287">
        <ele>83</ele>
        <time>2014-04-14T08:03:14Z</time>
      </trkpt>
      <trkpt lat="48.0042" lon="3.33295">
        <ele>83</ele>
        <time>2014-04-14T08:03:19Z</time>
      </trkpt>
      <trkpt lat="48.00418" lon="3.33303">
        <ele>83</ele>
        <time>2014-04-14T08:03:23Z</time>
      </trkpt>
      <trkpt lat="48.00417" lon="3.33311">
        <ele>83</ele>
        <time>2014-04-14T08:03:27Z</time>
      </trkpt>
      <trkpt lat="48.00416" lon="3.33319">
        <ele>78</ele>
        <time>2014-04-14T08:03:31Z</time>
      </trkpt>
      <trkpt lat="48.00414" lon="3.33325">
        <ele>79</ele>
        <time>2014-04-14T08:03:36Z</time>
      </trkpt>
      <trkpt lat="48.00413" lon="3.33333">
        <ele>79</ele>
        <time>2014-04-14T08:03:40Z</time>
      </trkpt>
      <trkpt lat="48.00412" lon="3.33341">
        <ele>80</ele>
        <time>2014-04-14T08:03:44Z</time>
      </trkpt>
      <trkpt lat="48.0041" lon="3.33348">
        <ele>80</ele>
        <time>2014-04-14T08:03:48Z</time>
      </trkpt>
      <trkpt lat="48.00409" lon="3.33355">
        <ele>80</ele>
        <time>2014-04-14T08:03:52Z</time>
      </trkpt>
      <trkpt lat="48.00408" lon="3.33362">
        <ele>80</ele>
        <time>2014-04-14T08:03:56Z</time>
      </trkpt>
      <trkpt lat="48.00406" lon="3.3337">
        <ele>80</ele>
        <time>2014-04-14T08:04:01Z</time>
      </trkpt>
      <trkpt lat="48.00404" lon="3.33377">
        <ele>80</ele>
        <time>2014-04-14T08:04:05Z</time>
      </trkpt>
      <trkpt lat="48.00402" lon="3.33383">
        <ele>81</ele>
        <time>2014-04-14T08:04:08Z</time>
      </trkpt>
      <trkpt lat="48.004" lon="3.3339">
        <ele>81</ele>
        <time>2014-04-14T08:04:11Z</time>
      </trkpt>
      <trkpt lat="48.00399" lon="3.33397">
        <ele>81</ele>
        <time>2014-04-14T08:04:14Z</time>
      </trkpt>
      <trkpt lat="48.00398" lon="3.33404">
        <ele>82</ele>
        <time>2014-04-14T08:04:18Z</time>
      </trkpt>
      <trkpt lat="48.00396" lon="3.33411">
        <ele>82</ele>
        <time>2014-04-14T08:04:22Z</time>
      </trkpt>
      <trkpt lat="48.00393" lon="3.33419">
        <ele>83</ele>
        <time>2014-04-14T08:04:26Z</time>
      </trkpt>
      <trkpt lat="48.00389" lon="3.33425">
        <ele>82</ele>
        <time>2014-04-14T08:04:29Z</time>
      </trkpt>
      <trkpt lat="48.00387" lon="3.33432">
        <ele>82</ele>
        <time>2014-04-14T08:04:33Z</time>
      </trkpt>
      <trkpt lat="48.00386" lon="3.33439">
        <ele>82</ele>
        <time>2014-04-14T08:04:37Z</time>
      </trkpt>
      <trkpt lat="48.00384" lon="3.33446">
        <ele>82</ele>
        <time>2014-04-14T08:04:41Z</time>
      </trkpt>
      <trkpt lat="48.00383" lon="3.33453">
        <ele>82</ele>
        <time>2014-04-14T08:04:45Z</time>
      </trkpt>
      <trkpt lat="48.00383" lon="3.33461">
        <ele>82</ele>
        <time>2014-04-14T08:04:50Z</time>
      </trkpt>
      <trkpt lat="48.00383" lon="3.33468">
        <ele>82</ele>
        <time>2014-04-14T08:04:54Z</time>
      </trkpt>
      <trkpt lat="48.00382" lon="3.33475">
        <ele>82</ele>
        <time>2014-04-14T08:04:58Z</time>
      </trkpt>
      <trkpt lat="48.0038" lon="3.33483">
        <ele>82</ele>
        <time>2014-04-14T08:05:02Z</time>
      </trkpt>
      <trkpt lat="48.00379" lon="3.3349">
        <ele>82</ele>
        <time>2014-04-14T08:05:06Z</time>
      </trkpt>
      <trkpt lat="48.00377" lon="3.33498">
        <ele>82</ele>
        <time>2014-04-14T08:05:11Z</time>
      </trkpt>
      <trkpt lat="48.00375" lon="3.33506">
        <ele>83</ele>
        <time>2014-04-14T08:05:15Z</time>
      </trkpt>
      <trkpt lat="48.00373" lon="3.33513">
        <ele>83</ele>
        <time>2014-04-14T08:05:20Z</time>
      </trkpt>
      <trkpt lat="48.00371" lon="3.33521">
        <ele>83</ele>
        <time>2014-04-14T08:05:23Z</time>
      </trkpt>
      <trkpt lat="48.0037" lon="3.33529">
        <ele>83</ele>
        <time>2014-04-14T08:05:29Z</time>
      </trkpt>
      <trkpt lat="48.00369" lon="3.33536">
        <ele>83</ele>
        <time>2014-04-14T08:05:33Z</time>
      </trkpt>
      <trkpt lat="48.00368" lon="3.33543">
        <ele>83</ele>
        <time>2014-04-14T08:05:36Z</time>
      </trkpt>
      <trkpt lat="48.00366" lon="3.33551">
        <ele>83</ele>
        <time>2014-04-14T08:05:40Z</time>
      </trkpt>
      <trkpt lat="48.00365" lon="3.33558">
        <ele>83</ele>
        <time>2014-04-14T08:05:44Z</time>
      </trkpt>
      <trkpt lat="48.00364" lon="3.33565">
        <ele>82</ele>
        <time>2014-04-14T08:05:50Z</time>
      </trkpt>
      <trkpt lat="48.00363" lon="3.33572">
        <ele>82</ele>
        <time>2014-04-14T08:05:53Z</time>
      </trkpt>
      <trkpt lat="48.00362" lon="3.3358">
        <ele>82</ele>
        <time>2014-04-14T08:05:58Z</time>
      </trkpt>
      <trkpt lat="48.00361" lon="3.33588">
        <ele>83</ele>
        <time>2014-04-14T08:06:02Z</time>
      </trkpt>
      <trkpt lat="48.00359" lon="3.33595">
        <ele>83</ele>
        <time>2014-04-14T08:06:05Z</time>
      </trkpt>
      <trkpt lat="48.00358" lon="3.33603">
        <ele>83</ele>
        <time>2014-04-14T08:06:09Z</time>
      </trkpt>
      <trkpt lat="48.00356" lon="3.33609">
        <ele>83</ele>
        <time>2014-04-14T08:06:13Z</time>
      </trkpt>
      <trkpt lat="48.00354" lon="3.33618">
        <ele>84</ele>
        <time>2014-04-14T08:06:17Z</time>
      </trkpt>
      <trkpt lat="48.00354" lon="3.33625">
        <ele>84</ele>
        <time>2014-04-14T08:06:21Z</time>
      </trkpt>
      <trkpt lat="48.00353" lon="3.33632">
        <ele>84</ele>
        <time>2014-04-14T08:06:25Z</time>
      </trkpt>
      <trkpt lat="48.00352" lon="3.33641">
        <ele>83</ele>
        <time>2014-04-14T08:06:30Z</time>
      </trkpt>
      <trkpt lat="48.0035" lon="3.33649">
        <ele>83</ele>
        <time>2014-04-14T08:06:33Z</time>
      </trkpt>
      <trkpt lat="48.00348" lon="3.33657">
        <ele>82</ele>
        <time>2014-04-14T08:06:37Z</time>
      </trkpt>
      <trkpt lat="48.00345" lon="3.33664">
        <ele>81</ele>
        <time>2014-04-14T08:06:41Z</time>
      </trkpt>
      <trkpt lat="48.00347" lon="3.33674">
        <ele>84</ele>
        <time>2014-04-14T08:06:55Z</time>
      </trkpt>
      <trkpt lat="48.00346" lon="3.33681">
        <ele>84</ele>
        <time>2014-04-14T08:06:59Z</time>
      </trkpt>
      <trkpt lat="48.00343" lon="3.33688">
        <ele>85</ele>
        <time>2014-04-14T08:07:04Z</time>
      </trkpt>
      <trkpt lat="48.00343" lon="3.33696">
        <ele>86</ele>
        <time>2014-04-14T08:07:09Z</time>
      </trkpt>
      <trkpt lat="48.00342" lon="3.33703">
        <ele>86</ele>
        <time>2014-04-14T08:07:12Z</time>
      </trkpt>
      <trkpt lat="48.00339" lon="3.3371">
        <ele>86</ele>
        <time>2014-04-14T08:07:16Z</time>
      </trkpt>
      <trkpt lat="48.00336" lon="3.33715">
        <ele>86</ele>
        <time>2014-04-14T08:07:20Z</time>
      </trkpt>
      <trkpt lat="48.00334" lon="3.33721">
        <ele>86</ele>
        <time>2014-04-14T08:07:23Z</time>
      </trkpt>
      <trkpt lat="48.00331" lon="3.33729">
        <ele>79</ele>
        <time>2014-04-14T08:07:28Z</time>
      </trkpt>
      <trkpt lat="48.00328" lon="3.33734">
        <ele>79</ele>
        <time>2014-04-14T08:07:32Z</time>
      </trkpt>
      <trkpt lat="48.00325" lon="3.33737">
        <ele>79</ele>
        <time>2014-04-14T08:07:42Z</time>
      </trkpt>
      <trkpt lat="48.00322" lon="3.33744">
        <ele>79</ele>
        <time>2014-04-14T08:07:47Z</time>
      </trkpt>
      <trkpt lat="48.00319" lon="3.3375">
        <ele>79</ele>
        <time>2014-04-14T08:07:49Z</time>
      </trkpt>
      <trkpt lat="48.00318" lon="3.33758">
        <ele>81</ele>
        <time>2014-04-14T08:07:55Z</time>
      </trkpt>
      <trkpt lat="48.00317" lon="3.33766">
        <ele>81</ele>
        <time>2014-04-14T08:07:58Z</time>
      </trkpt>
      <trkpt lat="48.00316" lon="3.33773">
        <ele>81</ele>
        <time>2014-04-14T08:08:01Z</time>
      </trkpt>
      <trkpt lat="48.00314" lon="3.33779">
        <ele>81</ele>
        <time>2014-04-14T08:08:06Z</time>
      </trkpt>
      <trkpt lat="48.00312" lon="3.33782">
        <ele>81</ele>
        <time>2014-04-14T08:08:23Z</time>
      </trkpt>
      <trkpt lat="48.00311" lon="3.33789">
        <ele>81</ele>
        <time>2014-04-14T08:08:27Z</time>
      </trkpt>
      <trkpt lat="48.0031" lon="3.33796">
        <ele>81</ele>
        <time>2014-04-14T08:08:30Z</time>
      </trkpt>
      <trkpt lat="48.00309" lon="3.33804">
        <ele>81</ele>
        <time>2014-04-14T08:08:35Z</time>
      </trkpt>
      <trkpt lat="48.00308" lon="3.33812">
        <ele>82</ele>
        <time>2014-04-14T08:08:40Z</time>
      </trkpt>
      <trkpt lat="48.00306" lon="3.33819">
        <ele>82</ele>
        <time>2014-04-14T08:08:47Z</time>
      </trkpt>
      <trkpt lat="48.00305" lon="3.33826">
        <ele>82</ele>
        <time>2014-04-14T08:08:51Z</time>
      </trkpt>
      <trkpt lat="48.00302" lon="3.33833">
        <ele>82</ele>
        <time>2014-04-14T08:08:56Z</time>
      </trkpt>
      <trkpt lat="48.00299" lon="3.3384">
        <ele>83</ele>
        <time>2014-04-14T08:09:00Z</time>
      </trkpt>
      <trkpt lat="48.00297" lon="3.33846">
        <ele>83</ele>
        <time>2014-04-14T08:09:04Z</time>
      </trkpt>
      <trkpt lat="48.00296" lon="3.33855">
        <ele>83</ele>
        <time>2014-04-14T08:09:08Z</time>
      </trkpt>
      <trkpt lat="48.00294" lon="3.33862">
        <ele>83</ele>
        <time>2014-04-14T08:09:12Z</time>
      </trkpt>
      <trkpt lat="48.00291" lon="3.33869">
        <ele>83</ele>
        <time>2014-04-14T08:09:17Z</time>
      </trkpt>
      <trkpt lat="48.0029" lon="3.33876">
        <ele>83</ele>
        <time>2014-04-14T08:09:22Z</time>
      </trkpt>
      <trkpt lat="48.00287" lon="3.33883">
        <ele>83</ele>
        <time>2014-04-14T08:09:26Z</time>
      </trkpt>
      <trkpt lat="48.00285" lon="3.3389">
        <ele>83</ele>
        <time>2014-04-14T08:09:31Z</time>
      </trkpt>
      <trkpt lat="48.00283" lon="3.33897">
        <ele>82</ele>
        <time>2014-04-14T08:09:35Z</time>
      </trkpt>
      <trkpt lat="48.00281" lon="3.33904">
        <ele>82</ele>
        <time>2014-04-14T08:09:41Z</time>
      </trkpt>
      <trkpt lat="48.00277" lon="3.33908">
        <ele>82</ele>
        <time>2014-04-14T08:09:43Z</time>
      </trkpt>
      <trkpt lat="48.00273" lon="3.33912">
        <ele>81</ele>
        <time>2014-04-14T08:09:46Z</time>
      </trkpt>
      <trkpt lat="48.0027" lon="3.33918">
        <ele>82</ele>
        <time>2014-04-14T08:09:49Z</time>
      </trkpt>
      <trkpt lat="48.00267" lon="3.33925">
        <ele>82</ele>
        <time>2014-04-14T08:09:52Z</time>
      </trkpt>
      <trkpt lat="48.00264" lon="3.33932">
        <ele>82</ele>
        <time>2014-04-14T08:09:55Z</time>
      </trkpt>
      <trkpt lat="48.00262" lon="3.33939">
        <ele>83</ele>
        <time>2014-04-14T08:09:59Z</time>
      </trkpt>
      <trkpt lat="48.00258" lon="3.33944">
        <ele>83</ele>
        <time>2014-04-14T08:10:03Z</time>
      </trkpt>
      <trkpt lat="48.00254" lon="3.33948">
        <ele>83</ele>
        <time>2014-04-14T08:10:11Z</time>
      </trkpt>
      <trkpt lat="48.0025" lon="3.33953">
        <ele>83</ele>
        <time>2014-04-14T08:10:16Z</time>
      </trkpt>
      <trkpt lat="48.00247" lon="3.33958">
        <ele>77</ele>
        <time>2014-04-14T08:10:19Z</time>
      </trkpt>
      <trkpt lat="48.00243" lon="3.33964">
        <ele>77</ele>
        <time>2014-04-14T08:10:22Z</time>
      </trkpt>
      <trkpt lat="48.0024" lon="3.33971">
        <ele>77</ele>
        <time>2014-04-14T08:10:26Z</time>
      </trkpt>
      <trkpt lat="48.00237" lon="3.33977">
        <ele>77</ele>
        <time>2014-04-14T08:10:31Z</time>
      </trkpt>
      <trkpt lat="48.00236" lon="3.33984">
        <ele>77</ele>
        <time>2014-04-14T08:10:33Z</time>
      </trkpt>
      <trkpt lat="48.00233" lon="3.33991">
        <ele>78</ele>
        <time>2014-04-14T08:10:37Z</time>
      </trkpt>
      <trkpt lat="48.00231" lon="3.33998">
        <ele>78</ele>
        <time>2014-04-14T08:10:40Z</time>
      </trkpt>
      <trkpt lat="48.00226" lon="3.34003">
        <ele>79</ele>
        <time>2014-04-14T08:10:44Z</time>
      </trkpt>
      <trkpt lat="48.00223" lon="3.34009">
        <ele>78</ele>
        <time>2014-04-14T08:10:47Z</time>
      </trkpt>
      <trkpt lat="48.00218" lon="3.34015">
        <ele>78</ele>
        <time>2014-04-14T08:10:51Z</time>
      </trkpt>
      <trkpt lat="48.00215" lon="3.34019">
        <ele>78</ele>
        <time>2014-04-14T08:10:55Z</time>
      </trkpt>
      <trkpt lat="48.00211" lon="3.34025">
        <ele>78</ele>
        <time>2014-04-14T08:11:02Z</time>
      </trkpt>
      <trkpt lat="48.00207" lon="3.3403">
        <ele>78</ele>
        <time>2014-04-14T08:11:06Z</time>
      </trkpt>
      <trkpt lat="48.00203" lon="3.34033">
        <ele>78</ele>
        <time>2014-04-14T08:11:12Z</time>
      </trkpt>
      <trkpt lat="48.00201" lon="3.34041">
        <ele>78</ele>
        <time>2014-04-14T08:11:17Z</time>
      </trkpt>
      <trkpt lat="48.00197" lon="3.34045">
        <ele>78</ele>
        <time>2014-04-14T08:11:22Z</time>
      </trkpt>
      <trkpt lat="48.00194" lon="3.34051">
        <ele>78</ele>
        <time>2014-04-14T08:11:27Z</time>
      </trkpt>
      <trkpt lat="48.00189" lon="3.34053">
        <ele>77</ele>
        <time>2014-04-14T08:11:31Z</time>
      </trkpt>
      <trkpt lat="48.00184" lon="3.34057">
        <ele>77</ele>
        <time>2014-04-14T08:11:35Z</time>
      </trkpt>
      <trkpt lat="48.00181" lon="3.34062">
        <ele>77</ele>
        <time>2014-04-14T08:11:38Z</time>
      </trkpt>
      <trkpt lat="48.00176" lon="3.34064">
        <ele>77</ele>
        <time>2014-04-14T08:11:42Z</time>
      </trkpt>
      <trkpt lat="48.00173" lon="3.34069">
        <ele>76</ele>
        <time>2014-04-14T08:11:45Z</time>
      </trkpt>
      <trkpt lat="48.00169" lon="3.34074">
        <ele>76</ele>
        <time>2014-04-14T08:11:50Z</time>
      </trkpt>
      <trkpt lat="48.00165" lon="3.34077">
        <ele>75</ele>
        <time>2014-04-14T08:11:53Z</time>
      </trkpt>
      <trkpt lat="48.00163" lon="3.34084">
        <ele>75</ele>
        <time>2014-04-14T08:11:57Z</time>
      </trkpt>
      <trkpt lat="48.00159" lon="3.34088">
        <ele>75</ele>
        <time>2014-04-14T08:12:01Z</time>
      </trkpt>
      <trkpt lat="48.00155" lon="3.34094">
        <ele>75</ele>
        <time>2014-04-14T08:12:05Z</time>
      </trkpt>
      <trkpt lat="48.0015" lon="3.34099">
        <ele>75</ele>
        <time>2014-04-14T08:12:09Z</time>
      </trkpt>
      <trkpt lat="48.00147" lon="3.34105">
        <ele>75</ele>
        <time>2014-04-14T08:12:13Z</time>
      </trkpt>
      <trkpt lat="48.00144" lon="3.3411">
        <ele>75</ele>
        <time>2014-04-14T08:12:16Z</time>
      </trkpt>
      <trkpt lat="48.00139" lon="3.34114">
        <ele>76</ele>
        <time>2014-04-14T08:12:20Z</time>
      </trkpt>
      <trkpt lat="48.00135" lon="3.34119">
        <ele>76</ele>
        <time>2014-04-14T08:12:24Z</time>
      </trkpt>
      <trkpt lat="48.00131" lon="3.34125">
        <ele>76</ele>
        <time>2014-04-14T08:12:28Z</time>
      </trkpt>
      <trkpt lat="48.00127" lon="3.34129">
        <ele>76</ele>
        <time>2014-04-14T08:12:33Z</time>
      </trkpt>
      <trkpt lat="48.00121" lon="3.34131">
        <ele>76</ele>
        <time>2014-04-14T08:12:38Z</time>
      </trkpt>
      <trkpt lat="48.00117" lon="3.34135">
        <ele>76</ele>
        <time>2014-04-14T08:12:42Z</time>
      </trkpt>
      <trkpt lat="48.00115" lon="3.34142">
        <ele>76</ele>
        <time>2014-04-14T08:12:47Z</time>
      </trkpt>
      <trkpt lat="48.00111" lon="3.34146">
        <ele>76</ele>
        <time>2014-04-14T08:12:50Z</time>
      </trkpt>
      <trkpt lat="48.00107" lon="3.3415">
        <ele>75</ele>
        <time>2014-04-14T08:12:55Z</time>
      </trkpt>
      <trkpt lat="48.00101" lon="3.34151">
        <ele>75</ele>
        <time>2014-04-14T08:13:01Z</time>
      </trkpt>
      <trkpt lat="48.00099" lon="3.34156">
        <ele>75</ele>
        <time>2014-04-14T08:13:04Z</time>
      </trkpt>
      <trkpt lat="48.00096" lon="3.34164">
        <ele>75</ele>
        <time>2014-04-14T08:13:07Z</time>
      </trkpt>
      <trkpt lat="48.00092" lon="3.34169">
        <ele>76</ele>
        <time>2014-04-14T08:13:12Z</time>
      </trkpt>
      <trkpt lat="48.00088" lon="3.34172">
        <ele>76</ele>
        <time>2014-04-14T08:13:16Z</time>
      </trkpt>
      <trkpt lat="48.00084" lon="3.34177">
        <ele>76</ele>
        <time>2014-04-14T08:13:26Z</time>
      </trkpt>
      <trkpt lat="48.0008" lon="3.34182">
        <ele>75</ele>
        <time>2014-04-14T08:13:31Z</time>
      </trkpt>
      <trkpt lat="48.00075" lon="3.34186">
        <ele>75</ele>
        <time>2014-04-14T08:13:37Z</time>
      </trkpt>
      <trkpt lat="48.0007" lon="3.34189">
        <ele>75</ele>
        <time>2014-04-14T08:13:41Z</time>
      </trkpt>
      <trkpt lat="48.00065" lon="3.34192">
        <ele>75</ele>
        <time>2014-04-14T08:13:45Z</time>
      </trkpt>
      <trkpt lat="48.0006" lon="3.34196">
        <ele>75</ele>
        <time>2014-04-14T08:13:48Z</time>
      </trkpt>
      <trkpt lat="48.00055" lon="3.34199">
        <ele>75</ele>
        <time>2014-04-14T08:13:53Z</time>
      </trkpt>
      <trkpt lat="48.0005" lon="3.34203">
        <ele>75</ele>
        <time>2014-04-14T08:13:57Z</time>
      </trkpt>
      <trkpt lat="48.00045" lon="3.34205">
        <ele>75</ele>
        <time>2014-04-14T08:14:01Z</time>
      </trkpt>
      <trkpt lat="48.00041" lon="3.34209">
        <ele>75</ele>
        <time>2014-04-14T08:14:04Z</time>
      </trkpt>
      <trkpt lat="48.00036" lon="3.34212">
        <ele>75</ele>
        <time>2014-04-14T08:14:10Z</time>
      </trkpt>
      <trkpt lat="48.00032" lon="3.34215">
        <ele>75</ele>
        <time>2014-04-14T08:14:14Z</time>
      </trkpt>
      <trkpt lat="48.00027" lon="3.3422">
        <ele>75</ele>
        <time>2014-04-14T08:14:19Z</time>
      </trkpt>
      <trkpt lat="48.00023" lon="3.34224">
        <ele>75</ele>
        <time>2014-04-14T08:14:22Z</time>
      </trkpt>
      <trkpt lat="48.00018" lon="3.34228">
        <ele>75</ele>
        <time>2014-04-14T08:14:27Z</time>
      </trkpt>
      <trkpt lat="48.00014" lon="3.34232">
        <ele>75</ele>
        <time>2014-04-14T08:14:30Z</time>
      </trkpt>
      <trkpt lat="48.0001" lon="3.34236">
        <ele>75</ele>
        <time>2014-04-14T08:14:32Z</time>
      </trkpt>
      <trkpt lat="48.00006" lon="3.3424">
        <ele>75</ele>
        <time>2014-04-14T08:14:37Z</time>
      </trkpt>
      <trkpt lat="48.00001" lon="3.34244">
        <ele>74</ele>
        <time>2014-04-14T08:14:41Z</time>
      </trkpt>
      <trkpt lat="47.99996" lon="3.34247">
        <ele>74</ele>
        <time>2014-04-14T08:14:45Z</time>
      </trkpt>
      <trkpt lat="47.99992" lon="3.3425">
        <ele>74</ele>
        <time>2014-04-14T08:14:50Z</time>
      </trkpt>
      <trkpt lat="47.99987" lon="3.34256">
        <ele>74</ele>
        <time>2014-04-14T08:14:53Z</time>
      </trkpt>
      <trkpt lat="47.99983" lon="3.3426">
        <ele>74</ele>
        <time>2014-04-14T08:14:57Z</time>
      </trkpt>
      <trkpt lat="47.99978" lon="3.34265">
        <ele>74</ele>
        <time>2014-04-14T08:15:01Z</time>
      </trkpt>
      <trkpt lat="47.99974" lon="3.34269">
        <ele>74</ele>
        <time>2014-04-14T08:15:05Z</time>
      </trkpt>
      <trkpt lat="47.9997" lon="3.34273">
        <ele>74</ele>
        <time>2014-04-14T08:15:08Z</time>
      </trkpt>
      <trkpt lat="47.99965" lon="3.34278">
        <ele>74</ele>
        <time>2014-04-14T08:15:14Z</time>
      </trkpt>
      <trkpt lat="47.99961" lon="3.34282">
        <ele>74</ele>
        <time>2014-04-14T08:15:18Z</time>
      </trkpt>
      <trkpt lat="47.99957" lon="3.34286">
        <ele>74</ele>
        <time>2014-04-14T08:15:22Z</time>
      </trkpt>
      <trkpt lat="47.99953" lon="3.3429">
        <ele>74</ele>
        <time>2014-04-14T08:15:26Z</time>
      </trkpt>
      <trkpt lat="47.99952" lon="3.34287">
        <ele>74</ele>
        <time>2014-04-14T08:15:47Z</time>
      </trkpt>
      <trkpt lat="47.99948" lon="3.34295">
        <ele>75</ele>
        <time>2014-04-14T08:16:04Z</time>
      </trkpt>
      <trkpt lat="47.99944" lon="3.343">
        <ele>75</ele>
        <time>2014-04-14T08:16:08Z</time>
      </trkpt>
      <trkpt lat="47.9994" lon="3.34304">
        <ele>75</ele>
        <time>2014-04-14T08:16:11Z</time>
      </trkpt>
      <trkpt lat="47.99936" lon="3.34308">
        <ele>75</ele>
        <time>2014-04-14T08:16:14Z</time>
      </trkpt>
      <trkpt lat="47.99934" lon="3.3431">
        <ele>75</ele>
        <time>2014-04-14T08:16:27Z</time>
      </trkpt>
      <trkpt lat="47.9993" lon="3.34314">
        <ele>75</ele>
        <time>2014-04-14T08:16:32Z</time>
      </trkpt>
      <trkpt lat="47.99925" lon="3.34318">
        <ele>75</ele>
        <time>2014-04-14T08:16:37Z</time>
      </trkpt>
      <trkpt lat="47.99921" lon="3.34321">
        <ele>75</ele>
        <time>2014-04-14T08:16:41Z</time>
      </trkpt>
      <trkpt lat="47.99917" lon="3.34326">
        <ele>75</ele>
        <time>2014-04-14T08:16:45Z</time>
      </trkpt>
      <trkpt lat="47.99913" lon="3.34329">
        <ele>75</ele>
        <time>2014-04-14T08:16:49Z</time>
      </trkpt>
      <trkpt lat="47.99909" lon="3.34333">
        <ele>75</ele>
        <time>2014-04-14T08:16:54Z</time>
      </trkpt>
      <trkpt lat="47.99904" lon="3.34336">
        <ele>75</ele>
        <time>2014-04-14T08:16:57Z</time>
      </trkpt>
      <trkpt lat="47.99899" lon="3.3434">
        <ele>75</ele>
        <time>2014-04-14T08:17:01Z</time>
      </trkpt>
      <trkpt lat="47.99895" lon="3.34343">
        <ele>75</ele>
        <time>2014-04-14T08:17:05Z</time>
      </trkpt>
      <trkpt lat="47.9989" lon="3.34347">
        <ele>75</ele>
        <time>2014-04-14T08:17:09Z</time>
      </trkpt>
      <trkpt lat="47.99886" lon="3.34352">
        <ele>75</ele>
        <time>2014-04-14T08:17:14Z</time>
      </trkpt>
      <trkpt lat="47.99882" lon="3.34356">
        <ele>75</ele>
        <time>2014-04-14T08:17:17Z</time>
      </trkpt>
      <trkpt lat="47.99879" lon="3.34362">
        <ele>75</ele>
        <time>2014-04-14T08:17:21Z</time>
      </trkpt>
      <trkpt lat="47.99875" lon="3.34367">
        <ele>75</ele>
        <time>2014-04-14T08:17:24Z</time>
      </trkpt>
      <trkpt lat="47.99871" lon="3.34371">
        <ele>75</ele>
        <time>2014-04-14T08:17:28Z</time>
      </trkpt>
      <trkpt lat="47.99867" lon="3.34376">
        <ele>75</ele>
        <time>2014-04-14T08:17:32Z</time>
      </trkpt>
      <trkpt lat="47.99863" lon="3.34381">
        <ele>75</ele>
        <time>2014-04-14T08:17:36Z</time>
      </trkpt>
      <trkpt lat="47.99859" lon="3.34385">
        <ele>75</ele>
        <time>2014-04-14T08:17:41Z</time>
      </trkpt>
      <trkpt lat="47.99855" lon="3.34389">
        <ele>75</ele>
        <time>2014-04-14T08:17:48Z</time>
      </trkpt>
      <trkpt lat="47.99852" lon="3.34394">
        <ele>75</ele>
        <time>2014-04-14T08:17:51Z</time>
      </trkpt>
      <trkpt lat="47.99848" lon="3.34399">
        <ele>75</ele>
        <time>2014-04-14T08:17:55Z</time>
      </trkpt>
      <trkpt lat="47.99843" lon="3.34398">
        <ele>75</ele>
        <time>2014-04-14T08:18:00Z</time>
      </trkpt>
      <trkpt lat="47.99841" lon="3.34406">
        <ele>75</ele>
        <time>2014-04-14T08:18:05Z</time>
      </trkpt>
      <trkpt lat="47.99838" lon="3.34411">
        <ele>75</ele>
        <time>2014-04-14T08:18:10Z</time>
      </trkpt>
      <trkpt lat="47.99839" lon="3.34417">
        <ele>75</ele>
        <time>2014-04-14T08:18:30Z</time>
      </trkpt>
      <trkpt lat="47.99836" lon="3.34424">
        <ele>75</ele>
        <time>2014-04-14T08:18:35Z</time>
      </trkpt>
      <trkpt lat="47.99835" lon="3.34432">
        <ele>76</ele>
        <time>2014-04-14T08:18:40Z</time>
      </trkpt>
      <trkpt lat="47.99832" lon="3.34438">
        <ele>75</ele>
        <time>2014-04-14T08:18:44Z</time>
      </trkpt>
      <trkpt lat="47.99829" lon="3.34445">
        <ele>75</ele>
        <time>2014-04-14T08:18:51Z</time>
      </trkpt>
      <trkpt lat="47.99826" lon="3.34452">
        <ele>75</ele>
        <time>2014-04-14T08:18:56Z</time>
      </trkpt>
      <trkpt lat="47.99824" lon="3.34459">
        <ele>75</ele>
        <time>2014-04-14T08:19:01Z</time>
      </trkpt>
      <trkpt lat="47.99822" lon="3.34466">
        <ele>75</ele>
        <time>2014-04-14T08:19:05Z</time>
      </trkpt>
      <trkpt lat="47.9982" lon="3.34473">
        <ele>75</ele>
        <time>2014-04-14T08:19:10Z</time>
      </trkpt>
      <trkpt lat="47.99818" lon="3.3448">
        <ele>75</ele>
        <time>2014-04-14T08:19:14Z</time>
      </trkpt>
      <trkpt lat="47.99816" lon="3.34486">
        <ele>75</ele>
        <time>2014-04-14T08:19:18Z</time>
      </trkpt>
      <trkpt lat="47.99814" lon="3.34494">
        <ele>75</ele>
        <time>2014-04-14T08:19:22Z</time>
      </trkpt>
      <trkpt lat="47.99812" lon="3.345">
        <ele>75</ele>
        <time>2014-04-14T08:19:24Z</time>
      </trkpt>
      <trkpt lat="47.99809" lon="3.34508">
        <ele>75</ele>
        <time>2014-04-14T08:19:27Z</time>
      </trkpt>
      <trkpt lat="47.99807" lon="3.34515">
        <ele>75</ele>
        <time>2014-04-14T08:19:31Z</time>
      </trkpt>
      <trkpt lat="47.99805" lon="3.34522">
        <ele>75</ele>
        <time>2014-04-14T08:19:35Z</time>
      </trkpt>
      <trkpt lat="47.99802" lon="3.34528">
        <ele>75</ele>
        <time>2014-04-14T08:19:38Z</time>
      </trkpt>
      <trkpt lat="47.998" lon="3.34535">
        <ele>75</ele>
        <time>2014-04-14T08:19:42Z</time>
      </trkpt>
      <trkpt lat="47.99797" lon="3.34541">
        <ele>75</ele>
        <time>2014-04-14T08:19:46Z</time>
      </trkpt>
      <trkpt lat="47.99794" lon="3.34548">
        <ele>75</ele>
        <time>2014-04-14T08:19:49Z</time>
      </trkpt>
      <trkpt lat="47.99792" lon="3.34554">
        <ele>75</ele>
        <time>2014-04-14T08:19:55Z</time>
      </trkpt>
      <trkpt lat="47.99789" lon="3.34561">
        <ele>75</ele>
        <time>2014-04-14T08:19:59Z</time>
      </trkpt>
      <trkpt lat="47.99787" lon="3.34568">
        <ele>75</ele>
        <time>2014-04-14T08:20:05Z</time>
      </trkpt>
      <trkpt lat="47.99787" lon="3.34576">
        <ele>75</ele>
        <time>2014-04-14T08:20:10Z</time>
      </trkpt>
      <trkpt lat="47.99789" lon="3.3458">
        <ele>75</ele>
        <time>2014-04-14T08:20:17Z</time>
      </trkpt>
      <trkpt lat="47.99785" lon="3.34588">
        <ele>75</ele>
        <time>2014-04-14T08:20:48Z</time>
      </trkpt>
      <trkpt lat="47.9978" lon="3.34595">
        <ele>75</ele>
        <time>2014-04-14T08:20:51Z</time>
      </trkpt>
      <trkpt lat="47.99776" lon="3.34598">
        <ele>75</ele>
        <time>2014-04-14T08:20:55Z</time>
      </trkpt>
      <trkpt lat="47.99774" lon="3.34604">
        <ele>75</ele>
        <time>2014-04-14T08:21:00Z</time>
      </trkpt>
      <trkpt lat="47.99771" lon="3.34611">
        <ele>75</ele>
        <time>2014-04-14T08:21:05Z</time>
      </trkpt>
      <trkpt lat="47.99771" lon="3.34618">
        <ele>75</ele>
        <time>2014-04-14T08:21:26Z</time>
      </trkpt>
      <trkpt lat="47.99768" lon="3.34624">
        <ele>75</ele>
        <time>2014-04-14T08:21:34Z</time>
      </trkpt>
      <trkpt lat="47.99765" lon="3.3463">
        <ele>75</ele>
        <time>2014-04-14T08:21:40Z</time>
      </trkpt>
      <trkpt lat="47.99762" lon="3.34637">
        <ele>75</ele>
        <time>2014-04-14T08:21:46Z</time>
      </trkpt>
      <trkpt lat="47.99759" lon="3.34643">
        <ele>75</ele>
        <time>2014-04-14T08:21:51Z</time>
      </trkpt>
      <trkpt lat="47.99755" lon="3.34647">
        <ele>75</ele>
        <time>2014-04-14T08:21:55Z</time>
      </trkpt>
      <trkpt lat="47.99751" lon="3.34653">
        <ele>75</ele>
        <time>2014-04-14T08:21:59Z</time>
      </trkpt>
      <trkpt lat="47.99747" lon="3.34659">
        <ele>75</ele>
        <time>2014-04-14T08:22:04Z</time>
      </trkpt>
      <trkpt lat="47.99743" lon="3.34664">
        <ele>75</ele>
        <time>2014-04-14T08:22:08Z</time>
      </trkpt>
      <trkpt lat="47.9974" lon="3.34669">
        <ele>75</ele>
        <time>2014-04-14T08:22:11Z</time>
      </trkpt>
      <trkpt lat="47.99737" lon="3.34676">
        <ele>75</ele>
        <time>2014-04-14T08:22:14Z</time>
      </trkpt>
      <trkpt lat="47.99733" lon="3.34681">
        <ele>75</ele>
        <time>2014-04-14T08:22:17Z</time>
      </trkpt>
      <trkpt lat="47.99731" lon="3.34688">
        <ele>75</ele>
        <time>2014-04-14T08:22:21Z</time>
      </trkpt>
      <trkpt lat="47.99728" lon="3.34694">
        <ele>75</ele>
        <time>2014-04-14T08:22:26Z</time>
      </trkpt>
      <trkpt lat="47.99725" lon="3.34701">
        <ele>75</ele>
        <time>2014-04-14T08:22:30Z</time>
      </trkpt>
      <trkpt lat="47.99724" lon="3.34708">
        <ele>75</ele>
        <time>2014-04-14T08:22:35Z</time>
      </trkpt>
      <trkpt lat="47.99722" lon="3.34715">
        <ele>75</ele>
        <time>2014-04-14T08:22:38Z</time>
      </trkpt>
      <trkpt lat="47.9972" lon="3.34722">
        <ele>75</ele>
        <time>2014-04-14T08:22:44Z</time>
      </trkpt>
      <trkpt lat="47.99717" lon="3.34727">
        <ele>75</ele>
        <time>2014-04-14T08:22:48Z</time>
      </trkpt>
      <trkpt lat="47.99713" lon="3.34732">
        <ele>75</ele>
        <time>2014-04-14T08:22:51Z</time>
      </trkpt>
      <trkpt lat="47.9971" lon="3.34738">
        <ele>75</ele>
        <time>2014-04-14T08:22:56Z</time>
      </trkpt>
      <trkpt lat="47.99707" lon="3.34744">
        <ele>75</ele>
        <time>2014-04-14T08:23:00Z</time>
      </trkpt>
      <trkpt lat="47.99705" lon="3.34751">
        <ele>75</ele>
        <time>2014-04-14T08:23:04Z</time>
      </trkpt>
      <trkpt lat="47.99703" lon="3.34757">
        <ele>75</ele>
        <time>2014-04-14T08:23:08Z</time>
      </trkpt>
      <trkpt lat="47.997" lon="3.34762">
        <ele>75</ele>
        <time>2014-04-14T08:23:12Z</time>
      </trkpt>
      <trkpt lat="47.99697" lon="3.34769">
        <ele>75</ele>
        <time>2014-04-14T08:23:17Z</time>
      </trkpt>
      <trkpt lat="47.99697" lon="3.34777">
        <ele>75</ele>
        <time>2014-04-14T08:23:20Z</time>
      </trkpt>
      <trkpt lat="47.99697" lon="3.34786">
        <ele>75</ele>
        <time>2014-04-14T08:23:24Z</time>
      </trkpt>
      <trkpt lat="47.99696" lon="3.34793">
        <ele>75</ele>
        <time>2014-04-14T08:23:27Z</time>
      </trkpt>
      <trkpt lat="47.99694" lon="3.34799">
        <ele>75</ele>
        <time>2014-04-14T08:23:30Z</time>
      </trkpt>
      <trkpt lat="47.99689" lon="3.34811">
        <ele>75</ele>
        <time>2014-04-14T08:23:39Z</time>
      </trkpt>
      <trkpt lat="47.99685" lon="3.34818">
        <ele>75</ele>
        <time>2014-04-14T08:23:43Z</time>
      </trkpt>
      <trkpt lat="47.99682" lon="3.34826">
        <ele>75</ele>
        <time>2014-04-14T08:23:47Z</time>
      </trkpt>
      <trkpt lat="47.9968" lon="3.34832">
        <ele>76</ele>
        <time>2014-04-14T08:23:50Z</time>
      </trkpt>
      <trkpt lat="47.99677" lon="3.34839">
        <ele>76</ele>
        <time>2014-04-14T08:23:55Z</time>
      </trkpt>
      <trkpt lat="47.99674" lon="3.34845">
        <ele>75</ele>
        <time>2014-04-14T08:23:59Z</time>
      </trkpt>
      <trkpt lat="47.99669" lon="3.34852">
        <ele>75</ele>
        <time>2014-04-14T08:24:10Z</time>
      </trkpt>
      <trkpt lat="47.99666" lon="3.34858">
        <ele>76</ele>
        <time>2014-04-14T08:24:14Z</time>
      </trkpt>
      <trkpt lat="47.99664" lon="3.34864">
        <ele>76</ele>
        <time>2014-04-14T08:24:18Z</time>
      </trkpt>
      <trkpt lat="47.99663" lon="3.34871">
        <ele>76</ele>
        <time>2014-04-14T08:24:22Z</time>
      </trkpt>
      <trkpt lat="47.9966" lon="3.34878">
        <ele>75</ele>
        <time>2014-04-14T08:24:24Z</time>
      </trkpt>
      <trkpt lat="47.99656" lon="3.34883">
        <ele>75</ele>
        <time>2014-04-14T08:24:29Z</time>
      </trkpt>
      <trkpt lat="47.99653" lon="3.34889">
        <ele>75</ele>
        <time>2014-04-14T08:24:34Z</time>
      </trkpt>
      <trkpt lat="47.99651" lon="3.34896">
        <ele>75</ele>
        <time>2014-04-14T08:24:38Z</time>
      </trkpt>
      <trkpt lat="47.99648" lon="3.34903">
        <ele>75</ele>
        <time>2014-04-14T08:24:42Z</time>
      </trkpt>
      <trkpt lat="47.99645" lon="3.3491">
        <ele>75</ele>
        <time>2014-04-14T08:24:46Z</time>
      </trkpt>
      <trkpt lat="47.99643" lon="3.34917">
        <ele>76</ele>
        <time>2014-04-14T08:24:51Z</time>
      </trkpt>
      <trkpt lat="47.99641" lon="3.34924">
        <ele>76</ele>
        <time>2014-04-14T08:24:54Z</time>
      </trkpt>
      <trkpt lat="47.99639" lon="3.34931">
        <ele>76</ele>
        <time>2014-04-14T08:24:58Z</time>
      </trkpt>
      <trkpt lat="47.99635" lon="3.34934">
        <ele>76</ele>
        <time>2014-04-14T08:25:00Z</time>
      </trkpt>
      <trkpt lat="47.99631" lon="3.3494">
        <ele>76</ele>
        <time>2014-04-14T08:25:04Z</time>
      </trkpt>
      <trkpt lat="47.99629" lon="3.34947">
        <ele>76</ele>
        <time>2014-04-14T08:25:09Z</time>
      </trkpt>
      <trkpt lat="47.99627" lon="3.34954">
        <ele>76</ele>
        <time>2014-04-14T08:25:14Z</time>
      </trkpt>
      <trkpt lat="47.99626" lon="3.34962">
        <ele>76</ele>
        <time>2014-04-14T08:25:18Z</time>
      </trkpt>
      <trkpt lat="47.99624" lon="3.34971">
        <ele>76</ele>
        <time>2014-04-14T08:25:22Z</time>
      </trkpt>
      <trkpt lat="47.99621" lon="3.34977">
        <ele>76</ele>
        <time>2014-04-14T08:25:26Z</time>
      </trkpt>
      <trkpt lat="47.99616" lon="3.3498">
        <ele>76</ele>
        <time>2014-04-14T08:25:29Z</time>
      </trkpt>
      <trkpt lat="47.99613" lon="3.34986">
        <ele>76</ele>
        <time>2014-04-14T08:25:32Z</time>
      </trkpt>
      <trkpt lat="47.9961" lon="3.34992">
        <ele>76</ele>
        <time>2014-04-14T08:25:37Z</time>
      </trkpt>
      <trkpt lat="47.99609" lon="3.34999">
        <ele>76</ele>
        <time>2014-04-14T08:25:41Z</time>
      </trkpt>
      <trkpt lat="47.99606" lon="3.35005">
        <ele>76</ele>
        <time>2014-04-14T08:25:45Z</time>
      </trkpt>
      <trkpt lat="47.99606" lon="3.35014">
        <ele>76</ele>
        <time>2014-04-14T08:25:49Z</time>
      </trkpt>
      <trkpt lat="47.99604" lon="3.3502">
        <ele>76</ele>
        <time>2014-04-14T08:25:54Z</time>
      </trkpt>
      <trkpt lat="47.99605" lon="3.35028">
        <ele>76</ele>
        <time>2014-04-14T08:25:57Z</time>
      </trkpt>
      <trkpt lat="47.99602" lon="3.35035">
        <ele>76</ele>
        <time>2014-04-14T08:26:02Z</time>
      </trkpt>
      <trkpt lat="47.99599" lon="3.3504">
        <ele>76</ele>
        <time>2014-04-14T08:26:05Z</time>
      </trkpt>
      <trkpt lat="47.99595" lon="3.35045">
        <ele>76</ele>
        <time>2014-04-14T08:26:10Z</time>
      </trkpt>
      <trkpt lat="47.99592" lon="3.3505">
        <ele>76</ele>
        <time>2014-04-14T08:26:12Z</time>
      </trkpt>
      <trkpt lat="47.99589" lon="3.35056">
        <ele>75</ele>
        <time>2014-04-14T08:26:16Z</time>
      </trkpt>
      <trkpt lat="47.99586" lon="3.35062">
        <ele>75</ele>
        <time>2014-04-14T08:26:20Z</time>
      </trkpt>
      <trkpt lat="47.99583" lon="3.35068">
        <ele>75</ele>
        <time>2014-04-14T08:26:23Z</time>
      </trkpt>
      <trkpt lat="47.9958" lon="3.35074">
        <ele>75</ele>
        <time>2014-04-14T08:26:28Z</time>
      </trkpt>
      <trkpt lat="47.99577" lon="3.3508">
        <ele>75</ele>
        <time>2014-04-14T08:26:33Z</time>
      </trkpt>
      <trkpt lat="47.99575" lon="3.35088">
        <ele>74</ele>
        <time>2014-04-14T08:26:37Z</time>
      </trkpt>
      <trkpt lat="47.99571" lon="3.35093">
        <ele>74</ele>
        <time>2014-04-14T08:26:42Z</time>
      </trkpt>
      <trkpt lat="47.99569" lon="3.35099">
        <ele>74</ele>
        <time>2014-04-14T08:27:06Z</time>
      </trkpt>
      <trkpt lat="47.99566" lon="3.35106">
        <ele>74</ele>
        <time>2014-04-14T08:27:10Z</time>
      </trkpt>
      <trkpt lat="47.99564" lon="3.35113">
        <ele>74</ele>
        <time>2014-04-14T08:27:14Z</time>
      </trkpt>
      <trkpt lat="47.99561" lon="3.3512">
        <ele>74</ele>
        <time>2014-04-14T08:27:18Z</time>
      </trkpt>
      <trkpt lat="47.99558" lon="3.35126">
        <ele>74</ele>
        <time>2014-04-14T08:27:22Z</time>
      </trkpt>
      <trkpt lat="47.99555" lon="3.35132">
        <ele>74</ele>
        <time>2014-04-14T08:27:24Z</time>
      </trkpt>
      <trkpt lat="47.99552" lon="3.35135">
        <ele>74</ele>
        <time>2014-04-14T08:27:33Z</time>
      </trkpt>
      <trkpt lat="47.9955" lon="3.35142">
        <ele>74</ele>
        <time>2014-04-14T08:27:37Z</time>
      </trkpt>
      <trkpt lat="47.9955" lon="3.35149">
        <ele>74</ele>
        <time>2014-04-14T08:27:44Z</time>
      </trkpt>
      <trkpt lat="47.99548" lon="3.35151">
        <ele>74</ele>
        <time>2014-04-14T08:27:57Z</time>
      </trkpt>
      <trkpt lat="47.99545" lon="3.35157">
        <ele>74</ele>
        <time>2014-04-14T08:28:01Z</time>
      </trkpt>
      <trkpt lat="47.99543" lon="3.35163">
        <ele>74</ele>
        <time>2014-04-14T08:28:05Z</time>
      </trkpt>
      <trkpt lat="47.9954" lon="3.3517">
        <ele>73</ele>
        <time>2014-04-14T08:28:10Z</time>
      </trkpt>
      <trkpt lat="47.99538" lon="3.35177">
        <ele>73</ele>
        <time>2014-04-14T08:28:14Z</time>
      </trkpt>
      <trkpt lat="47.99536" lon="3.35185">
        <ele>73</ele>
        <time>2014-04-14T08:28:18Z</time>
      </trkpt>
      <trkpt lat="47.99533" lon="3.35192">
        <ele>73</ele>
        <time>2014-04-14T08:28:22Z</time>
      </trkpt>
      <trkpt lat="47.9953" lon="3.35197">
        <ele>73</ele>
        <time>2014-04-14T08:28:26Z</time>
      </trkpt>
      <trkpt lat="47.99528" lon="3.35204">
        <ele>73</ele>
        <time>2014-04-14T08:28:30Z</time>
      </trkpt>
      <trkpt lat="47.99525" lon="3.3521">
        <ele>73</ele>
        <time>2014-04-14T08:28:33Z</time>
      </trkpt>
      <trkpt lat="47.99523" lon="3.35215">
        <ele>73</ele>
        <time>2014-04-14T08:28:36Z</time>
      </trkpt>
      <trkpt lat="47.99521" lon="3.35221">
        <ele>73</ele>
        <time>2014-04-14T08:28:40Z</time>
      </trkpt>
      <trkpt lat="47.99518" lon="3.35228">
        <ele>73</ele>
        <time>2014-04-14T08:28:46Z</time>
      </trkpt>
      <trkpt lat="47.99515" lon="3.35235">
        <ele>73</ele>
        <time>2014-04-14T08:28:50Z</time>
      </trkpt>
      <trkpt lat="47.99513" lon="3.35242">
        <ele>73</ele>
        <time>2014-04-14T08:28:53Z</time>
      </trkpt>
      <trkpt lat="47.9951" lon="3.35248">
        <ele>73</ele>
        <time>2014-04-14T08:28:57Z</time>
      </trkpt>
      <trkpt lat="47.99508" lon="3.35255">
        <ele>73</ele>
        <time>2014-04-14T08:29:01Z</time>
      </trkpt>
      <trkpt lat="47.99506" lon="3.35262">
        <ele>73</ele>
        <time>2014-04-14T08:29:07Z</time>
      </trkpt>
      <trkpt lat="47.99506" lon="3.3527">
        <ele>73</ele>
        <time>2014-04-14T08:29:12Z</time>
      </trkpt>
      <trkpt lat="47.99502" lon="3.35276">
        <ele>74</ele>
        <time>2014-04-14T08:29:16Z</time>
      </trkpt>
      <trkpt lat="47.99498" lon="3.35281">
        <ele>74</ele>
        <time>2014-04-14T08:29:20Z</time>
      </trkpt>
      <trkpt lat="47.99496" lon="3.35287">
        <ele>74</ele>
        <time>2014-04-14T08:29:25Z</time>
      </trkpt>
      <trkpt lat="47.99492" lon="3.35292">
        <ele>74</ele>
        <time>2014-04-14T08:29:29Z</time>
      </trkpt>
      <trkpt lat="47.9949" lon="3.35299">
        <ele>74</ele>
        <time>2014-04-14T08:29:31Z</time>
      </trkpt>
      <trkpt lat="47.99487" lon="3.35306">
        <ele>74</ele>
        <time>2014-04-14T08:29:35Z</time>
      </trkpt>
      <trkpt lat="47.99485" lon="3.35314">
        <ele>74</ele>
        <time>2014-04-14T08:29:39Z</time>
      </trkpt>
      <trkpt lat="47.99485" lon="3.35322">
        <ele>74</ele>
        <time>2014-04-14T08:29:43Z</time>
      </trkpt>
      <trkpt lat="47.99483" lon="3.35331">
        <ele>74</ele>
        <time>2014-04-14T08:29:47Z</time>
      </trkpt>
      <trkpt lat="47.99481" lon="3.35337">
        <ele>75</ele>
        <time>2014-04-14T08:29:50Z</time>
      </trkpt>
      <trkpt lat="47.99478" lon="3.35343">
        <ele>75</ele>
        <time>2014-04-14T08:29:55Z</time>
      </trkpt>
      <trkpt lat="47.99476" lon="3.35349">
        <ele>75</ele>
        <time>2014-04-14T08:30:00Z</time>
      </trkpt>
      <trkpt lat="47.99474" lon="3.35355">
        <ele>75</ele>
        <time>2014-04-14T08:30:02Z</time>
      </trkpt>
      <trkpt lat="47.99472" lon="3.35361">
        <ele>75</ele>
        <time>2014-04-14T08:30:07Z</time>
      </trkpt>
      <trkpt lat="47.99467" lon="3.35367">
        <ele>75</ele>
        <time>2014-04-14T08:30:10Z</time>
      </trkpt>
      <trkpt lat="47.99463" lon="3.3537">
        <ele>75</ele>
        <time>2014-04-14T08:30:16Z</time>
      </trkpt>
      <trkpt lat="47.99462" lon="3.35379">
        <ele>75</ele>
        <time>2014-04-14T08:30:20Z</time>
      </trkpt>
      <trkpt lat="47.99459" lon="3.35385">
        <ele>76</ele>
        <time>2014-04-14T08:30:23Z</time>
      </trkpt>
      <trkpt lat="47.99457" lon="3.35393">
        <ele>76</ele>
        <time>2014-04-14T08:30:27Z</time>
      </trkpt>
      <trkpt lat="47.99454" lon="3.35399">
        <ele>76</ele>
        <time>2014-04-14T08:30:30Z</time>
      </trkpt>
      <trkpt lat="47.99451" lon="3.35404">
        <ele>76</ele>
        <time>2014-04-14T08:30:33Z</time>
      </trkpt>
      <trkpt lat="47.99447" lon="3.35411">
        <ele>76</ele>
        <time>2014-04-14T08:30:38Z</time>
      </trkpt>
      <trkpt lat="47.99444" lon="3.35417">
        <ele>77</ele>
        <time>2014-04-14T08:30:42Z</time>
      </trkpt>
      <trkpt lat="47.99442" lon="3.35424">
        <ele>77</ele>
        <time>2014-04-14T08:30:47Z</time>
      </trkpt>
      <trkpt lat="47.9944" lon="3.3543">
        <ele>77</ele>
        <time>2014-04-14T08:30:52Z</time>
      </trkpt>
      <trkpt lat="47.99436" lon="3.35436">
        <ele>77</ele>
        <time>2014-04-14T08:30:56Z</time>
      </trkpt>
      <trkpt lat="47.99433" lon="3.35441">
        <ele>77</ele>
        <time>2014-04-14T08:31:00Z</time>
      </trkpt>
      <trkpt lat="47.99432" lon="3.35445">
        <ele>77</ele>
        <time>2014-04-14T08:31:11Z</time>
      </trkpt>
      <trkpt lat="47.99428" lon="3.35449">
        <ele>77</ele>
        <time>2014-04-14T08:31:24Z</time>
      </trkpt>
      <trkpt lat="47.99427" lon="3.35456">
        <ele>77</ele>
        <time>2014-04-14T08:31:27Z</time>
      </trkpt>
      <trkpt lat="47.99423" lon="3.35462">
        <ele>77</ele>
        <time>2014-04-14T08:31:30Z</time>
      </trkpt>
      <trkpt lat="47.9942" lon="3.35469">
        <ele>77</ele>
        <time>2014-04-14T08:31:34Z</time>
      </trkpt>
      <trkpt lat="47.99417" lon="3.35475">
        <ele>78</ele>
        <time>2014-04-14T08:31:39Z</time>
      </trkpt>
      <trkpt lat="47.99415" lon="3.35482">
        <ele>77</ele>
        <time>2014-04-14T08:31:43Z</time>
      </trkpt>
      <trkpt lat="47.99413" lon="3.3549">
        <ele>77</ele>
        <time>2014-04-14T08:31:47Z</time>
      </trkpt>
      <trkpt lat="47.9941" lon="3.35497">
        <ele>78</ele>
        <time>2014-04-14T08:31:52Z</time>
      </trkpt>
      <trkpt lat="47.99407" lon="3.35502">
        <ele>78</ele>
        <time>2014-04-14T08:31:55Z</time>
      </trkpt>
      <trkpt lat="47.99404" lon="3.35509">
        <ele>77</ele>
        <time>2014-04-14T08:31:59Z</time>
      </trkpt>
      <trkpt lat="47.994" lon="3.35516">
        <ele>77</ele>
        <time>2014-04-14T08:32:02Z</time>
      </trkpt>
      <trkpt lat="47.99398" lon="3.35522">
        <ele>77</ele>
        <time>2014-04-14T08:32:06Z</time>
      </trkpt>
      <trkpt lat="47.99398" lon="3.35529">
        <ele>77</ele>
        <time>2014-04-14T08:32:25Z</time>
      </trkpt>
      <trkpt lat="47.99396" lon="3.35536">
        <ele>77</ele>
        <time>2014-04-14T08:32:37Z</time>
      </trkpt>
      <trkpt lat="47.99393" lon="3.35544">
        <ele>77</ele>
        <time>2014-04-14T08:32:41Z</time>
      </trkpt>
      <trkpt lat="47.99391" lon="3.3555">
        <ele>77</ele>
        <time>2014-04-14T08:32:44Z</time>
      </trkpt>
      <trkpt lat="47.99388" lon="3.35556">
        <ele>77</ele>
        <time>2014-04-14T08:32:48Z</time>
      </trkpt>
      <trkpt lat="47.99386" lon="3.35563">
        <ele>77</ele>
        <time>2014-04-14T08:32:52Z</time>
      </trkpt>
      <trkpt lat="47.99384" lon="3.3557">
        <ele>77</ele>
        <time>2014-04-14T08:32:56Z</time>
      </trkpt>
      <trkpt lat="47.99381" lon="3.35575">
        <ele>77</ele>
        <time>2014-04-14T08:33:00Z</time>
      </trkpt>
      <trkpt lat="47.99378" lon="3.35581">
        <ele>76</ele>
        <time>2014-04-14T08:33:03Z</time>
      </trkpt>
      <trkpt lat="47.99376" lon="3.35588">
        <ele>76</ele>
        <time>2014-04-14T08:33:08Z</time>
      </trkpt>
      <trkpt lat="47.99373" lon="3.35594">
        <ele>76</ele>
        <time>2014-04-14T08:33:12Z</time>
      </trkpt>
      <trkpt lat="47.99371" lon="3.356">
        <ele>76</ele>
        <time>2014-04-14T08:33:16Z</time>
      </trkpt>
      <trkpt lat="47.99368" lon="3.35607">
        <ele>76</ele>
        <time>2014-04-14T08:33:20Z</time>
      </trkpt>
      <trkpt lat="47.99365" lon="3.35613">
        <ele>76</ele>
        <time>2014-04-14T08:33:24Z</time>
      </trkpt>
      <trkpt lat="47.99362" lon="3.35618">
        <ele>76</ele>
        <time>2014-04-14T08:33:28Z</time>
      </trkpt>
      <trkpt lat="47.9936" lon="3.35626">
        <ele>76</ele>
        <time>2014-04-14T08:33:33Z</time>
      </trkpt>
      <trkpt lat="47.99357" lon="3.35633">
        <ele>76</ele>
        <time>2014-04-14T08:33:38Z</time>
      </trkpt>
      <trkpt lat="47.99354" lon="3.35638">
        <ele>76</ele>
        <time>2014-04-14T08:33:42Z</time>
      </trkpt>
      <trkpt lat="47.99351" lon="3.35645">
        <ele>76</ele>
        <time>2014-04-14T08:33:46Z</time>
      </trkpt>
      <trkpt lat="47.99348" lon="3.35651">
        <ele>76</ele>
        <time>2014-04-14T08:33:50Z</time>
      </trkpt>
      <trkpt lat="47.99346" lon="3.35657">
        <ele>76</ele>
        <time>2014-04-14T08:33:53Z</time>
      </trkpt>
      <trkpt lat="47.99343" lon="3.35664">
        <ele>75</ele>
        <time>2014-04-14T08:33:57Z</time>
      </trkpt>
      <trkpt lat="47.9934" lon="3.3567">
        <ele>75</ele>
        <time>2014-04-14T08:34:01Z</time>
      </trkpt>
      <trkpt lat="47.99338" lon="3.35677">
        <ele>76</ele>
        <time>2014-04-14T08:34:05Z</time>
      </trkpt>
      <trkpt lat="47.99337" lon="3.35685">
        <ele>76</ele>
        <time>2014-04-14T08:34:08Z</time>
      </trkpt>
      <trkpt lat="47.99334" lon="3.35691">
        <ele>76</ele>
        <time>2014-04-14T08:34:12Z</time>
      </trkpt>
      <trkpt lat="47.99331" lon="3.35696">
        <ele>75</ele>
        <time>2014-04-14T08:34:15Z</time>
      </trkpt>
      <trkpt lat="47.99328" lon="3.35702">
        <ele>75</ele>
        <time>2014-04-14T08:34:20Z</time>
      </trkpt>
      <trkpt lat="47.99326" lon="3.35709">
        <ele>75</ele>
        <time>2014-04-14T08:34:25Z</time>
      </trkpt>
      <trkpt lat="47.99325" lon="3.35716">
        <ele>75</ele>
        <time>2014-04-14T08:34:29Z</time>
      </trkpt>
      <trkpt lat="47.99322" lon="3.35722">
        <ele>75</ele>
        <time>2014-04-14T08:34:33Z</time>
      </trkpt>
      <trkpt lat="47.99318" lon="3.3573">
        <ele>75</ele>
        <time>2014-04-14T08:34:37Z</time>
      </trkpt>
      <trkpt lat="47.99316" lon="3.35736">
        <ele>75</ele>
        <time>2014-04-14T08:34:40Z</time>
      </trkpt>
      <trkpt lat="47.99313" lon="3.35742">
        <ele>75</ele>
        <time>2014-04-14T08:34:44Z</time>
      </trkpt>
      <trkpt lat="47.9931" lon="3.35748">
        <ele>75</ele>
        <time>2014-04-14T08:34:48Z</time>
      </trkpt>
      <trkpt lat="47.99308" lon="3.35753">
        <ele>76</ele>
        <time>2014-04-14T08:34:52Z</time>
      </trkpt>
      <trkpt lat="47.99305" lon="3.35759">
        <ele>76</ele>
        <time>2014-04-14T08:34:56Z</time>
      </trkpt>
      <trkpt lat="47.99302" lon="3.35766">
        <ele>76</ele>
        <time>2014-04-14T08:35:00Z</time>
      </trkpt>
      <trkpt lat="47.993" lon="3.35774">
        <ele>76</ele>
        <time>2014-04-14T08:35:04Z</time>
      </trkpt>
      <trkpt lat="47.99298" lon="3.35782">
        <ele>76</ele>
        <time>2014-04-14T08:35:09Z</time>
      </trkpt>
      <trkpt lat="47.99294" lon="3.35788">
        <ele>76</ele>
        <time>2014-04-14T08:35:13Z</time>
      </trkpt>
      <trkpt lat="47.99291" lon="3.35795">
        <ele>76</ele>
        <time>2014-04-14T08:35:17Z</time>
      </trkpt>
      <trkpt lat="47.99289" lon="3.35802">
        <ele>76</ele>
        <time>2014-04-14T08:35:22Z</time>
      </trkpt>
      <trkpt lat="47.99286" lon="3.35809">
        <ele>76</ele>
        <time>2014-04-14T08:35:26Z</time>
      </trkpt>
      <trkpt lat="47.99283" lon="3.35815">
        <ele>76</ele>
        <time>2014-04-14T08:35:31Z</time>
      </trkpt>
      <trkpt lat="47.99279" lon="3.35821">
        <ele>76</ele>
        <time>2014-04-14T08:35:35Z</time>
      </trkpt>
      <trkpt lat="47.99277" lon="3.35828">
        <ele>76</ele>
        <time>2014-04-14T08:35:39Z</time>
      </trkpt>
      <trkpt lat="47.99274" lon="3.35834">
        <ele>78</ele>
        <time>2014-04-14T08:35:43Z</time>
      </trkpt>
      <trkpt lat="47.99271" lon="3.3584">
        <ele>78</ele>
        <time>2014-04-14T08:35:47Z</time>
      </trkpt>
      <trkpt lat="47.99267" lon="3.35845">
        <ele>78</ele>
        <time>2014-04-14T08:35:51Z</time>
      </trkpt>
      <trkpt lat="47.99265" lon="3.35851">
        <ele>78</ele>
        <time>2014-04-14T08:35:55Z</time>
      </trkpt>
      <trkpt lat="47.99262" lon="3.35857">
        <ele>78</ele>
        <time>2014-04-14T08:35:59Z</time>
      </trkpt>
      <trkpt lat="47.9926" lon="3.35863">
        <ele>78</ele>
        <time>2014-04-14T08:36:03Z</time>
      </trkpt>
      <trkpt lat="47.99258" lon="3.35871">
        <ele>78</ele>
        <time>2014-04-14T08:36:06Z</time>
      </trkpt>
      <trkpt lat="47.99256" lon="3.35878">
        <ele>78</ele>
        <time>2014-04-14T08:36:11Z</time>
      </trkpt>
      <trkpt lat="47.99254" lon="3.35884">
        <ele>78</ele>
        <time>2014-04-14T08:36:14Z</time>
      </trkpt>
      <trkpt lat="47.99251" lon="3.35891">
        <ele>78</ele>
        <time>2014-04-14T08:36:18Z</time>
      </trkpt>
      <trkpt lat="47.99248" lon="3.35896">
        <ele>78</ele>
        <time>2014-04-14T08:36:21Z</time>
      </trkpt>
      <trkpt lat="47.99245" lon="3.35903">
        <ele>78</ele>
        <time>2014-04-14T08:36:25Z</time>
      </trkpt>
      <trkpt lat="47.99242" lon="3.35909">
        <ele>78</ele>
        <time>2014-04-14T08:36:29Z</time>
      </trkpt>
      <trkpt lat="47.99239" lon="3.35915">
        <ele>78</ele>
        <time>2014-04-14T08:36:34Z</time>
      </trkpt>
      <trkpt lat="47.99235" lon="3.3592">
        <ele>78</ele>
        <time>2014-04-14T08:36:39Z</time>
      </trkpt>
      <trkpt lat="47.99233" lon="3.35927">
        <ele>78</ele>
        <time>2014-04-14T08:36:43Z</time>
      </trkpt>
      <trkpt lat="47.9923" lon="3.35934">
        <ele>78</ele>
        <time>2014-04-14T08:36:47Z</time>
      </trkpt>
      <trkpt lat="47.99228" lon="3.35941">
        <ele>78</ele>
        <time>2014-04-14T08:36:53Z</time>
      </trkpt>
      <trkpt lat="47.99226" lon="3.35948">
        <ele>79</ele>
        <time>2014-04-14T08:36:58Z</time>
      </trkpt>
      <trkpt lat="47.99222" lon="3.35955">
        <ele>79</ele>
        <time>2014-04-14T08:37:02Z</time>
      </trkpt>
      <trkpt lat="47.9922" lon="3.35962">
        <ele>79</ele>
        <time>2014-04-14T08:37:06Z</time>
      </trkpt>
      <trkpt lat="47.99219" lon="3.35969">
        <ele>79</ele>
        <time>2014-04-14T08:37:10Z</time>
      </trkpt>
      <trkpt lat="47.99216" lon="3.35975">
        <ele>79</ele>
        <time>2014-04-14T08:37:14Z</time>
      </trkpt>
      <trkpt lat="47.99213" lon="3.35982">
        <ele>79</ele>
        <time>2014-04-14T08:37:18Z</time>
      </trkpt>
      <trkpt lat="47.99211" lon="3.35988">
        <ele>79</ele>
        <time>2014-04-14T08:37:22Z</time>
      </trkpt>
      <trkpt lat="47.99209" lon="3.35994">
        <ele>79</ele>
        <time>2014-04-14T08:37:27Z</time>
      </trkpt>
      <trkpt lat="47.99206" lon="3.36001">
        <ele>80</ele>
        <time>2014-04-14T08:37:31Z</time>
      </trkpt>
      <trkpt lat="47.99203" lon="3.36007">
        <ele>80</ele>
        <time>2014-04-14T08:37:34Z</time>
      </trkpt>
      <trkpt lat="47.99202" lon="3.36014">
        <ele>80</ele>
        <time>2014-04-14T08:37:38Z</time>
      </trkpt>
      <trkpt lat="47.992" lon="3.36021">
        <ele>80</ele>
        <time>2014-04-14T08:37:43Z</time>
      </trkpt>
      <trkpt lat="47.99197" lon="3.36028">
        <ele>80</ele>
        <time>2014-04-14T08:37:47Z</time>
      </trkpt>
      <trkpt lat="47.99195" lon="3.36035">
        <ele>81</ele>
        <time>2014-04-14T08:37:51Z</time>
      </trkpt>
      <trkpt lat="47.99194" lon="3.36042">
        <ele>81</ele>
        <time>2014-04-14T08:37:56Z</time>
      </trkpt>
      <trkpt lat="47.99192" lon="3.3605">
        <ele>81</ele>
        <time>2014-04-14T08:38:01Z</time>
      </trkpt>
      <trkpt lat="47.99191" lon="3.36057">
        <ele>81</ele>
        <time>2014-04-14T08:38:05Z</time>
      </trkpt>
      <trkpt lat="47.9919" lon="3.36064">
        <ele>81</ele>
        <time>2014-04-14T08:38:09Z</time>
      </trkpt>
      <trkpt lat="47.99189" lon="3.36071">
        <ele>81</ele>
        <time>2014-04-14T08:38:12Z</time>
      </trkpt>
      <trkpt lat="47.99187" lon="3.36079">
        <ele>80</ele>
        <time>2014-04-14T08:38:17Z</time>
      </trkpt>
      <trkpt lat="47.99185" lon="3.36085">
        <ele>82</ele>
        <time>2014-04-14T08:38:21Z</time>
      </trkpt>
      <trkpt lat="47.99184" lon="3.36092">
        <ele>82</ele>
        <time>2014-04-14T08:38:27Z</time>
      </trkpt>
      <trkpt lat="47.99182" lon="3.36098">
        <ele>82</ele>
        <time>2014-04-14T08:38:32Z</time>
      </trkpt>
      <trkpt lat="47.9918" lon="3.36105">
        <ele>82</ele>
        <time>2014-04-14T08:38:36Z</time>
      </trkpt>
      <trkpt lat="47.99179" lon="3.36114">
        <ele>82</ele>
        <time>2014-04-14T08:38:40Z</time>
      </trkpt>
      <trkpt lat="47.99178" lon="3.3612">
        <ele>82</ele>
        <time>2014-04-14T08:38:43Z</time>
      </trkpt>
      <trkpt lat="47.99176" lon="3.36127">
        <ele>83</ele>
        <time>2014-04-14T08:38:45Z</time>
      </trkpt>
      <trkpt lat="47.99173" lon="3.36135">
        <ele>83</ele>
        <time>2014-04-14T08:38:48Z</time>
      </trkpt>
      <trkpt lat="47.99171" lon="3.36142">
        <ele>82</ele>
        <time>2014-04-14T08:38:54Z</time>
      </trkpt>
      <trkpt lat="47.99168" lon="3.36147">
        <ele>82</ele>
        <time>2014-04-14T08:38:58Z</time>
      </trkpt>
      <trkpt lat="47.99167" lon="3.36155">
        <ele>80</ele>
        <time>2014-04-14T08:39:03Z</time>
      </trkpt>
      <trkpt lat="47.99165" lon="3.36162">
        <ele>81</ele>
        <time>2014-04-14T08:39:06Z</time>
      </trkpt>
      <trkpt lat="47.99163" lon="3.36169">
        <ele>81</ele>
        <time>2014-04-14T08:39:09Z</time>
      </trkpt>
      <trkpt lat="47.99161" lon="3.36176">
        <ele>80</ele>
        <time>2014-04-14T08:39:12Z</time>
      </trkpt>
      <trkpt lat="47.9916" lon="3.36184">
        <ele>80</ele>
        <time>2014-04-14T08:39:16Z</time>
      </trkpt>
      <trkpt lat="47.99159" lon="3.36192">
        <ele>80</ele>
        <time>2014-04-14T08:39:21Z</time>
      </trkpt>
      <trkpt lat="47.99157" lon="3.36199">
        <ele>80</ele>
        <time>2014-04-14T08:39:25Z</time>
      </trkpt>
      <trkpt lat="47.99155" lon="3.36206">
        <ele>80</ele>
        <time>2014-04-14T08:39:30Z</time>
      </trkpt>
      <trkpt lat="47.99153" lon="3.36213">
        <ele>80</ele>
        <time>2014-04-14T08:39:34Z</time>
      </trkpt>
      <trkpt lat="47.99151" lon="3.3622">
        <ele>80</ele>
        <time>2014-04-14T08:39:37Z</time>
      </trkpt>
      <trkpt lat="47.9915" lon="3.36227">
        <ele>80</ele>
        <time>2014-04-14T08:39:42Z</time>
      </trkpt>
      <trkpt lat="47.99148" lon="3.36235">
        <ele>81</ele>
        <time>2014-04-14T08:39:48Z</time>
      </trkpt>
      <trkpt lat="47.99147" lon="3.36241">
        <ele>81</ele>
        <time>2014-04-14T08:39:52Z</time>
      </trkpt>
      <trkpt lat="47.99144" lon="3.36248">
        <ele>81</ele>
        <time>2014-04-14T08:39:57Z</time>
      </trkpt>
      <trkpt lat="47.99143" lon="3.36255">
        <ele>83</ele>
        <time>2014-04-14T08:40:02Z</time>
      </trkpt>
      <trkpt lat="47.9914" lon="3.36262">
        <ele>83</ele>
        <time>2014-04-14T08:40:06Z</time>
      </trkpt>
      <trkpt lat="47.99138" lon="3.36269">
        <ele>83</ele>
        <time>2014-04-14T08:40:11Z</time>
      </trkpt>
      <trkpt lat="47.99137" lon="3.36276">
        <ele>84</ele>
        <time>2014-04-14T08:40:14Z</time>
      </trkpt>
      <trkpt lat="47.99135" lon="3.36284">
        <ele>84</ele>
        <time>2014-04-14T08:40:16Z</time>
      </trkpt>
      <trkpt lat="47.99134" lon="3.36291">
        <ele>84</ele>
        <time>2014-04-14T08:40:20Z</time>
      </trkpt>
      <trkpt lat="47.99131" lon="3.36297">
        <ele>84</ele>
        <time>2014-04-14T08:40:25Z</time>
      </trkpt>
      <trkpt lat="47.99128" lon="3.36302">
        <ele>84</ele>
        <time>2014-04-14T08:40:31Z</time>
      </trkpt>
      <trkpt lat="47.99126" lon="3.36309">
        <ele>85</ele>
        <time>2014-04-14T08:40:37Z</time>
      </trkpt>
      <trkpt lat="47.99121" lon="3.36309">
        <ele>84</ele>
        <time>2014-04-14T08:40:46Z</time>
      </trkpt>
      <trkpt lat="47.99122" lon="3.3631">
        <ele>84</ele>
        <time>2014-04-14T08:40:58Z</time>
      </trkpt>
      <trkpt lat="47.99121" lon="3.36318">
        <ele>85</ele>
        <time>2014-04-14T08:41:39Z</time>
      </trkpt>
      <trkpt lat="47.99122" lon="3.36321">
        <ele>85</ele>
        <time>2014-04-14T08:41:44Z</time>
      </trkpt>
      <trkpt lat="47.99118" lon="3.36326">
        <ele>84</ele>
        <time>2014-04-14T08:41:49Z</time>
      </trkpt>
      <trkpt lat="47.99115" lon="3.36334">
        <ele>88</ele>
        <time>2014-04-14T08:41:54Z</time>
      </trkpt>
      <trkpt lat="47.99112" lon="3.36341">
        <ele>88</ele>
        <time>2014-04-14T08:41:57Z</time>
      </trkpt>
      <trkpt lat="47.99109" lon="3.36346">
        <ele>88</ele>
        <time>2014-04-14T08:42:00Z</time>
      </trkpt>
      <trkpt lat="47.99107" lon="3.36352">
        <ele>88</ele>
        <time>2014-04-14T08:42:03Z</time>
      </trkpt>
      <trkpt lat="47.99104" lon="3.36358">
        <ele>88</ele>
        <time>2014-04-14T08:42:07Z</time>
      </trkpt>
      <trkpt lat="47.991" lon="3.36361">
        <ele>88</ele>
        <time>2014-04-14T08:42:12Z</time>
      </trkpt>
      <trkpt lat="47.99096" lon="3.36367">
        <ele>88</ele>
        <time>2014-04-14T08:42:15Z</time>
      </trkpt>
      <trkpt lat="47.99093" lon="3.36372">
        <ele>88</ele>
        <time>2014-04-14T08:42:18Z</time>
      </trkpt>
      <trkpt lat="47.9909" lon="3.36379">
        <ele>88</ele>
        <time>2014-04-14T08:42:22Z</time>
      </trkpt>
      <trkpt lat="47.99087" lon="3.36385">
        <ele>88</ele>
        <time>2014-04-14T08:42:27Z</time>
      </trkpt>
      <trkpt lat="47.99087" lon="3.36392">
        <ele>88</ele>
        <time>2014-04-14T08:42:30Z</time>
      </trkpt>
      <trkpt lat="47.99087" lon="3.36401">
        <ele>88</ele>
        <time>2014-04-14T08:42:35Z</time>
      </trkpt>
      <trkpt lat="47.99086" lon="3.36409">
        <ele>87</ele>
        <time>2014-04-14T08:42:40Z</time>
      </trkpt>
      <trkpt lat="47.99084" lon="3.36415">
        <ele>85</ele>
        <time>2014-04-14T08:42:44Z</time>
      </trkpt>
      <trkpt lat="47.9908" lon="3.36421">
        <ele>85</ele>
        <time>2014-04-14T08:42:48Z</time>
      </trkpt>
      <trkpt lat="47.99075" lon="3.36426">
        <ele>84</ele>
        <time>2014-04-14T08:42:53Z</time>
      </trkpt>
      <trkpt lat="47.99071" lon="3.36432">
        <ele>84</ele>
        <time>2014-04-14T08:42:57Z</time>
      </trkpt>
      <trkpt lat="47.99068" lon="3.36438">
        <ele>84</ele>
        <time>2014-04-14T08:43:00Z</time>
      </trkpt>
      <trkpt lat="47.99064" lon="3.36445">
        <ele>84</ele>
        <time>2014-04-14T08:43:05Z</time>
      </trkpt>
      <trkpt lat="47.99061" lon="3.36451">
        <ele>84</ele>
        <time>2014-04-14T08:43:09Z</time>
      </trkpt>
      <trkpt lat="47.99059" lon="3.36459">
        <ele>84</ele>
        <time>2014-04-14T08:43:16Z</time>
      </trkpt>
      <trkpt lat="47.99056" lon="3.36465">
        <ele>85</ele>
        <time>2014-04-14T08:43:20Z</time>
      </trkpt>
      <trkpt lat="47.99052" lon="3.36471">
        <ele>85</ele>
        <time>2014-04-14T08:43:23Z</time>
      </trkpt>
      <trkpt lat="47.99049" lon="3.36479">
        <ele>85</ele>
        <time>2014-04-14T08:43:27Z</time>
      </trkpt>
      <trkpt lat="47.99048" lon="3.36487">
        <ele>85</ele>
        <time>2014-04-14T08:43:30Z</time>
      </trkpt>
      <trkpt lat="47.99044" lon="3.36491">
        <ele>85</ele>
        <time>2014-04-14T08:43:37Z</time>
      </trkpt>
      <trkpt lat="47.99042" lon="3.36497">
        <ele>84</ele>
        <time>2014-04-14T08:43:43Z</time>
      </trkpt>
      <trkpt lat="47.99039" lon="3.36504">
        <ele>90</ele>
        <time>2014-04-14T08:43:47Z</time>
      </trkpt>
      <trkpt lat="47.99036" lon="3.3651">
        <ele>89</ele>
        <time>2014-04-14T08:43:50Z</time>
      </trkpt>
      <trkpt lat="47.99034" lon="3.36516">
        <ele>89</ele>
        <time>2014-04-14T08:43:53Z</time>
      </trkpt>
      <trkpt lat="47.99032" lon="3.36524">
        <ele>90</ele>
        <time>2014-04-14T08:43:58Z</time>
      </trkpt>
      <trkpt lat="47.99029" lon="3.3653">
        <ele>90</ele>
        <time>2014-04-14T08:44:02Z</time>
      </trkpt>
      <trkpt lat="47.99026" lon="3.36536">
        <ele>90</ele>
        <time>2014-04-14T08:44:04Z</time>
      </trkpt>
      <trkpt lat="47.99024" lon="3.36542">
        <ele>90</ele>
        <time>2014-04-14T08:44:08Z</time>
      </trkpt>
      <trkpt lat="47.99021" lon="3.36548">
        <ele>90</ele>
        <time>2014-04-14T08:44:12Z</time>
      </trkpt>
      <trkpt lat="47.9902" lon="3.36554">
        <ele>91</ele>
        <time>2014-04-14T08:44:17Z</time>
      </trkpt>
      <trkpt lat="47.99018" lon="3.36561">
        <ele>91</ele>
        <time>2014-04-14T08:44:21Z</time>
      </trkpt>
      <trkpt lat="47.99015" lon="3.36567">
        <ele>90</ele>
        <time>2014-04-14T08:44:26Z</time>
      </trkpt>
      <trkpt lat="47.99012" lon="3.36572">
        <ele>90</ele>
        <time>2014-04-14T08:44:30Z</time>
      </trkpt>
      <trkpt lat="47.9901" lon="3.36578">
        <ele>90</ele>
        <time>2014-04-14T08:44:33Z</time>
      </trkpt>
      <trkpt lat="47.99009" lon="3.36588">
        <ele>92</ele>
        <time>2014-04-14T08:44:39Z</time>
      </trkpt>
      <trkpt lat="47.99008" lon="3.36595">
        <ele>94</ele>
        <time>2014-04-14T08:44:43Z</time>
      </trkpt>
      <trkpt lat="47.99005" lon="3.36601">
        <ele>95</ele>
        <time>2014-04-14T08:44:46Z</time>
      </trkpt>
      <trkpt lat="47.99" lon="3.36605">
        <ele>95</ele>
        <time>2014-04-14T08:44:51Z</time>
      </trkpt>
      <trkpt lat="47.98996" lon="3.36608">
        <ele>85</ele>
        <time>2014-04-14T08:44:55Z</time>
      </trkpt>
      <trkpt lat="47.98992" lon="3.36613">
        <ele>85</ele>
        <time>2014-04-14T08:44:58Z</time>
      </trkpt>
      <trkpt lat="47.9899" lon="3.3662">
        <ele>85</ele>
        <time>2014-04-14T08:45:03Z</time>
      </trkpt>
      <trkpt lat="47.98988" lon="3.36627">
        <ele>85</ele>
        <time>2014-04-14T08:45:06Z</time>
      </trkpt>
      <trkpt lat="47.98985" lon="3.36633">
        <ele>85</ele>
        <time>2014-04-14T08:45:09Z</time>
      </trkpt>
      <trkpt lat="47.98982" lon="3.36639">
        <ele>85</ele>
        <time>2014-04-14T08:45:13Z</time>
      </trkpt>
      <trkpt lat="47.9898" lon="3.36646">
        <ele>86</ele>
        <time>2014-04-14T08:45:17Z</time>
      </trkpt>
      <trkpt lat="47.98977" lon="3.36651">
        <ele>86</ele>
        <time>2014-04-14T08:45:22Z</time>
      </trkpt>
      <trkpt lat="47.98973" lon="3.36656">
        <ele>85</ele>
        <time>2014-04-14T08:45:27Z</time>
      </trkpt>
      <trkpt lat="47.9897" lon="3.36663">
        <ele>85</ele>
        <time>2014-04-14T08:45:32Z</time>
      </trkpt>
      <trkpt lat="47.98967" lon="3.36669">
        <ele>88</ele>
        <time>2014-04-14T08:45:35Z</time>
      </trkpt>
      <trkpt lat="47.98963" lon="3.36675">
        <ele>87</ele>
        <time>2014-04-14T08:45:40Z</time>
      </trkpt>
      <trkpt lat="47.98962" lon="3.36682">
        <ele>87</ele>
        <time>2014-04-14T08:45:45Z</time>
      </trkpt>
      <trkpt lat="47.98959" lon="3.36688">
        <ele>87</ele>
        <time>2014-04-14T08:45:49Z</time>
      </trkpt>
      <trkpt lat="47.98956" lon="3.36693">
        <ele>87</ele>
        <time>2014-04-14T08:45:52Z</time>
      </trkpt>
      <trkpt lat="47.98954" lon="3.367">
        <ele>87</ele>
        <time>2014-04-14T08:45:55Z</time>
      </trkpt>
      <trkpt lat="47.98954" lon="3.36707">
        <ele>87</ele>
        <time>2014-04-14T08:45:58Z</time>
      </trkpt>
      <trkpt lat="47.98951" lon="3.36713">
        <ele>87</ele>
        <time>2014-04-14T08:46:03Z</time>
      </trkpt>
      <trkpt lat="47.98947" lon="3.3672">
        <ele>87</ele>
        <time>2014-04-14T08:46:08Z</time>
      </trkpt>
      <trkpt lat="47.98946" lon="3.36727">
        <ele>87</ele>
        <time>2014-04-14T08:46:12Z</time>
      </trkpt>
      <trkpt lat="47.98943" lon="3.36732">
        <ele>87</ele>
        <time>2014-04-14T08:46:15Z</time>
      </trkpt>
      <trkpt lat="47.98938" lon="3.36736">
        <ele>87</ele>
        <time>2014-04-14T08:46:19Z</time>
      </trkpt>
      <trkpt lat="47.98934" lon="3.36739">
        <ele>86</ele>
        <time>2014-04-14T08:46:25Z</time>
      </trkpt>
      <trkpt lat="47.98929" lon="3.36741">
        <ele>85</ele>
        <time>2014-04-14T08:46:30Z</time>
      </trkpt>
      <trkpt lat="47.98927" lon="3.36748">
        <ele>85</ele>
        <time>2014-04-14T08:46:35Z</time>
      </trkpt>
      <trkpt lat="47.98926" lon="3.36756">
        <ele>87</ele>
        <time>2014-04-14T08:46:39Z</time>
      </trkpt>
      <trkpt lat="47.98924" lon="3.36764">
        <ele>88</ele>
        <time>2014-04-14T08:46:42Z</time>
      </trkpt>
      <trkpt lat="47.9892" lon="3.36778">
        <ele>90</ele>
        <time>2014-04-14T08:46:48Z</time>
      </trkpt>
      <trkpt lat="47.98919" lon="3.36792">
        <ele>92</ele>
        <time>2014-04-14T08:46:56Z</time>
      </trkpt>
      <trkpt lat="47.98918" lon="3.36801">
        <ele>92</ele>
        <time>2014-04-14T08:46:59Z</time>
      </trkpt>
      <trkpt lat="47.98917" lon="3.36808">
        <ele>92</ele>
        <time>2014-04-14T08:47:02Z</time>
      </trkpt>
      <trkpt lat="47.98917" lon="3.36815">
        <ele>91</ele>
        <time>2014-04-14T08:47:06Z</time>
      </trkpt>
      <trkpt lat="47.98914" lon="3.3682">
        <ele>85</ele>
        <time>2014-04-14T08:47:11Z</time>
      </trkpt>
      <trkpt lat="47.9891" lon="3.36824">
        <ele>86</ele>
        <time>2014-04-14T08:47:16Z</time>
      </trkpt>
      <trkpt lat="47.98907" lon="3.3683">
        <ele>86</ele>
        <time>2014-04-14T08:47:21Z</time>
      </trkpt>
      <trkpt lat="47.98906" lon="3.36838">
        <ele>87</ele>
        <time>2014-04-14T08:47:26Z</time>
      </trkpt>
      <trkpt lat="47.98905" lon="3.36846">
        <ele>86</ele>
        <time>2014-04-14T08:47:31Z</time>
      </trkpt>
      <trkpt lat="47.98903" lon="3.36853">
        <ele>86</ele>
        <time>2014-04-14T08:47:37Z</time>
      </trkpt>
      <trkpt lat="47.989" lon="3.3686">
        <ele>85</ele>
        <time>2014-04-14T08:47:42Z</time>
      </trkpt>
      <trkpt lat="47.98893" lon="3.36858">
        <ele>85</ele>
        <time>2014-04-14T08:47:47Z</time>
      </trkpt>
      <trkpt lat="47.98887" lon="3.36864">
        <ele>85</ele>
        <time>2014-04-14T08:47:59Z</time>
      </trkpt>
      <trkpt lat="47.98884" lon="3.36869">
        <ele>84</ele>
        <time>2014-04-14T08:48:03Z</time>
      </trkpt>
      <trkpt lat="47.98882" lon="3.36875">
        <ele>84</ele>
        <time>2014-04-14T08:48:08Z</time>
      </trkpt>
      <trkpt lat="47.98878" lon="3.3688">
        <ele>84</ele>
        <time>2014-04-14T08:48:12Z</time>
      </trkpt>
      <trkpt lat="47.98875" lon="3.36885">
        <ele>84</ele>
        <time>2014-04-14T08:48:15Z</time>
      </trkpt>
      <trkpt lat="47.98872" lon="3.36892">
        <ele>84</ele>
        <time>2014-04-14T08:48:19Z</time>
      </trkpt>
      <trkpt lat="47.9887" lon="3.36898">
        <ele>84</ele>
        <time>2014-04-14T08:48:23Z</time>
      </trkpt>
      <trkpt lat="47.98867" lon="3.36904">
        <ele>83</ele>
        <time>2014-04-14T08:48:26Z</time>
      </trkpt>
      <trkpt lat="47.98863" lon="3.36909">
        <ele>83</ele>
        <time>2014-04-14T08:48:35Z</time>
      </trkpt>
      <trkpt lat="47.98858" lon="3.36911">
        <ele>82</ele>
        <time>2014-04-14T08:48:43Z</time>
      </trkpt>
      <trkpt lat="47.98851" lon="3.36921">
        <ele>83</ele>
        <time>2014-04-14T08:48:48Z</time>
      </trkpt>
      <trkpt lat="47.98848" lon="3.36926">
        <ele>83</ele>
        <time>2014-04-14T08:48:51Z</time>
      </trkpt>
      <trkpt lat="47.98844" lon="3.36932">
        <ele>83</ele>
        <time>2014-04-14T08:48:57Z</time>
      </trkpt>
      <trkpt lat="47.9884" lon="3.36937">
        <ele>83</ele>
        <time>2014-04-14T08:49:01Z</time>
      </trkpt>
      <trkpt lat="47.98838" lon="3.36943">
        <ele>84</ele>
        <time>2014-04-14T08:49:04Z</time>
      </trkpt>
      <trkpt lat="47.98834" lon="3.36948">
        <ele>84</ele>
        <time>2014-04-14T08:49:08Z</time>
      </trkpt>
      <trkpt lat="47.98829" lon="3.36952">
        <ele>80</ele>
        <time>2014-04-14T08:49:14Z</time>
      </trkpt>
      <trkpt lat="47.98825" lon="3.36956">
        <ele>80</ele>
        <time>2014-04-14T08:49:18Z</time>
      </trkpt>
      <trkpt lat="47.98822" lon="3.36961">
        <ele>80</ele>
        <time>2014-04-14T08:49:21Z</time>
      </trkpt>
      <trkpt lat="47.98819" lon="3.36966">
        <ele>80</ele>
        <time>2014-04-14T08:49:24Z</time>
      </trkpt>
      <trkpt lat="47.98812" lon="3.36968">
        <ele>80</ele>
        <time>2014-04-14T08:49:34Z</time>
      </trkpt>
      <trkpt lat="47.98808" lon="3.36972">
        <ele>80</ele>
        <time>2014-04-14T08:49:37Z</time>
      </trkpt>
      <trkpt lat="47.98805" lon="3.36977">
        <ele>80</ele>
        <time>2014-04-14T08:49:40Z</time>
      </trkpt>
      <trkpt lat="47.98802" lon="3.36983">
        <ele>80</ele>
        <time>2014-04-14T08:49:44Z</time>
      </trkpt>
      <trkpt lat="47.98799" lon="3.36988">
        <ele>80</ele>
        <time>2014-04-14T08:49:48Z</time>
      </trkpt>
      <trkpt lat="47.98795" lon="3.36994">
        <ele>80</ele>
        <time>2014-04-14T08:49:51Z</time>
      </trkpt>
      <trkpt lat="47.98792" lon="3.37">
        <ele>80</ele>
        <time>2014-04-14T08:49:55Z</time>
      </trkpt>
      <trkpt lat="47.98788" lon="3.37003">
        <ele>81</ele>
        <time>2014-04-14T08:49:59Z</time>
      </trkpt>
      <trkpt lat="47.98784" lon="3.37007">
        <ele>81</ele>
        <time>2014-04-14T08:50:02Z</time>
      </trkpt>
      <trkpt lat="47.98779" lon="3.37009">
        <ele>81</ele>
        <time>2014-04-14T08:50:05Z</time>
      </trkpt>
      <trkpt lat="47.98775" lon="3.37012">
        <ele>81</ele>
        <time>2014-04-14T08:50:08Z</time>
      </trkpt>
      <trkpt lat="47.9877" lon="3.37016">
        <ele>81</ele>
        <time>2014-04-14T08:50:11Z</time>
      </trkpt>
      <trkpt lat="47.98766" lon="3.37021">
        <ele>81</ele>
        <time>2014-04-14T08:50:14Z</time>
      </trkpt>
      <trkpt lat="47.98761" lon="3.37025">
        <ele>81</ele>
        <time>2014-04-14T08:50:18Z</time>
      </trkpt>
      <trkpt lat="47.98756" lon="3.37025">
        <ele>80</ele>
        <time>2014-04-14T08:50:24Z</time>
      </trkpt>
      <trkpt lat="47.98751" lon="3.37024">
        <ele>80</ele>
        <time>2014-04-14T08:50:28Z</time>
      </trkpt>
      <trkpt lat="47.98747" lon="3.37027">
        <ele>79</ele>
        <time>2014-04-14T08:50:32Z</time>
      </trkpt>
      <trkpt lat="47.98743" lon="3.37032">
        <ele>79</ele>
        <time>2014-04-14T08:50:35Z</time>
      </trkpt>
      <trkpt lat="47.98739" lon="3.37036">
        <ele>79</ele>
        <time>2014-04-14T08:50:39Z</time>
      </trkpt>
      <trkpt lat="47.98734" lon="3.37041">
        <ele>79</ele>
        <time>2014-04-14T08:50:44Z</time>
      </trkpt>
      <trkpt lat="47.98731" lon="3.37044">
        <ele>79</ele>
        <time>2014-04-14T08:50:55Z</time>
      </trkpt>
      <trkpt lat="47.98728" lon="3.37048">
        <ele>79</ele>
        <time>2014-04-14T08:50:58Z</time>
      </trkpt>
      <trkpt lat="47.98725" lon="3.37054">
        <ele>79</ele>
        <time>2014-04-14T08:51:04Z</time>
      </trkpt>
      <trkpt lat="47.9872" lon="3.37057">
        <ele>79</ele>
        <time>2014-04-14T08:51:11Z</time>
      </trkpt>
      <trkpt lat="47.98715" lon="3.37063">
        <ele>79</ele>
        <time>2014-04-14T08:51:15Z</time>
      </trkpt>
      <trkpt lat="47.98711" lon="3.37066">
        <ele>79</ele>
        <time>2014-04-14T08:51:18Z</time>
      </trkpt>
      <trkpt lat="47.98706" lon="3.37067">
        <ele>79</ele>
        <time>2014-04-14T08:51:25Z</time>
      </trkpt>
      <trkpt lat="47.98702" lon="3.37072">
        <ele>80</ele>
        <time>2014-04-14T08:51:33Z</time>
      </trkpt>
      <trkpt lat="47.98704" lon="3.37072">
        <ele>79</ele>
        <time>2014-04-14T08:51:41Z</time>
      </trkpt>
      <trkpt lat="47.98709" lon="3.37072">
        <ele>79</ele>
        <time>2014-04-14T08:51:51Z</time>
      </trkpt>
      <trkpt lat="47.98711" lon="3.37079">
        <ele>80</ele>
        <time>2014-04-14T08:51:57Z</time>
      </trkpt>
      <trkpt lat="47.98707" lon="3.37083">
        <ele>80</ele>
        <time>2014-04-14T08:52:02Z</time>
      </trkpt>
      <trkpt lat="47.98703" lon="3.37088">
        <ele>80</ele>
        <time>2014-04-14T08:52:06Z</time>
      </trkpt>
      <trkpt lat="47.98699" lon="3.37093">
        <ele>80</ele>
        <time>2014-04-14T08:52:10Z</time>
      </trkpt>
      <trkpt lat="47.98695" lon="3.37097">
        <ele>80</ele>
        <time>2014-04-14T08:52:16Z</time>
      </trkpt>
      <trkpt lat="47.98691" lon="3.37101">
        <ele>80</ele>
        <time>2014-04-14T08:52:24Z</time>
      </trkpt>
      <trkpt lat="47.98687" lon="3.37106">
        <ele>80</ele>
        <time>2014-04-14T08:52:29Z</time>
      </trkpt>
      <trkpt lat="47.98683" lon="3.37112">
        <ele>80</ele>
        <time>2014-04-14T08:52:34Z</time>
      </trkpt>
      <trkpt lat="47.98679" lon="3.37117">
        <ele>80</ele>
        <time>2014-04-14T08:52:40Z</time>
      </trkpt>
      <trkpt lat="47.98677" lon="3.37125">
        <ele>80</ele>
        <time>2014-04-14T08:52:43Z</time>
      </trkpt>
      <trkpt lat="47.98674" lon="3.37129">
        <ele>80</ele>
        <time>2014-04-14T08:52:47Z</time>
      </trkpt>
      <trkpt lat="47.9867" lon="3.37133">
        <ele>80</ele>
        <time>2014-04-14T08:52:50Z</time>
      </trkpt>
      <trkpt lat="47.98664" lon="3.37136">
        <ele>79</ele>
        <time>2014-04-14T08:52:54Z</time>
      </trkpt>
      <trkpt lat="47.98661" lon="3.37142">
        <ele>79</ele>
        <time>2014-04-14T08:53:00Z</time>
      </trkpt>
      <trkpt lat="47.98658" lon="3.37148">
        <ele>79</ele>
        <time>2014-04-14T08:53:06Z</time>
      </trkpt>
      <trkpt lat="47.98654" lon="3.37153">
        <ele>79</ele>
        <time>2014-04-14T08:53:11Z</time>
      </trkpt>
      <trkpt lat="47.9865" lon="3.37157">
        <ele>79</ele>
        <time>2014-04-14T08:53:15Z</time>
      </trkpt>
      <trkpt lat="47.98647" lon="3.37164">
        <ele>79</ele>
        <time>2014-04-14T08:53:18Z</time>
      </trkpt>
      <trkpt lat="47.98643" lon="3.37169">
        <ele>79</ele>
        <time>2014-04-14T08:53:23Z</time>
      </trkpt>
      <trkpt lat="47.98639" lon="3.37174">
        <ele>79</ele>
        <time>2014-04-14T08:53:28Z</time>
      </trkpt>
      <trkpt lat="47.98635" lon="3.37179">
        <ele>79</ele>
        <time>2014-04-14T08:53:32Z</time>
      </trkpt>
      <trkpt lat="47.9863" lon="3.37183">
        <ele>79</ele>
        <time>2014-04-14T08:53:36Z</time>
      </trkpt>
      <trkpt lat="47.98627" lon="3.37189">
        <ele>79</ele>
        <time>2014-04-14T08:53:40Z</time>
      </trkpt>
      <trkpt lat="47.98626" lon="3.37196">
        <ele>79</ele>
        <time>2014-04-14T08:53:43Z</time>
      </trkpt>
      <trkpt lat="47.98622" lon="3.37201">
        <ele>78</ele>
        <time>2014-04-14T08:53:49Z</time>
      </trkpt>
      <trkpt lat="47.98618" lon="3.37207">
        <ele>78</ele>
        <time>2014-04-14T08:53:53Z</time>
      </trkpt>
      <trkpt lat="47.98615" lon="3.37212">
        <ele>78</ele>
        <time>2014-04-14T08:53:58Z</time>
      </trkpt>
      <trkpt lat="47.98613" lon="3.37216">
        <ele>78</ele>
        <time>2014-04-14T08:54:05Z</time>
      </trkpt>
      <trkpt lat="47.9861" lon="3.37222">
        <ele>78</ele>
        <time>2014-04-14T08:54:18Z</time>
      </trkpt>
      <trkpt lat="47.98606" lon="3.37226">
        <ele>78</ele>
        <time>2014-04-14T08:54:23Z</time>
      </trkpt>
      <trkpt lat="47.98602" lon="3.37232">
        <ele>78</ele>
        <time>2014-04-14T08:54:27Z</time>
      </trkpt>
      <trkpt lat="47.98599" lon="3.37237">
        <ele>78</ele>
        <time>2014-04-14T08:54:30Z</time>
      </trkpt>
      <trkpt lat="47.98595" lon="3.37243">
        <ele>78</ele>
        <time>2014-04-14T08:54:34Z</time>
      </trkpt>
      <trkpt lat="47.98591" lon="3.37248">
        <ele>78</ele>
        <time>2014-04-14T08:54:40Z</time>
      </trkpt>
      <trkpt lat="47.98588" lon="3.37253">
        <ele>78</ele>
        <time>2014-04-14T08:54:45Z</time>
      </trkpt>
      <trkpt lat="47.98585" lon="3.37258">
        <ele>78</ele>
        <time>2014-04-14T08:54:50Z</time>
      </trkpt>
      <trkpt lat="47.9858" lon="3.37264">
        <ele>78</ele>
        <time>2014-04-14T08:54:53Z</time>
      </trkpt>
      <trkpt lat="47.98577" lon="3.37269">
        <ele>78</ele>
        <time>2014-04-14T08:54:57Z</time>
      </trkpt>
      <trkpt lat="47.98574" lon="3.3727">
        <ele>78</ele>
        <time>2014-04-14T08:55:03Z</time>
      </trkpt>
      <trkpt lat="47.98571" lon="3.37281">
        <ele>78</ele>
        <time>2014-04-14T08:55:08Z</time>
      </trkpt>
      <trkpt lat="47.98567" lon="3.37291">
        <ele>78</ele>
        <time>2014-04-14T08:55:12Z</time>
      </trkpt>
      <trkpt lat="47.98563" lon="3.37295">
        <ele>78</ele>
        <time>2014-04-14T08:55:22Z</time>
      </trkpt>
      <trkpt lat="47.98558" lon="3.37302">
        <ele>78</ele>
        <time>2014-04-14T08:55:29Z</time>
      </trkpt>
      <trkpt lat="47.98555" lon="3.37307">
        <ele>78</ele>
        <time>2014-04-14T08:55:34Z</time>
      </trkpt>
      <trkpt lat="47.98551" lon="3.37311">
        <ele>78</ele>
        <time>2014-04-14T08:55:38Z</time>
      </trkpt>
      <trkpt lat="47.98548" lon="3.37317">
        <ele>78</ele>
        <time>2014-04-14T08:55:41Z</time>
      </trkpt>
      <trkpt lat="47.98544" lon="3.37321">
        <ele>78</ele>
        <time>2014-04-14T08:55:45Z</time>
      </trkpt>
      <trkpt lat="47.98541" lon="3.37322">
        <ele>78</ele>
        <time>2014-04-14T08:55:55Z</time>
      </trkpt>
      <trkpt lat="47.98536" lon="3.37326">
        <ele>78</ele>
        <time>2014-04-14T08:56:02Z</time>
      </trkpt>
      <trkpt lat="47.98533" lon="3.37332">
        <ele>78</ele>
        <time>2014-04-14T08:56:06Z</time>
      </trkpt>
      <trkpt lat="47.98528" lon="3.37331">
        <ele>77</ele>
        <time>2014-04-14T08:56:12Z</time>
      </trkpt>
      <trkpt lat="47.98524" lon="3.37332">
        <ele>77</ele>
        <time>2014-04-14T08:56:16Z</time>
      </trkpt>
      <trkpt lat="47.98519" lon="3.37333">
        <ele>77</ele>
        <time>2014-04-14T08:56:21Z</time>
      </trkpt>
      <trkpt lat="47.98514" lon="3.37335">
        <ele>78</ele>
        <time>2014-04-14T08:56:27Z</time>
      </trkpt>
      <trkpt lat="47.98512" lon="3.37341">
        <ele>78</ele>
        <time>2014-04-14T08:56:32Z</time>
      </trkpt>
      <trkpt lat="47.98508" lon="3.37345">
        <ele>78</ele>
        <time>2014-04-14T08:56:36Z</time>
      </trkpt>
      <trkpt lat="47.98503" lon="3.37349">
        <ele>78</ele>
        <time>2014-04-14T08:56:39Z</time>
      </trkpt>
      <trkpt lat="47.98498" lon="3.37353">
        <ele>77</ele>
        <time>2014-04-14T08:56:42Z</time>
      </trkpt>
      <trkpt lat="47.98494" lon="3.37356">
        <ele>77</ele>
        <time>2014-04-14T08:56:45Z</time>
      </trkpt>
      <trkpt lat="47.9849" lon="3.37361">
        <ele>77</ele>
        <time>2014-04-14T08:56:48Z</time>
      </trkpt>
      <trkpt lat="47.98487" lon="3.37367">
        <ele>78</ele>
        <time>2014-04-14T08:56:53Z</time>
      </trkpt>
      <trkpt lat="47.98483" lon="3.37371">
        <ele>78</ele>
        <time>2014-04-14T08:56:57Z</time>
      </trkpt>
      <trkpt lat="47.9848" lon="3.37376">
        <ele>78</ele>
        <time>2014-04-14T08:57:06Z</time>
      </trkpt>
      <trkpt lat="47.98477" lon="3.37382">
        <ele>78</ele>
        <time>2014-04-14T08:57:10Z</time>
      </trkpt>
      <trkpt lat="47.98473" lon="3.37388">
        <ele>78</ele>
        <time>2014-04-14T08:57:14Z</time>
      </trkpt>
      <trkpt lat="47.98469" lon="3.37394">
        <ele>78</ele>
        <time>2014-04-14T08:57:18Z</time>
      </trkpt>
      <trkpt lat="47.98464" lon="3.37397">
        <ele>78</ele>
        <time>2014-04-14T08:57:21Z</time>
      </trkpt>
      <trkpt lat="47.98461" lon="3.37403">
        <ele>78</ele>
        <time>2014-04-14T08:57:25Z</time>
      </trkpt>
      <trkpt lat="47.98457" lon="3.37408">
        <ele>78</ele>
        <time>2014-04-14T08:57:31Z</time>
      </trkpt>
      <trkpt lat="47.98454" lon="3.37413">
        <ele>78</ele>
        <time>2014-04-14T08:57:36Z</time>
      </trkpt>
      <trkpt lat="47.9845" lon="3.37419">
        <ele>79</ele>
        <time>2014-04-14T08:57:41Z</time>
      </trkpt>
      <trkpt lat="47.98446" lon="3.37424">
        <ele>79</ele>
        <time>2014-04-14T08:57:45Z</time>
      </trkpt>
      <trkpt lat="47.98442" lon="3.37429">
        <ele>79</ele>
        <time>2014-04-14T08:57:50Z</time>
      </trkpt>
      <trkpt lat="47.98437" lon="3.37432">
        <ele>78</ele>
        <time>2014-04-14T08:57:54Z</time>
      </trkpt>
      <trkpt lat="47.98432" lon="3.37436">
        <ele>78</ele>
        <time>2014-04-14T08:58:02Z</time>
      </trkpt>
      <trkpt lat="47.98429" lon="3.37441">
        <ele>78</ele>
        <time>2014-04-14T08:58:06Z</time>
      </trkpt>
      <trkpt lat="47.98425" lon="3.37446">
        <ele>79</ele>
        <time>2014-04-14T08:58:10Z</time>
      </trkpt>
      <trkpt lat="47.98422" lon="3.37452">
        <ele>79</ele>
        <time>2014-04-14T08:58:14Z</time>
      </trkpt>
      <trkpt lat="47.98418" lon="3.37457">
        <ele>79</ele>
        <time>2014-04-14T08:58:17Z</time>
      </trkpt>
      <trkpt lat="47.98415" lon="3.37462">
        <ele>77</ele>
        <time>2014-04-14T08:58:19Z</time>
      </trkpt>
      <trkpt lat="47.98412" lon="3.37467">
        <ele>77</ele>
        <time>2014-04-14T08:58:25Z</time>
      </trkpt>
      <trkpt lat="47.98409" lon="3.37472">
        <ele>77</ele>
        <time>2014-04-14T08:58:29Z</time>
      </trkpt>
      <trkpt lat="47.98405" lon="3.37478">
        <ele>77</ele>
        <time>2014-04-14T08:58:33Z</time>
      </trkpt>
      <trkpt lat="47.98401" lon="3.37483">
        <ele>77</ele>
        <time>2014-04-14T08:58:38Z</time>
      </trkpt>
      <trkpt lat="47.98398" lon="3.37489">
        <ele>77</ele>
        <time>2014-04-14T08:58:43Z</time>
      </trkpt>
      <trkpt lat="47.98394" lon="3.37495">
        <ele>77</ele>
        <time>2014-04-14T08:58:47Z</time>
      </trkpt>
      <trkpt lat="47.98391" lon="3.37501">
        <ele>78</ele>
        <time>2014-04-14T08:58:50Z</time>
      </trkpt>
      <trkpt lat="47.98389" lon="3.37507">
        <ele>78</ele>
        <time>2014-04-14T08:58:54Z</time>
      </trkpt>
      <trkpt lat="47.98384" lon="3.37513">
        <ele>78</ele>
        <time>2014-04-14T08:58:59Z</time>
      </trkpt>
      <trkpt lat="47.98378" lon="3.37518">
        <ele>78</ele>
        <time>2014-04-14T08:59:02Z</time>
      </trkpt>
      <trkpt lat="47.98378" lon="3.37524">
        <ele>78</ele>
        <time>2014-04-14T08:59:19Z</time>
      </trkpt>
      <trkpt lat="47.98374" lon="3.37531">
        <ele>78</ele>
        <time>2014-04-14T08:59:26Z</time>
      </trkpt>
      <trkpt lat="47.98373" lon="3.37539">
        <ele>78</ele>
        <time>2014-04-14T08:59:29Z</time>
      </trkpt>
      <trkpt lat="47.98371" lon="3.37545">
        <ele>78</ele>
        <time>2014-04-14T08:59:32Z</time>
      </trkpt>
      <trkpt lat="47.98369" lon="3.37551">
        <ele>79</ele>
        <time>2014-04-14T08:59:36Z</time>
      </trkpt>
      <trkpt lat="47.98368" lon="3.37558">
        <ele>79</ele>
        <time>2014-04-14T08:59:44Z</time>
      </trkpt>
      <trkpt lat="47.98366" lon="3.37567">
        <ele>79</ele>
        <time>2014-04-14T08:59:48Z</time>
      </trkpt>
      <trkpt lat="47.98364" lon="3.37575">
        <ele>79</ele>
        <time>2014-04-14T08:59:51Z</time>
      </trkpt>
      <trkpt lat="47.98361" lon="3.37582">
        <ele>79</ele>
        <time>2014-04-14T08:59:54Z</time>
      </trkpt>
      <trkpt lat="47.98357" lon="3.37586">
        <ele>79</ele>
        <time>2014-04-14T08:59:58Z</time>
      </trkpt>
      <trkpt lat="47.98352" lon="3.37591">
        <ele>79</ele>
        <time>2014-04-14T09:00:01Z</time>
      </trkpt>
      <trkpt lat="47.9835" lon="3.37598">
        <ele>79</ele>
        <time>2014-04-14T09:00:04Z</time>
      </trkpt>
      <trkpt lat="47.9835" lon="3.37604">
        <ele>79</ele>
        <time>2014-04-14T09:00:07Z</time>
      </trkpt>
      <trkpt lat="47.9835" lon="3.37612">
        <ele>80</ele>
        <time>2014-04-14T09:00:11Z</time>
      </trkpt>
      <trkpt lat="47.98348" lon="3.3762">
        <ele>80</ele>
        <time>2014-04-14T09:00:16Z</time>
      </trkpt>
      <trkpt lat="47.98344" lon="3.37627">
        <ele>80</ele>
        <time>2014-04-14T09:00:26Z</time>
      </trkpt>
      <trkpt lat="47.98341" lon="3.37633">
        <ele>80</ele>
        <time>2014-04-14T09:00:30Z</time>
      </trkpt>
      <trkpt lat="47.98337" lon="3.37638">
        <ele>80</ele>
        <time>2014-04-14T09:00:34Z</time>
      </trkpt>
      <trkpt lat="47.98334" lon="3.37645">
        <ele>80</ele>
        <time>2014-04-14T09:00:36Z</time>
      </trkpt>
      <trkpt lat="47.98331" lon="3.37652">
        <ele>78</ele>
        <time>2014-04-14T09:00:38Z</time>
      </trkpt>
      <trkpt lat="47.98329" lon="3.37658">
        <ele>79</ele>
        <time>2014-04-14T09:00:40Z</time>
      </trkpt>
      <trkpt lat="47.98327" lon="3.37665">
        <ele>79</ele>
        <time>2014-04-14T09:00:43Z</time>
      </trkpt>
      <trkpt lat="47.98328" lon="3.37673">
        <ele>79</ele>
        <time>2014-04-14T09:00:46Z</time>
      </trkpt>
      <trkpt lat="47.98327" lon="3.37681">
        <ele>79</ele>
        <time>2014-04-14T09:00:50Z</time>
      </trkpt>
      <trkpt lat="47.98326" lon="3.37687">
        <ele>79</ele>
        <time>2014-04-14T09:00:54Z</time>
      </trkpt>
      <trkpt lat="47.98323" lon="3.37695">
        <ele>79</ele>
        <time>2014-04-14T09:00:58Z</time>
      </trkpt>
      <trkpt lat="47.98322" lon="3.37702">
        <ele>79</ele>
        <time>2014-04-14T09:01:02Z</time>
      </trkpt>
      <trkpt lat="47.98318" lon="3.37707">
        <ele>79</ele>
        <time>2014-04-14T09:01:11Z</time>
      </trkpt>
      <trkpt lat="47.98316" lon="3.37714">
        <ele>79</ele>
        <time>2014-04-14T09:01:18Z</time>
      </trkpt>
      <trkpt lat="47.98313" lon="3.37721">
        <ele>79</ele>
        <time>2014-04-14T09:01:23Z</time>
      </trkpt>
      <trkpt lat="47.9831" lon="3.37728">
        <ele>79</ele>
        <time>2014-04-14T09:01:27Z</time>
      </trkpt>
      <trkpt lat="47.98309" lon="3.37737">
        <ele>79</ele>
        <time>2014-04-14T09:01:30Z</time>
      </trkpt>
      <trkpt lat="47.98307" lon="3.37743">
        <ele>79</ele>
        <time>2014-04-14T09:01:34Z</time>
      </trkpt>
      <trkpt lat="47.98305" lon="3.3775">
        <ele>79</ele>
        <time>2014-04-14T09:01:41Z</time>
      </trkpt>
      <trkpt lat="47.98303" lon="3.37756">
        <ele>80</ele>
        <time>2014-04-14T09:01:49Z</time>
      </trkpt>
      <trkpt lat="47.98299" lon="3.37761">
        <ele>80</ele>
        <time>2014-04-14T09:01:55Z</time>
      </trkpt>
      <trkpt lat="47.98296" lon="3.37766">
        <ele>80</ele>
        <time>2014-04-14T09:02:00Z</time>
      </trkpt>
      <trkpt lat="47.98292" lon="3.37772">
        <ele>80</ele>
        <time>2014-04-14T09:02:04Z</time>
      </trkpt>
      <trkpt lat="47.98288" lon="3.37776">
        <ele>80</ele>
        <time>2014-04-14T09:02:07Z</time>
      </trkpt>
      <trkpt lat="47.98287" lon="3.37783">
        <ele>80</ele>
        <time>2014-04-14T09:02:11Z</time>
      </trkpt>
      <trkpt lat="47.98285" lon="3.3779">
        <ele>80</ele>
        <time>2014-04-14T09:02:16Z</time>
      </trkpt>
      <trkpt lat="47.98286" lon="3.3779">
        <ele>80</ele>
        <time>2014-04-14T09:03:23Z</time>
      </trkpt>
      <trkpt lat="47.98286" lon="3.37797">
        <ele>80</ele>
        <time>2014-04-14T09:03:37Z</time>
      </trkpt>
      <trkpt lat="47.98285" lon="3.37804">
        <ele>80</ele>
        <time>2014-04-14T09:03:43Z</time>
      </trkpt>
      <trkpt lat="47.98281" lon="3.3781">
        <ele>80</ele>
        <time>2014-04-14T09:03:49Z</time>
      </trkpt>
      <trkpt lat="47.98281" lon="3.3782">
        <ele>80</ele>
        <time>2014-04-14T09:04:00Z</time>
      </trkpt>
      <trkpt lat="47.98281" lon="3.37828">
        <ele>80</ele>
        <time>2014-04-14T09:04:06Z</time>
      </trkpt>
      <trkpt lat="47.98281" lon="3.37835">
        <ele>80</ele>
        <time>2014-04-14T09:04:10Z</time>
      </trkpt>
      <trkpt lat="47.98282" lon="3.37843">
        <ele>80</ele>
        <time>2014-04-14T09:04:14Z</time>
      </trkpt>
      <trkpt lat="47.98284" lon="3.37849">
        <ele>80</ele>
        <time>2014-04-14T09:04:17Z</time>
      </trkpt>
      <trkpt lat="47.98285" lon="3.37856">
        <ele>80</ele>
        <time>2014-04-14T09:04:21Z</time>
      </trkpt>
      <trkpt lat="47.98284" lon="3.37863">
        <ele>80</ele>
        <time>2014-04-14T09:04:26Z</time>
      </trkpt>
      <trkpt lat="47.98282" lon="3.37871">
        <ele>80</ele>
        <time>2014-04-14T09:04:30Z</time>
      </trkpt>
      <trkpt lat="47.98283" lon="3.37879">
        <ele>80</ele>
        <time>2014-04-14T09:04:34Z</time>
      </trkpt>
      <trkpt lat="47.98285" lon="3.37885">
        <ele>80</ele>
        <time>2014-04-14T09:04:37Z</time>
      </trkpt>
      <trkpt lat="47.98285" lon="3.37893">
        <ele>80</ele>
        <time>2014-04-14T09:04:42Z</time>
      </trkpt>
      <trkpt lat="47.98283" lon="3.37901">
        <ele>79</ele>
        <time>2014-04-14T09:04:46Z</time>
      </trkpt>
      <trkpt lat="47.98282" lon="3.37908">
        <ele>79</ele>
        <time>2014-04-14T09:04:50Z</time>
      </trkpt>
      <trkpt lat="47.98282" lon="3.37916">
        <ele>79</ele>
        <time>2014-04-14T09:04:54Z</time>
      </trkpt>
      <trkpt lat="47.98284" lon="3.37922">
        <ele>79</ele>
        <time>2014-04-14T09:04:58Z</time>
      </trkpt>
      <trkpt lat="47.98286" lon="3.3793">
        <ele>79</ele>
        <time>2014-04-14T09:05:04Z</time>
      </trkpt>
      <trkpt lat="47.98287" lon="3.37938">
        <ele>79</ele>
        <time>2014-04-14T09:05:09Z</time>
      </trkpt>
      <trkpt lat="47.98285" lon="3.37946">
        <ele>79</ele>
        <time>2014-04-14T09:05:13Z</time>
      </trkpt>
      <trkpt lat="47.98284" lon="3.37954">
        <ele>79</ele>
        <time>2014-04-14T09:05:16Z</time>
      </trkpt>
      <trkpt lat="47.98285" lon="3.37961">
        <ele>79</ele>
        <time>2014-04-14T09:05:19Z</time>
      </trkpt>
      <trkpt lat="47.98284" lon="3.37969">
        <ele>79</ele>
        <time>2014-04-14T09:05:24Z</time>
      </trkpt>
      <trkpt lat="47.98284" lon="3.37976">
        <ele>79</ele>
        <time>2014-04-14T09:05:28Z</time>
      </trkpt>
      <trkpt lat="47.98286" lon="3.37984">
        <ele>79</ele>
        <time>2014-04-14T09:05:33Z</time>
      </trkpt>
      <trkpt lat="47.98286" lon="3.37991">
        <ele>79</ele>
        <time>2014-04-14T09:05:37Z</time>
      </trkpt>
      <trkpt lat="47.98285" lon="3.37998">
        <ele>79</ele>
        <time>2014-04-14T09:05:43Z</time>
      </trkpt>
      <trkpt lat="47.98283" lon="3.38006">
        <ele>79</ele>
        <time>2014-04-14T09:05:49Z</time>
      </trkpt>
      <trkpt lat="47.98282" lon="3.38014">
        <ele>79</ele>
        <time>2014-04-14T09:05:53Z</time>
      </trkpt>
      <trkpt lat="47.98282" lon="3.38021">
        <ele>79</ele>
        <time>2014-04-14T09:05:58Z</time>
      </trkpt>
      <trkpt lat="47.98281" lon="3.38028">
        <ele>79</ele>
        <time>2014-04-14T09:06:02Z</time>
      </trkpt>
      <trkpt lat="47.98279" lon="3.38036">
        <ele>79</ele>
        <time>2014-04-14T09:06:05Z</time>
      </trkpt>
      <trkpt lat="47.98277" lon="3.38043">
        <ele>79</ele>
        <time>2014-04-14T09:06:10Z</time>
      </trkpt>
      <trkpt lat="47.98277" lon="3.3805">
        <ele>79</ele>
        <time>2014-04-14T09:06:14Z</time>
      </trkpt>
      <trkpt lat="47.98279" lon="3.38056">
        <ele>79</ele>
        <time>2014-04-14T09:06:17Z</time>
      </trkpt>
      <trkpt lat="47.98279" lon="3.38064">
        <ele>79</ele>
        <time>2014-04-14T09:06:22Z</time>
      </trkpt>
      <trkpt lat="47.98276" lon="3.38073">
        <ele>78</ele>
        <time>2014-04-14T09:06:27Z</time>
      </trkpt>
      <trkpt lat="47.98277" lon="3.3808">
        <ele>78</ele>
        <time>2014-04-14T09:06:30Z</time>
      </trkpt>
      <trkpt lat="47.98277" lon="3.38091">
        <ele>79</ele>
        <time>2014-04-14T09:06:39Z</time>
      </trkpt>
      <trkpt lat="47.98279" lon="3.38105">
        <ele>79</ele>
        <time>2014-04-14T09:06:47Z</time>
      </trkpt>
      <trkpt lat="47.98278" lon="3.38111">
        <ele>79</ele>
        <time>2014-04-14T09:06:51Z</time>
      </trkpt>
      <trkpt lat="47.98279" lon="3.38118">
        <ele>79</ele>
        <time>2014-04-14T09:06:54Z</time>
      </trkpt>
      <trkpt lat="47.98281" lon="3.38127">
        <ele>79</ele>
        <time>2014-04-14T09:07:15Z</time>
      </trkpt>
      <trkpt lat="47.98279" lon="3.38136">
        <ele>80</ele>
        <time>2014-04-14T09:07:19Z</time>
      </trkpt>
      <trkpt lat="47.98279" lon="3.38145">
        <ele>80</ele>
        <time>2014-04-14T09:07:23Z</time>
      </trkpt>
      <trkpt lat="47.9828" lon="3.38153">
        <ele>80</ele>
        <time>2014-04-14T09:07:27Z</time>
      </trkpt>
      <trkpt lat="47.98281" lon="3.3816">
        <ele>80</ele>
        <time>2014-04-14T09:07:30Z</time>
      </trkpt>
      <trkpt lat="47.98283" lon="3.38167">
        <ele>81</ele>
        <time>2014-04-14T09:07:33Z</time>
      </trkpt>
      <trkpt lat="47.98281" lon="3.38181">
        <ele>81</ele>
        <time>2014-04-14T09:07:43Z</time>
      </trkpt>
      <trkpt lat="47.98279" lon="3.38189">
        <ele>81</ele>
        <time>2014-04-14T09:07:47Z</time>
      </trkpt>
      <trkpt lat="47.9828" lon="3.38196">
        <ele>81</ele>
        <time>2014-04-14T09:07:50Z</time>
      </trkpt>
      <trkpt lat="47.98285" lon="3.38203">
        <ele>81</ele>
        <time>2014-04-14T09:07:53Z</time>
      </trkpt>
      <trkpt lat="47.98289" lon="3.38208">
        <ele>81</ele>
        <time>2014-04-14T09:07:56Z</time>
      </trkpt>
      <trkpt lat="47.9829" lon="3.38222">
        <ele>81</ele>
        <time>2014-04-14T09:08:04Z</time>
      </trkpt>
      <trkpt lat="47.98288" lon="3.3823">
        <ele>81</ele>
        <time>2014-04-14T09:08:08Z</time>
      </trkpt>
      <trkpt lat="47.9829" lon="3.38237">
        <ele>81</ele>
        <time>2014-04-14T09:08:12Z</time>
      </trkpt>
      <trkpt lat="47.9829" lon="3.38245">
        <ele>81</ele>
        <time>2014-04-14T09:08:17Z</time>
      </trkpt>
      <trkpt lat="47.9829" lon="3.38253">
        <ele>82</ele>
        <time>2014-04-14T09:08:22Z</time>
      </trkpt>
      <trkpt lat="47.98288" lon="3.38261">
        <ele>82</ele>
        <time>2014-04-14T09:08:26Z</time>
      </trkpt>
      <trkpt lat="47.98289" lon="3.38269">
        <ele>83</ele>
        <time>2014-04-14T09:08:29Z</time>
      </trkpt>
      <trkpt lat="47.98292" lon="3.38276">
        <ele>83</ele>
        <time>2014-04-14T09:08:34Z</time>
      </trkpt>
      <trkpt lat="47.98292" lon="3.38283">
        <ele>83</ele>
        <time>2014-04-14T09:08:37Z</time>
      </trkpt>
      <trkpt lat="47.98292" lon="3.3829">
        <ele>83</ele>
        <time>2014-04-14T09:08:41Z</time>
      </trkpt>
      <trkpt lat="47.98291" lon="3.38298">
        <ele>83</ele>
        <time>2014-04-14T09:08:45Z</time>
      </trkpt>
      <trkpt lat="47.98292" lon="3.38312">
        <ele>83</ele>
        <time>2014-04-14T09:08:51Z</time>
      </trkpt>
      <trkpt lat="47.98297" lon="3.38317">
        <ele>83</ele>
        <time>2014-04-14T09:08:55Z</time>
      </trkpt>
      <trkpt lat="47.983" lon="3.38324">
        <ele>83</ele>
        <time>2014-04-14T09:08:58Z</time>
      </trkpt>
      <trkpt lat="47.98302" lon="3.38332">
        <ele>84</ele>
        <time>2014-04-14T09:09:03Z</time>
      </trkpt>
      <trkpt lat="47.98304" lon="3.38339">
        <ele>83</ele>
        <time>2014-04-14T09:09:07Z</time>
      </trkpt>
      <trkpt lat="47.98302" lon="3.38352">
        <ele>83</ele>
        <time>2014-04-14T09:09:15Z</time>
      </trkpt>
      <trkpt lat="47.98303" lon="3.38361">
        <ele>83</ele>
        <time>2014-04-14T09:09:19Z</time>
      </trkpt>
      <trkpt lat="47.98305" lon="3.38371">
        <ele>83</ele>
        <time>2014-04-14T09:09:23Z</time>
      </trkpt>
      <trkpt lat="47.98308" lon="3.38378">
        <ele>83</ele>
        <time>2014-04-14T09:09:27Z</time>
      </trkpt>
      <trkpt lat="47.9831" lon="3.38385">
        <ele>83</ele>
        <time>2014-04-14T09:09:34Z</time>
      </trkpt>
      <trkpt lat="47.98309" lon="3.38392">
        <ele>82</ele>
        <time>2014-04-14T09:09:37Z</time>
      </trkpt>
      <trkpt lat="47.9831" lon="3.384">
        <ele>82</ele>
        <time>2014-04-14T09:09:40Z</time>
      </trkpt>
      <trkpt lat="47.98311" lon="3.38408">
        <ele>83</ele>
        <time>2014-04-14T09:09:44Z</time>
      </trkpt>
      <trkpt lat="47.98311" lon="3.38415">
        <ele>83</ele>
        <time>2014-04-14T09:09:50Z</time>
      </trkpt>
      <trkpt lat="47.98312" lon="3.38422">
        <ele>82</ele>
        <time>2014-04-14T09:09:55Z</time>
      </trkpt>
      <trkpt lat="47.98313" lon="3.3843">
        <ele>82</ele>
        <time>2014-04-14T09:09:59Z</time>
      </trkpt>
      <trkpt lat="47.98313" lon="3.38437">
        <ele>82</ele>
        <time>2014-04-14T09:10:02Z</time>
      </trkpt>
      <trkpt lat="47.98312" lon="3.38444">
        <ele>82</ele>
        <time>2014-04-14T09:10:05Z</time>
      </trkpt>
      <trkpt lat="47.98312" lon="3.38452">
        <ele>82</ele>
        <time>2014-04-14T09:10:08Z</time>
      </trkpt>
      <trkpt lat="47.9831" lon="3.38463">
        <ele>82</ele>
        <time>2014-04-14T09:10:15Z</time>
      </trkpt>
      <trkpt lat="47.98313" lon="3.38469">
        <ele>82</ele>
        <time>2014-04-14T09:10:19Z</time>
      </trkpt>
      <trkpt lat="47.98314" lon="3.38481">
        <ele>82</ele>
        <time>2014-04-14T09:10:26Z</time>
      </trkpt>
      <trkpt lat="47.98314" lon="3.38489">
        <ele>82</ele>
        <time>2014-04-14T09:10:30Z</time>
      </trkpt>
      <trkpt lat="47.98314" lon="3.38497">
        <ele>83</ele>
        <time>2014-04-14T09:10:34Z</time>
      </trkpt>
      <trkpt lat="47.98312" lon="3.38509">
        <ele>83</ele>
        <time>2014-04-14T09:10:44Z</time>
      </trkpt>
      <trkpt lat="47.98314" lon="3.38512">
        <ele>83</ele>
        <time>2014-04-14T09:10:51Z</time>
      </trkpt>
      <trkpt lat="47.98313" lon="3.38519">
        <ele>83</ele>
        <time>2014-04-14T09:11:02Z</time>
      </trkpt>
      <trkpt lat="47.98313" lon="3.38528">
        <ele>83</ele>
        <time>2014-04-14T09:11:06Z</time>
      </trkpt>
      <trkpt lat="47.98312" lon="3.38535">
        <ele>83</ele>
        <time>2014-04-14T09:11:11Z</time>
      </trkpt>
      <trkpt lat="47.98311" lon="3.38544">
        <ele>83</ele>
        <time>2014-04-14T09:11:15Z</time>
      </trkpt>
      <trkpt lat="47.98312" lon="3.3855">
        <ele>83</ele>
        <time>2014-04-14T09:11:18Z</time>
      </trkpt>
      <trkpt lat="47.98313" lon="3.38557">
        <ele>83</ele>
        <time>2014-04-14T09:11:21Z</time>
      </trkpt>
      <trkpt lat="47.98312" lon="3.38565">
        <ele>83</ele>
        <time>2014-04-14T09:11:25Z</time>
      </trkpt>
      <trkpt lat="47.98311" lon="3.38573">
        <ele>84</ele>
        <time>2014-04-14T09:11:30Z</time>
      </trkpt>
      <trkpt lat="47.98312" lon="3.38581">
        <ele>84</ele>
        <time>2014-04-14T09:11:35Z</time>
      </trkpt>
      <trkpt lat="47.98315" lon="3.38588">
        <ele>84</ele>
        <time>2014-04-14T09:11:39Z</time>
      </trkpt>
      <trkpt lat="47.98315" lon="3.38595">
        <ele>84</ele>
        <time>2014-04-14T09:11:43Z</time>
      </trkpt>
      <trkpt lat="47.98314" lon="3.38601">
        <ele>84</ele>
        <time>2014-04-14T09:11:51Z</time>
      </trkpt>
      <trkpt lat="47.98315" lon="3.38606">
        <ele>84</ele>
        <time>2014-04-14T09:12:02Z</time>
      </trkpt>
      <trkpt lat="47.98318" lon="3.38613">
        <ele>83</ele>
        <time>2014-04-14T09:12:06Z</time>
      </trkpt>
      <trkpt lat="47.98318" lon="3.38622">
        <ele>83</ele>
        <time>2014-04-14T09:12:11Z</time>
      </trkpt>
      <trkpt lat="47.98315" lon="3.38628">
        <ele>83</ele>
        <time>2014-04-14T09:12:13Z</time>
      </trkpt>
      <trkpt lat="47.98314" lon="3.38636">
        <ele>83</ele>
        <time>2014-04-14T09:12:18Z</time>
      </trkpt>
      <trkpt lat="47.98313" lon="3.38643">
        <ele>83</ele>
        <time>2014-04-14T09:12:22Z</time>
      </trkpt>
      <trkpt lat="47.98313" lon="3.38651">
        <ele>83</ele>
        <time>2014-04-14T09:12:26Z</time>
      </trkpt>
      <trkpt lat="47.98314" lon="3.38658">
        <ele>83</ele>
        <time>2014-04-14T09:12:30Z</time>
      </trkpt>
      <trkpt lat="47.98314" lon="3.38667">
        <ele>82</ele>
        <time>2014-04-14T09:12:35Z</time>
      </trkpt>
      <trkpt lat="47.98312" lon="3.38673">
        <ele>82</ele>
        <time>2014-04-14T09:12:39Z</time>
      </trkpt>
      <trkpt lat="47.98312" lon="3.38681">
        <ele>81</ele>
        <time>2014-04-14T09:12:42Z</time>
      </trkpt>
      <trkpt lat="47.98314" lon="3.38689">
        <ele>81</ele>
        <time>2014-04-14T09:12:46Z</time>
      </trkpt>
      <trkpt lat="47.98313" lon="3.38697">
        <ele>81</ele>
        <time>2014-04-14T09:12:51Z</time>
      </trkpt>
      <trkpt lat="47.98313" lon="3.38704">
        <ele>81</ele>
        <time>2014-04-14T09:12:55Z</time>
      </trkpt>
      <trkpt lat="47.98312" lon="3.38712">
        <ele>81</ele>
        <time>2014-04-14T09:12:59Z</time>
      </trkpt>
      <trkpt lat="47.98309" lon="3.38718">
        <ele>81</ele>
        <time>2014-04-14T09:13:02Z</time>
      </trkpt>
      <trkpt lat="47.98307" lon="3.38727">
        <ele>81</ele>
        <time>2014-04-14T09:13:07Z</time>
      </trkpt>
      <trkpt lat="47.98308" lon="3.38741">
        <ele>81</ele>
        <time>2014-04-14T09:13:19Z</time>
      </trkpt>
      <trkpt lat="47.98311" lon="3.38747">
        <ele>81</ele>
        <time>2014-04-14T09:13:23Z</time>
      </trkpt>
      <trkpt lat="47.98314" lon="3.38754">
        <ele>82</ele>
        <time>2014-04-14T09:13:28Z</time>
      </trkpt>
      <trkpt lat="47.98317" lon="3.38762">
        <ele>82</ele>
        <time>2014-04-14T09:13:32Z</time>
      </trkpt>
      <trkpt lat="47.98315" lon="3.38766">
        <ele>82</ele>
        <time>2014-04-14T09:15:11Z</time>
      </trkpt>
      <trkpt lat="47.98319" lon="3.3877">
        <ele>82</ele>
        <time>2014-04-14T09:15:14Z</time>
      </trkpt>
      <trkpt lat="47.98324" lon="3.38773">
        <ele>82</ele>
        <time>2014-04-14T09:15:17Z</time>
      </trkpt>
      <trkpt lat="47.98329" lon="3.38773">
        <ele>82</ele>
        <time>2014-04-14T09:15:20Z</time>
      </trkpt>
      <trkpt lat="47.98332" lon="3.38773">
        <ele>83</ele>
        <time>2014-04-14T09:15:29Z</time>
      </trkpt>
      <trkpt lat="47.98333" lon="3.38781">
        <ele>83</ele>
        <time>2014-04-14T09:15:36Z</time>
      </trkpt>
      <trkpt lat="47.98336" lon="3.3879">
        <ele>89</ele>
        <time>2014-04-14T09:15:47Z</time>
      </trkpt>
      <trkpt lat="47.98338" lon="3.38796">
        <ele>90</ele>
        <time>2014-04-14T09:15:52Z</time>
      </trkpt>
      <trkpt lat="47.98342" lon="3.38798">
        <ele>90</ele>
        <time>2014-04-14T09:15:59Z</time>
      </trkpt>
      <trkpt lat="47.98344" lon="3.388">
        <ele>90</ele>
        <time>2014-04-14T09:16:05Z</time>
      </trkpt>
      <trkpt lat="47.98345" lon="3.38805">
        <ele>90</ele>
        <time>2014-04-14T09:16:19Z</time>
      </trkpt>
      <trkpt lat="47.98344" lon="3.38811">
        <ele>90</ele>
        <time>2014-04-14T09:16:49Z</time>
      </trkpt>
      <trkpt lat="47.98342" lon="3.38818">
        <ele>90</ele>
        <time>2014-04-14T09:16:54Z</time>
      </trkpt>
      <trkpt lat="47.98342" lon="3.38826">
        <ele>89</ele>
        <time>2014-04-14T09:16:58Z</time>
      </trkpt>
      <trkpt lat="47.98346" lon="3.38832">
        <ele>89</ele>
        <time>2014-04-14T09:17:05Z</time>
      </trkpt>
      <trkpt lat="47.98348" lon="3.38838">
        <ele>90</ele>
        <time>2014-04-14T09:17:12Z</time>
      </trkpt>
      <trkpt lat="47.98352" lon="3.38843">
        <ele>91</ele>
        <time>2014-04-14T09:17:16Z</time>
      </trkpt>
      <trkpt lat="47.98355" lon="3.38849">
        <ele>91</ele>
        <time>2014-04-14T09:17:20Z</time>
      </trkpt>
      <trkpt lat="47.98353" lon="3.38857">
        <ele>91</ele>
        <time>2014-04-14T09:17:25Z</time>
      </trkpt>
      <trkpt lat="47.98354" lon="3.38866">
        <ele>91</ele>
        <time>2014-04-14T09:17:29Z</time>
      </trkpt>
      <trkpt lat="47.98353" lon="3.38874">
        <ele>91</ele>
        <time>2014-04-14T09:17:33Z</time>
      </trkpt>
      <trkpt lat="47.98352" lon="3.38881">
        <ele>91</ele>
        <time>2014-04-14T09:17:36Z</time>
      </trkpt>
      <trkpt lat="47.9835" lon="3.38888">
        <ele>91</ele>
        <time>2014-04-14T09:17:39Z</time>
      </trkpt>
      <trkpt lat="47.98351" lon="3.38896">
        <ele>91</ele>
        <time>2014-04-14T09:17:43Z</time>
      </trkpt>
      <trkpt lat="47.98353" lon="3.38902">
        <ele>91</ele>
        <time>2014-04-14T09:17:47Z</time>
      </trkpt>
      <trkpt lat="47.98351" lon="3.38911">
        <ele>90</ele>
        <time>2014-04-14T09:17:52Z</time>
      </trkpt>
      <trkpt lat="47.9835" lon="3.38919">
        <ele>89</ele>
        <time>2014-04-14T09:17:56Z</time>
      </trkpt>
      <trkpt lat="47.98351" lon="3.38926">
        <ele>90</ele>
        <time>2014-04-14T09:18:00Z</time>
      </trkpt>
      <trkpt lat="47.98351" lon="3.38933">
        <ele>90</ele>
        <time>2014-04-14T09:18:04Z</time>
      </trkpt>
      <trkpt lat="47.98351" lon="3.38941">
        <ele>90</ele>
        <time>2014-04-14T09:18:08Z</time>
      </trkpt>
      <trkpt lat="47.98354" lon="3.38949">
        <ele>90</ele>
        <time>2014-04-14T09:18:12Z</time>
      </trkpt>
      <trkpt lat="47.98358" lon="3.38959">
        <ele>90</ele>
        <time>2014-04-14T09:18:21Z</time>
      </trkpt>
      <trkpt lat="47.98356" lon="3.38964">
        <ele>90</ele>
        <time>2014-04-14T09:18:32Z</time>
      </trkpt>
      <trkpt lat="47.98355" lon="3.38979">
        <ele>90</ele>
        <time>2014-04-14T09:18:38Z</time>
      </trkpt>
      <trkpt lat="47.98357" lon="3.38986">
        <ele>90</ele>
        <time>2014-04-14T09:18:41Z</time>
      </trkpt>
      <trkpt lat="47.98359" lon="3.38992">
        <ele>90</ele>
        <time>2014-04-14T09:18:45Z</time>
      </trkpt>
      <trkpt lat="47.98356" lon="3.39">
        <ele>89</ele>
        <time>2014-04-14T09:18:49Z</time>
      </trkpt>
      <trkpt lat="47.98354" lon="3.39007">
        <ele>89</ele>
        <time>2014-04-14T09:18:52Z</time>
      </trkpt>
      <trkpt lat="47.98351" lon="3.39013">
        <ele>89</ele>
        <time>2014-04-14T09:18:55Z</time>
      </trkpt>
      <trkpt lat="47.98349" lon="3.3902">
        <ele>89</ele>
        <time>2014-04-14T09:18:59Z</time>
      </trkpt>
      <trkpt lat="47.98347" lon="3.39028">
        <ele>89</ele>
        <time>2014-04-14T09:19:06Z</time>
      </trkpt>
      <trkpt lat="47.98344" lon="3.39034">
        <ele>89</ele>
        <time>2014-04-14T09:19:10Z</time>
      </trkpt>
      <trkpt lat="47.98346" lon="3.39042">
        <ele>89</ele>
        <time>2014-04-14T09:19:14Z</time>
      </trkpt>
      <trkpt lat="47.98349" lon="3.39049">
        <ele>89</ele>
        <time>2014-04-14T09:19:18Z</time>
      </trkpt>
      <trkpt lat="47.98348" lon="3.39057">
        <ele>88</ele>
        <time>2014-04-14T09:19:22Z</time>
      </trkpt>
      <trkpt lat="47.98349" lon="3.39065">
        <ele>88</ele>
        <time>2014-04-14T09:19:26Z</time>
      </trkpt>
      <trkpt lat="47.9835" lon="3.39072">
        <ele>88</ele>
        <time>2014-04-14T09:19:30Z</time>
      </trkpt>
      <trkpt lat="47.98351" lon="3.39079">
        <ele>88</ele>
        <time>2014-04-14T09:19:34Z</time>
      </trkpt>
      <trkpt lat="47.9835" lon="3.39086">
        <ele>88</ele>
        <time>2014-04-14T09:19:37Z</time>
      </trkpt>
      <trkpt lat="47.98348" lon="3.39092">
        <ele>88</ele>
        <time>2014-04-14T09:19:42Z</time>
      </trkpt>
      <trkpt lat="47.98348" lon="3.391">
        <ele>88</ele>
        <time>2014-04-14T09:19:45Z</time>
      </trkpt>
      <trkpt lat="47.98349" lon="3.39106">
        <ele>88</ele>
        <time>2014-04-14T09:20:10Z</time>
      </trkpt>
      <trkpt lat="47.98347" lon="3.39113">
        <ele>89</ele>
        <time>2014-04-14T09:20:13Z</time>
      </trkpt>
      <trkpt lat="47.98345" lon="3.3912">
        <ele>89</ele>
        <time>2014-04-14T09:20:16Z</time>
      </trkpt>
      <trkpt lat="47.98342" lon="3.39126">
        <ele>89</ele>
        <time>2014-04-14T09:20:19Z</time>
      </trkpt>
      <trkpt lat="47.98339" lon="3.39133">
        <ele>89</ele>
        <time>2014-04-14T09:20:22Z</time>
      </trkpt>
      <trkpt lat="47.98338" lon="3.39141">
        <ele>88</ele>
        <time>2014-04-14T09:20:26Z</time>
      </trkpt>
      <trkpt lat="47.98332" lon="3.39163">
        <ele>85</ele>
        <time>2014-04-14T09:20:37Z</time>
      </trkpt>
      <trkpt lat="47.98333" lon="3.3917">
        <ele>86</ele>
        <time>2014-04-14T09:20:41Z</time>
      </trkpt>
      <trkpt lat="47.98335" lon="3.39176">
        <ele>87</ele>
        <time>2014-04-14T09:20:44Z</time>
      </trkpt>
      <trkpt lat="47.98337" lon="3.39183">
        <ele>88</ele>
        <time>2014-04-14T09:20:48Z</time>
      </trkpt>
      <trkpt lat="47.98337" lon="3.39192">
        <ele>88</ele>
        <time>2014-04-14T09:20:52Z</time>
      </trkpt>
      <trkpt lat="47.98337" lon="3.39198">
        <ele>89</ele>
        <time>2014-04-14T09:20:55Z</time>
      </trkpt>
      <trkpt lat="47.98337" lon="3.39207">
        <ele>89</ele>
        <time>2014-04-14T09:20:59Z</time>
      </trkpt>
      <trkpt lat="47.98336" lon="3.39215">
        <ele>89</ele>
        <time>2014-04-14T09:21:03Z</time>
      </trkpt>
      <trkpt lat="47.98335" lon="3.39221">
        <ele>89</ele>
        <time>2014-04-14T09:21:06Z</time>
      </trkpt>
      <trkpt lat="47.98335" lon="3.3923">
        <ele>89</ele>
        <time>2014-04-14T09:21:10Z</time>
      </trkpt>
      <trkpt lat="47.98333" lon="3.39238">
        <ele>88</ele>
        <time>2014-04-14T09:21:14Z</time>
      </trkpt>
      <trkpt lat="47.98331" lon="3.39245">
        <ele>86</ele>
        <time>2014-04-14T09:21:18Z</time>
      </trkpt>
      <trkpt lat="47.98331" lon="3.39252">
        <ele>87</ele>
        <time>2014-04-14T09:21:22Z</time>
      </trkpt>
      <trkpt lat="47.98331" lon="3.3926">
        <ele>87</ele>
        <time>2014-04-14T09:21:26Z</time>
      </trkpt>
      <trkpt lat="47.9833" lon="3.39267">
        <ele>86</ele>
        <time>2014-04-14T09:21:30Z</time>
      </trkpt>
      <trkpt lat="47.9833" lon="3.39275">
        <ele>86</ele>
        <time>2014-04-14T09:21:34Z</time>
      </trkpt>
      <trkpt lat="47.98334" lon="3.39276">
        <ele>89</ele>
        <time>2014-04-14T09:21:43Z</time>
      </trkpt>
      <trkpt lat="47.98338" lon="3.39279">
        <ele>89</ele>
        <time>2014-04-14T09:21:47Z</time>
      </trkpt>
      <trkpt lat="47.98339" lon="3.39286">
        <ele>90</ele>
        <time>2014-04-14T09:21:52Z</time>
      </trkpt>
      <trkpt lat="47.98337" lon="3.39294">
        <ele>90</ele>
        <time>2014-04-14T09:21:56Z</time>
      </trkpt>
      <trkpt lat="47.98332" lon="3.39299">
        <ele>87</ele>
        <time>2014-04-14T09:21:59Z</time>
      </trkpt>
      <trkpt lat="47.98332" lon="3.39306">
        <ele>87</ele>
        <time>2014-04-14T09:22:02Z</time>
      </trkpt>
      <trkpt lat="47.98333" lon="3.39314">
        <ele>87</ele>
        <time>2014-04-14T09:22:05Z</time>
      </trkpt>
      <trkpt lat="47.98334" lon="3.39321">
        <ele>89</ele>
        <time>2014-04-14T09:22:08Z</time>
      </trkpt>
      <trkpt lat="47.98334" lon="3.39329">
        <ele>89</ele>
        <time>2014-04-14T09:22:12Z</time>
      </trkpt>
      <trkpt lat="47.98333" lon="3.39337">
        <ele>89</ele>
        <time>2014-04-14T09:22:16Z</time>
      </trkpt>
      <trkpt lat="47.98332" lon="3.39344">
        <ele>88</ele>
        <time>2014-04-14T09:22:20Z</time>
      </trkpt>
      <trkpt lat="47.98336" lon="3.3935">
        <ele>90</ele>
        <time>2014-04-14T09:22:23Z</time>
      </trkpt>
      <trkpt lat="47.98337" lon="3.39357">
        <ele>91</ele>
        <time>2014-04-14T09:22:28Z</time>
      </trkpt>
      <trkpt lat="47.9834" lon="3.39364">
        <ele>91</ele>
        <time>2014-04-14T09:22:32Z</time>
      </trkpt>
      <trkpt lat="47.98343" lon="3.39371">
        <ele>91</ele>
        <time>2014-04-14T09:22:35Z</time>
      </trkpt>
      <trkpt lat="47.98344" lon="3.39379">
        <ele>91</ele>
        <time>2014-04-14T09:22:39Z</time>
      </trkpt>
      <trkpt lat="47.98344" lon="3.39386">
        <ele>91</ele>
        <time>2014-04-14T09:22:44Z</time>
      </trkpt>
      <trkpt lat="47.98345" lon="3.39393">
        <ele>92</ele>
        <time>2014-04-14T09:22:47Z</time>
      </trkpt>
      <trkpt lat="47.98343" lon="3.39401">
        <ele>91</ele>
        <time>2014-04-14T09:22:50Z</time>
      </trkpt>
      <trkpt lat="47.98342" lon="3.3941">
        <ele>91</ele>
        <time>2014-04-14T09:22:54Z</time>
      </trkpt>
      <trkpt lat="47.98341" lon="3.39417">
        <ele>91</ele>
        <time>2014-04-14T09:22:58Z</time>
      </trkpt>
      <trkpt lat="47.9834" lon="3.39423">
        <ele>92</ele>
        <time>2014-04-14T09:23:03Z</time>
      </trkpt>
      <trkpt lat="47.98341" lon="3.39431">
        <ele>93</ele>
        <time>2014-04-14T09:23:08Z</time>
      </trkpt>
      <trkpt lat="47.98346" lon="3.39426">
        <ele>93</ele>
        <time>2014-04-14T09:23:14Z</time>
      </trkpt>
      <trkpt lat="47.98345" lon="3.39432">
        <ele>93</ele>
        <time>2014-04-14T09:23:30Z</time>
      </trkpt>
      <trkpt lat="47.98343" lon="3.39441">
        <ele>94</ele>
        <time>2014-04-14T09:23:33Z</time>
      </trkpt>
      <trkpt lat="47.98342" lon="3.3945">
        <ele>94</ele>
        <time>2014-04-14T09:23:36Z</time>
      </trkpt>
      <trkpt lat="47.98342" lon="3.39459">
        <ele>95</ele>
        <time>2014-04-14T09:23:39Z</time>
      </trkpt>
      <trkpt lat="47.98343" lon="3.39467">
        <ele>95</ele>
        <time>2014-04-14T09:23:44Z</time>
      </trkpt>
      <trkpt lat="47.98344" lon="3.39475">
        <ele>95</ele>
        <time>2014-04-14T09:23:49Z</time>
      </trkpt>
      <trkpt lat="47.98342" lon="3.39481">
        <ele>95</ele>
        <time>2014-04-14T09:23:55Z</time>
      </trkpt>
      <trkpt lat="47.98338" lon="3.39488">
        <ele>95</ele>
        <time>2014-04-14T09:23:59Z</time>
      </trkpt>
      <trkpt lat="47.98336" lon="3.39495">
        <ele>95</ele>
        <time>2014-04-14T09:24:07Z</time>
      </trkpt>
      <trkpt lat="47.98336" lon="3.39504">
        <ele>96</ele>
        <time>2014-04-14T09:24:17Z</time>
      </trkpt>
      <trkpt lat="47.98334" lon="3.395">
        <ele>95</ele>
        <time>2014-04-14T09:24:39Z</time>
      </trkpt>
      <trkpt lat="47.9833" lon="3.39497">
        <ele>94</ele>
        <time>2014-04-14T09:24:50Z</time>
      </trkpt>
      <trkpt lat="47.98332" lon="3.39492">
        <ele>93</ele>
        <time>2014-04-14T09:25:08Z</time>
      </trkpt>
      <trkpt lat="47.98336" lon="3.39493">
        <ele>95</ele>
        <time>2014-04-14T09:25:13Z</time>
      </trkpt>
      <trkpt lat="47.98341" lon="3.39499">
        <ele>95</ele>
        <time>2014-04-14T09:25:16Z</time>
      </trkpt>
      <trkpt lat="47.98343" lon="3.39507">
        <ele>97</ele>
        <time>2014-04-14T09:25:19Z</time>
      </trkpt>
      <trkpt lat="47.98343" lon="3.39515">
        <ele>98</ele>
        <time>2014-04-14T09:25:23Z</time>
      </trkpt>
      <trkpt lat="47.98344" lon="3.39521">
        <ele>98</ele>
        <time>2014-04-14T09:25:27Z</time>
      </trkpt>
      <trkpt lat="47.98346" lon="3.39524">
        <ele>99</ele>
        <time>2014-04-14T09:25:49Z</time>
      </trkpt>
      <trkpt lat="47.98346" lon="3.39533">
        <ele>99</ele>
        <time>2014-04-14T09:25:54Z</time>
      </trkpt>
      <trkpt lat="47.98347" lon="3.39541">
        <ele>100</ele>
        <time>2014-04-14T09:25:58Z</time>
      </trkpt>
      <trkpt lat="47.98347" lon="3.39548">
        <ele>100</ele>
        <time>2014-04-14T09:26:01Z</time>
      </trkpt>
      <trkpt lat="47.98346" lon="3.39556">
        <ele>100</ele>
        <time>2014-04-14T09:26:05Z</time>
      </trkpt>
      <trkpt lat="47.98344" lon="3.39562">
        <ele>100</ele>
        <time>2014-04-14T09:26:11Z</time>
      </trkpt>
      <trkpt lat="47.98344" lon="3.39566">
        <ele>100</ele>
        <time>2014-04-14T09:26:18Z</time>
      </trkpt>
      <trkpt lat="47.98346" lon="3.39573">
        <ele>100</ele>
        <time>2014-04-14T09:26:24Z</time>
      </trkpt>
      <trkpt lat="47.98345" lon="3.39576">
        <ele>100</ele>
        <time>2014-04-14T09:26:30Z</time>
      </trkpt>
      <trkpt lat="47.9834" lon="3.39576">
        <ele>100</ele>
        <time>2014-04-14T09:26:31Z</time>
      </trkpt>
      <trkpt lat="47.98336" lon="3.39578">
        <ele>100</ele>
        <time>2014-04-14T09:26:45Z</time>
      </trkpt>
      <trkpt lat="47.98335" lon="3.39585">
        <ele>100</ele>
        <time>2014-04-14T09:26:49Z</time>
      </trkpt>
      <trkpt lat="47.98332" lon="3.3959">
        <ele>100</ele>
        <time>2014-04-14T09:26:54Z</time>
      </trkpt>
      <trkpt lat="47.98329" lon="3.3959">
        <ele>99</ele>
        <time>2014-04-14T09:27:01Z</time>
      </trkpt>
      <trkpt lat="47.98327" lon="3.39597">
        <ele>99</ele>
        <time>2014-04-14T09:27:08Z</time>
      </trkpt>
      <trkpt lat="47.98329" lon="3.39604">
        <ele>99</ele>
        <time>2014-04-14T09:27:11Z</time>
      </trkpt>
      <trkpt lat="47.98328" lon="3.39612">
        <ele>99</ele>
        <time>2014-04-14T09:27:13Z</time>
      </trkpt>
      <trkpt lat="47.98326" lon="3.39621">
        <ele>99</ele>
        <time>2014-04-14T09:27:15Z</time>
      </trkpt>
      <trkpt lat="47.98325" lon="3.39628">
        <ele>99</ele>
        <time>2014-04-14T09:27:17Z</time>
      </trkpt>
      <trkpt lat="47.98322" lon="3.39636">
        <ele>100</ele>
        <time>2014-04-14T09:27:21Z</time>
      </trkpt>
      <trkpt lat="47.9832" lon="3.39643">
        <ele>100</ele>
        <time>2014-04-14T09:27:25Z</time>
      </trkpt>
      <trkpt lat="47.98318" lon="3.39649">
        <ele>100</ele>
        <time>2014-04-14T09:27:29Z</time>
      </trkpt>
      <trkpt lat="47.98317" lon="3.39657">
        <ele>101</ele>
        <time>2014-04-14T09:27:34Z</time>
      </trkpt>
      <trkpt lat="47.98315" lon="3.39664">
        <ele>101</ele>
        <time>2014-04-14T09:27:38Z</time>
      </trkpt>
      <trkpt lat="47.98314" lon="3.39671">
        <ele>104</ele>
        <time>2014-04-14T09:27:42Z</time>
      </trkpt>
      <trkpt lat="47.98314" lon="3.39678">
        <ele>104</ele>
        <time>2014-04-14T09:27:45Z</time>
      </trkpt>
      <trkpt lat="47.98315" lon="3.39686">
        <ele>105</ele>
        <time>2014-04-14T09:27:50Z</time>
      </trkpt>
      <trkpt lat="47.98316" lon="3.39692">
        <ele>105</ele>
        <time>2014-04-14T09:27:55Z</time>
      </trkpt>
      <trkpt lat="47.98314" lon="3.397">
        <ele>105</ele>
        <time>2014-04-14T09:28:01Z</time>
      </trkpt>
      <trkpt lat="47.98311" lon="3.39706">
        <ele>105</ele>
        <time>2014-04-14T09:28:05Z</time>
      </trkpt>
      <trkpt lat="47.98307" lon="3.39712">
        <ele>106</ele>
        <time>2014-04-14T09:28:09Z</time>
      </trkpt>
      <trkpt lat="47.98305" lon="3.39719">
        <ele>106</ele>
        <time>2014-04-14T09:28:14Z</time>
      </trkpt>
      <trkpt lat="47.98302" lon="3.39724">
        <ele>106</ele>
        <time>2014-04-14T09:28:17Z</time>
      </trkpt>
      <trkpt lat="47.98298" lon="3.39728">
        <ele>106</ele>
        <time>2014-04-14T09:28:21Z</time>
      </trkpt>
      <trkpt lat="47.98278" lon="3.39754">
        <ele>109</ele>
        <time>2014-04-14T09:28:55Z</time>
      </trkpt>
      <trkpt lat="47.98273" lon="3.39759">
        <ele>109</ele>
        <time>2014-04-14T09:29:10Z</time>
      </trkpt>
      <trkpt lat="47.98267" lon="3.39763">
        <ele>109</ele>
        <time>2014-04-14T09:29:13Z</time>
      </trkpt>
      <trkpt lat="47.98263" lon="3.39765">
        <ele>108</ele>
        <time>2014-04-14T09:29:18Z</time>
      </trkpt>
      <trkpt lat="47.98268" lon="3.39753">
        <ele>108</ele>
        <time>2014-04-14T09:29:28Z</time>
      </trkpt>
      <trkpt lat="47.98273" lon="3.39749">
        <ele>105</ele>
        <time>2014-04-14T09:29:34Z</time>
      </trkpt>
      <trkpt lat="47.98275" lon="3.3975">
        <ele>109</ele>
        <time>2014-04-14T09:29:40Z</time>
      </trkpt>
      <trkpt lat="47.98279" lon="3.39753">
        <ele>109</ele>
        <time>2014-04-14T09:30:03Z</time>
      </trkpt>
      <trkpt lat="47.9828" lon="3.3976">
        <ele>110</ele>
        <time>2014-04-14T09:30:07Z</time>
      </trkpt>
      <trkpt lat="47.98281" lon="3.39756">
        <ele>110</ele>
        <time>2014-04-14T09:30:34Z</time>
      </trkpt>
      <trkpt lat="47.9828" lon="3.39748">
        <ele>106</ele>
        <time>2014-04-14T09:30:38Z</time>
      </trkpt>
      <trkpt lat="47.98277" lon="3.39742">
        <ele>105</ele>
        <time>2014-04-14T09:30:42Z</time>
      </trkpt>
      <trkpt lat="47.98274" lon="3.39744">
        <ele>105</ele>
        <time>2014-04-14T09:30:51Z</time>
      </trkpt>
      <trkpt lat="47.98277" lon="3.39749">
        <ele>106</ele>
        <time>2014-04-14T09:30:55Z</time>
      </trkpt>
      <trkpt lat="47.98277" lon="3.39754">
        <ele>109</ele>
        <time>2014-04-14T09:31:04Z</time>
      </trkpt>
      <trkpt lat="47.98271" lon="3.39753">
        <ele>109</ele>
        <time>2014-04-14T09:31:05Z</time>
      </trkpt>
      <trkpt lat="47.98266" lon="3.39753">
        <ele>108</ele>
        <time>2014-04-14T09:31:08Z</time>
      </trkpt>
      <trkpt lat="47.98261" lon="3.39751">
        <ele>107</ele>
        <time>2014-04-14T09:31:11Z</time>
      </trkpt>
      <trkpt lat="47.98255" lon="3.39752">
        <ele>106</ele>
        <time>2014-04-14T09:31:15Z</time>
      </trkpt>
      <trkpt lat="47.9825" lon="3.39756">
        <ele>103</ele>
        <time>2014-04-14T09:31:19Z</time>
      </trkpt>
      <trkpt lat="47.98246" lon="3.39761">
        <ele>102</ele>
        <time>2014-04-14T09:31:22Z</time>
      </trkpt>
      <trkpt lat="47.98242" lon="3.39766">
        <ele>101</ele>
        <time>2014-04-14T09:31:26Z</time>
      </trkpt>
      <trkpt lat="47.98238" lon="3.39771">
        <ele>100</ele>
        <time>2014-04-14T09:31:30Z</time>
      </trkpt>
      <trkpt lat="47.98235" lon="3.39777">
        <ele>100</ele>
        <time>2014-04-14T09:31:32Z</time>
      </trkpt>
      <trkpt lat="47.98233" lon="3.39776">
        <ele>100</ele>
        <time>2014-04-14T09:31:39Z</time>
      </trkpt>
      <trkpt lat="47.98242" lon="3.39799">
        <ele>101</ele>
        <time>2014-04-14T09:31:47Z</time>
      </trkpt>
      <trkpt lat="47.98242" lon="3.39808">
        <ele>102</ele>
        <time>2014-04-14T09:31:51Z</time>
      </trkpt>
      <trkpt lat="47.9824" lon="3.39815">
        <ele>103</ele>
        <time>2014-04-14T09:31:54Z</time>
      </trkpt>
      <trkpt lat="47.98238" lon="3.39821">
        <ele>103</ele>
        <time>2014-04-14T09:31:55Z</time>
      </trkpt>
      <trkpt lat="47.98236" lon="3.39828">
        <ele>104</ele>
        <time>2014-04-14T09:31:57Z</time>
      </trkpt>
      <trkpt lat="47.98238" lon="3.39835">
        <ele>105</ele>
        <time>2014-04-14T09:32:01Z</time>
      </trkpt>
      <trkpt lat="47.98237" lon="3.39829">
        <ele>104</ele>
        <time>2014-04-14T09:32:23Z</time>
      </trkpt>
      <trkpt lat="47.98235" lon="3.39822">
        <ele>103</ele>
        <time>2014-04-14T09:32:26Z</time>
      </trkpt>
      <trkpt lat="47.98232" lon="3.39813">
        <ele>101</ele>
        <time>2014-04-14T09:32:30Z</time>
      </trkpt>
      <trkpt lat="47.98232" lon="3.39805">
        <ele>101</ele>
        <time>2014-04-14T09:32:34Z</time>
      </trkpt>
      <trkpt lat="47.98228" lon="3.39801">
        <ele>100</ele>
        <time>2014-04-14T09:32:41Z</time>
      </trkpt>
      <trkpt lat="47.98224" lon="3.39801">
        <ele>99</ele>
        <time>2014-04-14T09:32:45Z</time>
      </trkpt>
      <trkpt lat="47.98224" lon="3.39797">
        <ele>99</ele>
        <time>2014-04-14T09:32:52Z</time>
      </trkpt>
      <trkpt lat="47.98227" lon="3.39792">
        <ele>99</ele>
        <time>2014-04-14T09:32:59Z</time>
      </trkpt>
      <trkpt lat="47.98231" lon="3.39786">
        <ele>100</ele>
        <time>2014-04-14T09:33:05Z</time>
      </trkpt>
      <trkpt lat="47.98234" lon="3.3978">
        <ele>100</ele>
        <time>2014-04-14T09:33:10Z</time>
      </trkpt>
      <trkpt lat="47.98237" lon="3.39775">
        <ele>100</ele>
        <time>2014-04-14T09:33:13Z</time>
      </trkpt>
      <trkpt lat="47.98239" lon="3.39768">
        <ele>101</ele>
        <time>2014-04-14T09:33:16Z</time>
      </trkpt>
      <trkpt lat="47.98243" lon="3.39764">
        <ele>102</ele>
        <time>2014-04-14T09:33:21Z</time>
      </trkpt>
      <trkpt lat="47.98245" lon="3.39772">
        <ele>101</ele>
        <time>2014-04-14T09:33:30Z</time>
      </trkpt>
      <trkpt lat="47.98244" lon="3.39775">
        <ele>101</ele>
        <time>2014-04-14T09:33:36Z</time>
      </trkpt>
      <trkpt lat="47.98246" lon="3.39778">
        <ele>101</ele>
        <time>2014-04-14T09:34:12Z</time>
      </trkpt>
      <trkpt lat="47.98241" lon="3.39769">
        <ele>101</ele>
        <time>2014-04-14T09:34:29Z</time>
      </trkpt>
      <trkpt lat="47.98241" lon="3.39764">
        <ele>101</ele>
        <time>2014-04-14T09:34:40Z</time>
      </trkpt>
      <trkpt lat="47.98245" lon="3.39764">
        <ele>102</ele>
        <time>2014-04-14T09:34:49Z</time>
      </trkpt>
      <trkpt lat="47.98251" lon="3.3976">
        <ele>107</ele>
        <time>2014-04-14T09:34:54Z</time>
      </trkpt>
      <trkpt lat="47.98255" lon="3.39754">
        <ele>106</ele>
        <time>2014-04-14T09:34:57Z</time>
      </trkpt>
      <trkpt lat="47.98259" lon="3.3975">
        <ele>105</ele>
        <time>2014-04-14T09:35:00Z</time>
      </trkpt>
      <trkpt lat="47.98263" lon="3.39744">
        <ele>105</ele>
        <time>2014-04-14T09:35:05Z</time>
      </trkpt>
      <trkpt lat="47.98268" lon="3.39748">
        <ele>105</ele>
        <time>2014-04-14T09:35:10Z</time>
      </trkpt>
      <trkpt lat="47.98272" lon="3.39751">
        <ele>109</ele>
        <time>2014-04-14T09:35:13Z</time>
      </trkpt>
      <trkpt lat="47.98274" lon="3.39758">
        <ele>109</ele>
        <time>2014-04-14T09:35:21Z</time>
      </trkpt>
      <trkpt lat="47.98276" lon="3.39764">
        <ele>110</ele>
        <time>2014-04-14T09:35:26Z</time>
      </trkpt>
      <trkpt lat="47.98278" lon="3.39772">
        <ele>110</ele>
        <time>2014-04-14T09:35:31Z</time>
      </trkpt>
      <trkpt lat="47.98279" lon="3.39781">
        <ele>110</ele>
        <time>2014-04-14T09:35:35Z</time>
      </trkpt>
      <trkpt lat="47.98278" lon="3.3981">
        <ele>111</ele>
        <time>2014-04-14T09:35:58Z</time>
      </trkpt>
      <trkpt lat="47.98278" lon="3.39822">
        <ele>111</ele>
        <time>2014-04-14T09:36:29Z</time>
      </trkpt>
      <trkpt lat="47.98276" lon="3.39828">
        <ele>111</ele>
        <time>2014-04-14T09:37:15Z</time>
      </trkpt>
      <trkpt lat="47.98284" lon="3.39832">
        <ele>111</ele>
        <time>2014-04-14T09:37:37Z</time>
      </trkpt>
      <trkpt lat="47.98266" lon="3.39869">
        <ele>111</ele>
        <time>2014-04-14T09:39:00Z</time>
      </trkpt>
      <trkpt lat="47.98258" lon="3.39878">
        <ele>111</ele>
        <time>2014-04-14T09:39:22Z</time>
      </trkpt>
      <trkpt lat="47.98264" lon="3.3989">
        <ele>111</ele>
        <time>2014-04-14T09:39:30Z</time>
      </trkpt>
      <trkpt lat="47.98302" lon="3.39857">
        <ele>113</ele>
        <time>2014-04-14T09:40:19Z</time>
      </trkpt>
      <trkpt lat="47.98281" lon="3.39815">
        <ele>111</ele>
        <time>2014-04-14T09:40:22Z</time>
      </trkpt>
      <trkpt lat="47.98247" lon="3.397">
        <ele>95</ele>
        <time>2014-04-14T09:50:59Z</time>
      </trkpt>
      <trkpt lat="47.98241" lon="3.39697">
        <ele>95</ele>
        <time>2014-04-14T09:51:10Z</time>
      </trkpt>
      <trkpt lat="47.9824" lon="3.39686">
        <ele>94</ele>
        <time>2014-04-14T09:51:21Z</time>
      </trkpt>
      <trkpt lat="47.98236" lon="3.39681">
        <ele>94</ele>
        <time>2014-04-14T09:51:26Z</time>
      </trkpt>
      <trkpt lat="47.98231" lon="3.39679">
        <ele>94</ele>
        <time>2014-04-14T09:51:30Z</time>
      </trkpt>
      <trkpt lat="47.98235" lon="3.39674">
        <ele>94</ele>
        <time>2014-04-14T09:51:43Z</time>
      </trkpt>
      <trkpt lat="47.98238" lon="3.3967">
        <ele>95</ele>
        <time>2014-04-14T09:51:47Z</time>
      </trkpt>
      <trkpt lat="47.98243" lon="3.39666">
        <ele>94</ele>
        <time>2014-04-14T09:51:51Z</time>
      </trkpt>
      <trkpt lat="47.98246" lon="3.3966">
        <ele>94</ele>
        <time>2014-04-14T09:51:55Z</time>
      </trkpt>
      <trkpt lat="47.98249" lon="3.39654">
        <ele>93</ele>
        <time>2014-04-14T09:51:58Z</time>
      </trkpt>
      <trkpt lat="47.98248" lon="3.39646">
        <ele>92</ele>
        <time>2014-04-14T09:52:02Z</time>
      </trkpt>
      <trkpt lat="47.9825" lon="3.3964">
        <ele>97</ele>
        <time>2014-04-14T09:52:06Z</time>
      </trkpt>
      <trkpt lat="47.98254" lon="3.39636">
        <ele>97</ele>
        <time>2014-04-14T09:52:09Z</time>
      </trkpt>
      <trkpt lat="47.98259" lon="3.39631">
        <ele>97</ele>
        <time>2014-04-14T09:52:13Z</time>
      </trkpt>
      <trkpt lat="47.9826" lon="3.39624">
        <ele>97</ele>
        <time>2014-04-14T09:52:16Z</time>
      </trkpt>
      <trkpt lat="47.98262" lon="3.39616">
        <ele>96</ele>
        <time>2014-04-14T09:52:19Z</time>
      </trkpt>
      <trkpt lat="47.98265" lon="3.3961">
        <ele>96</ele>
        <time>2014-04-14T09:52:23Z</time>
      </trkpt>
      <trkpt lat="47.98267" lon="3.39604">
        <ele>96</ele>
        <time>2014-04-14T09:52:28Z</time>
      </trkpt>
      <trkpt lat="47.9827" lon="3.39596">
        <ele>96</ele>
        <time>2014-04-14T09:52:35Z</time>
      </trkpt>
      <trkpt lat="47.98273" lon="3.39588">
        <ele>96</ele>
        <time>2014-04-14T09:52:38Z</time>
      </trkpt>
      <trkpt lat="47.98276" lon="3.39581">
        <ele>93</ele>
        <time>2014-04-14T09:52:42Z</time>
      </trkpt>
      <trkpt lat="47.98279" lon="3.39577">
        <ele>93</ele>
        <time>2014-04-14T09:52:45Z</time>
      </trkpt>
      <trkpt lat="47.98282" lon="3.3957">
        <ele>93</ele>
        <time>2014-04-14T09:52:48Z</time>
      </trkpt>
      <trkpt lat="47.98282" lon="3.39562">
        <ele>93</ele>
        <time>2014-04-14T09:52:53Z</time>
      </trkpt>
      <trkpt lat="47.9828" lon="3.39555">
        <ele>93</ele>
        <time>2014-04-14T09:52:56Z</time>
      </trkpt>
      <trkpt lat="47.98277" lon="3.3955">
        <ele>93</ele>
        <time>2014-04-14T09:52:59Z</time>
      </trkpt>
      <trkpt lat="47.98277" lon="3.39543">
        <ele>93</ele>
        <time>2014-04-14T09:53:04Z</time>
      </trkpt>
      <trkpt lat="47.98281" lon="3.39537">
        <ele>93</ele>
        <time>2014-04-14T09:53:08Z</time>
      </trkpt>
      <trkpt lat="47.98285" lon="3.39533">
        <ele>93</ele>
        <time>2014-04-14T09:53:11Z</time>
      </trkpt>
      <trkpt lat="47.9829" lon="3.39531">
        <ele>93</ele>
        <time>2014-04-14T09:53:14Z</time>
      </trkpt>
      <trkpt lat="47.98294" lon="3.39526">
        <ele>93</ele>
        <time>2014-04-14T09:53:18Z</time>
      </trkpt>
      <trkpt lat="47.98294" lon="3.39517">
        <ele>93</ele>
        <time>2014-04-14T09:53:22Z</time>
      </trkpt>
      <trkpt lat="47.98295" lon="3.3951">
        <ele>93</ele>
        <time>2014-04-14T09:53:26Z</time>
      </trkpt>
      <trkpt lat="47.98298" lon="3.39504">
        <ele>93</ele>
        <time>2014-04-14T09:53:30Z</time>
      </trkpt>
      <trkpt lat="47.98302" lon="3.39498">
        <ele>90</ele>
        <time>2014-04-14T09:53:34Z</time>
      </trkpt>
      <trkpt lat="47.98305" lon="3.39491">
        <ele>91</ele>
        <time>2014-04-14T09:53:38Z</time>
      </trkpt>
      <trkpt lat="47.98307" lon="3.39483">
        <ele>91</ele>
        <time>2014-04-14T09:53:42Z</time>
      </trkpt>
      <trkpt lat="47.9831" lon="3.39478">
        <ele>90</ele>
        <time>2014-04-14T09:53:46Z</time>
      </trkpt>
      <trkpt lat="47.98314" lon="3.39474">
        <ele>91</ele>
        <time>2014-04-14T09:53:50Z</time>
      </trkpt>
      <trkpt lat="47.98319" lon="3.39473">
        <ele>91</ele>
        <time>2014-04-14T09:53:59Z</time>
      </trkpt>
      <trkpt lat="47.98327" lon="3.39483">
        <ele>92</ele>
        <time>2014-04-14T09:54:05Z</time>
      </trkpt>
      <trkpt lat="47.98331" lon="3.39488">
        <ele>93</ele>
        <time>2014-04-14T09:54:09Z</time>
      </trkpt>
      <trkpt lat="47.98335" lon="3.39493">
        <ele>95</ele>
        <time>2014-04-14T09:54:14Z</time>
      </trkpt>
      <trkpt lat="47.98339" lon="3.39495">
        <ele>95</ele>
        <time>2014-04-14T09:54:23Z</time>
      </trkpt>
      <trkpt lat="47.98342" lon="3.39486">
        <ele>95</ele>
        <time>2014-04-14T09:54:36Z</time>
      </trkpt>
      <trkpt lat="47.98344" lon="3.39478">
        <ele>95</ele>
        <time>2014-04-14T09:54:40Z</time>
      </trkpt>
      <trkpt lat="47.98343" lon="3.39471">
        <ele>95</ele>
        <time>2014-04-14T09:54:49Z</time>
      </trkpt>
      <trkpt lat="47.98341" lon="3.39465">
        <ele>95</ele>
        <time>2014-04-14T09:54:56Z</time>
      </trkpt>
      <trkpt lat="47.98343" lon="3.39458">
        <ele>95</ele>
        <time>2014-04-14T09:55:00Z</time>
      </trkpt>
      <trkpt lat="47.98343" lon="3.39448">
        <ele>94</ele>
        <time>2014-04-14T09:55:03Z</time>
      </trkpt>
      <trkpt lat="47.98342" lon="3.39442">
        <ele>94</ele>
        <time>2014-04-14T09:55:06Z</time>
      </trkpt>
      <trkpt lat="47.9834" lon="3.39433">
        <ele>93</ele>
        <time>2014-04-14T09:55:10Z</time>
      </trkpt>
      <trkpt lat="47.98344" lon="3.39427">
        <ele>93</ele>
        <time>2014-04-14T09:55:15Z</time>
      </trkpt>
      <trkpt lat="47.98349" lon="3.39429">
        <ele>93</ele>
        <time>2014-04-14T09:55:19Z</time>
      </trkpt>
      <trkpt lat="47.98355" lon="3.3943">
        <ele>94</ele>
        <time>2014-04-14T09:55:24Z</time>
      </trkpt>
      <trkpt lat="47.98359" lon="3.39426">
        <ele>94</ele>
        <time>2014-04-14T09:55:27Z</time>
      </trkpt>
      <trkpt lat="47.98364" lon="3.39424">
        <ele>94</ele>
        <time>2014-04-14T09:55:31Z</time>
      </trkpt>
      <trkpt lat="47.9837" lon="3.39425">
        <ele>94</ele>
        <time>2014-04-14T09:55:34Z</time>
      </trkpt>
      <trkpt lat="47.98374" lon="3.39427">
        <ele>95</ele>
        <time>2014-04-14T09:55:36Z</time>
      </trkpt>
      <trkpt lat="47.98383" lon="3.39432">
        <ele>95</ele>
        <time>2014-04-14T09:55:41Z</time>
      </trkpt>
      <trkpt lat="47.98385" lon="3.39425">
        <ele>95</ele>
        <time>2014-04-14T09:55:46Z</time>
      </trkpt>
      <trkpt lat="47.98389" lon="3.39421">
        <ele>95</ele>
        <time>2014-04-14T09:55:49Z</time>
      </trkpt>
      <trkpt lat="47.98396" lon="3.39417">
        <ele>95</ele>
        <time>2014-04-14T09:55:52Z</time>
      </trkpt>
      <trkpt lat="47.984" lon="3.39416">
        <ele>94</ele>
        <time>2014-04-14T09:55:54Z</time>
      </trkpt>
      <trkpt lat="47.98406" lon="3.39418">
        <ele>95</ele>
        <time>2014-04-14T09:55:57Z</time>
      </trkpt>
      <trkpt lat="47.98409" lon="3.39425">
        <ele>95</ele>
        <time>2014-04-14T09:56:00Z</time>
      </trkpt>
      <trkpt lat="47.98408" lon="3.39433">
        <ele>95</ele>
        <time>2014-04-14T09:56:05Z</time>
      </trkpt>
      <trkpt lat="47.98408" lon="3.39439">
        <ele>96</ele>
        <time>2014-04-14T09:56:15Z</time>
      </trkpt>
      <trkpt lat="47.9841" lon="3.39444">
        <ele>96</ele>
        <time>2014-04-14T09:56:36Z</time>
      </trkpt>
      <trkpt lat="47.98413" lon="3.39447">
        <ele>96</ele>
        <time>2014-04-14T09:56:46Z</time>
      </trkpt>
      <trkpt lat="47.98418" lon="3.39445">
        <ele>98</ele>
        <time>2014-04-14T09:56:49Z</time>
      </trkpt>
      <trkpt lat="47.98423" lon="3.39439">
        <ele>98</ele>
        <time>2014-04-14T09:57:08Z</time>
      </trkpt>
      <trkpt lat="47.98418" lon="3.39435">
        <ele>98</ele>
        <time>2014-04-14T09:57:13Z</time>
      </trkpt>
      <trkpt lat="47.98413" lon="3.39438">
        <ele>96</ele>
        <time>2014-04-14T09:59:02Z</time>
      </trkpt>
      <trkpt lat="47.98407" lon="3.3944">
        <ele>96</ele>
        <time>2014-04-14T09:59:05Z</time>
      </trkpt>
      <trkpt lat="47.98402" lon="3.39443">
        <ele>96</ele>
        <time>2014-04-14T09:59:08Z</time>
      </trkpt>
      <trkpt lat="47.98397" lon="3.39447">
        <ele>96</ele>
        <time>2014-04-14T09:59:12Z</time>
      </trkpt>
      <trkpt lat="47.98392" lon="3.39444">
        <ele>95</ele>
        <time>2014-04-14T09:59:17Z</time>
      </trkpt>
      <trkpt lat="47.98387" lon="3.39444">
        <ele>95</ele>
        <time>2014-04-14T09:59:21Z</time>
      </trkpt>
      <trkpt lat="47.98382" lon="3.39444">
        <ele>95</ele>
        <time>2014-04-14T09:59:25Z</time>
      </trkpt>
      <trkpt lat="47.98376" lon="3.39444">
        <ele>95</ele>
        <time>2014-04-14T09:59:29Z</time>
      </trkpt>
      <trkpt lat="47.98372" lon="3.3944">
        <ele>95</ele>
        <time>2014-04-14T09:59:33Z</time>
      </trkpt>
      <trkpt lat="47.98369" lon="3.39437">
        <ele>95</ele>
        <time>2014-04-14T09:59:41Z</time>
      </trkpt>
      <trkpt lat="47.98365" lon="3.39437">
        <ele>95</ele>
        <time>2014-04-14T09:59:48Z</time>
      </trkpt>
      <trkpt lat="47.9836" lon="3.39436">
        <ele>94</ele>
        <time>2014-04-14T09:59:51Z</time>
      </trkpt>
      <trkpt lat="47.98354" lon="3.39436">
        <ele>94</ele>
        <time>2014-04-14T09:59:55Z</time>
      </trkpt>
      <trkpt lat="47.98348" lon="3.39435">
        <ele>94</ele>
        <time>2014-04-14T09:59:59Z</time>
      </trkpt>
      <trkpt lat="47.98344" lon="3.39441">
        <ele>94</ele>
        <time>2014-04-14T10:00:05Z</time>
      </trkpt>
      <trkpt lat="47.9834" lon="3.39445">
        <ele>94</ele>
        <time>2014-04-14T10:00:10Z</time>
      </trkpt>
      <trkpt lat="47.98342" lon="3.39452">
        <ele>94</ele>
        <time>2014-04-14T10:00:15Z</time>
      </trkpt>
      <trkpt lat="47.98343" lon="3.39459">
        <ele>95</ele>
        <time>2014-04-14T10:00:20Z</time>
      </trkpt>
      <trkpt lat="47.98342" lon="3.39467">
        <ele>95</ele>
        <time>2014-04-14T10:00:24Z</time>
      </trkpt>
      <trkpt lat="47.98341" lon="3.39476">
        <ele>95</ele>
        <time>2014-04-14T10:00:28Z</time>
      </trkpt>
      <trkpt lat="47.98342" lon="3.39489">
        <ele>95</ele>
        <time>2014-04-14T10:00:35Z</time>
      </trkpt>
      <trkpt lat="47.98336" lon="3.3949">
        <ele>95</ele>
        <time>2014-04-14T10:00:39Z</time>
      </trkpt>
      <trkpt lat="47.98331" lon="3.39493">
        <ele>93</ele>
        <time>2014-04-14T10:00:43Z</time>
      </trkpt>
      <trkpt lat="47.98329" lon="3.39499">
        <ele>94</ele>
        <time>2014-04-14T10:00:47Z</time>
      </trkpt>
      <trkpt lat="47.98326" lon="3.39494">
        <ele>93</ele>
        <time>2014-04-14T10:00:51Z</time>
      </trkpt>
      <trkpt lat="47.98323" lon="3.39487">
        <ele>92</ele>
        <time>2014-04-14T10:00:53Z</time>
      </trkpt>
      <trkpt lat="47.9832" lon="3.3948">
        <ele>91</ele>
        <time>2014-04-14T10:00:55Z</time>
      </trkpt>
      <trkpt lat="47.98318" lon="3.39474">
        <ele>91</ele>
        <time>2014-04-14T10:00:57Z</time>
      </trkpt>
      <trkpt lat="47.98312" lon="3.39473">
        <ele>90</ele>
        <time>2014-04-14T10:01:00Z</time>
      </trkpt>
      <trkpt lat="47.98308" lon="3.39475">
        <ele>90</ele>
        <time>2014-04-14T10:01:03Z</time>
      </trkpt>
      <trkpt lat="47.98307" lon="3.39483">
        <ele>91</ele>
        <time>2014-04-14T10:01:07Z</time>
      </trkpt>
      <trkpt lat="47.98306" lon="3.39489">
        <ele>91</ele>
        <time>2014-04-14T10:01:10Z</time>
      </trkpt>
      <trkpt lat="47.98305" lon="3.39497">
        <ele>91</ele>
        <time>2014-04-14T10:01:12Z</time>
      </trkpt>
      <trkpt lat="47.98303" lon="3.39504">
        <ele>93</ele>
        <time>2014-04-14T10:01:15Z</time>
      </trkpt>
      <trkpt lat="47.98301" lon="3.39512">
        <ele>93</ele>
        <time>2014-04-14T10:01:19Z</time>
      </trkpt>
      <trkpt lat="47.98297" lon="3.39516">
        <ele>93</ele>
        <time>2014-04-14T10:01:22Z</time>
      </trkpt>
      <trkpt lat="47.98294" lon="3.39522">
        <ele>93</ele>
        <time>2014-04-14T10:01:26Z</time>
      </trkpt>
      <trkpt lat="47.98293" lon="3.39529">
        <ele>93</ele>
        <time>2014-04-14T10:01:29Z</time>
      </trkpt>
      <trkpt lat="47.98293" lon="3.3954">
        <ele>93</ele>
        <time>2014-04-14T10:01:37Z</time>
      </trkpt>
      <trkpt lat="47.98296" lon="3.39547">
        <ele>94</ele>
        <time>2014-04-14T10:01:40Z</time>
      </trkpt>
      <trkpt lat="47.98288" lon="3.39558">
        <ele>94</ele>
        <time>2014-04-14T10:01:48Z</time>
      </trkpt>
      <trkpt lat="47.9828" lon="3.39555">
        <ele>93</ele>
        <time>2014-04-14T10:01:54Z</time>
      </trkpt>
      <trkpt lat="47.98274" lon="3.39549">
        <ele>93</ele>
        <time>2014-04-14T10:01:59Z</time>
      </trkpt>
      <trkpt lat="47.9827" lon="3.39543">
        <ele>92</ele>
        <time>2014-04-14T10:02:03Z</time>
      </trkpt>
      <trkpt lat="47.98265" lon="3.39541">
        <ele>92</ele>
        <time>2014-04-14T10:02:10Z</time>
      </trkpt>
      <trkpt lat="47.98261" lon="3.39537">
        <ele>92</ele>
        <time>2014-04-14T10:02:13Z</time>
      </trkpt>
      <trkpt lat="47.98256" lon="3.39534">
        <ele>91</ele>
        <time>2014-04-14T10:02:16Z</time>
      </trkpt>
      <trkpt lat="47.98252" lon="3.39529">
        <ele>91</ele>
        <time>2014-04-14T10:02:20Z</time>
      </trkpt>
      <trkpt lat="47.98248" lon="3.39525">
        <ele>86</ele>
        <time>2014-04-14T10:02:23Z</time>
      </trkpt>
      <trkpt lat="47.98243" lon="3.39522">
        <ele>86</ele>
        <time>2014-04-14T10:02:25Z</time>
      </trkpt>
      <trkpt lat="47.98239" lon="3.39519">
        <ele>85</ele>
        <time>2014-04-14T10:02:27Z</time>
      </trkpt>
      <trkpt lat="47.98235" lon="3.39514">
        <ele>85</ele>
        <time>2014-04-14T10:02:31Z</time>
      </trkpt>
      <trkpt lat="47.9823" lon="3.39502">
        <ele>85</ele>
        <time>2014-04-14T10:02:42Z</time>
      </trkpt>
      <trkpt lat="47.98225" lon="3.39495">
        <ele>84</ele>
        <time>2014-04-14T10:02:51Z</time>
      </trkpt>
      <trkpt lat="47.98229" lon="3.39492">
        <ele>84</ele>
        <time>2014-04-14T10:02:58Z</time>
      </trkpt>
      <trkpt lat="47.98231" lon="3.39501">
        <ele>85</ele>
        <time>2014-04-14T10:03:07Z</time>
      </trkpt>
      <trkpt lat="47.98229" lon="3.39495">
        <ele>84</ele>
        <time>2014-04-14T10:03:53Z</time>
      </trkpt>
      <trkpt lat="47.98224" lon="3.39498">
        <ele>84</ele>
        <time>2014-04-14T10:03:57Z</time>
      </trkpt>
      <trkpt lat="47.98219" lon="3.39501">
        <ele>85</ele>
        <time>2014-04-14T10:04:01Z</time>
      </trkpt>
      <trkpt lat="47.98215" lon="3.39505">
        <ele>84</ele>
        <time>2014-04-14T10:04:05Z</time>
      </trkpt>
      <trkpt lat="47.98215" lon="3.39513">
        <ele>84</ele>
        <time>2014-04-14T10:04:09Z</time>
      </trkpt>
      <trkpt lat="47.98215" lon="3.39521">
        <ele>84</ele>
        <time>2014-04-14T10:04:13Z</time>
      </trkpt>
      <trkpt lat="47.98217" lon="3.39527">
        <ele>85</ele>
        <time>2014-04-14T10:04:18Z</time>
      </trkpt>
      <trkpt lat="47.98217" lon="3.39535">
        <ele>85</ele>
        <time>2014-04-14T10:04:22Z</time>
      </trkpt>
      <trkpt lat="47.98213" lon="3.3954">
        <ele>85</ele>
        <time>2014-04-14T10:04:26Z</time>
      </trkpt>
      <trkpt lat="47.98208" lon="3.39542">
        <ele>84</ele>
        <time>2014-04-14T10:04:29Z</time>
      </trkpt>
      <trkpt lat="47.98203" lon="3.39542">
        <ele>84</ele>
        <time>2014-04-14T10:04:32Z</time>
      </trkpt>
      <trkpt lat="47.98199" lon="3.39546">
        <ele>84</ele>
        <time>2014-04-14T10:04:35Z</time>
      </trkpt>
      <trkpt lat="47.98195" lon="3.39554">
        <ele>84</ele>
        <time>2014-04-14T10:04:38Z</time>
      </trkpt>
      <trkpt lat="47.98191" lon="3.39562">
        <ele>84</ele>
        <time>2014-04-14T10:04:41Z</time>
      </trkpt>
      <trkpt lat="47.98189" lon="3.39568">
        <ele>83</ele>
        <time>2014-04-14T10:04:44Z</time>
      </trkpt>
      <trkpt lat="47.98187" lon="3.39582">
        <ele>83</ele>
        <time>2014-04-14T10:04:53Z</time>
      </trkpt>
      <trkpt lat="47.9818" lon="3.39592">
        <ele>84</ele>
        <time>2014-04-14T10:05:04Z</time>
      </trkpt>
      <trkpt lat="47.98178" lon="3.39599">
        <ele>84</ele>
        <time>2014-04-14T10:05:07Z</time>
      </trkpt>
      <trkpt lat="47.98175" lon="3.39604">
        <ele>84</ele>
        <time>2014-04-14T10:05:11Z</time>
      </trkpt>
      <trkpt lat="47.98171" lon="3.3961">
        <ele>85</ele>
        <time>2014-04-14T10:05:15Z</time>
      </trkpt>
      <trkpt lat="47.98173" lon="3.39617">
        <ele>85</ele>
        <time>2014-04-14T10:05:21Z</time>
      </trkpt>
      <trkpt lat="47.98171" lon="3.3962">
        <ele>85</ele>
        <time>2014-04-14T10:05:42Z</time>
      </trkpt>
      <trkpt lat="47.98166" lon="3.3962">
        <ele>81</ele>
        <time>2014-04-14T10:05:45Z</time>
      </trkpt>
      <trkpt lat="47.98161" lon="3.39617">
        <ele>81</ele>
        <time>2014-04-14T10:05:48Z</time>
      </trkpt>
      <trkpt lat="47.98157" lon="3.39611">
        <ele>81</ele>
        <time>2014-04-14T10:05:52Z</time>
      </trkpt>
      <trkpt lat="47.98154" lon="3.39612">
        <ele>81</ele>
        <time>2014-04-14T10:06:00Z</time>
      </trkpt>
      <trkpt lat="47.98156" lon="3.39603">
        <ele>80</ele>
        <time>2014-04-14T10:06:05Z</time>
      </trkpt>
      <trkpt lat="47.98155" lon="3.39594">
        <ele>80</ele>
        <time>2014-04-14T10:06:10Z</time>
      </trkpt>
      <trkpt lat="47.98153" lon="3.39588">
        <ele>80</ele>
        <time>2014-04-14T10:06:13Z</time>
      </trkpt>
      <trkpt lat="47.98148" lon="3.39584">
        <ele>80</ele>
        <time>2014-04-14T10:06:17Z</time>
      </trkpt>
      <trkpt lat="47.98143" lon="3.39583">
        <ele>79</ele>
        <time>2014-04-14T10:06:21Z</time>
      </trkpt>
      <trkpt lat="47.98138" lon="3.3958">
        <ele>79</ele>
        <time>2014-04-14T10:06:27Z</time>
      </trkpt>
      <trkpt lat="47.98133" lon="3.39577">
        <ele>79</ele>
        <time>2014-04-14T10:06:31Z</time>
      </trkpt>
      <trkpt lat="47.98129" lon="3.39576">
        <ele>79</ele>
        <time>2014-04-14T10:06:37Z</time>
      </trkpt>
      <trkpt lat="47.98124" lon="3.39573">
        <ele>79</ele>
        <time>2014-04-14T10:06:41Z</time>
      </trkpt>
      <trkpt lat="47.98119" lon="3.39572">
        <ele>79</ele>
        <time>2014-04-14T10:06:46Z</time>
      </trkpt>
      <trkpt lat="47.98114" lon="3.39571">
        <ele>79</ele>
        <time>2014-04-14T10:06:53Z</time>
      </trkpt>
      <trkpt lat="47.98109" lon="3.3957">
        <ele>79</ele>
        <time>2014-04-14T10:06:58Z</time>
      </trkpt>
      <trkpt lat="47.98104" lon="3.3957">
        <ele>79</ele>
        <time>2014-04-14T10:07:04Z</time>
      </trkpt>
      <trkpt lat="47.98099" lon="3.39566">
        <ele>79</ele>
        <time>2014-04-14T10:07:08Z</time>
      </trkpt>
      <trkpt lat="47.98095" lon="3.39562">
        <ele>79</ele>
        <time>2014-04-14T10:07:13Z</time>
      </trkpt>
      <trkpt lat="47.9809" lon="3.3956">
        <ele>79</ele>
        <time>2014-04-14T10:07:17Z</time>
      </trkpt>
      <trkpt lat="47.98085" lon="3.39558">
        <ele>79</ele>
        <time>2014-04-14T10:07:20Z</time>
      </trkpt>
      <trkpt lat="47.9808" lon="3.39557">
        <ele>79</ele>
        <time>2014-04-14T10:07:25Z</time>
      </trkpt>
      <trkpt lat="47.98075" lon="3.39556">
        <ele>79</ele>
        <time>2014-04-14T10:07:29Z</time>
      </trkpt>
      <trkpt lat="47.98069" lon="3.39554">
        <ele>79</ele>
        <time>2014-04-14T10:07:33Z</time>
      </trkpt>
      <trkpt lat="47.98065" lon="3.39551">
        <ele>79</ele>
        <time>2014-04-14T10:07:38Z</time>
      </trkpt>
      <trkpt lat="47.9806" lon="3.39549">
        <ele>79</ele>
        <time>2014-04-14T10:07:42Z</time>
      </trkpt>
      <trkpt lat="47.98055" lon="3.39548">
        <ele>79</ele>
        <time>2014-04-14T10:07:46Z</time>
      </trkpt>
      <trkpt lat="47.98055" lon="3.3954">
        <ele>79</ele>
        <time>2014-04-14T10:07:51Z</time>
      </trkpt>
      <trkpt lat="47.9805" lon="3.39541">
        <ele>79</ele>
        <time>2014-04-14T10:07:54Z</time>
      </trkpt>
      <trkpt lat="47.98046" lon="3.39546">
        <ele>79</ele>
        <time>2014-04-14T10:07:57Z</time>
      </trkpt>
      <trkpt lat="47.98043" lon="3.39552">
        <ele>79</ele>
        <time>2014-04-14T10:08:00Z</time>
      </trkpt>
      <trkpt lat="47.98042" lon="3.39558">
        <ele>79</ele>
        <time>2014-04-14T10:08:03Z</time>
      </trkpt>
      <trkpt lat="47.98039" lon="3.39564">
        <ele>79</ele>
        <time>2014-04-14T10:08:08Z</time>
      </trkpt>
      <trkpt lat="47.98038" lon="3.39572">
        <ele>79</ele>
        <time>2014-04-14T10:08:13Z</time>
      </trkpt>
      <trkpt lat="47.98036" lon="3.39579">
        <ele>79</ele>
        <time>2014-04-14T10:08:18Z</time>
      </trkpt>
      <trkpt lat="47.98033" lon="3.39585">
        <ele>79</ele>
        <time>2014-04-14T10:08:22Z</time>
      </trkpt>
      <trkpt lat="47.98031" lon="3.39591">
        <ele>79</ele>
        <time>2014-04-14T10:08:26Z</time>
      </trkpt>
      <trkpt lat="47.98028" lon="3.39598">
        <ele>79</ele>
        <time>2014-04-14T10:08:34Z</time>
      </trkpt>
      <trkpt lat="47.98025" lon="3.39605">
        <ele>79</ele>
        <time>2014-04-14T10:08:38Z</time>
      </trkpt>
      <trkpt lat="47.98021" lon="3.39611">
        <ele>79</ele>
        <time>2014-04-14T10:08:43Z</time>
      </trkpt>
      <trkpt lat="47.9802" lon="3.39618">
        <ele>79</ele>
        <time>2014-04-14T10:08:52Z</time>
      </trkpt>
      <trkpt lat="47.98017" lon="3.39625">
        <ele>79</ele>
        <time>2014-04-14T10:08:55Z</time>
      </trkpt>
      <trkpt lat="47.98015" lon="3.3963">
        <ele>79</ele>
        <time>2014-04-14T10:08:59Z</time>
      </trkpt>
      <trkpt lat="47.9801" lon="3.39633">
        <ele>79</ele>
        <time>2014-04-14T10:09:04Z</time>
      </trkpt>
      <trkpt lat="47.98006" lon="3.39635">
        <ele>79</ele>
        <time>2014-04-14T10:09:08Z</time>
      </trkpt>
      <trkpt lat="47.98002" lon="3.39641">
        <ele>79</ele>
        <time>2014-04-14T10:09:12Z</time>
      </trkpt>
      <trkpt lat="47.97999" lon="3.39646">
        <ele>79</ele>
        <time>2014-04-14T10:09:15Z</time>
      </trkpt>
      <trkpt lat="47.97995" lon="3.39651">
        <ele>79</ele>
        <time>2014-04-14T10:09:19Z</time>
      </trkpt>
      <trkpt lat="47.97991" lon="3.39656">
        <ele>79</ele>
        <time>2014-04-14T10:09:23Z</time>
      </trkpt>
      <trkpt lat="47.97986" lon="3.39659">
        <ele>79</ele>
        <time>2014-04-14T10:09:27Z</time>
      </trkpt>
      <trkpt lat="47.97982" lon="3.39663">
        <ele>79</ele>
        <time>2014-04-14T10:09:31Z</time>
      </trkpt>
      <trkpt lat="47.97978" lon="3.39668">
        <ele>78</ele>
        <time>2014-04-14T10:09:35Z</time>
      </trkpt>
      <trkpt lat="47.97974" lon="3.39672">
        <ele>78</ele>
        <time>2014-04-14T10:09:39Z</time>
      </trkpt>
      <trkpt lat="47.9797" lon="3.39678">
        <ele>78</ele>
        <time>2014-04-14T10:09:44Z</time>
      </trkpt>
      <trkpt lat="47.97966" lon="3.39683">
        <ele>78</ele>
        <time>2014-04-14T10:09:47Z</time>
      </trkpt>
      <trkpt lat="47.97962" lon="3.39686">
        <ele>78</ele>
        <time>2014-04-14T10:09:52Z</time>
      </trkpt>
      <trkpt lat="47.97957" lon="3.39688">
        <ele>78</ele>
        <time>2014-04-14T10:09:58Z</time>
      </trkpt>
      <trkpt lat="47.97952" lon="3.397">
        <ele>78</ele>
        <time>2014-04-14T10:10:16Z</time>
      </trkpt>
      <trkpt lat="47.9795" lon="3.39706">
        <ele>78</ele>
        <time>2014-04-14T10:10:20Z</time>
      </trkpt>
      <trkpt lat="47.97946" lon="3.39713">
        <ele>78</ele>
        <time>2014-04-14T10:10:24Z</time>
      </trkpt>
      <trkpt lat="47.97942" lon="3.39718">
        <ele>77</ele>
        <time>2014-04-14T10:10:29Z</time>
      </trkpt>
      <trkpt lat="47.97937" lon="3.3972">
        <ele>77</ele>
        <time>2014-04-14T10:10:35Z</time>
      </trkpt>
      <trkpt lat="47.97933" lon="3.39725">
        <ele>77</ele>
        <time>2014-04-14T10:10:39Z</time>
      </trkpt>
      <trkpt lat="47.97929" lon="3.39729">
        <ele>77</ele>
        <time>2014-04-14T10:10:41Z</time>
      </trkpt>
      <trkpt lat="47.97924" lon="3.39732">
        <ele>77</ele>
        <time>2014-04-14T10:10:44Z</time>
      </trkpt>
      <trkpt lat="47.97909" lon="3.39741">
        <ele>77</ele>
        <time>2014-04-14T10:10:52Z</time>
      </trkpt>
      <trkpt lat="47.97889" lon="3.39685">
        <ele>77</ele>
        <time>2014-04-14T12:09:00Z</time>
      </trkpt>
      <trkpt lat="47.97893" lon="3.39753">
        <ele>77</ele>
        <time>2014-04-14T12:09:01Z</time>
      </trkpt>
      <trkpt lat="47.97886" lon="3.39794">
        <ele>77</ele>
        <time>2014-04-14T12:09:06Z</time>
      </trkpt>
      <trkpt lat="47.97884" lon="3.39797">
        <ele>77</ele>
        <time>2014-04-14T12:09:17Z</time>
      </trkpt>
      <trkpt lat="47.97879" lon="3.39795">
        <ele>77</ele>
        <time>2014-04-14T12:09:23Z</time>
      </trkpt>
      <trkpt lat="47.97875" lon="3.39797">
        <ele>78</ele>
        <time>2014-04-14T12:09:27Z</time>
      </trkpt>
      <trkpt lat="47.9787" lon="3.39797">
        <ele>78</ele>
        <time>2014-04-14T12:09:32Z</time>
      </trkpt>
      <trkpt lat="47.97865" lon="3.39797">
        <ele>78</ele>
        <time>2014-04-14T12:09:36Z</time>
      </trkpt>
      <trkpt lat="47.9786" lon="3.39798">
        <ele>78</ele>
        <time>2014-04-14T12:09:41Z</time>
      </trkpt>
      <trkpt lat="47.97857" lon="3.39791">
        <ele>78</ele>
        <time>2014-04-14T12:09:46Z</time>
      </trkpt>
      <trkpt lat="47.97855" lon="3.39785">
        <ele>78</ele>
        <time>2014-04-14T12:09:49Z</time>
      </trkpt>
      <trkpt lat="47.97853" lon="3.39778">
        <ele>78</ele>
        <time>2014-04-14T12:09:53Z</time>
      </trkpt>
      <trkpt lat="47.97849" lon="3.39774">
        <ele>78</ele>
        <time>2014-04-14T12:09:57Z</time>
      </trkpt>
      <trkpt lat="47.97841" lon="3.39766">
        <ele>78</ele>
        <time>2014-04-14T12:10:08Z</time>
      </trkpt>
      <trkpt lat="47.97839" lon="3.3976">
        <ele>78</ele>
        <time>2014-04-14T12:10:12Z</time>
      </trkpt>
      <trkpt lat="47.97835" lon="3.39752">
        <ele>79</ele>
        <time>2014-04-14T12:10:21Z</time>
      </trkpt>
      <trkpt lat="47.9783" lon="3.3975">
        <ele>79</ele>
        <time>2014-04-14T12:10:26Z</time>
      </trkpt>
      <trkpt lat="47.97825" lon="3.39747">
        <ele>79</ele>
        <time>2014-04-14T12:10:32Z</time>
      </trkpt>
      <trkpt lat="47.97821" lon="3.39745">
        <ele>79</ele>
        <time>2014-04-14T12:10:35Z</time>
      </trkpt>
      <trkpt lat="47.97816" lon="3.39742">
        <ele>79</ele>
        <time>2014-04-14T12:10:39Z</time>
      </trkpt>
      <trkpt lat="47.97811" lon="3.3974">
        <ele>79</ele>
        <time>2014-04-14T12:10:43Z</time>
      </trkpt>
      <trkpt lat="47.97807" lon="3.39737">
        <ele>79</ele>
        <time>2014-04-14T12:10:47Z</time>
      </trkpt>
      <trkpt lat="47.97799" lon="3.39731">
        <ele>79</ele>
        <time>2014-04-14T12:10:52Z</time>
      </trkpt>
      <trkpt lat="47.97794" lon="3.39728">
        <ele>79</ele>
        <time>2014-04-14T12:10:55Z</time>
      </trkpt>
      <trkpt lat="47.97789" lon="3.39728">
        <ele>79</ele>
        <time>2014-04-14T12:10:58Z</time>
      </trkpt>
      <trkpt lat="47.97784" lon="3.39728">
        <ele>79</ele>
        <time>2014-04-14T12:11:02Z</time>
      </trkpt>
      <trkpt lat="47.97779" lon="3.39725">
        <ele>79</ele>
        <time>2014-04-14T12:11:07Z</time>
      </trkpt>
      <trkpt lat="47.97774" lon="3.39727">
        <ele>79</ele>
        <time>2014-04-14T12:11:13Z</time>
      </trkpt>
      <trkpt lat="47.9777" lon="3.39723">
        <ele>79</ele>
        <time>2014-04-14T12:11:17Z</time>
      </trkpt>
      <trkpt lat="47.97764" lon="3.39723">
        <ele>79</ele>
        <time>2014-04-14T12:11:20Z</time>
      </trkpt>
      <trkpt lat="47.97759" lon="3.39724">
        <ele>79</ele>
        <time>2014-04-14T12:11:24Z</time>
      </trkpt>
      <trkpt lat="47.97757" lon="3.39724">
        <ele>79</ele>
        <time>2014-04-14T12:11:30Z</time>
      </trkpt>
      <trkpt lat="47.97753" lon="3.39719">
        <ele>79</ele>
        <time>2014-04-14T12:11:33Z</time>
      </trkpt>
      <trkpt lat="47.97748" lon="3.39715">
        <ele>78</ele>
        <time>2014-04-14T12:11:37Z</time>
      </trkpt>
      <trkpt lat="47.97743" lon="3.39711">
        <ele>78</ele>
        <time>2014-04-14T12:11:41Z</time>
      </trkpt>
      <trkpt lat="47.97738" lon="3.39711">
        <ele>78</ele>
        <time>2014-04-14T12:11:44Z</time>
      </trkpt>
      <trkpt lat="47.97733" lon="3.39709">
        <ele>78</ele>
        <time>2014-04-14T12:11:47Z</time>
      </trkpt>
      <trkpt lat="47.97729" lon="3.39703">
        <ele>78</ele>
        <time>2014-04-14T12:11:51Z</time>
      </trkpt>
      <trkpt lat="47.97727" lon="3.39689">
        <ele>78</ele>
        <time>2014-04-14T12:11:58Z</time>
      </trkpt>
      <trkpt lat="47.97722" lon="3.39688">
        <ele>78</ele>
        <time>2014-04-14T12:12:04Z</time>
      </trkpt>
      <trkpt lat="47.97717" lon="3.39686">
        <ele>78</ele>
        <time>2014-04-14T12:12:08Z</time>
      </trkpt>
      <trkpt lat="47.97713" lon="3.39682">
        <ele>78</ele>
        <time>2014-04-14T12:12:12Z</time>
      </trkpt>
      <trkpt lat="47.97708" lon="3.39678">
        <ele>78</ele>
        <time>2014-04-14T12:12:17Z</time>
      </trkpt>
      <trkpt lat="47.97704" lon="3.39674">
        <ele>78</ele>
        <time>2014-04-14T12:12:21Z</time>
      </trkpt>
      <trkpt lat="47.97699" lon="3.39672">
        <ele>78</ele>
        <time>2014-04-14T12:12:25Z</time>
      </trkpt>
      <trkpt lat="47.97695" lon="3.39668">
        <ele>78</ele>
        <time>2014-04-14T12:12:30Z</time>
      </trkpt>
      <trkpt lat="47.9769" lon="3.39665">
        <ele>78</ele>
        <time>2014-04-14T12:12:34Z</time>
      </trkpt>
      <trkpt lat="47.97686" lon="3.39662">
        <ele>78</ele>
        <time>2014-04-14T12:12:38Z</time>
      </trkpt>
      <trkpt lat="47.97682" lon="3.39661">
        <ele>78</ele>
        <time>2014-04-14T12:12:48Z</time>
      </trkpt>
      <trkpt lat="47.97678" lon="3.39664">
        <ele>78</ele>
        <time>2014-04-14T12:12:56Z</time>
      </trkpt>
      <trkpt lat="47.97675" lon="3.39659">
        <ele>78</ele>
        <time>2014-04-14T12:13:03Z</time>
      </trkpt>
      <trkpt lat="47.9767" lon="3.39655">
        <ele>78</ele>
        <time>2014-04-14T12:13:09Z</time>
      </trkpt>
      <trkpt lat="47.97665" lon="3.39651">
        <ele>78</ele>
        <time>2014-04-14T12:13:14Z</time>
      </trkpt>
      <trkpt lat="47.97659" lon="3.39649">
        <ele>78</ele>
        <time>2014-04-14T12:13:18Z</time>
      </trkpt>
      <trkpt lat="47.97655" lon="3.39645">
        <ele>78</ele>
        <time>2014-04-14T12:13:24Z</time>
      </trkpt>
      <trkpt lat="47.9765" lon="3.39642">
        <ele>78</ele>
        <time>2014-04-14T12:13:30Z</time>
      </trkpt>
      <trkpt lat="47.97645" lon="3.39639">
        <ele>78</ele>
        <time>2014-04-14T12:13:35Z</time>
      </trkpt>
      <trkpt lat="47.97642" lon="3.39634">
        <ele>78</ele>
        <time>2014-04-14T12:13:39Z</time>
      </trkpt>
      <trkpt lat="47.97636" lon="3.3963">
        <ele>78</ele>
        <time>2014-04-14T12:13:42Z</time>
      </trkpt>
      <trkpt lat="47.97632" lon="3.39627">
        <ele>78</ele>
        <time>2014-04-14T12:13:46Z</time>
      </trkpt>
      <trkpt lat="47.97627" lon="3.39629">
        <ele>78</ele>
        <time>2014-04-14T12:13:50Z</time>
      </trkpt>
      <trkpt lat="47.97621" lon="3.39626">
        <ele>77</ele>
        <time>2014-04-14T12:13:54Z</time>
      </trkpt>
      <trkpt lat="47.97616" lon="3.39622">
        <ele>78</ele>
        <time>2014-04-14T12:13:58Z</time>
      </trkpt>
      <trkpt lat="47.97611" lon="3.39621">
        <ele>78</ele>
        <time>2014-04-14T12:14:02Z</time>
      </trkpt>
      <trkpt lat="47.97606" lon="3.39618">
        <ele>78</ele>
        <time>2014-04-14T12:14:04Z</time>
      </trkpt>
      <trkpt lat="47.97599" lon="3.39614">
        <ele>78</ele>
        <time>2014-04-14T12:14:06Z</time>
      </trkpt>
      <trkpt lat="47.97594" lon="3.39611">
        <ele>78</ele>
        <time>2014-04-14T12:14:08Z</time>
      </trkpt>
      <trkpt lat="47.97591" lon="3.3961">
        <ele>78</ele>
        <time>2014-04-14T12:14:10Z</time>
      </trkpt>
      <trkpt lat="47.97586" lon="3.39604">
        <ele>78</ele>
        <time>2014-04-14T12:14:23Z</time>
      </trkpt>
      <trkpt lat="47.97581" lon="3.39602">
        <ele>78</ele>
        <time>2014-04-14T12:14:27Z</time>
      </trkpt>
      <trkpt lat="47.97576" lon="3.39599">
        <ele>78</ele>
        <time>2014-04-14T12:14:31Z</time>
      </trkpt>
      <trkpt lat="47.97572" lon="3.39596">
        <ele>78</ele>
        <time>2014-04-14T12:14:35Z</time>
      </trkpt>
      <trkpt lat="47.97567" lon="3.39594">
        <ele>78</ele>
        <time>2014-04-14T12:14:39Z</time>
      </trkpt>
      <trkpt lat="47.97562" lon="3.39592">
        <ele>78</ele>
        <time>2014-04-14T12:14:43Z</time>
      </trkpt>
      <trkpt lat="47.97557" lon="3.3959">
        <ele>78</ele>
        <time>2014-04-14T12:14:47Z</time>
      </trkpt>
      <trkpt lat="47.97553" lon="3.39588">
        <ele>78</ele>
        <time>2014-04-14T12:14:51Z</time>
      </trkpt>
      <trkpt lat="47.97548" lon="3.39587">
        <ele>78</ele>
        <time>2014-04-14T12:14:55Z</time>
      </trkpt>
      <trkpt lat="47.97544" lon="3.39584">
        <ele>78</ele>
        <time>2014-04-14T12:14:59Z</time>
      </trkpt>
      <trkpt lat="47.9754" lon="3.39582">
        <ele>78</ele>
        <time>2014-04-14T12:15:03Z</time>
      </trkpt>
      <trkpt lat="47.97534" lon="3.39579">
        <ele>78</ele>
        <time>2014-04-14T12:15:08Z</time>
      </trkpt>
      <trkpt lat="47.97529" lon="3.39577">
        <ele>78</ele>
        <time>2014-04-14T12:15:12Z</time>
      </trkpt>
      <trkpt lat="47.97524" lon="3.39574">
        <ele>78</ele>
        <time>2014-04-14T12:15:16Z</time>
      </trkpt>
      <trkpt lat="47.9752" lon="3.39571">
        <ele>78</ele>
        <time>2014-04-14T12:15:20Z</time>
      </trkpt>
      <trkpt lat="47.97517" lon="3.39566">
        <ele>78</ele>
        <time>2014-04-14T12:15:25Z</time>
      </trkpt>
      <trkpt lat="47.97513" lon="3.39562">
        <ele>78</ele>
        <time>2014-04-14T12:15:29Z</time>
      </trkpt>
      <trkpt lat="47.97509" lon="3.39557">
        <ele>78</ele>
        <time>2014-04-14T12:15:33Z</time>
      </trkpt>
      <trkpt lat="47.97505" lon="3.39552">
        <ele>78</ele>
        <time>2014-04-14T12:15:37Z</time>
      </trkpt>
      <trkpt lat="47.97504" lon="3.39545">
        <ele>78</ele>
        <time>2014-04-14T12:15:41Z</time>
      </trkpt>
      <trkpt lat="47.97499" lon="3.3954">
        <ele>78</ele>
        <time>2014-04-14T12:16:09Z</time>
      </trkpt>
      <trkpt lat="47.97494" lon="3.39537">
        <ele>78</ele>
        <time>2014-04-14T12:16:15Z</time>
      </trkpt>
      <trkpt lat="47.97489" lon="3.39536">
        <ele>78</ele>
        <time>2014-04-14T12:16:20Z</time>
      </trkpt>
      <trkpt lat="47.97484" lon="3.39534">
        <ele>78</ele>
        <time>2014-04-14T12:16:24Z</time>
      </trkpt>
      <trkpt lat="47.97479" lon="3.39531">
        <ele>78</ele>
        <time>2014-04-14T12:16:28Z</time>
      </trkpt>
      <trkpt lat="47.97474" lon="3.39528">
        <ele>78</ele>
        <time>2014-04-14T12:16:32Z</time>
      </trkpt>
      <trkpt lat="47.97469" lon="3.39527">
        <ele>78</ele>
        <time>2014-04-14T12:16:35Z</time>
      </trkpt>
      <trkpt lat="47.97464" lon="3.39526">
        <ele>78</ele>
        <time>2014-04-14T12:16:38Z</time>
      </trkpt>
      <trkpt lat="47.97459" lon="3.39527">
        <ele>78</ele>
        <time>2014-04-14T12:16:42Z</time>
      </trkpt>
      <trkpt lat="47.97455" lon="3.39524">
        <ele>78</ele>
        <time>2014-04-14T12:16:46Z</time>
      </trkpt>
      <trkpt lat="47.97456" lon="3.39515">
        <ele>78</ele>
        <time>2014-04-14T12:16:49Z</time>
      </trkpt>
      <trkpt lat="47.97458" lon="3.39507">
        <ele>78</ele>
        <time>2014-04-14T12:16:52Z</time>
      </trkpt>
      <trkpt lat="47.97459" lon="3.39479">
        <ele>78</ele>
        <time>2014-04-14T12:17:07Z</time>
      </trkpt>
      <trkpt lat="47.97462" lon="3.39473">
        <ele>78</ele>
        <time>2014-04-14T12:17:13Z</time>
      </trkpt>
      <trkpt lat="47.97463" lon="3.39466">
        <ele>78</ele>
        <time>2014-04-14T12:17:18Z</time>
      </trkpt>
      <trkpt lat="47.9746" lon="3.39459">
        <ele>78</ele>
        <time>2014-04-14T12:17:22Z</time>
      </trkpt>
      <trkpt lat="47.97455" lon="3.39457">
        <ele>78</ele>
        <time>2014-04-14T12:17:26Z</time>
      </trkpt>
      <trkpt lat="47.9745" lon="3.39453">
        <ele>78</ele>
        <time>2014-04-14T12:17:30Z</time>
      </trkpt>
      <trkpt lat="47.97446" lon="3.39449">
        <ele>78</ele>
        <time>2014-04-14T12:17:34Z</time>
      </trkpt>
      <trkpt lat="47.97441" lon="3.39445">
        <ele>78</ele>
        <time>2014-04-14T12:17:38Z</time>
      </trkpt>
      <trkpt lat="47.97438" lon="3.39439">
        <ele>78</ele>
        <time>2014-04-14T12:17:42Z</time>
      </trkpt>
      <trkpt lat="47.97434" lon="3.39434">
        <ele>78</ele>
        <time>2014-04-14T12:17:46Z</time>
      </trkpt>
      <trkpt lat="47.97433" lon="3.39426">
        <ele>78</ele>
        <time>2014-04-14T12:17:50Z</time>
      </trkpt>
      <trkpt lat="47.97431" lon="3.3942">
        <ele>78</ele>
        <time>2014-04-14T12:17:54Z</time>
      </trkpt>
      <trkpt lat="47.97426" lon="3.39417">
        <ele>78</ele>
        <time>2014-04-14T12:17:58Z</time>
      </trkpt>
      <trkpt lat="47.97423" lon="3.39412">
        <ele>78</ele>
        <time>2014-04-14T12:18:02Z</time>
      </trkpt>
      <trkpt lat="47.97423" lon="3.39405">
        <ele>78</ele>
        <time>2014-04-14T12:18:07Z</time>
      </trkpt>
      <trkpt lat="47.97424" lon="3.39398">
        <ele>78</ele>
        <time>2014-04-14T12:18:12Z</time>
      </trkpt>
      <trkpt lat="47.97428" lon="3.39393">
        <ele>78</ele>
        <time>2014-04-14T12:18:17Z</time>
      </trkpt>
      <trkpt lat="47.9743" lon="3.39386">
        <ele>78</ele>
        <time>2014-04-14T12:18:21Z</time>
      </trkpt>
      <trkpt lat="47.97429" lon="3.39379">
        <ele>78</ele>
        <time>2014-04-14T12:18:23Z</time>
      </trkpt>
      <trkpt lat="47.97426" lon="3.39372">
        <ele>78</ele>
        <time>2014-04-14T12:18:25Z</time>
      </trkpt>
      <trkpt lat="47.97422" lon="3.39367">
        <ele>78</ele>
        <time>2014-04-14T12:18:29Z</time>
      </trkpt>
      <trkpt lat="47.97419" lon="3.3936">
        <ele>78</ele>
        <time>2014-04-14T12:18:34Z</time>
      </trkpt>
      <trkpt lat="47.97419" lon="3.39353">
        <ele>78</ele>
        <time>2014-04-14T12:18:38Z</time>
      </trkpt>
      <trkpt lat="47.97421" lon="3.39347">
        <ele>78</ele>
        <time>2014-04-14T12:18:42Z</time>
      </trkpt>
      <trkpt lat="47.97415" lon="3.39345">
        <ele>78</ele>
        <time>2014-04-14T12:19:00Z</time>
      </trkpt>
      <trkpt lat="47.97346" lon="3.39345">
        <ele>78</ele>
        <time>2014-04-14T12:20:10Z</time>
      </trkpt>
      <trkpt lat="47.97353" lon="3.39349">
        <ele>78</ele>
        <time>2014-04-14T12:20:13Z</time>
      </trkpt>
      <trkpt lat="47.97341" lon="3.39364">
        <ele>78</ele>
        <time>2014-04-14T12:20:16Z</time>
      </trkpt>
      <trkpt lat="47.97343" lon="3.39367">
        <ele>78</ele>
        <time>2014-04-14T12:20:27Z</time>
      </trkpt>
      <trkpt lat="47.97344" lon="3.39373">
        <ele>78</ele>
        <time>2014-04-14T12:20:31Z</time>
      </trkpt>
      <trkpt lat="47.97345" lon="3.3938">
        <ele>78</ele>
        <time>2014-04-14T12:20:34Z</time>
      </trkpt>
      <trkpt lat="47.97345" lon="3.39387">
        <ele>78</ele>
        <time>2014-04-14T12:20:39Z</time>
      </trkpt>
      <trkpt lat="47.97345" lon="3.39394">
        <ele>78</ele>
        <time>2014-04-14T12:20:43Z</time>
      </trkpt>
      <trkpt lat="47.97344" lon="3.39401">
        <ele>78</ele>
        <time>2014-04-14T12:20:47Z</time>
      </trkpt>
      <trkpt lat="47.97345" lon="3.39408">
        <ele>77</ele>
        <time>2014-04-14T12:20:51Z</time>
      </trkpt>
      <trkpt lat="47.97347" lon="3.39415">
        <ele>77</ele>
        <time>2014-04-14T12:20:56Z</time>
      </trkpt>
      <trkpt lat="47.97346" lon="3.39422">
        <ele>77</ele>
        <time>2014-04-14T12:21:00Z</time>
      </trkpt>
      <trkpt lat="47.97344" lon="3.39428">
        <ele>77</ele>
        <time>2014-04-14T12:21:03Z</time>
      </trkpt>
      <trkpt lat="47.97342" lon="3.39435">
        <ele>77</ele>
        <time>2014-04-14T12:21:09Z</time>
      </trkpt>
      <trkpt lat="47.97338" lon="3.3943">
        <ele>77</ele>
        <time>2014-04-14T12:21:15Z</time>
      </trkpt>
      <trkpt lat="47.97335" lon="3.39436">
        <ele>77</ele>
        <time>2014-04-14T12:21:20Z</time>
      </trkpt>
      <trkpt lat="47.97335" lon="3.39443">
        <ele>77</ele>
        <time>2014-04-14T12:21:24Z</time>
      </trkpt>
      <trkpt lat="47.97334" lon="3.39452">
        <ele>77</ele>
        <time>2014-04-14T12:21:28Z</time>
      </trkpt>
      <trkpt lat="47.97333" lon="3.3946">
        <ele>77</ele>
        <time>2014-04-14T12:21:33Z</time>
      </trkpt>
      <trkpt lat="47.9733" lon="3.39465">
        <ele>77</ele>
        <time>2014-04-14T12:21:37Z</time>
      </trkpt>
      <trkpt lat="47.97326" lon="3.3947">
        <ele>77</ele>
        <time>2014-04-14T12:21:42Z</time>
      </trkpt>
      <trkpt lat="47.97322" lon="3.39475">
        <ele>77</ele>
        <time>2014-04-14T12:21:46Z</time>
      </trkpt>
      <trkpt lat="47.97319" lon="3.3948">
        <ele>77</ele>
        <time>2014-04-14T12:21:50Z</time>
      </trkpt>
      <trkpt lat="47.97313" lon="3.39481">
        <ele>77</ele>
        <time>2014-04-14T12:21:54Z</time>
      </trkpt>
      <trkpt lat="47.97309" lon="3.39482">
        <ele>76</ele>
        <time>2014-04-14T12:21:57Z</time>
      </trkpt>
      <trkpt lat="47.97304" lon="3.39483">
        <ele>76</ele>
        <time>2014-04-14T12:22:00Z</time>
      </trkpt>
      <trkpt lat="47.97299" lon="3.39483">
        <ele>76</ele>
        <time>2014-04-14T12:22:04Z</time>
      </trkpt>
      <trkpt lat="47.96883" lon="3.39739">
        <ele>78</ele>
        <time>2014-04-14T12:28:20Z</time>
      </trkpt>
      <trkpt lat="47.96924" lon="3.3968">
        <ele>78</ele>
        <time>2014-04-14T12:28:24Z</time>
      </trkpt>
      <trkpt lat="47.96916" lon="3.39693">
        <ele>78</ele>
        <time>2014-04-14T12:28:32Z</time>
      </trkpt>
      <trkpt lat="47.96913" lon="3.39699">
        <ele>78</ele>
        <time>2014-04-14T12:28:34Z</time>
      </trkpt>
      <trkpt lat="47.96906" lon="3.39709">
        <ele>78</ele>
        <time>2014-04-14T12:28:37Z</time>
      </trkpt>
      <trkpt lat="47.96902" lon="3.39714">
        <ele>78</ele>
        <time>2014-04-14T12:28:39Z</time>
      </trkpt>
      <trkpt lat="47.96898" lon="3.39719">
        <ele>78</ele>
        <time>2014-04-14T12:28:42Z</time>
      </trkpt>
      <trkpt lat="47.96896" lon="3.39725">
        <ele>78</ele>
        <time>2014-04-14T12:28:47Z</time>
      </trkpt>
      <trkpt lat="47.96894" lon="3.39727">
        <ele>78</ele>
        <time>2014-04-14T12:28:53Z</time>
      </trkpt>
      <trkpt lat="47.96889" lon="3.39727">
        <ele>78</ele>
        <time>2014-04-14T12:29:07Z</time>
      </trkpt>
      <trkpt lat="47.96494" lon="3.39974">
        <ele>79</ele>
        <time>2014-04-14T12:35:06Z</time>
      </trkpt>
      <trkpt lat="47.96488" lon="3.39975">
        <ele>79</ele>
        <time>2014-04-14T12:35:13Z</time>
      </trkpt>
      <trkpt lat="47.96484" lon="3.39977">
        <ele>79</ele>
        <time>2014-04-14T12:35:17Z</time>
      </trkpt>
      <trkpt lat="47.96479" lon="3.39978">
        <ele>79</ele>
        <time>2014-04-14T12:35:22Z</time>
      </trkpt>
      <trkpt lat="47.96474" lon="3.39979">
        <ele>79</ele>
        <time>2014-04-14T12:35:26Z</time>
      </trkpt>
      <trkpt lat="47.96469" lon="3.39982">
        <ele>79</ele>
        <time>2014-04-14T12:35:31Z</time>
      </trkpt>
      <trkpt lat="47.96468" lon="3.39987">
        <ele>79</ele>
        <time>2014-04-14T12:35:40Z</time>
      </trkpt>
      <trkpt lat="47.96045" lon="3.40165">
        <ele>80</ele>
        <time>2014-04-14T12:42:50Z</time>
      </trkpt>
      <trkpt lat="47.96045" lon="3.40156">
        <ele>80</ele>
        <time>2014-04-14T12:42:54Z</time>
      </trkpt>
      <trkpt lat="47.96045" lon="3.40144">
        <ele>80</ele>
        <time>2014-04-14T12:43:05Z</time>
      </trkpt>
      <trkpt lat="47.9604" lon="3.40143">
        <ele>81</ele>
        <time>2014-04-14T12:43:11Z</time>
      </trkpt>
      <trkpt lat="47.96035" lon="3.40141">
        <ele>81</ele>
        <time>2014-04-14T12:43:16Z</time>
      </trkpt>
      <trkpt lat="47.9603" lon="3.40143">
        <ele>81</ele>
        <time>2014-04-14T12:43:23Z</time>
      </trkpt>
      <trkpt lat="47.96025" lon="3.40145">
        <ele>81</ele>
        <time>2014-04-14T12:43:27Z</time>
      </trkpt>
      <trkpt lat="47.96019" lon="3.40145">
        <ele>81</ele>
        <time>2014-04-14T12:43:31Z</time>
      </trkpt>
      <trkpt lat="47.96015" lon="3.40147">
        <ele>81</ele>
        <time>2014-04-14T12:43:36Z</time>
      </trkpt>
      <trkpt lat="47.9601" lon="3.4015">
        <ele>81</ele>
        <time>2014-04-14T12:43:40Z</time>
      </trkpt>
      <trkpt lat="47.96006" lon="3.40152">
        <ele>81</ele>
        <time>2014-04-14T12:43:43Z</time>
      </trkpt>
      <trkpt lat="47.96001" lon="3.40152">
        <ele>81</ele>
        <time>2014-04-14T12:43:46Z</time>
      </trkpt>
      <trkpt lat="47.95996" lon="3.40152">
        <ele>81</ele>
        <time>2014-04-14T12:43:49Z</time>
      </trkpt>
      <trkpt lat="47.95991" lon="3.40149">
        <ele>81</ele>
        <time>2014-04-14T12:43:53Z</time>
      </trkpt>
      <trkpt lat="47.95986" lon="3.40147">
        <ele>81</ele>
        <time>2014-04-14T12:43:58Z</time>
      </trkpt>
      <trkpt lat="47.95981" lon="3.40146">
        <ele>81</ele>
        <time>2014-04-14T12:44:02Z</time>
      </trkpt>
      <trkpt lat="47.95976" lon="3.40144">
        <ele>81</ele>
        <time>2014-04-14T12:44:17Z</time>
      </trkpt>
      <trkpt lat="47.9597" lon="3.40145">
        <ele>81</ele>
        <time>2014-04-14T12:44:25Z</time>
      </trkpt>
      <trkpt lat="47.95965" lon="3.40145">
        <ele>81</ele>
        <time>2014-04-14T12:44:30Z</time>
      </trkpt>
      <trkpt lat="47.95961" lon="3.40142">
        <ele>81</ele>
        <time>2014-04-14T12:44:34Z</time>
      </trkpt>
      <trkpt lat="47.95854" lon="3.40106">
        <ele>80</ele>
        <time>2014-04-14T12:46:24Z</time>
      </trkpt>
      <trkpt lat="47.95852" lon="3.40099">
        <ele>80</ele>
        <time>2014-04-14T12:46:27Z</time>
      </trkpt>
      <trkpt lat="47.95849" lon="3.40092">
        <ele>80</ele>
        <time>2014-04-14T12:46:30Z</time>
      </trkpt>
      <trkpt lat="47.95845" lon="3.40087">
        <ele>80</ele>
        <time>2014-04-14T12:46:37Z</time>
      </trkpt>
      <trkpt lat="47.95842" lon="3.40081">
        <ele>80</ele>
        <time>2014-04-14T12:46:42Z</time>
      </trkpt>
      <trkpt lat="47.95839" lon="3.40076">
        <ele>80</ele>
        <time>2014-04-14T12:46:47Z</time>
      </trkpt>
      <trkpt lat="47.95835" lon="3.40072">
        <ele>80</ele>
        <time>2014-04-14T12:46:51Z</time>
      </trkpt>
      <trkpt lat="47.9583" lon="3.40068">
        <ele>80</ele>
        <time>2014-04-14T12:46:56Z</time>
      </trkpt>
      <trkpt lat="47.95825" lon="3.40068">
        <ele>80</ele>
        <time>2014-04-14T12:47:00Z</time>
      </trkpt>
      <trkpt lat="47.95821" lon="3.40066">
        <ele>80</ele>
        <time>2014-04-14T12:47:05Z</time>
      </trkpt>
      <trkpt lat="47.95816" lon="3.40063">
        <ele>80</ele>
        <time>2014-04-14T12:47:10Z</time>
      </trkpt>
      <trkpt lat="47.95811" lon="3.40059">
        <ele>80</ele>
        <time>2014-04-14T12:47:14Z</time>
      </trkpt>
      <trkpt lat="47.95808" lon="3.40054">
        <ele>80</ele>
        <time>2014-04-14T12:47:20Z</time>
      </trkpt>
      <trkpt lat="47.95801" lon="3.40052">
        <ele>80</ele>
        <time>2014-04-14T12:47:27Z</time>
      </trkpt>
      <trkpt lat="47.95797" lon="3.40054">
        <ele>80</ele>
        <time>2014-04-14T12:47:29Z</time>
      </trkpt>
      <trkpt lat="47.95792" lon="3.40055">
        <ele>80</ele>
        <time>2014-04-14T12:47:31Z</time>
      </trkpt>
      <trkpt lat="47.95788" lon="3.40055">
        <ele>80</ele>
        <time>2014-04-14T12:47:33Z</time>
      </trkpt>
      <trkpt lat="47.95784" lon="3.40049">
        <ele>80</ele>
        <time>2014-04-14T12:47:40Z</time>
      </trkpt>
      <trkpt lat="47.95781" lon="3.40043">
        <ele>80</ele>
        <time>2014-04-14T12:47:45Z</time>
      </trkpt>
      <trkpt lat="47.95777" lon="3.40039">
        <ele>80</ele>
        <time>2014-04-14T12:47:49Z</time>
      </trkpt>
      <trkpt lat="47.95773" lon="3.40035">
        <ele>80</ele>
        <time>2014-04-14T12:47:53Z</time>
      </trkpt>
      <trkpt lat="47.95769" lon="3.4003">
        <ele>80</ele>
        <time>2014-04-14T12:47:57Z</time>
      </trkpt>
      <trkpt lat="47.95765" lon="3.40026">
        <ele>80</ele>
        <time>2014-04-14T12:48:02Z</time>
      </trkpt>
      <trkpt lat="47.9576" lon="3.40021">
        <ele>79</ele>
        <time>2014-04-14T12:48:10Z</time>
      </trkpt>
      <trkpt lat="47.95755" lon="3.40021">
        <ele>79</ele>
        <time>2014-04-14T12:48:15Z</time>
      </trkpt>
      <trkpt lat="47.9575" lon="3.4002">
        <ele>79</ele>
        <time>2014-04-14T12:48:21Z</time>
      </trkpt>
      <trkpt lat="47.95745" lon="3.40018">
        <ele>80</ele>
        <time>2014-04-14T12:48:26Z</time>
      </trkpt>
      <trkpt lat="47.95748" lon="3.40017">
        <ele>80</ele>
        <time>2014-04-14T12:48:41Z</time>
      </trkpt>
      <trkpt lat="47.95753" lon="3.40018">
        <ele>79</ele>
        <time>2014-04-14T12:48:45Z</time>
      </trkpt>
      <trkpt lat="47.95756" lon="3.40023">
        <ele>79</ele>
        <time>2014-04-14T12:48:48Z</time>
      </trkpt>
      <trkpt lat="47.95752" lon="3.40029">
        <ele>80</ele>
        <time>2014-04-14T12:48:52Z</time>
      </trkpt>
      <trkpt lat="47.95748" lon="3.40034">
        <ele>80</ele>
        <time>2014-04-14T12:48:54Z</time>
      </trkpt>
      <trkpt lat="47.95744" lon="3.40041">
        <ele>80</ele>
        <time>2014-04-14T12:48:57Z</time>
      </trkpt>
      <trkpt lat="47.9574" lon="3.40043">
        <ele>80</ele>
        <time>2014-04-14T12:49:01Z</time>
      </trkpt>
      <trkpt lat="47.95736" lon="3.40047">
        <ele>80</ele>
        <time>2014-04-14T12:49:05Z</time>
      </trkpt>
      <trkpt lat="47.95733" lon="3.40052">
        <ele>80</ele>
        <time>2014-04-14T12:49:10Z</time>
      </trkpt>
      <trkpt lat="47.95732" lon="3.40059">
        <ele>80</ele>
        <time>2014-04-14T12:49:14Z</time>
      </trkpt>
      <trkpt lat="47.9573" lon="3.40068">
        <ele>80</ele>
        <time>2014-04-14T12:49:18Z</time>
      </trkpt>
      <trkpt lat="47.95727" lon="3.40074">
        <ele>80</ele>
        <time>2014-04-14T12:49:22Z</time>
      </trkpt>
      <trkpt lat="47.95724" lon="3.40081">
        <ele>80</ele>
        <time>2014-04-14T12:49:26Z</time>
      </trkpt>
      <trkpt lat="47.9572" lon="3.40086">
        <ele>80</ele>
        <time>2014-04-14T12:49:29Z</time>
      </trkpt>
      <trkpt lat="47.95717" lon="3.40092">
        <ele>80</ele>
        <time>2014-04-14T12:49:32Z</time>
      </trkpt>
      <trkpt lat="47.95715" lon="3.40098">
        <ele>80</ele>
        <time>2014-04-14T12:49:37Z</time>
      </trkpt>
      <trkpt lat="47.95713" lon="3.40107">
        <ele>80</ele>
        <time>2014-04-14T12:49:43Z</time>
      </trkpt>
      <trkpt lat="47.95713" lon="3.40114">
        <ele>80</ele>
        <time>2014-04-14T12:49:46Z</time>
      </trkpt>
      <trkpt lat="47.95713" lon="3.40121">
        <ele>80</ele>
        <time>2014-04-14T12:49:51Z</time>
      </trkpt>
      <trkpt lat="47.95718" lon="3.40127">
        <ele>80</ele>
        <time>2014-04-14T12:49:54Z</time>
      </trkpt>
      <trkpt lat="47.95722" lon="3.40132">
        <ele>80</ele>
        <time>2014-04-14T12:49:57Z</time>
      </trkpt>
      <trkpt lat="47.9572" lon="3.40138">
        <ele>80</ele>
        <time>2014-04-14T12:50:05Z</time>
      </trkpt>
      <trkpt lat="47.95716" lon="3.40141">
        <ele>80</ele>
        <time>2014-04-14T12:50:10Z</time>
      </trkpt>
      <trkpt lat="47.95712" lon="3.40146">
        <ele>80</ele>
        <time>2014-04-14T12:50:15Z</time>
      </trkpt>
      <trkpt lat="47.95708" lon="3.40151">
        <ele>80</ele>
        <time>2014-04-14T12:50:19Z</time>
      </trkpt>
      <trkpt lat="47.95706" lon="3.40155">
        <ele>80</ele>
        <time>2014-04-14T12:50:27Z</time>
      </trkpt>
      <trkpt lat="47.95704" lon="3.40159">
        <ele>80</ele>
        <time>2014-04-14T12:50:35Z</time>
      </trkpt>
      <trkpt lat="47.95702" lon="3.40165">
        <ele>80</ele>
        <time>2014-04-14T12:50:46Z</time>
      </trkpt>
      <trkpt lat="47.95699" lon="3.4017">
        <ele>80</ele>
        <time>2014-04-14T12:50:52Z</time>
      </trkpt>
      <trkpt lat="47.95694" lon="3.40173">
        <ele>80</ele>
        <time>2014-04-14T12:50:56Z</time>
      </trkpt>
      <trkpt lat="47.9569" lon="3.40178">
        <ele>80</ele>
        <time>2014-04-14T12:51:01Z</time>
      </trkpt>
      <trkpt lat="47.95687" lon="3.40184">
        <ele>80</ele>
        <time>2014-04-14T12:51:07Z</time>
      </trkpt>
      <trkpt lat="47.95683" lon="3.40191">
        <ele>80</ele>
        <time>2014-04-14T12:51:12Z</time>
      </trkpt>
      <trkpt lat="47.9568" lon="3.40198">
        <ele>80</ele>
        <time>2014-04-14T12:51:15Z</time>
      </trkpt>
      <trkpt lat="47.95678" lon="3.40204">
        <ele>80</ele>
        <time>2014-04-14T12:51:19Z</time>
      </trkpt>
      <trkpt lat="47.95675" lon="3.40211">
        <ele>80</ele>
        <time>2014-04-14T12:51:25Z</time>
      </trkpt>
      <trkpt lat="47.95672" lon="3.40217">
        <ele>80</ele>
        <time>2014-04-14T12:51:29Z</time>
      </trkpt>
      <trkpt lat="47.95668" lon="3.40223">
        <ele>80</ele>
        <time>2014-04-14T12:51:33Z</time>
      </trkpt>
      <trkpt lat="47.95666" lon="3.40232">
        <ele>80</ele>
        <time>2014-04-14T12:51:36Z</time>
      </trkpt>
      <trkpt lat="47.95664" lon="3.40239">
        <ele>80</ele>
        <time>2014-04-14T12:51:39Z</time>
      </trkpt>
      <trkpt lat="47.95664" lon="3.40245">
        <ele>79</ele>
        <time>2014-04-14T12:52:07Z</time>
      </trkpt>
      <trkpt lat="47.95659" lon="3.40254">
        <ele>79</ele>
        <time>2014-04-14T12:52:21Z</time>
      </trkpt>
      <trkpt lat="47.95546" lon="3.40353">
        <ele>81</ele>
        <time>2014-04-14T13:01:54Z</time>
      </trkpt>
      <trkpt lat="47.95546" lon="3.40345">
        <ele>81</ele>
        <time>2014-04-14T13:01:58Z</time>
      </trkpt>
      <trkpt lat="47.95549" lon="3.40347">
        <ele>81</ele>
        <time>2014-04-14T13:02:15Z</time>
      </trkpt>
      <trkpt lat="47.95547" lon="3.40352">
        <ele>81</ele>
        <time>2014-04-14T13:02:23Z</time>
      </trkpt>
      <trkpt lat="47.95545" lon="3.4036">
        <ele>81</ele>
        <time>2014-04-14T13:02:27Z</time>
      </trkpt>
      <trkpt lat="47.95543" lon="3.40367">
        <ele>81</ele>
        <time>2014-04-14T13:02:31Z</time>
      </trkpt>
      <trkpt lat="47.95538" lon="3.40373">
        <ele>81</ele>
        <time>2014-04-14T13:02:35Z</time>
      </trkpt>
      <trkpt lat="47.95533" lon="3.40378">
        <ele>81</ele>
        <time>2014-04-14T13:02:39Z</time>
      </trkpt>
      <trkpt lat="47.95531" lon="3.40384">
        <ele>81</ele>
        <time>2014-04-14T13:02:42Z</time>
      </trkpt>
      <trkpt lat="47.95529" lon="3.4039">
        <ele>81</ele>
        <time>2014-04-14T13:02:45Z</time>
      </trkpt>
      <trkpt lat="47.95527" lon="3.40397">
        <ele>81</ele>
        <time>2014-04-14T13:02:49Z</time>
      </trkpt>
      <trkpt lat="47.95525" lon="3.40404">
        <ele>81</ele>
        <time>2014-04-14T13:02:53Z</time>
      </trkpt>
      <trkpt lat="47.95525" lon="3.40411">
        <ele>81</ele>
        <time>2014-04-14T13:02:57Z</time>
      </trkpt>
      <trkpt lat="47.95524" lon="3.40419">
        <ele>81</ele>
        <time>2014-04-14T13:03:03Z</time>
      </trkpt>
      <trkpt lat="47.95522" lon="3.40427">
        <ele>80</ele>
        <time>2014-04-14T13:03:09Z</time>
      </trkpt>
      <trkpt lat="47.95523" lon="3.40435">
        <ele>80</ele>
        <time>2014-04-14T13:03:13Z</time>
      </trkpt>
      <trkpt lat="47.95521" lon="3.40442">
        <ele>80</ele>
        <time>2014-04-14T13:03:17Z</time>
      </trkpt>
      <trkpt lat="47.9552" lon="3.40449">
        <ele>80</ele>
        <time>2014-04-14T13:03:21Z</time>
      </trkpt>
      <trkpt lat="47.95517" lon="3.40456">
        <ele>80</ele>
        <time>2014-04-14T13:03:26Z</time>
      </trkpt>
      <trkpt lat="47.95514" lon="3.40464">
        <ele>80</ele>
        <time>2014-04-14T13:03:33Z</time>
      </trkpt>
      <trkpt lat="47.95512" lon="3.40472">
        <ele>80</ele>
        <time>2014-04-14T13:03:39Z</time>
      </trkpt>
      <trkpt lat="47.9551" lon="3.4048">
        <ele>80</ele>
        <time>2014-04-14T13:03:42Z</time>
      </trkpt>
      <trkpt lat="47.95508" lon="3.40487">
        <ele>80</ele>
        <time>2014-04-14T13:03:46Z</time>
      </trkpt>
      <trkpt lat="47.95506" lon="3.40495">
        <ele>80</ele>
        <time>2014-04-14T13:03:50Z</time>
      </trkpt>
      <trkpt lat="47.95504" lon="3.40503">
        <ele>80</ele>
        <time>2014-04-14T13:03:54Z</time>
      </trkpt>
      <trkpt lat="47.955" lon="3.40507">
        <ele>80</ele>
        <time>2014-04-14T13:04:00Z</time>
      </trkpt>
      <trkpt lat="47.95498" lon="3.40514">
        <ele>81</ele>
        <time>2014-04-14T13:04:04Z</time>
      </trkpt>
      <trkpt lat="47.95498" lon="3.40522">
        <ele>81</ele>
        <time>2014-04-14T13:04:09Z</time>
      </trkpt>
      <trkpt lat="47.95497" lon="3.40529">
        <ele>81</ele>
        <time>2014-04-14T13:04:14Z</time>
      </trkpt>
      <trkpt lat="47.95496" lon="3.40536">
        <ele>81</ele>
        <time>2014-04-14T13:04:18Z</time>
      </trkpt>
      <trkpt lat="47.95495" lon="3.40543">
        <ele>81</ele>
        <time>2014-04-14T13:04:21Z</time>
      </trkpt>
      <trkpt lat="47.95494" lon="3.4055">
        <ele>81</ele>
        <time>2014-04-14T13:04:24Z</time>
      </trkpt>
      <trkpt lat="47.95493" lon="3.40557">
        <ele>81</ele>
        <time>2014-04-14T13:04:30Z</time>
      </trkpt>
      <trkpt lat="47.95492" lon="3.40565">
        <ele>81</ele>
        <time>2014-04-14T13:04:35Z</time>
      </trkpt>
      <trkpt lat="47.9549" lon="3.40573">
        <ele>81</ele>
        <time>2014-04-14T13:04:39Z</time>
      </trkpt>
      <trkpt lat="47.95488" lon="3.40579">
        <ele>81</ele>
        <time>2014-04-14T13:04:42Z</time>
      </trkpt>
      <trkpt lat="47.95486" lon="3.40586">
        <ele>80</ele>
        <time>2014-04-14T13:04:46Z</time>
      </trkpt>
      <trkpt lat="47.95484" lon="3.40592">
        <ele>80</ele>
        <time>2014-04-14T13:04:50Z</time>
      </trkpt>
      <trkpt lat="47.95483" lon="3.406">
        <ele>80</ele>
        <time>2014-04-14T13:04:56Z</time>
      </trkpt>
      <trkpt lat="47.95481" lon="3.40604">
        <ele>80</ele>
        <time>2014-04-14T13:05:11Z</time>
      </trkpt>
      <trkpt lat="47.9548" lon="3.40611">
        <ele>80</ele>
        <time>2014-04-14T13:05:15Z</time>
      </trkpt>
      <trkpt lat="47.95478" lon="3.40618">
        <ele>80</ele>
        <time>2014-04-14T13:05:19Z</time>
      </trkpt>
      <trkpt lat="47.95477" lon="3.40626">
        <ele>80</ele>
        <time>2014-04-14T13:05:23Z</time>
      </trkpt>
      <trkpt lat="47.95476" lon="3.40633">
        <ele>80</ele>
        <time>2014-04-14T13:05:27Z</time>
      </trkpt>
      <trkpt lat="47.95474" lon="3.40639">
        <ele>80</ele>
        <time>2014-04-14T13:05:31Z</time>
      </trkpt>
      <trkpt lat="47.95473" lon="3.40646">
        <ele>80</ele>
        <time>2014-04-14T13:05:35Z</time>
      </trkpt>
      <trkpt lat="47.95473" lon="3.40654">
        <ele>80</ele>
        <time>2014-04-14T13:05:38Z</time>
      </trkpt>
      <trkpt lat="47.95471" lon="3.40661">
        <ele>80</ele>
        <time>2014-04-14T13:05:42Z</time>
      </trkpt>
      <trkpt lat="47.95469" lon="3.40667">
        <ele>80</ele>
        <time>2014-04-14T13:05:46Z</time>
      </trkpt>
      <trkpt lat="47.95467" lon="3.40673">
        <ele>80</ele>
        <time>2014-04-14T13:05:50Z</time>
      </trkpt>
      <trkpt lat="47.95465" lon="3.40681">
        <ele>80</ele>
        <time>2014-04-14T13:05:55Z</time>
      </trkpt>
      <trkpt lat="47.95464" lon="3.40687">
        <ele>80</ele>
        <time>2014-04-14T13:05:59Z</time>
      </trkpt>
      <trkpt lat="47.95462" lon="3.40695">
        <ele>80</ele>
        <time>2014-04-14T13:06:04Z</time>
      </trkpt>
      <trkpt lat="47.95461" lon="3.40702">
        <ele>80</ele>
        <time>2014-04-14T13:06:08Z</time>
      </trkpt>
      <trkpt lat="47.9546" lon="3.4071">
        <ele>80</ele>
        <time>2014-04-14T13:06:14Z</time>
      </trkpt>
      <trkpt lat="47.95457" lon="3.4071">
        <ele>80</ele>
        <time>2014-04-14T13:07:01Z</time>
      </trkpt>
      <trkpt lat="47.95455" lon="3.40717">
        <ele>80</ele>
        <time>2014-04-14T13:07:34Z</time>
      </trkpt>
      <trkpt lat="47.95453" lon="3.40725">
        <ele>80</ele>
        <time>2014-04-14T13:07:38Z</time>
      </trkpt>
      <trkpt lat="47.9545" lon="3.40731">
        <ele>80</ele>
        <time>2014-04-14T13:07:43Z</time>
      </trkpt>
      <trkpt lat="47.95448" lon="3.40737">
        <ele>80</ele>
        <time>2014-04-14T13:07:47Z</time>
      </trkpt>
      <trkpt lat="47.95446" lon="3.40744">
        <ele>80</ele>
        <time>2014-04-14T13:07:51Z</time>
      </trkpt>
      <trkpt lat="47.95443" lon="3.40751">
        <ele>80</ele>
        <time>2014-04-14T13:08:00Z</time>
      </trkpt>
      <trkpt lat="47.95441" lon="3.40758">
        <ele>80</ele>
        <time>2014-04-14T13:08:04Z</time>
      </trkpt>
      <trkpt lat="47.95439" lon="3.40765">
        <ele>80</ele>
        <time>2014-04-14T13:08:08Z</time>
      </trkpt>
      <trkpt lat="47.95435" lon="3.4077">
        <ele>80</ele>
        <time>2014-04-14T13:08:13Z</time>
      </trkpt>
      <trkpt lat="47.95433" lon="3.40779">
        <ele>80</ele>
        <time>2014-04-14T13:08:17Z</time>
      </trkpt>
      <trkpt lat="47.9543" lon="3.40785">
        <ele>80</ele>
        <time>2014-04-14T13:08:21Z</time>
      </trkpt>
      <trkpt lat="47.95427" lon="3.40792">
        <ele>80</ele>
        <time>2014-04-14T13:08:26Z</time>
      </trkpt>
      <trkpt lat="47.95427" lon="3.40799">
        <ele>80</ele>
        <time>2014-04-14T13:08:30Z</time>
      </trkpt>
      <trkpt lat="47.95426" lon="3.40806">
        <ele>80</ele>
        <time>2014-04-14T13:08:35Z</time>
      </trkpt>
      <trkpt lat="47.95425" lon="3.40813">
        <ele>80</ele>
        <time>2014-04-14T13:08:41Z</time>
      </trkpt>
      <trkpt lat="47.95423" lon="3.4082">
        <ele>79</ele>
        <time>2014-04-14T13:08:44Z</time>
      </trkpt>
      <trkpt lat="47.95423" lon="3.40827">
        <ele>79</ele>
        <time>2014-04-14T13:08:48Z</time>
      </trkpt>
      <trkpt lat="47.95419" lon="3.40834">
        <ele>79</ele>
        <time>2014-04-14T13:08:54Z</time>
      </trkpt>
      <trkpt lat="47.95417" lon="3.40844">
        <ele>80</ele>
        <time>2014-04-14T13:08:57Z</time>
      </trkpt>
      <trkpt lat="47.95413" lon="3.40853">
        <ele>80</ele>
        <time>2014-04-14T13:09:00Z</time>
      </trkpt>
      <trkpt lat="47.95412" lon="3.4086">
        <ele>80</ele>
        <time>2014-04-14T13:09:03Z</time>
      </trkpt>
      <trkpt lat="47.95412" lon="3.40868">
        <ele>80</ele>
        <time>2014-04-14T13:09:07Z</time>
      </trkpt>
      <trkpt lat="47.95412" lon="3.40875">
        <ele>80</ele>
        <time>2014-04-14T13:09:11Z</time>
      </trkpt>
      <trkpt lat="47.95412" lon="3.40883">
        <ele>80</ele>
        <time>2014-04-14T13:09:15Z</time>
      </trkpt>
      <trkpt lat="47.95412" lon="3.4089">
        <ele>80</ele>
        <time>2014-04-14T13:09:20Z</time>
      </trkpt>
      <trkpt lat="47.9541" lon="3.40898">
        <ele>80</ele>
        <time>2014-04-14T13:09:24Z</time>
      </trkpt>
      <trkpt lat="47.95404" lon="3.40902">
        <ele>80</ele>
        <time>2014-04-14T13:09:27Z</time>
      </trkpt>
      <trkpt lat="47.95399" lon="3.40905">
        <ele>80</ele>
        <time>2014-04-14T13:09:29Z</time>
      </trkpt>
      <trkpt lat="47.95395" lon="3.40909">
        <ele>80</ele>
        <time>2014-04-14T13:09:33Z</time>
      </trkpt>
      <trkpt lat="47.95395" lon="3.40917">
        <ele>80</ele>
        <time>2014-04-14T13:09:38Z</time>
      </trkpt>
      <trkpt lat="47.95395" lon="3.40924">
        <ele>80</ele>
        <time>2014-04-14T13:09:45Z</time>
      </trkpt>
      <trkpt lat="47.95396" lon="3.40934">
        <ele>81</ele>
        <time>2014-04-14T13:09:49Z</time>
      </trkpt>
      <trkpt lat="47.95393" lon="3.40942">
        <ele>81</ele>
        <time>2014-04-14T13:09:52Z</time>
      </trkpt>
      <trkpt lat="47.95391" lon="3.40949">
        <ele>81</ele>
        <time>2014-04-14T13:09:56Z</time>
      </trkpt>
      <trkpt lat="47.95392" lon="3.40956">
        <ele>81</ele>
        <time>2014-04-14T13:10:00Z</time>
      </trkpt>
      <trkpt lat="47.95389" lon="3.40961">
        <ele>81</ele>
        <time>2014-04-14T13:10:04Z</time>
      </trkpt>
      <trkpt lat="47.95388" lon="3.40968">
        <ele>81</ele>
        <time>2014-04-14T13:10:09Z</time>
      </trkpt>
      <trkpt lat="47.95384" lon="3.40975">
        <ele>81</ele>
        <time>2014-04-14T13:10:12Z</time>
      </trkpt>
      <trkpt lat="47.95381" lon="3.40981">
        <ele>81</ele>
        <time>2014-04-14T13:10:15Z</time>
      </trkpt>
      <trkpt lat="47.9538" lon="3.40988">
        <ele>81</ele>
        <time>2014-04-14T13:10:20Z</time>
      </trkpt>
      <trkpt lat="47.95379" lon="3.40995">
        <ele>81</ele>
        <time>2014-04-14T13:10:25Z</time>
      </trkpt>
      <trkpt lat="47.95379" lon="3.41002">
        <ele>81</ele>
        <time>2014-04-14T13:10:30Z</time>
      </trkpt>
      <trkpt lat="47.95377" lon="3.4101">
        <ele>81</ele>
        <time>2014-04-14T13:10:35Z</time>
      </trkpt>
      <trkpt lat="47.95374" lon="3.41017">
        <ele>81</ele>
        <time>2014-04-14T13:10:39Z</time>
      </trkpt>
      <trkpt lat="47.95372" lon="3.41024">
        <ele>81</ele>
        <time>2014-04-14T13:10:45Z</time>
      </trkpt>
      <trkpt lat="47.9537" lon="3.41031">
        <ele>81</ele>
        <time>2014-04-14T13:10:49Z</time>
      </trkpt>
      <trkpt lat="47.95368" lon="3.41037">
        <ele>81</ele>
        <time>2014-04-14T13:10:52Z</time>
      </trkpt>
      <trkpt lat="47.95367" lon="3.41046">
        <ele>81</ele>
        <time>2014-04-14T13:10:57Z</time>
      </trkpt>
      <trkpt lat="47.95366" lon="3.41052">
        <ele>81</ele>
        <time>2014-04-14T13:11:01Z</time>
      </trkpt>
      <trkpt lat="47.95365" lon="3.4106">
        <ele>81</ele>
        <time>2014-04-14T13:11:06Z</time>
      </trkpt>
      <trkpt lat="47.95367" lon="3.41066">
        <ele>81</ele>
        <time>2014-04-14T13:11:09Z</time>
      </trkpt>
      <trkpt lat="47.95367" lon="3.41074">
        <ele>81</ele>
        <time>2014-04-14T13:11:14Z</time>
      </trkpt>
      <trkpt lat="47.95366" lon="3.41082">
        <ele>81</ele>
        <time>2014-04-14T13:11:19Z</time>
      </trkpt>
      <trkpt lat="47.95362" lon="3.41087">
        <ele>81</ele>
        <time>2014-04-14T13:11:23Z</time>
      </trkpt>
      <trkpt lat="47.95361" lon="3.41095">
        <ele>81</ele>
        <time>2014-04-14T13:11:29Z</time>
      </trkpt>
      <trkpt lat="47.95361" lon="3.41102">
        <ele>80</ele>
        <time>2014-04-14T13:11:32Z</time>
      </trkpt>
      <trkpt lat="47.95359" lon="3.41108">
        <ele>80</ele>
        <time>2014-04-14T13:11:35Z</time>
      </trkpt>
      <trkpt lat="47.95359" lon="3.41116">
        <ele>80</ele>
        <time>2014-04-14T13:11:41Z</time>
      </trkpt>
      <trkpt lat="47.95356" lon="3.41122">
        <ele>80</ele>
        <time>2014-04-14T13:11:44Z</time>
      </trkpt>
      <trkpt lat="47.95352" lon="3.41127">
        <ele>80</ele>
        <time>2014-04-14T13:11:47Z</time>
      </trkpt>
      <trkpt lat="47.95351" lon="3.41134">
        <ele>80</ele>
        <time>2014-04-14T13:11:51Z</time>
      </trkpt>
      <trkpt lat="47.95349" lon="3.41142">
        <ele>80</ele>
        <time>2014-04-14T13:11:55Z</time>
      </trkpt>
      <trkpt lat="47.95347" lon="3.41149">
        <ele>80</ele>
        <time>2014-04-14T13:12:00Z</time>
      </trkpt>
      <trkpt lat="47.95345" lon="3.41156">
        <ele>80</ele>
        <time>2014-04-14T13:12:04Z</time>
      </trkpt>
      <trkpt lat="47.95344" lon="3.41164">
        <ele>80</ele>
        <time>2014-04-14T13:12:11Z</time>
      </trkpt>
      <trkpt lat="47.95343" lon="3.41171">
        <ele>80</ele>
        <time>2014-04-14T13:12:14Z</time>
      </trkpt>
      <trkpt lat="47.9534" lon="3.41179">
        <ele>80</ele>
        <time>2014-04-14T13:12:18Z</time>
      </trkpt>
      <trkpt lat="47.95337" lon="3.41185">
        <ele>80</ele>
        <time>2014-04-14T13:12:23Z</time>
      </trkpt>
      <trkpt lat="47.95335" lon="3.41191">
        <ele>80</ele>
        <time>2014-04-14T13:12:27Z</time>
      </trkpt>
      <trkpt lat="47.95334" lon="3.41199">
        <ele>80</ele>
        <time>2014-04-14T13:12:33Z</time>
      </trkpt>
      <trkpt lat="47.95331" lon="3.41205">
        <ele>82</ele>
        <time>2014-04-14T13:12:38Z</time>
      </trkpt>
      <trkpt lat="47.95329" lon="3.41214">
        <ele>82</ele>
        <time>2014-04-14T13:12:43Z</time>
      </trkpt>
      <trkpt lat="47.95327" lon="3.41222">
        <ele>82</ele>
        <time>2014-04-14T13:12:46Z</time>
      </trkpt>
      <trkpt lat="47.95325" lon="3.41229">
        <ele>82</ele>
        <time>2014-04-14T13:12:50Z</time>
      </trkpt>
      <trkpt lat="47.95324" lon="3.41237">
        <ele>81</ele>
        <time>2014-04-14T13:12:54Z</time>
      </trkpt>
      <trkpt lat="47.95323" lon="3.41244">
        <ele>81</ele>
        <time>2014-04-14T13:12:57Z</time>
      </trkpt>
      <trkpt lat="47.95321" lon="3.41251">
        <ele>81</ele>
        <time>2014-04-14T13:13:01Z</time>
      </trkpt>
      <trkpt lat="47.9532" lon="3.41259">
        <ele>81</ele>
        <time>2014-04-14T13:13:06Z</time>
      </trkpt>
      <trkpt lat="47.95318" lon="3.41267">
        <ele>81</ele>
        <time>2014-04-14T13:13:10Z</time>
      </trkpt>
      <trkpt lat="47.95317" lon="3.41275">
        <ele>81</ele>
        <time>2014-04-14T13:13:17Z</time>
      </trkpt>
      <trkpt lat="47.95314" lon="3.41282">
        <ele>81</ele>
        <time>2014-04-14T13:13:21Z</time>
      </trkpt>
      <trkpt lat="47.95312" lon="3.41289">
        <ele>82</ele>
        <time>2014-04-14T13:13:26Z</time>
      </trkpt>
      <trkpt lat="47.95311" lon="3.41297">
        <ele>82</ele>
        <time>2014-04-14T13:13:30Z</time>
      </trkpt>
      <trkpt lat="47.9531" lon="3.41304">
        <ele>82</ele>
        <time>2014-04-14T13:13:34Z</time>
      </trkpt>
      <trkpt lat="47.95309" lon="3.41311">
        <ele>81</ele>
        <time>2014-04-14T13:13:37Z</time>
      </trkpt>
      <trkpt lat="47.95308" lon="3.41318">
        <ele>81</ele>
        <time>2014-04-14T13:13:41Z</time>
      </trkpt>
      <trkpt lat="47.95307" lon="3.41326">
        <ele>81</ele>
        <time>2014-04-14T13:13:46Z</time>
      </trkpt>
      <trkpt lat="47.95306" lon="3.41332">
        <ele>81</ele>
        <time>2014-04-14T13:13:51Z</time>
      </trkpt>
      <trkpt lat="47.95304" lon="3.41339">
        <ele>81</ele>
        <time>2014-04-14T13:13:55Z</time>
      </trkpt>
      <trkpt lat="47.95302" lon="3.41346">
        <ele>81</ele>
        <time>2014-04-14T13:14:00Z</time>
      </trkpt>
      <trkpt lat="47.953" lon="3.41354">
        <ele>81</ele>
        <time>2014-04-14T13:14:04Z</time>
      </trkpt>
      <trkpt lat="47.95299" lon="3.41361">
        <ele>81</ele>
        <time>2014-04-14T13:14:08Z</time>
      </trkpt>
      <trkpt lat="47.95297" lon="3.41369">
        <ele>81</ele>
        <time>2014-04-14T13:14:13Z</time>
      </trkpt>
      <trkpt lat="47.95296" lon="3.41376">
        <ele>81</ele>
        <time>2014-04-14T13:14:16Z</time>
      </trkpt>
      <trkpt lat="47.95296" lon="3.41383">
        <ele>81</ele>
        <time>2014-04-14T13:14:19Z</time>
      </trkpt>
      <trkpt lat="47.95294" lon="3.4139">
        <ele>81</ele>
        <time>2014-04-14T13:14:24Z</time>
      </trkpt>
      <trkpt lat="47.95293" lon="3.41398">
        <ele>81</ele>
        <time>2014-04-14T13:14:28Z</time>
      </trkpt>
      <trkpt lat="47.95293" lon="3.41405">
        <ele>81</ele>
        <time>2014-04-14T13:14:32Z</time>
      </trkpt>
      <trkpt lat="47.95291" lon="3.41411">
        <ele>81</ele>
        <time>2014-04-14T13:14:37Z</time>
      </trkpt>
      <trkpt lat="47.95291" lon="3.41419">
        <ele>81</ele>
        <time>2014-04-14T13:14:42Z</time>
      </trkpt>
      <trkpt lat="47.95289" lon="3.41426">
        <ele>81</ele>
        <time>2014-04-14T13:14:46Z</time>
      </trkpt>
      <trkpt lat="47.95289" lon="3.41433">
        <ele>81</ele>
        <time>2014-04-14T13:14:50Z</time>
      </trkpt>
      <trkpt lat="47.95289" lon="3.41441">
        <ele>81</ele>
        <time>2014-04-14T13:14:54Z</time>
      </trkpt>
      <trkpt lat="47.95288" lon="3.41448">
        <ele>81</ele>
        <time>2014-04-14T13:14:59Z</time>
      </trkpt>
      <trkpt lat="47.95288" lon="3.41456">
        <ele>81</ele>
        <time>2014-04-14T13:15:05Z</time>
      </trkpt>
      <trkpt lat="47.95287" lon="3.41463">
        <ele>81</ele>
        <time>2014-04-14T13:15:09Z</time>
      </trkpt>
      <trkpt lat="47.95286" lon="3.4147">
        <ele>81</ele>
        <time>2014-04-14T13:15:13Z</time>
      </trkpt>
      <trkpt lat="47.95285" lon="3.41477">
        <ele>81</ele>
        <time>2014-04-14T13:15:17Z</time>
      </trkpt>
      <trkpt lat="47.95284" lon="3.41485">
        <ele>81</ele>
        <time>2014-04-14T13:15:22Z</time>
      </trkpt>
      <trkpt lat="47.95282" lon="3.41492">
        <ele>81</ele>
        <time>2014-04-14T13:15:27Z</time>
      </trkpt>
      <trkpt lat="47.95282" lon="3.415">
        <ele>81</ele>
        <time>2014-04-14T13:15:32Z</time>
      </trkpt>
      <trkpt lat="47.95279" lon="3.41506">
        <ele>81</ele>
        <time>2014-04-14T13:15:37Z</time>
      </trkpt>
      <trkpt lat="47.95277" lon="3.41513">
        <ele>81</ele>
        <time>2014-04-14T13:15:42Z</time>
      </trkpt>
      <trkpt lat="47.95276" lon="3.4152">
        <ele>81</ele>
        <time>2014-04-14T13:15:46Z</time>
      </trkpt>
      <trkpt lat="47.95275" lon="3.41528">
        <ele>81</ele>
        <time>2014-04-14T13:15:52Z</time>
      </trkpt>
      <trkpt lat="47.95272" lon="3.41534">
        <ele>81</ele>
        <time>2014-04-14T13:15:55Z</time>
      </trkpt>
      <trkpt lat="47.95271" lon="3.41541">
        <ele>81</ele>
        <time>2014-04-14T13:15:59Z</time>
      </trkpt>
      <trkpt lat="47.95271" lon="3.41548">
        <ele>81</ele>
        <time>2014-04-14T13:16:03Z</time>
      </trkpt>
      <trkpt lat="47.95269" lon="3.41554">
        <ele>81</ele>
        <time>2014-04-14T13:16:07Z</time>
      </trkpt>
      <trkpt lat="47.95269" lon="3.41563">
        <ele>81</ele>
        <time>2014-04-14T13:16:12Z</time>
      </trkpt>
      <trkpt lat="47.95269" lon="3.41571">
        <ele>81</ele>
        <time>2014-04-14T13:16:16Z</time>
      </trkpt>
      <trkpt lat="47.95268" lon="3.41579">
        <ele>81</ele>
        <time>2014-04-14T13:16:21Z</time>
      </trkpt>
      <trkpt lat="47.95266" lon="3.41586">
        <ele>80</ele>
        <time>2014-04-14T13:16:26Z</time>
      </trkpt>
      <trkpt lat="47.95267" lon="3.41593">
        <ele>80</ele>
        <time>2014-04-14T13:16:33Z</time>
      </trkpt>
      <trkpt lat="47.95267" lon="3.416">
        <ele>80</ele>
        <time>2014-04-14T13:16:36Z</time>
      </trkpt>
      <trkpt lat="47.95266" lon="3.41607">
        <ele>80</ele>
        <time>2014-04-14T13:16:40Z</time>
      </trkpt>
      <trkpt lat="47.95263" lon="3.41614">
        <ele>80</ele>
        <time>2014-04-14T13:16:45Z</time>
      </trkpt>
      <trkpt lat="47.95264" lon="3.41621">
        <ele>80</ele>
        <time>2014-04-14T13:16:48Z</time>
      </trkpt>
      <trkpt lat="47.95263" lon="3.41629">
        <ele>80</ele>
        <time>2014-04-14T13:16:53Z</time>
      </trkpt>
      <trkpt lat="47.95262" lon="3.41637">
        <ele>79</ele>
        <time>2014-04-14T13:16:59Z</time>
      </trkpt>
      <trkpt lat="47.95262" lon="3.41644">
        <ele>79</ele>
        <time>2014-04-14T13:17:03Z</time>
      </trkpt>
      <trkpt lat="47.95263" lon="3.41652">
        <ele>79</ele>
        <time>2014-04-14T13:17:07Z</time>
      </trkpt>
      <trkpt lat="47.95262" lon="3.41659">
        <ele>79</ele>
        <time>2014-04-14T13:17:11Z</time>
      </trkpt>
      <trkpt lat="47.95261" lon="3.41666">
        <ele>79</ele>
        <time>2014-04-14T13:17:16Z</time>
      </trkpt>
      <trkpt lat="47.9526" lon="3.41673">
        <ele>79</ele>
        <time>2014-04-14T13:17:22Z</time>
      </trkpt>
      <trkpt lat="47.95258" lon="3.4168">
        <ele>79</ele>
        <time>2014-04-14T13:17:26Z</time>
      </trkpt>
      <trkpt lat="47.95257" lon="3.41687">
        <ele>79</ele>
        <time>2014-04-14T13:17:31Z</time>
      </trkpt>
      <trkpt lat="47.95255" lon="3.41694">
        <ele>79</ele>
        <time>2014-04-14T13:17:35Z</time>
      </trkpt>
      <trkpt lat="47.95254" lon="3.41702">
        <ele>79</ele>
        <time>2014-04-14T13:17:40Z</time>
      </trkpt>
      <trkpt lat="47.95253" lon="3.4171">
        <ele>79</ele>
        <time>2014-04-14T13:17:43Z</time>
      </trkpt>
      <trkpt lat="47.95252" lon="3.41717">
        <ele>79</ele>
        <time>2014-04-14T13:17:47Z</time>
      </trkpt>
      <trkpt lat="47.95251" lon="3.41724">
        <ele>79</ele>
        <time>2014-04-14T13:17:51Z</time>
      </trkpt>
      <trkpt lat="47.95249" lon="3.41731">
        <ele>80</ele>
        <time>2014-04-14T13:17:57Z</time>
      </trkpt>
      <trkpt lat="47.95247" lon="3.41738">
        <ele>79</ele>
        <time>2014-04-14T13:18:01Z</time>
      </trkpt>
      <trkpt lat="47.95246" lon="3.41745">
        <ele>79</ele>
        <time>2014-04-14T13:18:07Z</time>
      </trkpt>
      <trkpt lat="47.95245" lon="3.41753">
        <ele>79</ele>
        <time>2014-04-14T13:18:11Z</time>
      </trkpt>
      <trkpt lat="47.95245" lon="3.41761">
        <ele>80</ele>
        <time>2014-04-14T13:18:15Z</time>
      </trkpt>
      <trkpt lat="47.95245" lon="3.41769">
        <ele>80</ele>
        <time>2014-04-14T13:18:19Z</time>
      </trkpt>
      <trkpt lat="47.95243" lon="3.41777">
        <ele>80</ele>
        <time>2014-04-14T13:18:23Z</time>
      </trkpt>
      <trkpt lat="47.95242" lon="3.41785">
        <ele>81</ele>
        <time>2014-04-14T13:18:27Z</time>
      </trkpt>
      <trkpt lat="47.95243" lon="3.41793">
        <ele>81</ele>
        <time>2014-04-14T13:18:30Z</time>
      </trkpt>
      <trkpt lat="47.95245" lon="3.41801">
        <ele>81</ele>
        <time>2014-04-14T13:18:33Z</time>
      </trkpt>
      <trkpt lat="47.95243" lon="3.41807">
        <ele>81</ele>
        <time>2014-04-14T13:18:38Z</time>
      </trkpt>
      <trkpt lat="47.95242" lon="3.41814">
        <ele>81</ele>
        <time>2014-04-14T13:18:41Z</time>
      </trkpt>
      <trkpt lat="47.9524" lon="3.41822">
        <ele>81</ele>
        <time>2014-04-14T13:18:45Z</time>
      </trkpt>
      <trkpt lat="47.9524" lon="3.41829">
        <ele>80</ele>
        <time>2014-04-14T13:18:49Z</time>
      </trkpt>
      <trkpt lat="47.95239" lon="3.41836">
        <ele>81</ele>
        <time>2014-04-14T13:18:54Z</time>
      </trkpt>
      <trkpt lat="47.95237" lon="3.41844">
        <ele>81</ele>
        <time>2014-04-14T13:19:02Z</time>
      </trkpt>
      <trkpt lat="47.95237" lon="3.41851">
        <ele>81</ele>
        <time>2014-04-14T13:19:07Z</time>
      </trkpt>
      <trkpt lat="47.95234" lon="3.41858">
        <ele>82</ele>
        <time>2014-04-14T13:19:13Z</time>
      </trkpt>
      <trkpt lat="47.95233" lon="3.41866">
        <ele>82</ele>
        <time>2014-04-14T13:19:17Z</time>
      </trkpt>
      <trkpt lat="47.95231" lon="3.41873">
        <ele>82</ele>
        <time>2014-04-14T13:19:21Z</time>
      </trkpt>
      <trkpt lat="47.95231" lon="3.4188">
        <ele>82</ele>
        <time>2014-04-14T13:19:26Z</time>
      </trkpt>
      <trkpt lat="47.95231" lon="3.41887">
        <ele>82</ele>
        <time>2014-04-14T13:19:31Z</time>
      </trkpt>
      <trkpt lat="47.9523" lon="3.41895">
        <ele>82</ele>
        <time>2014-04-14T13:19:35Z</time>
      </trkpt>
      <trkpt lat="47.95229" lon="3.41903">
        <ele>82</ele>
        <time>2014-04-14T13:19:38Z</time>
      </trkpt>
      <trkpt lat="47.95228" lon="3.4191">
        <ele>82</ele>
        <time>2014-04-14T13:19:43Z</time>
      </trkpt>
      <trkpt lat="47.95227" lon="3.41918">
        <ele>82</ele>
        <time>2014-04-14T13:19:47Z</time>
      </trkpt>
      <trkpt lat="47.95226" lon="3.41925">
        <ele>82</ele>
        <time>2014-04-14T13:19:53Z</time>
      </trkpt>
      <trkpt lat="47.95222" lon="3.41932">
        <ele>82</ele>
        <time>2014-04-14T13:19:57Z</time>
      </trkpt>
      <trkpt lat="47.95221" lon="3.41939">
        <ele>82</ele>
        <time>2014-04-14T13:20:02Z</time>
      </trkpt>
      <trkpt lat="47.9522" lon="3.41947">
        <ele>82</ele>
        <time>2014-04-14T13:20:06Z</time>
      </trkpt>
      <trkpt lat="47.95217" lon="3.41953">
        <ele>82</ele>
        <time>2014-04-14T13:20:10Z</time>
      </trkpt>
      <trkpt lat="47.95217" lon="3.4196">
        <ele>82</ele>
        <time>2014-04-14T13:20:15Z</time>
      </trkpt>
      <trkpt lat="47.95215" lon="3.41967">
        <ele>82</ele>
        <time>2014-04-14T13:20:20Z</time>
      </trkpt>
      <trkpt lat="47.95215" lon="3.41975">
        <ele>82</ele>
        <time>2014-04-14T13:20:23Z</time>
      </trkpt>
      <trkpt lat="47.95215" lon="3.41984">
        <ele>82</ele>
        <time>2014-04-14T13:20:26Z</time>
      </trkpt>
      <trkpt lat="47.95216" lon="3.41991">
        <ele>82</ele>
        <time>2014-04-14T13:20:31Z</time>
      </trkpt>
      <trkpt lat="47.95215" lon="3.41998">
        <ele>82</ele>
        <time>2014-04-14T13:20:35Z</time>
      </trkpt>
      <trkpt lat="47.95213" lon="3.42004">
        <ele>82</ele>
        <time>2014-04-14T13:20:39Z</time>
      </trkpt>
      <trkpt lat="47.95212" lon="3.42011">
        <ele>82</ele>
        <time>2014-04-14T13:20:44Z</time>
      </trkpt>
      <trkpt lat="47.95212" lon="3.42018">
        <ele>82</ele>
        <time>2014-04-14T13:20:47Z</time>
      </trkpt>
      <trkpt lat="47.95211" lon="3.42026">
        <ele>82</ele>
        <time>2014-04-14T13:20:52Z</time>
      </trkpt>
      <trkpt lat="47.9521" lon="3.42034">
        <ele>82</ele>
        <time>2014-04-14T13:20:57Z</time>
      </trkpt>
      <trkpt lat="47.95209" lon="3.42042">
        <ele>82</ele>
        <time>2014-04-14T13:21:03Z</time>
      </trkpt>
      <trkpt lat="47.95207" lon="3.42051">
        <ele>82</ele>
        <time>2014-04-14T13:21:07Z</time>
      </trkpt>
      <trkpt lat="47.95207" lon="3.42059">
        <ele>82</ele>
        <time>2014-04-14T13:21:12Z</time>
      </trkpt>
      <trkpt lat="47.95209" lon="3.42066">
        <ele>82</ele>
        <time>2014-04-14T13:21:16Z</time>
      </trkpt>
      <trkpt lat="47.95209" lon="3.42073">
        <ele>82</ele>
        <time>2014-04-14T13:21:22Z</time>
      </trkpt>
      <trkpt lat="47.95211" lon="3.4208">
        <ele>82</ele>
        <time>2014-04-14T13:21:27Z</time>
      </trkpt>
      <trkpt lat="47.95209" lon="3.42088">
        <ele>82</ele>
        <time>2014-04-14T13:21:31Z</time>
      </trkpt>
      <trkpt lat="47.95207" lon="3.42096">
        <ele>82</ele>
        <time>2014-04-14T13:21:37Z</time>
      </trkpt>
      <trkpt lat="47.95206" lon="3.42104">
        <ele>82</ele>
        <time>2014-04-14T13:21:41Z</time>
      </trkpt>
      <trkpt lat="47.95202" lon="3.42101">
        <ele>82</ele>
        <time>2014-04-14T13:21:50Z</time>
      </trkpt>
      <trkpt lat="47.95201" lon="3.42109">
        <ele>82</ele>
        <time>2014-04-14T13:22:00Z</time>
      </trkpt>
      <trkpt lat="47.95202" lon="3.42117">
        <ele>82</ele>
        <time>2014-04-14T13:22:05Z</time>
      </trkpt>
      <trkpt lat="47.95201" lon="3.42124">
        <ele>82</ele>
        <time>2014-04-14T13:22:09Z</time>
      </trkpt>
      <trkpt lat="47.95201" lon="3.42131">
        <ele>82</ele>
        <time>2014-04-14T13:22:12Z</time>
      </trkpt>
      <trkpt lat="47.952" lon="3.42137">
        <ele>82</ele>
        <time>2014-04-14T13:22:16Z</time>
      </trkpt>
      <trkpt lat="47.952" lon="3.42146">
        <ele>82</ele>
        <time>2014-04-14T13:22:20Z</time>
      </trkpt>
      <trkpt lat="47.952" lon="3.42153">
        <ele>82</ele>
        <time>2014-04-14T13:22:23Z</time>
      </trkpt>
      <trkpt lat="47.95199" lon="3.4216">
        <ele>82</ele>
        <time>2014-04-14T13:22:33Z</time>
      </trkpt>
      <trkpt lat="47.95199" lon="3.42167">
        <ele>82</ele>
        <time>2014-04-14T13:22:40Z</time>
      </trkpt>
      <trkpt lat="47.95199" lon="3.42174">
        <ele>82</ele>
        <time>2014-04-14T13:22:45Z</time>
      </trkpt>
      <trkpt lat="47.952" lon="3.42181">
        <ele>83</ele>
        <time>2014-04-14T13:22:48Z</time>
      </trkpt>
      <trkpt lat="47.95199" lon="3.42189">
        <ele>83</ele>
        <time>2014-04-14T13:22:54Z</time>
      </trkpt>
      <trkpt lat="47.95199" lon="3.42196">
        <ele>83</ele>
        <time>2014-04-14T13:22:58Z</time>
      </trkpt>
      <trkpt lat="47.95197" lon="3.42203">
        <ele>83</ele>
        <time>2014-04-14T13:23:04Z</time>
      </trkpt>
      <trkpt lat="47.95196" lon="3.42212">
        <ele>83</ele>
        <time>2014-04-14T13:23:09Z</time>
      </trkpt>
      <trkpt lat="47.95195" lon="3.42218">
        <ele>83</ele>
        <time>2014-04-14T13:23:14Z</time>
      </trkpt>
      <trkpt lat="47.95195" lon="3.42228">
        <ele>83</ele>
        <time>2014-04-14T13:23:18Z</time>
      </trkpt>
      <trkpt lat="47.95194" lon="3.42235">
        <ele>83</ele>
        <time>2014-04-14T13:23:24Z</time>
      </trkpt>
      <trkpt lat="47.95194" lon="3.42242">
        <ele>83</ele>
        <time>2014-04-14T13:23:28Z</time>
      </trkpt>
      <trkpt lat="47.95194" lon="3.4225">
        <ele>83</ele>
        <time>2014-04-14T13:23:33Z</time>
      </trkpt>
      <trkpt lat="47.95193" lon="3.42258">
        <ele>84</ele>
        <time>2014-04-14T13:23:37Z</time>
      </trkpt>
      <trkpt lat="47.95193" lon="3.42266">
        <ele>84</ele>
        <time>2014-04-14T13:23:41Z</time>
      </trkpt>
      <trkpt lat="47.95193" lon="3.42271">
        <ele>84</ele>
        <time>2014-04-14T13:23:49Z</time>
      </trkpt>
      <trkpt lat="47.95193" lon="3.42278">
        <ele>84</ele>
        <time>2014-04-14T13:23:55Z</time>
      </trkpt>
      <trkpt lat="47.95192" lon="3.42285">
        <ele>84</ele>
        <time>2014-04-14T13:24:00Z</time>
      </trkpt>
      <trkpt lat="47.95192" lon="3.42292">
        <ele>84</ele>
        <time>2014-04-14T13:24:05Z</time>
      </trkpt>
      <trkpt lat="47.95191" lon="3.423">
        <ele>85</ele>
        <time>2014-04-14T13:24:11Z</time>
      </trkpt>
      <trkpt lat="47.95189" lon="3.42309">
        <ele>85</ele>
        <time>2014-04-14T13:24:15Z</time>
      </trkpt>
      <trkpt lat="47.95189" lon="3.42316">
        <ele>85</ele>
        <time>2014-04-14T13:24:19Z</time>
      </trkpt>
      <trkpt lat="47.95188" lon="3.42323">
        <ele>85</ele>
        <time>2014-04-14T13:24:22Z</time>
      </trkpt>
      <trkpt lat="47.95188" lon="3.42331">
        <ele>85</ele>
        <time>2014-04-14T13:24:27Z</time>
      </trkpt>
      <trkpt lat="47.95187" lon="3.42338">
        <ele>86</ele>
        <time>2014-04-14T13:24:32Z</time>
      </trkpt>
      <trkpt lat="47.95187" lon="3.42345">
        <ele>86</ele>
        <time>2014-04-14T13:24:36Z</time>
      </trkpt>
      <trkpt lat="47.95187" lon="3.42352">
        <ele>86</ele>
        <time>2014-04-14T13:24:40Z</time>
      </trkpt>
      <trkpt lat="47.95186" lon="3.42359">
        <ele>86</ele>
        <time>2014-04-14T13:24:45Z</time>
      </trkpt>
      <trkpt lat="47.95188" lon="3.42366">
        <ele>86</ele>
        <time>2014-04-14T13:24:48Z</time>
      </trkpt>
      <trkpt lat="47.95189" lon="3.42373">
        <ele>86</ele>
        <time>2014-04-14T13:24:52Z</time>
      </trkpt>
      <trkpt lat="47.9519" lon="3.4238">
        <ele>86</ele>
        <time>2014-04-14T13:24:56Z</time>
      </trkpt>
      <trkpt lat="47.95189" lon="3.42388">
        <ele>86</ele>
        <time>2014-04-14T13:25:01Z</time>
      </trkpt>
      <trkpt lat="47.95187" lon="3.42395">
        <ele>86</ele>
        <time>2014-04-14T13:25:06Z</time>
      </trkpt>
      <trkpt lat="47.95187" lon="3.42402">
        <ele>86</ele>
        <time>2014-04-14T13:25:11Z</time>
      </trkpt>
      <trkpt lat="47.95187" lon="3.42409">
        <ele>86</ele>
        <time>2014-04-14T13:25:15Z</time>
      </trkpt>
      <trkpt lat="47.95187" lon="3.42417">
        <ele>87</ele>
        <time>2014-04-14T13:25:21Z</time>
      </trkpt>
      <trkpt lat="47.95187" lon="3.42425">
        <ele>87</ele>
        <time>2014-04-14T13:25:25Z</time>
      </trkpt>
      <trkpt lat="47.95187" lon="3.42432">
        <ele>87</ele>
        <time>2014-04-14T13:25:29Z</time>
      </trkpt>
      <trkpt lat="47.95187" lon="3.4244">
        <ele>87</ele>
        <time>2014-04-14T13:25:33Z</time>
      </trkpt>
      <trkpt lat="47.95186" lon="3.42448">
        <ele>87</ele>
        <time>2014-04-14T13:25:39Z</time>
      </trkpt>
      <trkpt lat="47.95185" lon="3.42456">
        <ele>87</ele>
        <time>2014-04-14T13:25:45Z</time>
      </trkpt>
      <trkpt lat="47.95185" lon="3.42462">
        <ele>87</ele>
        <time>2014-04-14T13:25:54Z</time>
      </trkpt>
      <trkpt lat="47.95184" lon="3.4247">
        <ele>87</ele>
        <time>2014-04-14T13:26:07Z</time>
      </trkpt>
      <trkpt lat="47.95183" lon="3.42478">
        <ele>87</ele>
        <time>2014-04-14T13:26:11Z</time>
      </trkpt>
      <trkpt lat="47.95183" lon="3.42486">
        <ele>87</ele>
        <time>2014-04-14T13:26:16Z</time>
      </trkpt>
      <trkpt lat="47.95182" lon="3.42494">
        <ele>88</ele>
        <time>2014-04-14T13:26:21Z</time>
      </trkpt>
      <trkpt lat="47.95181" lon="3.42502">
        <ele>88</ele>
        <time>2014-04-14T13:26:27Z</time>
      </trkpt>
      <trkpt lat="47.95183" lon="3.42509">
        <ele>88</ele>
        <time>2014-04-14T13:26:30Z</time>
      </trkpt>
      <trkpt lat="47.95183" lon="3.42517">
        <ele>88</ele>
        <time>2014-04-14T13:26:36Z</time>
      </trkpt>
      <trkpt lat="47.95181" lon="3.42524">
        <ele>88</ele>
        <time>2014-04-14T13:26:43Z</time>
      </trkpt>
      <trkpt lat="47.95179" lon="3.42529">
        <ele>88</ele>
        <time>2014-04-14T13:26:46Z</time>
      </trkpt>
      <trkpt lat="47.95178" lon="3.42537">
        <ele>88</ele>
        <time>2014-04-14T13:26:51Z</time>
      </trkpt>
      <trkpt lat="47.95178" lon="3.42545">
        <ele>88</ele>
        <time>2014-04-14T13:26:55Z</time>
      </trkpt>
      <trkpt lat="47.95177" lon="3.42551">
        <ele>88</ele>
        <time>2014-04-14T13:27:00Z</time>
      </trkpt>
      <trkpt lat="47.95176" lon="3.42559">
        <ele>88</ele>
        <time>2014-04-14T13:27:04Z</time>
      </trkpt>
      <trkpt lat="47.95176" lon="3.42567">
        <ele>89</ele>
        <time>2014-04-14T13:27:09Z</time>
      </trkpt>
      <trkpt lat="47.95176" lon="3.42574">
        <ele>89</ele>
        <time>2014-04-14T13:27:13Z</time>
      </trkpt>
      <trkpt lat="47.95175" lon="3.42581">
        <ele>89</ele>
        <time>2014-04-14T13:27:18Z</time>
      </trkpt>
      <trkpt lat="47.95174" lon="3.42589">
        <ele>90</ele>
        <time>2014-04-14T13:27:27Z</time>
      </trkpt>
      <trkpt lat="47.95175" lon="3.42597">
        <ele>90</ele>
        <time>2014-04-14T13:27:32Z</time>
      </trkpt>
      <trkpt lat="47.95175" lon="3.42604">
        <ele>89</ele>
        <time>2014-04-14T13:27:36Z</time>
      </trkpt>
      <trkpt lat="47.95174" lon="3.42612">
        <ele>89</ele>
        <time>2014-04-14T13:27:41Z</time>
      </trkpt>
      <trkpt lat="47.95173" lon="3.4262">
        <ele>89</ele>
        <time>2014-04-14T13:27:47Z</time>
      </trkpt>
      <trkpt lat="47.95171" lon="3.42626">
        <ele>90</ele>
        <time>2014-04-14T13:27:52Z</time>
      </trkpt>
      <trkpt lat="47.95169" lon="3.42633">
        <ele>90</ele>
        <time>2014-04-14T13:27:56Z</time>
      </trkpt>
      <trkpt lat="47.95169" lon="3.4264">
        <ele>90</ele>
        <time>2014-04-14T13:28:01Z</time>
      </trkpt>
      <trkpt lat="47.95169" lon="3.42648">
        <ele>90</ele>
        <time>2014-04-14T13:28:05Z</time>
      </trkpt>
      <trkpt lat="47.95168" lon="3.42654">
        <ele>90</ele>
        <time>2014-04-14T13:28:10Z</time>
      </trkpt>
      <trkpt lat="47.95167" lon="3.42661">
        <ele>91</ele>
        <time>2014-04-14T13:28:13Z</time>
      </trkpt>
      <trkpt lat="47.95166" lon="3.42668">
        <ele>91</ele>
        <time>2014-04-14T13:28:18Z</time>
      </trkpt>
      <trkpt lat="47.95166" lon="3.42676">
        <ele>92</ele>
        <time>2014-04-14T13:28:23Z</time>
      </trkpt>
      <trkpt lat="47.95167" lon="3.42683">
        <ele>91</ele>
        <time>2014-04-14T13:28:28Z</time>
      </trkpt>
      <trkpt lat="47.95168" lon="3.42692">
        <ele>91</ele>
        <time>2014-04-14T13:28:33Z</time>
      </trkpt>
      <trkpt lat="47.95169" lon="3.42699">
        <ele>91</ele>
        <time>2014-04-14T13:28:37Z</time>
      </trkpt>
      <trkpt lat="47.95167" lon="3.42707">
        <ele>91</ele>
        <time>2014-04-14T13:28:42Z</time>
      </trkpt>
      <trkpt lat="47.95166" lon="3.42714">
        <ele>93</ele>
        <time>2014-04-14T13:28:47Z</time>
      </trkpt>
      <trkpt lat="47.95167" lon="3.42721">
        <ele>93</ele>
        <time>2014-04-14T13:28:50Z</time>
      </trkpt>
      <trkpt lat="47.95166" lon="3.42728">
        <ele>93</ele>
        <time>2014-04-14T13:28:54Z</time>
      </trkpt>
      <trkpt lat="47.95166" lon="3.42735">
        <ele>93</ele>
        <time>2014-04-14T13:28:58Z</time>
      </trkpt>
      <trkpt lat="47.95164" lon="3.42742">
        <ele>93</ele>
        <time>2014-04-14T13:29:03Z</time>
      </trkpt>
      <trkpt lat="47.95162" lon="3.4275">
        <ele>93</ele>
        <time>2014-04-14T13:29:07Z</time>
      </trkpt>
      <trkpt lat="47.95161" lon="3.42757">
        <ele>93</ele>
        <time>2014-04-14T13:29:12Z</time>
      </trkpt>
      <trkpt lat="47.9516" lon="3.42765">
        <ele>93</ele>
        <time>2014-04-14T13:29:17Z</time>
      </trkpt>
      <trkpt lat="47.95158" lon="3.42772">
        <ele>94</ele>
        <time>2014-04-14T13:29:22Z</time>
      </trkpt>
      <trkpt lat="47.95154" lon="3.42778">
        <ele>94</ele>
        <time>2014-04-14T13:29:26Z</time>
      </trkpt>
      <trkpt lat="47.95152" lon="3.42785">
        <ele>94</ele>
        <time>2014-04-14T13:29:31Z</time>
      </trkpt>
      <trkpt lat="47.95151" lon="3.42791">
        <ele>94</ele>
        <time>2014-04-14T13:29:35Z</time>
      </trkpt>
      <trkpt lat="47.9515" lon="3.42798">
        <ele>94</ele>
        <time>2014-04-14T13:29:39Z</time>
      </trkpt>
      <trkpt lat="47.95148" lon="3.42806">
        <ele>94</ele>
        <time>2014-04-14T13:29:44Z</time>
      </trkpt>
      <trkpt lat="47.95147" lon="3.42814">
        <ele>94</ele>
        <time>2014-04-14T13:29:49Z</time>
      </trkpt>
      <trkpt lat="47.95146" lon="3.42821">
        <ele>94</ele>
        <time>2014-04-14T13:29:53Z</time>
      </trkpt>
      <trkpt lat="47.95146" lon="3.42829">
        <ele>94</ele>
        <time>2014-04-14T13:29:57Z</time>
      </trkpt>
      <trkpt lat="47.95146" lon="3.42835">
        <ele>94</ele>
        <time>2014-04-14T13:30:01Z</time>
      </trkpt>
      <trkpt lat="47.95147" lon="3.42843">
        <ele>94</ele>
        <time>2014-04-14T13:30:05Z</time>
      </trkpt>
      <trkpt lat="47.95146" lon="3.42851">
        <ele>94</ele>
        <time>2014-04-14T13:30:09Z</time>
      </trkpt>
      <trkpt lat="47.95144" lon="3.42857">
        <ele>94</ele>
        <time>2014-04-14T13:30:15Z</time>
      </trkpt>
      <trkpt lat="47.95141" lon="3.42862">
        <ele>94</ele>
        <time>2014-04-14T13:30:19Z</time>
      </trkpt>
      <trkpt lat="47.9514" lon="3.42871">
        <ele>94</ele>
        <time>2014-04-14T13:30:25Z</time>
      </trkpt>
      <trkpt lat="47.95141" lon="3.42878">
        <ele>94</ele>
        <time>2014-04-14T13:30:28Z</time>
      </trkpt>
      <trkpt lat="47.95141" lon="3.42885">
        <ele>94</ele>
        <time>2014-04-14T13:30:33Z</time>
      </trkpt>
      <trkpt lat="47.95141" lon="3.42893">
        <ele>94</ele>
        <time>2014-04-14T13:30:37Z</time>
      </trkpt>
      <trkpt lat="47.95139" lon="3.429">
        <ele>94</ele>
        <time>2014-04-14T13:30:42Z</time>
      </trkpt>
      <trkpt lat="47.95137" lon="3.42912">
        <ele>94</ele>
        <time>2014-04-14T13:30:49Z</time>
      </trkpt>
      <trkpt lat="47.95137" lon="3.42919">
        <ele>95</ele>
        <time>2014-04-14T13:30:52Z</time>
      </trkpt>
      <trkpt lat="47.95137" lon="3.42924">
        <ele>95</ele>
        <time>2014-04-14T13:31:09Z</time>
      </trkpt>
      <trkpt lat="47.95136" lon="3.42931">
        <ele>95</ele>
        <time>2014-04-14T13:31:13Z</time>
      </trkpt>
      <trkpt lat="47.95134" lon="3.42939">
        <ele>95</ele>
        <time>2014-04-14T13:31:18Z</time>
      </trkpt>
      <trkpt lat="47.95135" lon="3.42946">
        <ele>95</ele>
        <time>2014-04-14T13:31:23Z</time>
      </trkpt>
      <trkpt lat="47.95134" lon="3.42953">
        <ele>95</ele>
        <time>2014-04-14T13:31:28Z</time>
      </trkpt>
      <trkpt lat="47.95134" lon="3.42959">
        <ele>95</ele>
        <time>2014-04-14T13:31:31Z</time>
      </trkpt>
      <trkpt lat="47.95132" lon="3.42966">
        <ele>95</ele>
        <time>2014-04-14T13:31:35Z</time>
      </trkpt>
      <trkpt lat="47.95129" lon="3.42972">
        <ele>95</ele>
        <time>2014-04-14T13:31:39Z</time>
      </trkpt>
      <trkpt lat="47.95129" lon="3.42979">
        <ele>95</ele>
        <time>2014-04-14T13:31:44Z</time>
      </trkpt>
      <trkpt lat="47.95129" lon="3.42987">
        <ele>95</ele>
        <time>2014-04-14T13:31:49Z</time>
      </trkpt>
      <trkpt lat="47.95128" lon="3.42994">
        <ele>95</ele>
        <time>2014-04-14T13:31:53Z</time>
      </trkpt>
      <trkpt lat="47.95127" lon="3.43001">
        <ele>96</ele>
        <time>2014-04-14T13:31:57Z</time>
      </trkpt>
      <trkpt lat="47.95125" lon="3.43023">
        <ele>96</ele>
        <time>2014-04-14T13:32:10Z</time>
      </trkpt>
      <trkpt lat="47.95124" lon="3.43031">
        <ele>96</ele>
        <time>2014-04-14T13:32:15Z</time>
      </trkpt>
      <trkpt lat="47.95122" lon="3.43038">
        <ele>96</ele>
        <time>2014-04-14T13:32:21Z</time>
      </trkpt>
      <trkpt lat="47.95122" lon="3.43046">
        <ele>96</ele>
        <time>2014-04-14T13:32:26Z</time>
      </trkpt>
      <trkpt lat="47.95119" lon="3.43053">
        <ele>96</ele>
        <time>2014-04-14T13:32:31Z</time>
      </trkpt>
      <trkpt lat="47.95118" lon="3.4306">
        <ele>96</ele>
        <time>2014-04-14T13:32:35Z</time>
      </trkpt>
      <trkpt lat="47.95118" lon="3.43067">
        <ele>96</ele>
        <time>2014-04-14T13:32:39Z</time>
      </trkpt>
      <trkpt lat="47.95117" lon="3.43075">
        <ele>96</ele>
        <time>2014-04-14T13:32:44Z</time>
      </trkpt>
      <trkpt lat="47.95116" lon="3.43082">
        <ele>96</ele>
        <time>2014-04-14T13:32:48Z</time>
      </trkpt>
      <trkpt lat="47.95115" lon="3.4309">
        <ele>96</ele>
        <time>2014-04-14T13:32:55Z</time>
      </trkpt>
      <trkpt lat="47.95113" lon="3.43097">
        <ele>96</ele>
        <time>2014-04-14T13:32:59Z</time>
      </trkpt>
      <trkpt lat="47.95109" lon="3.43103">
        <ele>96</ele>
        <time>2014-04-14T13:33:03Z</time>
      </trkpt>
      <trkpt lat="47.95109" lon="3.4311">
        <ele>96</ele>
        <time>2014-04-14T13:33:07Z</time>
      </trkpt>
      <trkpt lat="47.95109" lon="3.43118">
        <ele>96</ele>
        <time>2014-04-14T13:33:13Z</time>
      </trkpt>
      <trkpt lat="47.95109" lon="3.43125">
        <ele>96</ele>
        <time>2014-04-14T13:33:17Z</time>
      </trkpt>
      <trkpt lat="47.9511" lon="3.43133">
        <ele>96</ele>
        <time>2014-04-14T13:33:20Z</time>
      </trkpt>
      <trkpt lat="47.95109" lon="3.43141">
        <ele>96</ele>
        <time>2014-04-14T13:33:23Z</time>
      </trkpt>
      <trkpt lat="47.95107" lon="3.43148">
        <ele>96</ele>
        <time>2014-04-14T13:33:27Z</time>
      </trkpt>
      <trkpt lat="47.95104" lon="3.43148">
        <ele>96</ele>
        <time>2014-04-14T13:33:34Z</time>
      </trkpt>
      <trkpt lat="47.95104" lon="3.43155">
        <ele>96</ele>
        <time>2014-04-14T13:33:41Z</time>
      </trkpt>
      <trkpt lat="47.95105" lon="3.43163">
        <ele>96</ele>
        <time>2014-04-14T13:33:47Z</time>
      </trkpt>
      <trkpt lat="47.95104" lon="3.43169">
        <ele>96</ele>
        <time>2014-04-14T13:33:51Z</time>
      </trkpt>
      <trkpt lat="47.95104" lon="3.43176">
        <ele>96</ele>
        <time>2014-04-14T13:33:56Z</time>
      </trkpt>
      <trkpt lat="47.95104" lon="3.43186">
        <ele>96</ele>
        <time>2014-04-14T13:34:01Z</time>
      </trkpt>
      <trkpt lat="47.951" lon="3.43189">
        <ele>96</ele>
        <time>2014-04-14T13:34:05Z</time>
      </trkpt>
      <trkpt lat="47.951" lon="3.43199">
        <ele>96</ele>
        <time>2014-04-14T13:34:10Z</time>
      </trkpt>
      <trkpt lat="47.951" lon="3.43206">
        <ele>96</ele>
        <time>2014-04-14T13:34:13Z</time>
      </trkpt>
      <trkpt lat="47.95097" lon="3.43213">
        <ele>96</ele>
        <time>2014-04-14T13:34:17Z</time>
      </trkpt>
      <trkpt lat="47.95095" lon="3.43216">
        <ele>96</ele>
        <time>2014-04-14T13:34:23Z</time>
      </trkpt>
      <trkpt lat="47.95096" lon="3.43223">
        <ele>96</ele>
        <time>2014-04-14T13:34:43Z</time>
      </trkpt>
      <trkpt lat="47.95095" lon="3.4323">
        <ele>96</ele>
        <time>2014-04-14T13:34:47Z</time>
      </trkpt>
      <trkpt lat="47.95095" lon="3.43238">
        <ele>96</ele>
        <time>2014-04-14T13:34:51Z</time>
      </trkpt>
      <trkpt lat="47.95094" lon="3.43245">
        <ele>97</ele>
        <time>2014-04-14T13:34:58Z</time>
      </trkpt>
      <trkpt lat="47.95094" lon="3.43253">
        <ele>97</ele>
        <time>2014-04-14T13:35:03Z</time>
      </trkpt>
      <trkpt lat="47.95094" lon="3.4326">
        <ele>96</ele>
        <time>2014-04-14T13:35:06Z</time>
      </trkpt>
      <trkpt lat="47.95094" lon="3.43267">
        <ele>96</ele>
        <time>2014-04-14T13:35:10Z</time>
      </trkpt>
      <trkpt lat="47.95093" lon="3.43276">
        <ele>96</ele>
        <time>2014-04-14T13:35:14Z</time>
      </trkpt>
      <trkpt lat="47.95094" lon="3.43284">
        <ele>96</ele>
        <time>2014-04-14T13:35:18Z</time>
      </trkpt>
      <trkpt lat="47.95095" lon="3.43293">
        <ele>96</ele>
        <time>2014-04-14T13:35:22Z</time>
      </trkpt>
      <trkpt lat="47.95094" lon="3.43301">
        <ele>96</ele>
        <time>2014-04-14T13:35:26Z</time>
      </trkpt>
      <trkpt lat="47.9509" lon="3.43307">
        <ele>96</ele>
        <time>2014-04-14T13:35:30Z</time>
      </trkpt>
      <trkpt lat="47.95091" lon="3.43314">
        <ele>96</ele>
        <time>2014-04-14T13:35:36Z</time>
      </trkpt>
      <trkpt lat="47.9509" lon="3.43322">
        <ele>96</ele>
        <time>2014-04-14T13:35:41Z</time>
      </trkpt>
      <trkpt lat="47.9509" lon="3.4333">
        <ele>97</ele>
        <time>2014-04-14T13:35:45Z</time>
      </trkpt>
      <trkpt lat="47.95089" lon="3.43339">
        <ele>97</ele>
        <time>2014-04-14T13:35:48Z</time>
      </trkpt>
      <trkpt lat="47.95089" lon="3.43346">
        <ele>96</ele>
        <time>2014-04-14T13:35:51Z</time>
      </trkpt>
      <trkpt lat="47.95085" lon="3.43351">
        <ele>96</ele>
        <time>2014-04-14T13:35:54Z</time>
      </trkpt>
      <trkpt lat="47.95083" lon="3.43357">
        <ele>98</ele>
        <time>2014-04-14T13:35:59Z</time>
      </trkpt>
      <trkpt lat="47.95083" lon="3.43365">
        <ele>98</ele>
        <time>2014-04-14T13:36:05Z</time>
      </trkpt>
      <trkpt lat="47.95081" lon="3.43372">
        <ele>98</ele>
        <time>2014-04-14T13:36:11Z</time>
      </trkpt>
      <trkpt lat="47.9508" lon="3.43379">
        <ele>98</ele>
        <time>2014-04-14T13:36:14Z</time>
      </trkpt>
      <trkpt lat="47.95078" lon="3.43386">
        <ele>98</ele>
        <time>2014-04-14T13:36:19Z</time>
      </trkpt>
      <trkpt lat="47.95077" lon="3.43393">
        <ele>98</ele>
        <time>2014-04-14T13:36:23Z</time>
      </trkpt>
      <trkpt lat="47.95077" lon="3.434">
        <ele>97</ele>
        <time>2014-04-14T13:36:28Z</time>
      </trkpt>
      <trkpt lat="47.95076" lon="3.43408">
        <ele>97</ele>
        <time>2014-04-14T13:36:33Z</time>
      </trkpt>
      <trkpt lat="47.95079" lon="3.43418">
        <ele>97</ele>
        <time>2014-04-14T13:36:40Z</time>
      </trkpt>
      <trkpt lat="47.9508" lon="3.43425">
        <ele>97</ele>
        <time>2014-04-14T13:36:43Z</time>
      </trkpt>
      <trkpt lat="47.95079" lon="3.43433">
        <ele>97</ele>
        <time>2014-04-14T13:36:46Z</time>
      </trkpt>
      <trkpt lat="47.95077" lon="3.43439">
        <ele>97</ele>
        <time>2014-04-14T13:36:53Z</time>
      </trkpt>
      <trkpt lat="47.95077" lon="3.43447">
        <ele>97</ele>
        <time>2014-04-14T13:36:59Z</time>
      </trkpt>
      <trkpt lat="47.95075" lon="3.43454">
        <ele>97</ele>
        <time>2014-04-14T13:37:04Z</time>
      </trkpt>
      <trkpt lat="47.95074" lon="3.43462">
        <ele>97</ele>
        <time>2014-04-14T13:37:08Z</time>
      </trkpt>
      <trkpt lat="47.95072" lon="3.4347">
        <ele>97</ele>
        <time>2014-04-14T13:37:12Z</time>
      </trkpt>
      <trkpt lat="47.9507" lon="3.43476">
        <ele>97</ele>
        <time>2014-04-14T13:37:16Z</time>
      </trkpt>
      <trkpt lat="47.95068" lon="3.43483">
        <ele>97</ele>
        <time>2014-04-14T13:37:20Z</time>
      </trkpt>
      <trkpt lat="47.95067" lon="3.43491">
        <ele>96</ele>
        <time>2014-04-14T13:37:25Z</time>
      </trkpt>
      <trkpt lat="47.95065" lon="3.43497">
        <ele>96</ele>
        <time>2014-04-14T13:37:29Z</time>
      </trkpt>
      <trkpt lat="47.95064" lon="3.43505">
        <ele>96</ele>
        <time>2014-04-14T13:37:33Z</time>
      </trkpt>
      <trkpt lat="47.95063" lon="3.43512">
        <ele>96</ele>
        <time>2014-04-14T13:37:37Z</time>
      </trkpt>
      <trkpt lat="47.95062" lon="3.43519">
        <ele>97</ele>
        <time>2014-04-14T13:37:41Z</time>
      </trkpt>
      <trkpt lat="47.95062" lon="3.43526">
        <ele>97</ele>
        <time>2014-04-14T13:37:45Z</time>
      </trkpt>
      <trkpt lat="47.95061" lon="3.43533">
        <ele>97</ele>
        <time>2014-04-14T13:37:49Z</time>
      </trkpt>
      <trkpt lat="47.9506" lon="3.4354">
        <ele>97</ele>
        <time>2014-04-14T13:37:53Z</time>
      </trkpt>
      <trkpt lat="47.95059" lon="3.43546">
        <ele>97</ele>
        <time>2014-04-14T13:37:57Z</time>
      </trkpt>
      <trkpt lat="47.95058" lon="3.43553">
        <ele>97</ele>
        <time>2014-04-14T13:38:03Z</time>
      </trkpt>
      <trkpt lat="47.95056" lon="3.43559">
        <ele>97</ele>
        <time>2014-04-14T13:38:07Z</time>
      </trkpt>
      <trkpt lat="47.95054" lon="3.43567">
        <ele>97</ele>
        <time>2014-04-14T13:38:12Z</time>
      </trkpt>
      <trkpt lat="47.95053" lon="3.43574">
        <ele>97</ele>
        <time>2014-04-14T13:38:16Z</time>
      </trkpt>
      <trkpt lat="47.95053" lon="3.43582">
        <ele>97</ele>
        <time>2014-04-14T13:38:21Z</time>
      </trkpt>
      <trkpt lat="47.95053" lon="3.43589">
        <ele>98</ele>
        <time>2014-04-14T13:38:25Z</time>
      </trkpt>
      <trkpt lat="47.95053" lon="3.43597">
        <ele>98</ele>
        <time>2014-04-14T13:38:30Z</time>
      </trkpt>
      <trkpt lat="47.95051" lon="3.43604">
        <ele>98</ele>
        <time>2014-04-14T13:38:34Z</time>
      </trkpt>
      <trkpt lat="47.95048" lon="3.43611">
        <ele>98</ele>
        <time>2014-04-14T13:38:39Z</time>
      </trkpt>
      <trkpt lat="47.95047" lon="3.43618">
        <ele>98</ele>
        <time>2014-04-14T13:38:43Z</time>
      </trkpt>
      <trkpt lat="47.95047" lon="3.43626">
        <ele>98</ele>
        <time>2014-04-14T13:38:47Z</time>
      </trkpt>
      <trkpt lat="47.95046" lon="3.43633">
        <ele>98</ele>
        <time>2014-04-14T13:38:51Z</time>
      </trkpt>
      <trkpt lat="47.95043" lon="3.43639">
        <ele>98</ele>
        <time>2014-04-14T13:38:56Z</time>
      </trkpt>
      <trkpt lat="47.95041" lon="3.43645">
        <ele>98</ele>
        <time>2014-04-14T13:39:00Z</time>
      </trkpt>
      <trkpt lat="47.9504" lon="3.43652">
        <ele>98</ele>
        <time>2014-04-14T13:39:04Z</time>
      </trkpt>
      <trkpt lat="47.95039" lon="3.4366">
        <ele>98</ele>
        <time>2014-04-14T13:39:08Z</time>
      </trkpt>
      <trkpt lat="47.95037" lon="3.43666">
        <ele>98</ele>
        <time>2014-04-14T13:39:12Z</time>
      </trkpt>
      <trkpt lat="47.95033" lon="3.43672">
        <ele>99</ele>
        <time>2014-04-14T13:39:17Z</time>
      </trkpt>
      <trkpt lat="47.95031" lon="3.43679">
        <ele>99</ele>
        <time>2014-04-14T13:39:21Z</time>
      </trkpt>
      <trkpt lat="47.9503" lon="3.43687">
        <ele>99</ele>
        <time>2014-04-14T13:39:25Z</time>
      </trkpt>
      <trkpt lat="47.95029" lon="3.43693">
        <ele>99</ele>
        <time>2014-04-14T13:39:29Z</time>
      </trkpt>
      <trkpt lat="47.95028" lon="3.43701">
        <ele>99</ele>
        <time>2014-04-14T13:39:35Z</time>
      </trkpt>
      <trkpt lat="47.95032" lon="3.43699">
        <ele>99</ele>
        <time>2014-04-14T13:39:40Z</time>
      </trkpt>
      <trkpt lat="47.95032" lon="3.43708">
        <ele>99</ele>
        <time>2014-04-14T13:39:52Z</time>
      </trkpt>
      <trkpt lat="47.95032" lon="3.43715">
        <ele>99</ele>
        <time>2014-04-14T13:39:56Z</time>
      </trkpt>
      <trkpt lat="47.95031" lon="3.43723">
        <ele>99</ele>
        <time>2014-04-14T13:40:00Z</time>
      </trkpt>
      <trkpt lat="47.95031" lon="3.4373">
        <ele>99</ele>
        <time>2014-04-14T13:40:04Z</time>
      </trkpt>
      <trkpt lat="47.9503" lon="3.43738">
        <ele>99</ele>
        <time>2014-04-14T13:40:08Z</time>
      </trkpt>
      <trkpt lat="47.95031" lon="3.43745">
        <ele>99</ele>
        <time>2014-04-14T13:40:11Z</time>
      </trkpt>
      <trkpt lat="47.95027" lon="3.43751">
        <ele>99</ele>
        <time>2014-04-14T13:40:15Z</time>
      </trkpt>
      <trkpt lat="47.95026" lon="3.43759">
        <ele>99</ele>
        <time>2014-04-14T13:40:20Z</time>
      </trkpt>
      <trkpt lat="47.95026" lon="3.43767">
        <ele>99</ele>
        <time>2014-04-14T13:40:25Z</time>
      </trkpt>
      <trkpt lat="47.95028" lon="3.43774">
        <ele>99</ele>
        <time>2014-04-14T13:40:29Z</time>
      </trkpt>
      <trkpt lat="47.95027" lon="3.43782">
        <ele>99</ele>
        <time>2014-04-14T13:40:34Z</time>
      </trkpt>
      <trkpt lat="47.95028" lon="3.43789">
        <ele>99</ele>
        <time>2014-04-14T13:40:39Z</time>
      </trkpt>
      <trkpt lat="47.95028" lon="3.43797">
        <ele>99</ele>
        <time>2014-04-14T13:40:44Z</time>
      </trkpt>
      <trkpt lat="47.95027" lon="3.43805">
        <ele>99</ele>
        <time>2014-04-14T13:40:48Z</time>
      </trkpt>
      <trkpt lat="47.95027" lon="3.43812">
        <ele>99</ele>
        <time>2014-04-14T13:40:52Z</time>
      </trkpt>
      <trkpt lat="47.95028" lon="3.43819">
        <ele>99</ele>
        <time>2014-04-14T13:40:57Z</time>
      </trkpt>
      <trkpt lat="47.9503" lon="3.43828">
        <ele>99</ele>
        <time>2014-04-14T13:41:02Z</time>
      </trkpt>
      <trkpt lat="47.95031" lon="3.43835">
        <ele>98</ele>
        <time>2014-04-14T13:41:06Z</time>
      </trkpt>
      <trkpt lat="47.95031" lon="3.43843">
        <ele>98</ele>
        <time>2014-04-14T13:41:11Z</time>
      </trkpt>
      <trkpt lat="47.9503" lon="3.4385">
        <ele>98</ele>
        <time>2014-04-14T13:41:17Z</time>
      </trkpt>
      <trkpt lat="47.95028" lon="3.43856">
        <ele>98</ele>
        <time>2014-04-14T13:41:23Z</time>
      </trkpt>
      <trkpt lat="47.95027" lon="3.43864">
        <ele>98</ele>
        <time>2014-04-14T13:41:28Z</time>
      </trkpt>
      <trkpt lat="47.95026" lon="3.43871">
        <ele>98</ele>
        <time>2014-04-14T13:41:32Z</time>
      </trkpt>
      <trkpt lat="47.95024" lon="3.43878">
        <ele>99</ele>
        <time>2014-04-14T13:41:36Z</time>
      </trkpt>
      <trkpt lat="47.95023" lon="3.43885">
        <ele>99</ele>
        <time>2014-04-14T13:41:40Z</time>
      </trkpt>
      <trkpt lat="47.95022" lon="3.43892">
        <ele>99</ele>
        <time>2014-04-14T13:41:44Z</time>
      </trkpt>
      <trkpt lat="47.95018" lon="3.43898">
        <ele>99</ele>
        <time>2014-04-14T13:41:49Z</time>
      </trkpt>
      <trkpt lat="47.95014" lon="3.43903">
        <ele>99</ele>
        <time>2014-04-14T13:41:53Z</time>
      </trkpt>
      <trkpt lat="47.95012" lon="3.4391">
        <ele>99</ele>
        <time>2014-04-14T13:41:58Z</time>
      </trkpt>
      <trkpt lat="47.95013" lon="3.43918">
        <ele>99</ele>
        <time>2014-04-14T13:42:03Z</time>
      </trkpt>
      <trkpt lat="47.95011" lon="3.43922">
        <ele>99</ele>
        <time>2014-04-14T13:42:11Z</time>
      </trkpt>
      <trkpt lat="47.95008" lon="3.43927">
        <ele>99</ele>
        <time>2014-04-14T13:42:18Z</time>
      </trkpt>
      <trkpt lat="47.95006" lon="3.43934">
        <ele>99</ele>
        <time>2014-04-14T13:42:22Z</time>
      </trkpt>
      <trkpt lat="47.95005" lon="3.43942">
        <ele>99</ele>
        <time>2014-04-14T13:42:26Z</time>
      </trkpt>
      <trkpt lat="47.95004" lon="3.43949">
        <ele>98</ele>
        <time>2014-04-14T13:42:31Z</time>
      </trkpt>
      <trkpt lat="47.95002" lon="3.43956">
        <ele>98</ele>
        <time>2014-04-14T13:42:36Z</time>
      </trkpt>
      <trkpt lat="47.95" lon="3.43962">
        <ele>101</ele>
        <time>2014-04-14T13:42:41Z</time>
      </trkpt>
      <trkpt lat="47.94998" lon="3.43969">
        <ele>101</ele>
        <time>2014-04-14T13:42:45Z</time>
      </trkpt>
      <trkpt lat="47.94997" lon="3.43977">
        <ele>101</ele>
        <time>2014-04-14T13:42:50Z</time>
      </trkpt>
      <trkpt lat="47.94997" lon="3.43984">
        <ele>101</ele>
        <time>2014-04-14T13:42:55Z</time>
      </trkpt>
      <trkpt lat="47.94997" lon="3.43991">
        <ele>100</ele>
        <time>2014-04-14T13:42:59Z</time>
      </trkpt>
      <trkpt lat="47.94995" lon="3.43998">
        <ele>100</ele>
        <time>2014-04-14T13:43:03Z</time>
      </trkpt>
      <trkpt lat="47.94996" lon="3.44006">
        <ele>100</ele>
        <time>2014-04-14T13:43:07Z</time>
      </trkpt>
      <trkpt lat="47.94995" lon="3.44013">
        <ele>100</ele>
        <time>2014-04-14T13:43:11Z</time>
      </trkpt>
      <trkpt lat="47.94992" lon="3.44019">
        <ele>100</ele>
        <time>2014-04-14T13:43:17Z</time>
      </trkpt>
      <trkpt lat="47.94989" lon="3.44027">
        <ele>100</ele>
        <time>2014-04-14T13:43:23Z</time>
      </trkpt>
      <trkpt lat="47.94987" lon="3.44034">
        <ele>100</ele>
        <time>2014-04-14T13:43:27Z</time>
      </trkpt>
      <trkpt lat="47.94986" lon="3.44041">
        <ele>100</ele>
        <time>2014-04-14T13:43:31Z</time>
      </trkpt>
      <trkpt lat="47.94985" lon="3.44048">
        <ele>100</ele>
        <time>2014-04-14T13:43:36Z</time>
      </trkpt>
      <trkpt lat="47.94982" lon="3.44054">
        <ele>100</ele>
        <time>2014-04-14T13:43:42Z</time>
      </trkpt>
      <trkpt lat="47.94981" lon="3.44061">
        <ele>100</ele>
        <time>2014-04-14T13:43:47Z</time>
      </trkpt>
      <trkpt lat="47.94977" lon="3.44072">
        <ele>100</ele>
        <time>2014-04-14T13:44:00Z</time>
      </trkpt>
      <trkpt lat="47.94976" lon="3.44079">
        <ele>99</ele>
        <time>2014-04-14T13:44:08Z</time>
      </trkpt>
      <trkpt lat="47.94974" lon="3.44085">
        <ele>99</ele>
        <time>2014-04-14T13:44:12Z</time>
      </trkpt>
      <trkpt lat="47.94971" lon="3.44092">
        <ele>99</ele>
        <time>2014-04-14T13:44:17Z</time>
      </trkpt>
      <trkpt lat="47.94969" lon="3.44098">
        <ele>99</ele>
        <time>2014-04-14T13:44:21Z</time>
      </trkpt>
      <trkpt lat="47.94967" lon="3.44106">
        <ele>99</ele>
        <time>2014-04-14T13:44:26Z</time>
      </trkpt>
      <trkpt lat="47.94964" lon="3.44112">
        <ele>99</ele>
        <time>2014-04-14T13:44:31Z</time>
      </trkpt>
      <trkpt lat="47.9496" lon="3.44117">
        <ele>99</ele>
        <time>2014-04-14T13:44:35Z</time>
      </trkpt>
      <trkpt lat="47.94958" lon="3.44124">
        <ele>99</ele>
        <time>2014-04-14T13:44:40Z</time>
      </trkpt>
      <trkpt lat="47.94959" lon="3.44131">
        <ele>99</ele>
        <time>2014-04-14T13:44:44Z</time>
      </trkpt>
      <trkpt lat="47.94958" lon="3.44139">
        <ele>99</ele>
        <time>2014-04-14T13:44:48Z</time>
      </trkpt>
      <trkpt lat="47.94956" lon="3.44145">
        <ele>99</ele>
        <time>2014-04-14T13:44:53Z</time>
      </trkpt>
      <trkpt lat="47.94953" lon="3.44152">
        <ele>99</ele>
        <time>2014-04-14T13:44:58Z</time>
      </trkpt>
      <trkpt lat="47.94952" lon="3.4416">
        <ele>99</ele>
        <time>2014-04-14T13:45:02Z</time>
      </trkpt>
      <trkpt lat="47.9495" lon="3.44167">
        <ele>99</ele>
        <time>2014-04-14T13:45:06Z</time>
      </trkpt>
      <trkpt lat="47.94949" lon="3.44174">
        <ele>99</ele>
        <time>2014-04-14T13:45:12Z</time>
      </trkpt>
      <trkpt lat="47.94946" lon="3.4418">
        <ele>99</ele>
        <time>2014-04-14T13:45:18Z</time>
      </trkpt>
      <trkpt lat="47.94942" lon="3.44186">
        <ele>99</ele>
        <time>2014-04-14T13:45:23Z</time>
      </trkpt>
      <trkpt lat="47.94937" lon="3.44193">
        <ele>99</ele>
        <time>2014-04-14T13:45:27Z</time>
      </trkpt>
      <trkpt lat="47.94933" lon="3.44198">
        <ele>99</ele>
        <time>2014-04-14T13:45:31Z</time>
      </trkpt>
      <trkpt lat="47.94931" lon="3.44204">
        <ele>99</ele>
        <time>2014-04-14T13:45:35Z</time>
      </trkpt>
      <trkpt lat="47.94929" lon="3.44211">
        <ele>99</ele>
        <time>2014-04-14T13:45:39Z</time>
      </trkpt>
      <trkpt lat="47.94925" lon="3.44217">
        <ele>99</ele>
        <time>2014-04-14T13:45:45Z</time>
      </trkpt>
      <trkpt lat="47.94923" lon="3.44223">
        <ele>99</ele>
        <time>2014-04-14T13:45:50Z</time>
      </trkpt>
      <trkpt lat="47.9492" lon="3.44228">
        <ele>99</ele>
        <time>2014-04-14T13:45:54Z</time>
      </trkpt>
      <trkpt lat="47.94917" lon="3.44234">
        <ele>99</ele>
        <time>2014-04-14T13:45:59Z</time>
      </trkpt>
      <trkpt lat="47.94916" lon="3.44241">
        <ele>101</ele>
        <time>2014-04-14T13:46:08Z</time>
      </trkpt>
      <trkpt lat="47.94914" lon="3.44247">
        <ele>100</ele>
        <time>2014-04-14T13:46:15Z</time>
      </trkpt>
      <trkpt lat="47.9491" lon="3.44252">
        <ele>100</ele>
        <time>2014-04-14T13:46:20Z</time>
      </trkpt>
      <trkpt lat="47.94907" lon="3.44258">
        <ele>101</ele>
        <time>2014-04-14T13:46:24Z</time>
      </trkpt>
      <trkpt lat="47.94903" lon="3.44262">
        <ele>101</ele>
        <time>2014-04-14T13:46:29Z</time>
      </trkpt>
      <trkpt lat="47.94899" lon="3.4427">
        <ele>101</ele>
        <time>2014-04-14T13:46:34Z</time>
      </trkpt>
      <trkpt lat="47.94894" lon="3.44269">
        <ele>101</ele>
        <time>2014-04-14T13:46:40Z</time>
      </trkpt>
      <trkpt lat="47.94889" lon="3.4427">
        <ele>101</ele>
        <time>2014-04-14T13:46:44Z</time>
      </trkpt>
      <trkpt lat="47.94885" lon="3.44272">
        <ele>101</ele>
        <time>2014-04-14T13:46:47Z</time>
      </trkpt>
      <trkpt lat="47.9488" lon="3.44273">
        <ele>102</ele>
        <time>2014-04-14T13:46:51Z</time>
      </trkpt>
      <trkpt lat="47.94875" lon="3.44277">
        <ele>102</ele>
        <time>2014-04-14T13:46:56Z</time>
      </trkpt>
      <trkpt lat="47.9487" lon="3.4428">
        <ele>102</ele>
        <time>2014-04-14T13:47:10Z</time>
      </trkpt>
      <trkpt lat="47.94865" lon="3.44283">
        <ele>102</ele>
        <time>2014-04-14T13:47:14Z</time>
      </trkpt>
      <trkpt lat="47.9486" lon="3.44288">
        <ele>102</ele>
        <time>2014-04-14T13:47:18Z</time>
      </trkpt>
      <trkpt lat="47.94858" lon="3.44295">
        <ele>102</ele>
        <time>2014-04-14T13:47:21Z</time>
      </trkpt>
      <trkpt lat="47.94854" lon="3.44299">
        <ele>102</ele>
        <time>2014-04-14T13:47:24Z</time>
      </trkpt>
      <trkpt lat="47.9485" lon="3.44301">
        <ele>102</ele>
        <time>2014-04-14T13:47:28Z</time>
      </trkpt>
      <trkpt lat="47.94847" lon="3.44303">
        <ele>102</ele>
        <time>2014-04-14T13:47:34Z</time>
      </trkpt>
      <trkpt lat="47.94845" lon="3.44306">
        <ele>102</ele>
        <time>2014-04-14T13:47:45Z</time>
      </trkpt>
      <trkpt lat="47.9484" lon="3.44309">
        <ele>102</ele>
        <time>2014-04-14T13:47:49Z</time>
      </trkpt>
      <trkpt lat="47.94835" lon="3.44311">
        <ele>101</ele>
        <time>2014-04-14T13:47:53Z</time>
      </trkpt>
      <trkpt lat="47.94831" lon="3.44312">
        <ele>102</ele>
        <time>2014-04-14T13:47:58Z</time>
      </trkpt>
      <trkpt lat="47.94826" lon="3.44317">
        <ele>102</ele>
        <time>2014-04-14T13:48:04Z</time>
      </trkpt>
      <trkpt lat="47.94821" lon="3.44318">
        <ele>102</ele>
        <time>2014-04-14T13:48:07Z</time>
      </trkpt>
      <trkpt lat="47.94816" lon="3.44319">
        <ele>102</ele>
        <time>2014-04-14T13:48:11Z</time>
      </trkpt>
      <trkpt lat="47.94811" lon="3.44319">
        <ele>102</ele>
        <time>2014-04-14T13:48:16Z</time>
      </trkpt>
      <trkpt lat="47.94805" lon="3.44319">
        <ele>102</ele>
        <time>2014-04-14T13:48:20Z</time>
      </trkpt>
      <trkpt lat="47.94801" lon="3.44316">
        <ele>102</ele>
        <time>2014-04-14T13:48:25Z</time>
      </trkpt>
      <trkpt lat="47.94796" lon="3.44314">
        <ele>102</ele>
        <time>2014-04-14T13:48:30Z</time>
      </trkpt>
      <trkpt lat="47.94794" lon="3.44321">
        <ele>101</ele>
        <time>2014-04-14T13:48:37Z</time>
      </trkpt>
      <trkpt lat="47.94792" lon="3.44327">
        <ele>101</ele>
        <time>2014-04-14T13:48:41Z</time>
      </trkpt>
      <trkpt lat="47.94792" lon="3.44336">
        <ele>98</ele>
        <time>2014-04-14T13:48:46Z</time>
      </trkpt>
      <trkpt lat="47.94794" lon="3.44344">
        <ele>98</ele>
        <time>2014-04-14T13:48:50Z</time>
      </trkpt>
      <trkpt lat="47.94793" lon="3.44351">
        <ele>97</ele>
        <time>2014-04-14T13:48:55Z</time>
      </trkpt>
      <trkpt lat="47.9479" lon="3.44358">
        <ele>97</ele>
        <time>2014-04-14T13:49:00Z</time>
      </trkpt>
      <trkpt lat="47.94789" lon="3.44368">
        <ele>97</ele>
        <time>2014-04-14T13:49:04Z</time>
      </trkpt>
      <trkpt lat="47.94787" lon="3.44374">
        <ele>97</ele>
        <time>2014-04-14T13:49:08Z</time>
      </trkpt>
      <trkpt lat="47.94783" lon="3.4438">
        <ele>96</ele>
        <time>2014-04-14T13:49:17Z</time>
      </trkpt>
      <trkpt lat="47.94782" lon="3.44389">
        <ele>96</ele>
        <time>2014-04-14T13:49:21Z</time>
      </trkpt>
      <trkpt lat="47.94785" lon="3.44395">
        <ele>96</ele>
        <time>2014-04-14T13:49:25Z</time>
      </trkpt>
      <trkpt lat="47.94789" lon="3.44398">
        <ele>96</ele>
        <time>2014-04-14T13:49:28Z</time>
      </trkpt>
      <trkpt lat="47.94794" lon="3.44403">
        <ele>96</ele>
        <time>2014-04-14T13:49:32Z</time>
      </trkpt>
      <trkpt lat="47.94803" lon="3.44407">
        <ele>96</ele>
        <time>2014-04-14T13:49:42Z</time>
      </trkpt>
      <trkpt lat="47.94806" lon="3.44413">
        <ele>96</ele>
        <time>2014-04-14T13:49:48Z</time>
      </trkpt>
      <trkpt lat="47.94808" lon="3.44419">
        <ele>93</ele>
        <time>2014-04-14T13:49:55Z</time>
      </trkpt>
      <trkpt lat="47.94813" lon="3.44421">
        <ele>93</ele>
        <time>2014-04-14T13:50:00Z</time>
      </trkpt>
      <trkpt lat="47.94818" lon="3.44422">
        <ele>94</ele>
        <time>2014-04-14T13:50:04Z</time>
      </trkpt>
      <trkpt lat="47.94822" lon="3.44424">
        <ele>94</ele>
        <time>2014-04-14T13:50:08Z</time>
      </trkpt>
      <trkpt lat="47.94827" lon="3.44428">
        <ele>94</ele>
        <time>2014-04-14T13:50:14Z</time>
      </trkpt>
      <trkpt lat="47.94826" lon="3.44435">
        <ele>93</ele>
        <time>2014-04-14T13:50:19Z</time>
      </trkpt>
      <trkpt lat="47.94826" lon="3.44442">
        <ele>93</ele>
        <time>2014-04-14T13:50:25Z</time>
      </trkpt>
      <trkpt lat="47.94826" lon="3.44449">
        <ele>93</ele>
        <time>2014-04-14T13:50:30Z</time>
      </trkpt>
      <trkpt lat="47.94825" lon="3.44457">
        <ele>93</ele>
        <time>2014-04-14T13:50:34Z</time>
      </trkpt>
      <trkpt lat="47.94824" lon="3.44464">
        <ele>92</ele>
        <time>2014-04-14T13:50:38Z</time>
      </trkpt>
      <trkpt lat="47.94826" lon="3.4447">
        <ele>92</ele>
        <time>2014-04-14T13:50:42Z</time>
      </trkpt>
      <trkpt lat="47.94828" lon="3.44478">
        <ele>92</ele>
        <time>2014-04-14T13:50:47Z</time>
      </trkpt>
      <trkpt lat="47.9483" lon="3.44483">
        <ele>92</ele>
        <time>2014-04-14T13:50:55Z</time>
      </trkpt>
      <trkpt lat="47.94835" lon="3.44481">
        <ele>92</ele>
        <time>2014-04-14T13:51:04Z</time>
      </trkpt>
      <trkpt lat="47.94836" lon="3.44478">
        <ele>92</ele>
        <time>2014-04-14T13:51:10Z</time>
      </trkpt>
      <trkpt lat="47.94835" lon="3.44489">
        <ele>92</ele>
        <time>2014-04-14T13:51:56Z</time>
      </trkpt>
      <trkpt lat="47.9483" lon="3.44491">
        <ele>91</ele>
        <time>2014-04-14T13:52:08Z</time>
      </trkpt>
      <trkpt lat="47.9483" lon="3.44486">
        <ele>92</ele>
        <time>2014-04-14T13:53:01Z</time>
      </trkpt>
      <trkpt lat="47.94831" lon="3.44482">
        <ele>92</ele>
        <time>2014-04-14T13:54:03Z</time>
      </trkpt>
      <trkpt lat="47.9483" lon="3.44481">
        <ele>92</ele>
        <time>2014-04-14T13:54:41Z</time>
      </trkpt>
      <trkpt lat="47.94833" lon="3.44486">
        <ele>92</ele>
        <time>2014-04-14T13:55:29Z</time>
      </trkpt>
      <trkpt lat="47.94832" lon="3.44501">
        <ele>91</ele>
        <time>2014-04-14T13:56:25Z</time>
      </trkpt>
      <trkpt lat="47.94831" lon="3.44511">
        <ele>90</ele>
        <time>2014-04-14T14:00:07Z</time>
      </trkpt>
      <trkpt lat="47.94827" lon="3.44501">
        <ele>91</ele>
        <time>2014-04-14T14:01:07Z</time>
      </trkpt>
      <trkpt lat="47.94825" lon="3.44491">
        <ele>92</ele>
        <time>2014-04-14T14:01:22Z</time>
      </trkpt>
      <trkpt lat="47.94831" lon="3.44486">
        <ele>92</ele>
        <time>2014-04-14T14:01:36Z</time>
      </trkpt>
      <trkpt lat="47.94833" lon="3.44488">
        <ele>92</ele>
        <time>2014-04-14T14:06:59Z</time>
      </trkpt>
      <trkpt lat="47.94833" lon="3.44492">
        <ele>91</ele>
        <time>2014-04-14T14:07:05Z</time>
      </trkpt>
      <trkpt lat="47.94829" lon="3.44492">
        <ele>91</ele>
        <time>2014-04-14T14:07:34Z</time>
      </trkpt>
      <trkpt lat="47.94829" lon="3.44497">
        <ele>91</ele>
        <time>2014-04-14T14:09:27Z</time>
      </trkpt>
      <trkpt lat="47.94826" lon="3.44503">
        <ele>91</ele>
        <time>2014-04-14T14:09:32Z</time>
      </trkpt>
      <trkpt lat="47.94819" lon="3.44522">
        <ele>90</ele>
        <time>2014-04-14T14:09:53Z</time>
      </trkpt>
      <trkpt lat="47.94819" lon="3.4453">
        <ele>90</ele>
        <time>2014-04-14T14:09:58Z</time>
      </trkpt>
      <trkpt lat="47.94817" lon="3.44537">
        <ele>90</ele>
        <time>2014-04-14T14:10:02Z</time>
      </trkpt>
      <trkpt lat="47.94815" lon="3.44543">
        <ele>90</ele>
        <time>2014-04-14T14:10:06Z</time>
      </trkpt>
      <trkpt lat="47.94813" lon="3.44551">
        <ele>89</ele>
        <time>2014-04-14T14:10:10Z</time>
      </trkpt>
      <trkpt lat="47.94811" lon="3.44557">
        <ele>89</ele>
        <time>2014-04-14T14:10:17Z</time>
      </trkpt>
      <trkpt lat="47.94811" lon="3.44564">
        <ele>89</ele>
        <time>2014-04-14T14:10:21Z</time>
      </trkpt>
      <trkpt lat="47.9481" lon="3.44571">
        <ele>89</ele>
        <time>2014-04-14T14:10:25Z</time>
      </trkpt>
      <trkpt lat="47.94808" lon="3.44577">
        <ele>89</ele>
        <time>2014-04-14T14:10:28Z</time>
      </trkpt>
      <trkpt lat="47.94805" lon="3.44583">
        <ele>89</ele>
        <time>2014-04-14T14:10:32Z</time>
      </trkpt>
      <trkpt lat="47.94802" lon="3.44589">
        <ele>88</ele>
        <time>2014-04-14T14:10:36Z</time>
      </trkpt>
      <trkpt lat="47.948" lon="3.44595">
        <ele>88</ele>
        <time>2014-04-14T14:10:39Z</time>
      </trkpt>
      <trkpt lat="47.94799" lon="3.44603">
        <ele>88</ele>
        <time>2014-04-14T14:10:43Z</time>
      </trkpt>
      <trkpt lat="47.94797" lon="3.44608">
        <ele>88</ele>
        <time>2014-04-14T14:10:47Z</time>
      </trkpt>
      <trkpt lat="47.94794" lon="3.44614">
        <ele>87</ele>
        <time>2014-04-14T14:10:51Z</time>
      </trkpt>
      <trkpt lat="47.94792" lon="3.44621">
        <ele>87</ele>
        <time>2014-04-14T14:10:55Z</time>
      </trkpt>
      <trkpt lat="47.94794" lon="3.44628">
        <ele>87</ele>
        <time>2014-04-14T14:11:00Z</time>
      </trkpt>
      <trkpt lat="47.94793" lon="3.44635">
        <ele>87</ele>
        <time>2014-04-14T14:11:05Z</time>
      </trkpt>
      <trkpt lat="47.94791" lon="3.44642">
        <ele>87</ele>
        <time>2014-04-14T14:11:10Z</time>
      </trkpt>
      <trkpt lat="47.94789" lon="3.44648">
        <ele>87</ele>
        <time>2014-04-14T14:11:15Z</time>
      </trkpt>
      <trkpt lat="47.94782" lon="3.44684">
        <ele>85</ele>
        <time>2014-04-14T14:11:32Z</time>
      </trkpt>
      <trkpt lat="47.9478" lon="3.44691">
        <ele>85</ele>
        <time>2014-04-14T14:11:36Z</time>
      </trkpt>
      <trkpt lat="47.94778" lon="3.44698">
        <ele>85</ele>
        <time>2014-04-14T14:11:40Z</time>
      </trkpt>
      <trkpt lat="47.94775" lon="3.44703">
        <ele>85</ele>
        <time>2014-04-14T14:11:44Z</time>
      </trkpt>
      <trkpt lat="47.94773" lon="3.44703">
        <ele>85</ele>
        <time>2014-04-14T14:11:49Z</time>
      </trkpt>
      <trkpt lat="47.9477" lon="3.44712">
        <ele>85</ele>
        <time>2014-04-14T14:11:59Z</time>
      </trkpt>
      <trkpt lat="47.9477" lon="3.4472">
        <ele>85</ele>
        <time>2014-04-14T14:12:04Z</time>
      </trkpt>
      <trkpt lat="47.94769" lon="3.44727">
        <ele>85</ele>
        <time>2014-04-14T14:12:09Z</time>
      </trkpt>
      <trkpt lat="47.94766" lon="3.44735">
        <ele>85</ele>
        <time>2014-04-14T14:12:13Z</time>
      </trkpt>
      <trkpt lat="47.94762" lon="3.44739">
        <ele>84</ele>
        <time>2014-04-14T14:12:17Z</time>
      </trkpt>
      <trkpt lat="47.94759" lon="3.4475">
        <ele>84</ele>
        <time>2014-04-14T14:12:25Z</time>
      </trkpt>
      <trkpt lat="47.94758" lon="3.44759">
        <ele>84</ele>
        <time>2014-04-14T14:12:30Z</time>
      </trkpt>
      <trkpt lat="47.94758" lon="3.44767">
        <ele>84</ele>
        <time>2014-04-14T14:12:34Z</time>
      </trkpt>
      <trkpt lat="47.94757" lon="3.44774">
        <ele>84</ele>
        <time>2014-04-14T14:12:39Z</time>
      </trkpt>
      <trkpt lat="47.94756" lon="3.44782">
        <ele>84</ele>
        <time>2014-04-14T14:12:42Z</time>
      </trkpt>
      <trkpt lat="47.94756" lon="3.4479">
        <ele>84</ele>
        <time>2014-04-14T14:12:44Z</time>
      </trkpt>
      <trkpt lat="47.94754" lon="3.44797">
        <ele>84</ele>
        <time>2014-04-14T14:12:48Z</time>
      </trkpt>
      <trkpt lat="47.94751" lon="3.44802">
        <ele>85</ele>
        <time>2014-04-14T14:12:52Z</time>
      </trkpt>
      <trkpt lat="47.94746" lon="3.44809">
        <ele>85</ele>
        <time>2014-04-14T14:12:55Z</time>
      </trkpt>
      <trkpt lat="47.94743" lon="3.44814">
        <ele>85</ele>
        <time>2014-04-14T14:13:00Z</time>
      </trkpt>
      <trkpt lat="47.94739" lon="3.4482">
        <ele>85</ele>
        <time>2014-04-14T14:13:05Z</time>
      </trkpt>
      <trkpt lat="47.94736" lon="3.44826">
        <ele>85</ele>
        <time>2014-04-14T14:13:09Z</time>
      </trkpt>
      <trkpt lat="47.94733" lon="3.44833">
        <ele>85</ele>
        <time>2014-04-14T14:13:15Z</time>
      </trkpt>
      <trkpt lat="47.94731" lon="3.44839">
        <ele>87</ele>
        <time>2014-04-14T14:13:19Z</time>
      </trkpt>
      <trkpt lat="47.94728" lon="3.44845">
        <ele>87</ele>
        <time>2014-04-14T14:13:23Z</time>
      </trkpt>
      <trkpt lat="47.94725" lon="3.44851">
        <ele>87</ele>
        <time>2014-04-14T14:13:28Z</time>
      </trkpt>
      <trkpt lat="47.94722" lon="3.44856">
        <ele>87</ele>
        <time>2014-04-14T14:13:33Z</time>
      </trkpt>
      <trkpt lat="47.94718" lon="3.44861">
        <ele>87</ele>
        <time>2014-04-14T14:13:38Z</time>
      </trkpt>
      <trkpt lat="47.94714" lon="3.44868">
        <ele>87</ele>
        <time>2014-04-14T14:13:42Z</time>
      </trkpt>
      <trkpt lat="47.9471" lon="3.44872">
        <ele>87</ele>
        <time>2014-04-14T14:13:45Z</time>
      </trkpt>
      <trkpt lat="47.94706" lon="3.44877">
        <ele>88</ele>
        <time>2014-04-14T14:13:48Z</time>
      </trkpt>
      <trkpt lat="47.94702" lon="3.44882">
        <ele>88</ele>
        <time>2014-04-14T14:13:52Z</time>
      </trkpt>
      <trkpt lat="47.94697" lon="3.44887">
        <ele>88</ele>
        <time>2014-04-14T14:13:56Z</time>
      </trkpt>
      <trkpt lat="47.94692" lon="3.44891">
        <ele>88</ele>
        <time>2014-04-14T14:13:59Z</time>
      </trkpt>
      <trkpt lat="47.94687" lon="3.44893">
        <ele>88</ele>
        <time>2014-04-14T14:14:05Z</time>
      </trkpt>
      <trkpt lat="47.94678" lon="3.44891">
        <ele>88</ele>
        <time>2014-04-14T14:14:14Z</time>
      </trkpt>
      <trkpt lat="47.94674" lon="3.44891">
        <ele>88</ele>
        <time>2014-04-14T14:14:18Z</time>
      </trkpt>
      <trkpt lat="47.94669" lon="3.4489">
        <ele>88</ele>
        <time>2014-04-14T14:14:25Z</time>
      </trkpt>
      <trkpt lat="47.94665" lon="3.44894">
        <ele>89</ele>
        <time>2014-04-14T14:14:29Z</time>
      </trkpt>
      <trkpt lat="47.9466" lon="3.44894">
        <ele>89</ele>
        <time>2014-04-14T14:14:33Z</time>
      </trkpt>
      <trkpt lat="47.94656" lon="3.44891">
        <ele>89</ele>
        <time>2014-04-14T14:14:38Z</time>
      </trkpt>
      <trkpt lat="47.94651" lon="3.44889">
        <ele>89</ele>
        <time>2014-04-14T14:14:43Z</time>
      </trkpt>
      <trkpt lat="47.94646" lon="3.44889">
        <ele>89</ele>
        <time>2014-04-14T14:14:47Z</time>
      </trkpt>
      <trkpt lat="47.94641" lon="3.44889">
        <ele>89</ele>
        <time>2014-04-14T14:14:50Z</time>
      </trkpt>
      <trkpt lat="47.94636" lon="3.44892">
        <ele>89</ele>
        <time>2014-04-14T14:14:54Z</time>
      </trkpt>
      <trkpt lat="47.94632" lon="3.44895">
        <ele>89</ele>
        <time>2014-04-14T14:14:57Z</time>
      </trkpt>
      <trkpt lat="47.94627" lon="3.44892">
        <ele>89</ele>
        <time>2014-04-14T14:15:02Z</time>
      </trkpt>
      <trkpt lat="47.94622" lon="3.4489">
        <ele>89</ele>
        <time>2014-04-14T14:15:06Z</time>
      </trkpt>
      <trkpt lat="47.94618" lon="3.44887">
        <ele>89</ele>
        <time>2014-04-14T14:15:10Z</time>
      </trkpt>
      <trkpt lat="47.94613" lon="3.44884">
        <ele>89</ele>
        <time>2014-04-14T14:15:15Z</time>
      </trkpt>
      <trkpt lat="47.94608" lon="3.44882">
        <ele>89</ele>
        <time>2014-04-14T14:15:19Z</time>
      </trkpt>
      <trkpt lat="47.94604" lon="3.44884">
        <ele>89</ele>
        <time>2014-04-14T14:15:22Z</time>
      </trkpt>
      <trkpt lat="47.94599" lon="3.44884">
        <ele>89</ele>
        <time>2014-04-14T14:15:26Z</time>
      </trkpt>
      <trkpt lat="47.94595" lon="3.44881">
        <ele>89</ele>
        <time>2014-04-14T14:15:36Z</time>
      </trkpt>
      <trkpt lat="47.9459" lon="3.4488">
        <ele>89</ele>
        <time>2014-04-14T14:15:43Z</time>
      </trkpt>
      <trkpt lat="47.94584" lon="3.44882">
        <ele>89</ele>
        <time>2014-04-14T14:15:47Z</time>
      </trkpt>
      <trkpt lat="47.94578" lon="3.44883">
        <ele>89</ele>
        <time>2014-04-14T14:15:50Z</time>
      </trkpt>
      <trkpt lat="47.94573" lon="3.44883">
        <ele>89</ele>
        <time>2014-04-14T14:15:53Z</time>
      </trkpt>
      <trkpt lat="47.94569" lon="3.44884">
        <ele>89</ele>
        <time>2014-04-14T14:15:56Z</time>
      </trkpt>
      <trkpt lat="47.94564" lon="3.44885">
        <ele>89</ele>
        <time>2014-04-14T14:16:00Z</time>
      </trkpt>
      <trkpt lat="47.94558" lon="3.44885">
        <ele>89</ele>
        <time>2014-04-14T14:16:04Z</time>
      </trkpt>
      <trkpt lat="47.94553" lon="3.44885">
        <ele>89</ele>
        <time>2014-04-14T14:16:07Z</time>
      </trkpt>
      <trkpt lat="47.94547" lon="3.44886">
        <ele>89</ele>
        <time>2014-04-14T14:16:11Z</time>
      </trkpt>
      <trkpt lat="47.94542" lon="3.44885">
        <ele>89</ele>
        <time>2014-04-14T14:16:15Z</time>
      </trkpt>
      <trkpt lat="47.94537" lon="3.44885">
        <ele>89</ele>
        <time>2014-04-14T14:16:19Z</time>
      </trkpt>
      <trkpt lat="47.94532" lon="3.44887">
        <ele>89</ele>
        <time>2014-04-14T14:16:24Z</time>
      </trkpt>
      <trkpt lat="47.94526" lon="3.44887">
        <ele>89</ele>
        <time>2014-04-14T14:16:28Z</time>
      </trkpt>
      <trkpt lat="47.94523" lon="3.44892">
        <ele>89</ele>
        <time>2014-04-14T14:16:31Z</time>
      </trkpt>
      <trkpt lat="47.94517" lon="3.44893">
        <ele>89</ele>
        <time>2014-04-14T14:16:35Z</time>
      </trkpt>
      <trkpt lat="47.94512" lon="3.4489">
        <ele>89</ele>
        <time>2014-04-14T14:16:39Z</time>
      </trkpt>
      <trkpt lat="47.94508" lon="3.44885">
        <ele>89</ele>
        <time>2014-04-14T14:16:45Z</time>
      </trkpt>
      <trkpt lat="47.94503" lon="3.44882">
        <ele>89</ele>
        <time>2014-04-14T14:16:50Z</time>
      </trkpt>
      <trkpt lat="47.94497" lon="3.44886">
        <ele>89</ele>
        <time>2014-04-14T14:16:53Z</time>
      </trkpt>
      <trkpt lat="47.94492" lon="3.4489">
        <ele>89</ele>
        <time>2014-04-14T14:16:55Z</time>
      </trkpt>
      <trkpt lat="47.94487" lon="3.44891">
        <ele>89</ele>
        <time>2014-04-14T14:16:58Z</time>
      </trkpt>
      <trkpt lat="47.94482" lon="3.44889">
        <ele>89</ele>
        <time>2014-04-14T14:17:01Z</time>
      </trkpt>
      <trkpt lat="47.94477" lon="3.44888">
        <ele>89</ele>
        <time>2014-04-14T14:17:04Z</time>
      </trkpt>
      <trkpt lat="47.94474" lon="3.44884">
        <ele>89</ele>
        <time>2014-04-14T14:17:13Z</time>
      </trkpt>
      <trkpt lat="47.9447" lon="3.44881">
        <ele>88</ele>
        <time>2014-04-14T14:17:19Z</time>
      </trkpt>
      <trkpt lat="47.94464" lon="3.44881">
        <ele>88</ele>
        <time>2014-04-14T14:17:24Z</time>
      </trkpt>
      <trkpt lat="47.94459" lon="3.44881">
        <ele>88</ele>
        <time>2014-04-14T14:17:29Z</time>
      </trkpt>
      <trkpt lat="47.94455" lon="3.44881">
        <ele>88</ele>
        <time>2014-04-14T14:17:33Z</time>
      </trkpt>
      <trkpt lat="47.94449" lon="3.44883">
        <ele>88</ele>
        <time>2014-04-14T14:17:38Z</time>
      </trkpt>
      <trkpt lat="47.94443" lon="3.44884">
        <ele>88</ele>
        <time>2014-04-14T14:17:42Z</time>
      </trkpt>
      <trkpt lat="47.94439" lon="3.44884">
        <ele>88</ele>
        <time>2014-04-14T14:17:48Z</time>
      </trkpt>
      <trkpt lat="47.94434" lon="3.44885">
        <ele>88</ele>
        <time>2014-04-14T14:17:52Z</time>
      </trkpt>
      <trkpt lat="47.94429" lon="3.44884">
        <ele>88</ele>
        <time>2014-04-14T14:17:57Z</time>
      </trkpt>
      <trkpt lat="47.94425" lon="3.44881">
        <ele>88</ele>
        <time>2014-04-14T14:18:01Z</time>
      </trkpt>
      <trkpt lat="47.94421" lon="3.44877">
        <ele>88</ele>
        <time>2014-04-14T14:18:04Z</time>
      </trkpt>
      <trkpt lat="47.94417" lon="3.44874">
        <ele>88</ele>
        <time>2014-04-14T14:18:08Z</time>
      </trkpt>
      <trkpt lat="47.94412" lon="3.44875">
        <ele>88</ele>
        <time>2014-04-14T14:18:12Z</time>
      </trkpt>
      <trkpt lat="47.94407" lon="3.44874">
        <ele>88</ele>
        <time>2014-04-14T14:18:16Z</time>
      </trkpt>
      <trkpt lat="47.94405" lon="3.44866">
        <ele>87</ele>
        <time>2014-04-14T14:18:32Z</time>
      </trkpt>
      <trkpt lat="47.944" lon="3.44863">
        <ele>87</ele>
        <time>2014-04-14T14:18:37Z</time>
      </trkpt>
      <trkpt lat="47.94398" lon="3.44857">
        <ele>87</ele>
        <time>2014-04-14T14:18:43Z</time>
      </trkpt>
      <trkpt lat="47.94395" lon="3.4485">
        <ele>87</ele>
        <time>2014-04-14T14:18:49Z</time>
      </trkpt>
      <trkpt lat="47.9439" lon="3.44848">
        <ele>87</ele>
        <time>2014-04-14T14:18:53Z</time>
      </trkpt>
      <trkpt lat="47.94385" lon="3.44846">
        <ele>87</ele>
        <time>2014-04-14T14:18:57Z</time>
      </trkpt>
      <trkpt lat="47.9438" lon="3.44845">
        <ele>87</ele>
        <time>2014-04-14T14:19:00Z</time>
      </trkpt>
      <trkpt lat="47.94374" lon="3.44843">
        <ele>87</ele>
        <time>2014-04-14T14:19:03Z</time>
      </trkpt>
      <trkpt lat="47.94369" lon="3.44842">
        <ele>87</ele>
        <time>2014-04-14T14:19:06Z</time>
      </trkpt>
      <trkpt lat="47.94365" lon="3.44839">
        <ele>87</ele>
        <time>2014-04-14T14:19:10Z</time>
      </trkpt>
      <trkpt lat="47.9436" lon="3.44835">
        <ele>87</ele>
        <time>2014-04-14T14:19:15Z</time>
      </trkpt>
      <trkpt lat="47.94355" lon="3.44832">
        <ele>86</ele>
        <time>2014-04-14T14:19:19Z</time>
      </trkpt>
      <trkpt lat="47.94351" lon="3.4483">
        <ele>86</ele>
        <time>2014-04-14T14:19:23Z</time>
      </trkpt>
      <trkpt lat="47.94346" lon="3.44827">
        <ele>86</ele>
        <time>2014-04-14T14:19:27Z</time>
      </trkpt>
      <trkpt lat="47.94341" lon="3.44827">
        <ele>86</ele>
        <time>2014-04-14T14:19:35Z</time>
      </trkpt>
      <trkpt lat="47.94337" lon="3.4482">
        <ele>86</ele>
        <time>2014-04-14T14:19:39Z</time>
      </trkpt>
      <trkpt lat="47.94332" lon="3.44816">
        <ele>87</ele>
        <time>2014-04-14T14:19:43Z</time>
      </trkpt>
      <trkpt lat="47.94327" lon="3.44814">
        <ele>87</ele>
        <time>2014-04-14T14:19:47Z</time>
      </trkpt>
      <trkpt lat="47.94323" lon="3.44809">
        <ele>87</ele>
        <time>2014-04-14T14:19:52Z</time>
      </trkpt>
      <trkpt lat="47.94319" lon="3.44807">
        <ele>87</ele>
        <time>2014-04-14T14:19:56Z</time>
      </trkpt>
      <trkpt lat="47.94315" lon="3.44801">
        <ele>87</ele>
        <time>2014-04-14T14:20:01Z</time>
      </trkpt>
      <trkpt lat="47.9431" lon="3.448">
        <ele>87</ele>
        <time>2014-04-14T14:20:04Z</time>
      </trkpt>
      <trkpt lat="47.94306" lon="3.44796">
        <ele>87</ele>
        <time>2014-04-14T14:20:08Z</time>
      </trkpt>
      <trkpt lat="47.94301" lon="3.44793">
        <ele>87</ele>
        <time>2014-04-14T14:20:12Z</time>
      </trkpt>
      <trkpt lat="47.94285" lon="3.44786">
        <ele>87</ele>
        <time>2014-04-14T14:20:24Z</time>
      </trkpt>
      <trkpt lat="47.94282" lon="3.44781">
        <ele>87</ele>
        <time>2014-04-14T14:20:28Z</time>
      </trkpt>
      <trkpt lat="47.94277" lon="3.44779">
        <ele>87</ele>
        <time>2014-04-14T14:20:32Z</time>
      </trkpt>
      <trkpt lat="47.94272" lon="3.44777">
        <ele>87</ele>
        <time>2014-04-14T14:20:36Z</time>
      </trkpt>
      <trkpt lat="47.94268" lon="3.44774">
        <ele>87</ele>
        <time>2014-04-14T14:20:41Z</time>
      </trkpt>
      <trkpt lat="47.94264" lon="3.44769">
        <ele>87</ele>
        <time>2014-04-14T14:20:46Z</time>
      </trkpt>
      <trkpt lat="47.9426" lon="3.44764">
        <ele>87</ele>
        <time>2014-04-14T14:20:50Z</time>
      </trkpt>
      <trkpt lat="47.94255" lon="3.44762">
        <ele>87</ele>
        <time>2014-04-14T14:20:54Z</time>
      </trkpt>
      <trkpt lat="47.9425" lon="3.44762">
        <ele>88</ele>
        <time>2014-04-14T14:20:58Z</time>
      </trkpt>
      <trkpt lat="47.94246" lon="3.44758">
        <ele>88</ele>
        <time>2014-04-14T14:21:04Z</time>
      </trkpt>
      <trkpt lat="47.94242" lon="3.44754">
        <ele>88</ele>
        <time>2014-04-14T14:21:09Z</time>
      </trkpt>
      <trkpt lat="47.94236" lon="3.44751">
        <ele>88</ele>
        <time>2014-04-14T14:21:13Z</time>
      </trkpt>
      <trkpt lat="47.94231" lon="3.4475">
        <ele>87</ele>
        <time>2014-04-14T14:21:16Z</time>
      </trkpt>
      <trkpt lat="47.94226" lon="3.44746">
        <ele>87</ele>
        <time>2014-04-14T14:21:20Z</time>
      </trkpt>
      <trkpt lat="47.94223" lon="3.44739">
        <ele>86</ele>
        <time>2014-04-14T14:21:24Z</time>
      </trkpt>
      <trkpt lat="47.94219" lon="3.44734">
        <ele>86</ele>
        <time>2014-04-14T14:21:28Z</time>
      </trkpt>
      <trkpt lat="47.94216" lon="3.4473">
        <ele>86</ele>
        <time>2014-04-14T14:21:33Z</time>
      </trkpt>
      <trkpt lat="47.94211" lon="3.44729">
        <ele>86</ele>
        <time>2014-04-14T14:21:36Z</time>
      </trkpt>
      <trkpt lat="47.94206" lon="3.44726">
        <ele>86</ele>
        <time>2014-04-14T14:21:39Z</time>
      </trkpt>
      <trkpt lat="47.94202" lon="3.44721">
        <ele>86</ele>
        <time>2014-04-14T14:21:43Z</time>
      </trkpt>
      <trkpt lat="47.94197" lon="3.44719">
        <ele>86</ele>
        <time>2014-04-14T14:21:47Z</time>
      </trkpt>
      <trkpt lat="47.94192" lon="3.4472">
        <ele>87</ele>
        <time>2014-04-14T14:21:51Z</time>
      </trkpt>
      <trkpt lat="47.94188" lon="3.44717">
        <ele>86</ele>
        <time>2014-04-14T14:21:56Z</time>
      </trkpt>
      <trkpt lat="47.94183" lon="3.44713">
        <ele>86</ele>
        <time>2014-04-14T14:22:00Z</time>
      </trkpt>
      <trkpt lat="47.94179" lon="3.4471">
        <ele>86</ele>
        <time>2014-04-14T14:22:04Z</time>
      </trkpt>
      <trkpt lat="47.94174" lon="3.44708">
        <ele>86</ele>
        <time>2014-04-14T14:22:08Z</time>
      </trkpt>
      <trkpt lat="47.94169" lon="3.44708">
        <ele>86</ele>
        <time>2014-04-14T14:22:14Z</time>
      </trkpt>
      <trkpt lat="47.94164" lon="3.44711">
        <ele>88</ele>
        <time>2014-04-14T14:22:16Z</time>
      </trkpt>
      <trkpt lat="47.9416" lon="3.44715">
        <ele>88</ele>
        <time>2014-04-14T14:22:18Z</time>
      </trkpt>
      <trkpt lat="47.94155" lon="3.44717">
        <ele>88</ele>
        <time>2014-04-14T14:22:21Z</time>
      </trkpt>
      <trkpt lat="47.94151" lon="3.44712">
        <ele>88</ele>
        <time>2014-04-14T14:22:25Z</time>
      </trkpt>
      <trkpt lat="47.94148" lon="3.44706">
        <ele>88</ele>
        <time>2014-04-14T14:22:30Z</time>
      </trkpt>
      <trkpt lat="47.94145" lon="3.447">
        <ele>88</ele>
        <time>2014-04-14T14:22:34Z</time>
      </trkpt>
      <trkpt lat="47.94141" lon="3.44694">
        <ele>87</ele>
        <time>2014-04-14T14:22:38Z</time>
      </trkpt>
      <trkpt lat="47.94137" lon="3.4469">
        <ele>87</ele>
        <time>2014-04-14T14:22:42Z</time>
      </trkpt>
      <trkpt lat="47.94133" lon="3.44689">
        <ele>88</ele>
        <time>2014-04-14T14:22:47Z</time>
      </trkpt>
      <trkpt lat="47.94128" lon="3.44685">
        <ele>88</ele>
        <time>2014-04-14T14:22:51Z</time>
      </trkpt>
      <trkpt lat="47.94123" lon="3.4468">
        <ele>88</ele>
        <time>2014-04-14T14:22:55Z</time>
      </trkpt>
      <trkpt lat="47.9412" lon="3.44675">
        <ele>88</ele>
        <time>2014-04-14T14:23:00Z</time>
      </trkpt>
      <trkpt lat="47.94116" lon="3.44671">
        <ele>88</ele>
        <time>2014-04-14T14:23:05Z</time>
      </trkpt>
      <trkpt lat="47.94111" lon="3.44666">
        <ele>86</ele>
        <time>2014-04-14T14:23:10Z</time>
      </trkpt>
      <trkpt lat="47.94107" lon="3.44662">
        <ele>87</ele>
        <time>2014-04-14T14:23:14Z</time>
      </trkpt>
      <trkpt lat="47.94105" lon="3.44655">
        <ele>87</ele>
        <time>2014-04-14T14:23:20Z</time>
      </trkpt>
      <trkpt lat="47.94101" lon="3.44653">
        <ele>87</ele>
        <time>2014-04-14T14:23:23Z</time>
      </trkpt>
      <trkpt lat="47.94094" lon="3.44651">
        <ele>87</ele>
        <time>2014-04-14T14:23:27Z</time>
      </trkpt>
      <trkpt lat="47.94089" lon="3.44649">
        <ele>87</ele>
        <time>2014-04-14T14:23:33Z</time>
      </trkpt>
      <trkpt lat="47.94084" lon="3.44648">
        <ele>87</ele>
        <time>2014-04-14T14:23:37Z</time>
      </trkpt>
      <trkpt lat="47.94079" lon="3.44644">
        <ele>88</ele>
        <time>2014-04-14T14:23:41Z</time>
      </trkpt>
      <trkpt lat="47.94075" lon="3.44641">
        <ele>88</ele>
        <time>2014-04-14T14:23:45Z</time>
      </trkpt>
      <trkpt lat="47.94069" lon="3.44639">
        <ele>88</ele>
        <time>2014-04-14T14:23:50Z</time>
      </trkpt>
      <trkpt lat="47.94064" lon="3.4464">
        <ele>88</ele>
        <time>2014-04-14T14:23:52Z</time>
      </trkpt>
      <trkpt lat="47.94058" lon="3.44639">
        <ele>88</ele>
        <time>2014-04-14T14:23:55Z</time>
      </trkpt>
      <trkpt lat="47.94055" lon="3.44633">
        <ele>88</ele>
        <time>2014-04-14T14:23:59Z</time>
      </trkpt>
      <trkpt lat="47.94055" lon="3.44626">
        <ele>87</ele>
        <time>2014-04-14T14:24:05Z</time>
      </trkpt>
      <trkpt lat="47.94051" lon="3.4462">
        <ele>87</ele>
        <time>2014-04-14T14:24:10Z</time>
      </trkpt>
      <trkpt lat="47.94047" lon="3.44618">
        <ele>87</ele>
        <time>2014-04-14T14:24:14Z</time>
      </trkpt>
      <trkpt lat="47.94045" lon="3.44612">
        <ele>87</ele>
        <time>2014-04-14T14:24:20Z</time>
      </trkpt>
      <trkpt lat="47.94039" lon="3.4461">
        <ele>87</ele>
        <time>2014-04-14T14:24:26Z</time>
      </trkpt>
      <trkpt lat="47.94037" lon="3.44612">
        <ele>87</ele>
        <time>2014-04-14T14:24:32Z</time>
      </trkpt>
      <trkpt lat="47.94032" lon="3.44609">
        <ele>87</ele>
        <time>2014-04-14T14:24:43Z</time>
      </trkpt>
      <trkpt lat="47.94027" lon="3.44607">
        <ele>87</ele>
        <time>2014-04-14T14:24:46Z</time>
      </trkpt>
      <trkpt lat="47.94022" lon="3.44605">
        <ele>87</ele>
        <time>2014-04-14T14:24:50Z</time>
      </trkpt>
      <trkpt lat="47.94018" lon="3.44604">
        <ele>87</ele>
        <time>2014-04-14T14:24:53Z</time>
      </trkpt>
      <trkpt lat="47.94013" lon="3.44601">
        <ele>87</ele>
        <time>2014-04-14T14:24:57Z</time>
      </trkpt>
      <trkpt lat="47.9401" lon="3.44598">
        <ele>87</ele>
        <time>2014-04-14T14:25:01Z</time>
      </trkpt>
      <trkpt lat="47.94005" lon="3.44594">
        <ele>87</ele>
        <time>2014-04-14T14:25:05Z</time>
      </trkpt>
      <trkpt lat="47.94001" lon="3.4459">
        <ele>87</ele>
        <time>2014-04-14T14:25:09Z</time>
      </trkpt>
      <trkpt lat="47.93996" lon="3.44586">
        <ele>87</ele>
        <time>2014-04-14T14:25:12Z</time>
      </trkpt>
      <trkpt lat="47.93992" lon="3.44583">
        <ele>87</ele>
        <time>2014-04-14T14:25:16Z</time>
      </trkpt>
      <trkpt lat="47.93987" lon="3.44581">
        <ele>87</ele>
        <time>2014-04-14T14:25:20Z</time>
      </trkpt>
      <trkpt lat="47.93982" lon="3.44578">
        <ele>88</ele>
        <time>2014-04-14T14:25:24Z</time>
      </trkpt>
      <trkpt lat="47.93978" lon="3.44575">
        <ele>88</ele>
        <time>2014-04-14T14:25:28Z</time>
      </trkpt>
      <trkpt lat="47.93974" lon="3.44572">
        <ele>88</ele>
        <time>2014-04-14T14:25:32Z</time>
      </trkpt>
      <trkpt lat="47.93969" lon="3.44569">
        <ele>88</ele>
        <time>2014-04-14T14:25:36Z</time>
      </trkpt>
      <trkpt lat="47.93965" lon="3.44566">
        <ele>88</ele>
        <time>2014-04-14T14:25:40Z</time>
      </trkpt>
      <trkpt lat="47.93962" lon="3.44561">
        <ele>88</ele>
        <time>2014-04-14T14:25:44Z</time>
      </trkpt>
      <trkpt lat="47.93959" lon="3.44555">
        <ele>88</ele>
        <time>2014-04-14T14:25:48Z</time>
      </trkpt>
      <trkpt lat="47.93954" lon="3.44554">
        <ele>88</ele>
        <time>2014-04-14T14:25:52Z</time>
      </trkpt>
      <trkpt lat="47.9395" lon="3.44552">
        <ele>88</ele>
        <time>2014-04-14T14:25:56Z</time>
      </trkpt>
      <trkpt lat="47.93945" lon="3.4455">
        <ele>88</ele>
        <time>2014-04-14T14:26:00Z</time>
      </trkpt>
      <trkpt lat="47.9394" lon="3.44547">
        <ele>88</ele>
        <time>2014-04-14T14:26:05Z</time>
      </trkpt>
      <trkpt lat="47.93935" lon="3.44545">
        <ele>88</ele>
        <time>2014-04-14T14:26:09Z</time>
      </trkpt>
      <trkpt lat="47.93931" lon="3.44542">
        <ele>88</ele>
        <time>2014-04-14T14:26:13Z</time>
      </trkpt>
      <trkpt lat="47.93926" lon="3.44539">
        <ele>88</ele>
        <time>2014-04-14T14:26:18Z</time>
      </trkpt>
      <trkpt lat="47.93921" lon="3.44537">
        <ele>88</ele>
        <time>2014-04-14T14:26:22Z</time>
      </trkpt>
      <trkpt lat="47.93917" lon="3.44534">
        <ele>88</ele>
        <time>2014-04-14T14:26:26Z</time>
      </trkpt>
      <trkpt lat="47.93913" lon="3.44531">
        <ele>88</ele>
        <time>2014-04-14T14:26:30Z</time>
      </trkpt>
      <trkpt lat="47.93908" lon="3.44529">
        <ele>88</ele>
        <time>2014-04-14T14:26:34Z</time>
      </trkpt>
      <trkpt lat="47.93903" lon="3.44527">
        <ele>88</ele>
        <time>2014-04-14T14:26:38Z</time>
      </trkpt>
      <trkpt lat="47.93898" lon="3.44522">
        <ele>88</ele>
        <time>2014-04-14T14:26:42Z</time>
      </trkpt>
      <trkpt lat="47.93895" lon="3.44518">
        <ele>88</ele>
        <time>2014-04-14T14:26:46Z</time>
      </trkpt>
      <trkpt lat="47.93891" lon="3.44514">
        <ele>88</ele>
        <time>2014-04-14T14:26:50Z</time>
      </trkpt>
      <trkpt lat="47.93887" lon="3.44509">
        <ele>88</ele>
        <time>2014-04-14T14:26:54Z</time>
      </trkpt>
      <trkpt lat="47.93882" lon="3.44508">
        <ele>88</ele>
        <time>2014-04-14T14:26:59Z</time>
      </trkpt>
      <trkpt lat="47.93878" lon="3.44505">
        <ele>88</ele>
        <time>2014-04-14T14:27:03Z</time>
      </trkpt>
      <trkpt lat="47.93873" lon="3.44502">
        <ele>88</ele>
        <time>2014-04-14T14:27:07Z</time>
      </trkpt>
      <trkpt lat="47.93868" lon="3.445">
        <ele>87</ele>
        <time>2014-04-14T14:27:11Z</time>
      </trkpt>
      <trkpt lat="47.93864" lon="3.44497">
        <ele>87</ele>
        <time>2014-04-14T14:27:15Z</time>
      </trkpt>
      <trkpt lat="47.93859" lon="3.44494">
        <ele>87</ele>
        <time>2014-04-14T14:27:19Z</time>
      </trkpt>
      <trkpt lat="47.93855" lon="3.44491">
        <ele>88</ele>
        <time>2014-04-14T14:27:23Z</time>
      </trkpt>
      <trkpt lat="47.93851" lon="3.44487">
        <ele>88</ele>
        <time>2014-04-14T14:27:28Z</time>
      </trkpt>
      <trkpt lat="47.93846" lon="3.44484">
        <ele>88</ele>
        <time>2014-04-14T14:27:32Z</time>
      </trkpt>
      <trkpt lat="47.93842" lon="3.44482">
        <ele>88</ele>
        <time>2014-04-14T14:27:36Z</time>
      </trkpt>
      <trkpt lat="47.93838" lon="3.44477">
        <ele>88</ele>
        <time>2014-04-14T14:27:41Z</time>
      </trkpt>
      <trkpt lat="47.93834" lon="3.44473">
        <ele>87</ele>
        <time>2014-04-14T14:27:45Z</time>
      </trkpt>
      <trkpt lat="47.9383" lon="3.44468">
        <ele>88</ele>
        <time>2014-04-14T14:27:49Z</time>
      </trkpt>
      <trkpt lat="47.93826" lon="3.44463">
        <ele>88</ele>
        <time>2014-04-14T14:27:53Z</time>
      </trkpt>
      <trkpt lat="47.93823" lon="3.44458">
        <ele>88</ele>
        <time>2014-04-14T14:27:56Z</time>
      </trkpt>
      <trkpt lat="47.93819" lon="3.44454">
        <ele>88</ele>
        <time>2014-04-14T14:28:00Z</time>
      </trkpt>
      <trkpt lat="47.93815" lon="3.44452">
        <ele>88</ele>
        <time>2014-04-14T14:28:04Z</time>
      </trkpt>
      <trkpt lat="47.93811" lon="3.44448">
        <ele>88</ele>
        <time>2014-04-14T14:28:08Z</time>
      </trkpt>
      <trkpt lat="47.93809" lon="3.44441">
        <ele>88</ele>
        <time>2014-04-14T14:28:12Z</time>
      </trkpt>
      <trkpt lat="47.93804" lon="3.44436">
        <ele>88</ele>
        <time>2014-04-14T14:28:17Z</time>
      </trkpt>
      <trkpt lat="47.93801" lon="3.44431">
        <ele>88</ele>
        <time>2014-04-14T14:28:21Z</time>
      </trkpt>
      <trkpt lat="47.93797" lon="3.44427">
        <ele>88</ele>
        <time>2014-04-14T14:28:25Z</time>
      </trkpt>
      <trkpt lat="47.93794" lon="3.44419">
        <ele>88</ele>
        <time>2014-04-14T14:28:30Z</time>
      </trkpt>
      <trkpt lat="47.93791" lon="3.44415">
        <ele>88</ele>
        <time>2014-04-14T14:28:34Z</time>
      </trkpt>
      <trkpt lat="47.93787" lon="3.44412">
        <ele>88</ele>
        <time>2014-04-14T14:28:38Z</time>
      </trkpt>
      <trkpt lat="47.93782" lon="3.44407">
        <ele>88</ele>
        <time>2014-04-14T14:28:42Z</time>
      </trkpt>
      <trkpt lat="47.93779" lon="3.44403">
        <ele>88</ele>
        <time>2014-04-14T14:28:46Z</time>
      </trkpt>
      <trkpt lat="47.93775" lon="3.44399">
        <ele>88</ele>
        <time>2014-04-14T14:28:51Z</time>
      </trkpt>
      <trkpt lat="47.93771" lon="3.44395">
        <ele>88</ele>
        <time>2014-04-14T14:28:55Z</time>
      </trkpt>
      <trkpt lat="47.93767" lon="3.44389">
        <ele>88</ele>
        <time>2014-04-14T14:28:59Z</time>
      </trkpt>
      <trkpt lat="47.93763" lon="3.44384">
        <ele>88</ele>
        <time>2014-04-14T14:29:03Z</time>
      </trkpt>
      <trkpt lat="47.9376" lon="3.44378">
        <ele>88</ele>
        <time>2014-04-14T14:29:07Z</time>
      </trkpt>
      <trkpt lat="47.93756" lon="3.44372">
        <ele>88</ele>
        <time>2014-04-14T14:29:13Z</time>
      </trkpt>
      <trkpt lat="47.93752" lon="3.44366">
        <ele>88</ele>
        <time>2014-04-14T14:29:17Z</time>
      </trkpt>
      <trkpt lat="47.93748" lon="3.44362">
        <ele>89</ele>
        <time>2014-04-14T14:29:21Z</time>
      </trkpt>
      <trkpt lat="47.93743" lon="3.44361">
        <ele>89</ele>
        <time>2014-04-14T14:29:25Z</time>
      </trkpt>
      <trkpt lat="47.9374" lon="3.44357">
        <ele>89</ele>
        <time>2014-04-14T14:29:32Z</time>
      </trkpt>
      <trkpt lat="47.93736" lon="3.44351">
        <ele>89</ele>
        <time>2014-04-14T14:29:37Z</time>
      </trkpt>
      <trkpt lat="47.93733" lon="3.44346">
        <ele>89</ele>
        <time>2014-04-14T14:29:41Z</time>
      </trkpt>
      <trkpt lat="47.93729" lon="3.4434">
        <ele>89</ele>
        <time>2014-04-14T14:29:44Z</time>
      </trkpt>
      <trkpt lat="47.93725" lon="3.44335">
        <ele>89</ele>
        <time>2014-04-14T14:29:48Z</time>
      </trkpt>
      <trkpt lat="47.93721" lon="3.44331">
        <ele>88</ele>
        <time>2014-04-14T14:29:53Z</time>
      </trkpt>
      <trkpt lat="47.93716" lon="3.44329">
        <ele>89</ele>
        <time>2014-04-14T14:29:58Z</time>
      </trkpt>
      <trkpt lat="47.93711" lon="3.4433">
        <ele>89</ele>
        <time>2014-04-14T14:30:02Z</time>
      </trkpt>
      <trkpt lat="47.93705" lon="3.44329">
        <ele>89</ele>
        <time>2014-04-14T14:30:32Z</time>
      </trkpt>
      <trkpt lat="47.937" lon="3.44331">
        <ele>89</ele>
        <time>2014-04-14T14:30:38Z</time>
      </trkpt>
      <trkpt lat="47.93694" lon="3.4433">
        <ele>89</ele>
        <time>2014-04-14T14:30:42Z</time>
      </trkpt>
      <trkpt lat="47.93689" lon="3.44332">
        <ele>89</ele>
        <time>2014-04-14T14:30:45Z</time>
      </trkpt>
      <trkpt lat="47.93685" lon="3.44333">
        <ele>89</ele>
        <time>2014-04-14T14:30:48Z</time>
      </trkpt>
      <trkpt lat="47.9368" lon="3.44333">
        <ele>89</ele>
        <time>2014-04-14T14:30:51Z</time>
      </trkpt>
      <trkpt lat="47.93676" lon="3.4433">
        <ele>90</ele>
        <time>2014-04-14T14:30:54Z</time>
      </trkpt>
      <trkpt lat="47.93671" lon="3.44329">
        <ele>90</ele>
        <time>2014-04-14T14:30:58Z</time>
      </trkpt>
      <trkpt lat="47.93666" lon="3.44325">
        <ele>90</ele>
        <time>2014-04-14T14:31:03Z</time>
      </trkpt>
      <trkpt lat="47.93662" lon="3.44327">
        <ele>90</ele>
        <time>2014-04-14T14:31:07Z</time>
      </trkpt>
      <trkpt lat="47.93658" lon="3.44329">
        <ele>90</ele>
        <time>2014-04-14T14:31:11Z</time>
      </trkpt>
      <trkpt lat="47.93653" lon="3.4433">
        <ele>90</ele>
        <time>2014-04-14T14:31:15Z</time>
      </trkpt>
      <trkpt lat="47.93648" lon="3.44332">
        <ele>90</ele>
        <time>2014-04-14T14:31:20Z</time>
      </trkpt>
      <trkpt lat="47.93643" lon="3.44332">
        <ele>90</ele>
        <time>2014-04-14T14:31:24Z</time>
      </trkpt>
      <trkpt lat="47.93637" lon="3.44333">
        <ele>90</ele>
        <time>2014-04-14T14:31:29Z</time>
      </trkpt>
      <trkpt lat="47.93632" lon="3.44331">
        <ele>90</ele>
        <time>2014-04-14T14:31:34Z</time>
      </trkpt>
      <trkpt lat="47.93627" lon="3.44332">
        <ele>90</ele>
        <time>2014-04-14T14:31:39Z</time>
      </trkpt>
      <trkpt lat="47.93621" lon="3.44332">
        <ele>90</ele>
        <time>2014-04-14T14:31:44Z</time>
      </trkpt>
      <trkpt lat="47.93616" lon="3.44332">
        <ele>90</ele>
        <time>2014-04-14T14:31:48Z</time>
      </trkpt>
      <trkpt lat="47.9361" lon="3.44332">
        <ele>90</ele>
        <time>2014-04-14T14:31:53Z</time>
      </trkpt>
      <trkpt lat="47.93605" lon="3.44332">
        <ele>91</ele>
        <time>2014-04-14T14:31:57Z</time>
      </trkpt>
      <trkpt lat="47.93601" lon="3.44332">
        <ele>91</ele>
        <time>2014-04-14T14:32:01Z</time>
      </trkpt>
      <trkpt lat="47.93595" lon="3.44333">
        <ele>91</ele>
        <time>2014-04-14T14:32:06Z</time>
      </trkpt>
      <trkpt lat="47.93591" lon="3.44333">
        <ele>91</ele>
        <time>2014-04-14T14:32:11Z</time>
      </trkpt>
      <trkpt lat="47.93585" lon="3.44333">
        <ele>91</ele>
        <time>2014-04-14T14:32:15Z</time>
      </trkpt>
      <trkpt lat="47.9358" lon="3.44333">
        <ele>91</ele>
        <time>2014-04-14T14:32:20Z</time>
      </trkpt>
      <trkpt lat="47.93575" lon="3.44333">
        <ele>92</ele>
        <time>2014-04-14T14:32:24Z</time>
      </trkpt>
      <trkpt lat="47.9357" lon="3.44334">
        <ele>92</ele>
        <time>2014-04-14T14:32:29Z</time>
      </trkpt>
      <trkpt lat="47.93565" lon="3.44333">
        <ele>92</ele>
        <time>2014-04-14T14:32:33Z</time>
      </trkpt>
      <trkpt lat="47.9356" lon="3.44333">
        <ele>91</ele>
        <time>2014-04-14T14:32:38Z</time>
      </trkpt>
      <trkpt lat="47.93554" lon="3.44334">
        <ele>92</ele>
        <time>2014-04-14T14:32:43Z</time>
      </trkpt>
      <trkpt lat="47.93549" lon="3.44334">
        <ele>92</ele>
        <time>2014-04-14T14:32:48Z</time>
      </trkpt>
      <trkpt lat="47.93545" lon="3.4433">
        <ele>91</ele>
        <time>2014-04-14T14:32:53Z</time>
      </trkpt>
      <trkpt lat="47.9354" lon="3.4433">
        <ele>91</ele>
        <time>2014-04-14T14:32:59Z</time>
      </trkpt>
      <trkpt lat="47.93535" lon="3.44331">
        <ele>91</ele>
        <time>2014-04-14T14:33:03Z</time>
      </trkpt>
      <trkpt lat="47.9353" lon="3.44331">
        <ele>91</ele>
        <time>2014-04-14T14:33:09Z</time>
      </trkpt>
      <trkpt lat="47.93524" lon="3.44332">
        <ele>91</ele>
        <time>2014-04-14T14:33:32Z</time>
      </trkpt>
      <trkpt lat="47.93519" lon="3.44333">
        <ele>91</ele>
        <time>2014-04-14T14:33:36Z</time>
      </trkpt>
      <trkpt lat="47.93513" lon="3.44334">
        <ele>92</ele>
        <time>2014-04-14T14:33:40Z</time>
      </trkpt>
      <trkpt lat="47.93508" lon="3.44336">
        <ele>92</ele>
        <time>2014-04-14T14:33:44Z</time>
      </trkpt>
      <trkpt lat="47.93504" lon="3.44338">
        <ele>92</ele>
        <time>2014-04-14T14:33:48Z</time>
      </trkpt>
      <trkpt lat="47.93499" lon="3.44339">
        <ele>92</ele>
        <time>2014-04-14T14:33:52Z</time>
      </trkpt>
      <trkpt lat="47.93495" lon="3.44342">
        <ele>92</ele>
        <time>2014-04-14T14:34:00Z</time>
      </trkpt>
      <trkpt lat="47.9349" lon="3.44344">
        <ele>93</ele>
        <time>2014-04-14T14:34:04Z</time>
      </trkpt>
      <trkpt lat="47.93486" lon="3.44346">
        <ele>93</ele>
        <time>2014-04-14T14:34:08Z</time>
      </trkpt>
      <trkpt lat="47.93481" lon="3.44348">
        <ele>93</ele>
        <time>2014-04-14T14:34:12Z</time>
      </trkpt>
      <trkpt lat="47.93477" lon="3.44351">
        <ele>93</ele>
        <time>2014-04-14T14:34:16Z</time>
      </trkpt>
      <trkpt lat="47.93472" lon="3.44355">
        <ele>93</ele>
        <time>2014-04-14T14:34:20Z</time>
      </trkpt>
      <trkpt lat="47.93467" lon="3.44359">
        <ele>93</ele>
        <time>2014-04-14T14:34:24Z</time>
      </trkpt>
      <trkpt lat="47.93463" lon="3.44359">
        <ele>93</ele>
        <time>2014-04-14T14:34:29Z</time>
      </trkpt>
      <trkpt lat="47.93458" lon="3.44362">
        <ele>93</ele>
        <time>2014-04-14T14:34:33Z</time>
      </trkpt>
      <trkpt lat="47.93453" lon="3.44364">
        <ele>93</ele>
        <time>2014-04-14T14:34:38Z</time>
      </trkpt>
      <trkpt lat="47.93447" lon="3.44365">
        <ele>93</ele>
        <time>2014-04-14T14:34:42Z</time>
      </trkpt>
      <trkpt lat="47.93443" lon="3.44363">
        <ele>93</ele>
        <time>2014-04-14T14:34:47Z</time>
      </trkpt>
      <trkpt lat="47.93438" lon="3.44365">
        <ele>93</ele>
        <time>2014-04-14T14:34:53Z</time>
      </trkpt>
      <trkpt lat="47.93434" lon="3.44367">
        <ele>93</ele>
        <time>2014-04-14T14:34:57Z</time>
      </trkpt>
      <trkpt lat="47.93429" lon="3.44368">
        <ele>93</ele>
        <time>2014-04-14T14:35:02Z</time>
      </trkpt>
      <trkpt lat="47.93424" lon="3.4437">
        <ele>93</ele>
        <time>2014-04-14T14:35:06Z</time>
      </trkpt>
      <trkpt lat="47.9342" lon="3.44372">
        <ele>93</ele>
        <time>2014-04-14T14:35:10Z</time>
      </trkpt>
      <trkpt lat="47.93415" lon="3.44373">
        <ele>93</ele>
        <time>2014-04-14T14:35:14Z</time>
      </trkpt>
      <trkpt lat="47.9341" lon="3.44375">
        <ele>93</ele>
        <time>2014-04-14T14:35:18Z</time>
      </trkpt>
      <trkpt lat="47.93406" lon="3.44377">
        <ele>93</ele>
        <time>2014-04-14T14:35:22Z</time>
      </trkpt>
      <trkpt lat="47.93401" lon="3.44378">
        <ele>93</ele>
        <time>2014-04-14T14:35:26Z</time>
      </trkpt>
      <trkpt lat="47.93396" lon="3.44378">
        <ele>93</ele>
        <time>2014-04-14T14:35:30Z</time>
      </trkpt>
      <trkpt lat="47.93391" lon="3.44379">
        <ele>93</ele>
        <time>2014-04-14T14:35:35Z</time>
      </trkpt>
      <trkpt lat="47.93386" lon="3.4438">
        <ele>93</ele>
        <time>2014-04-14T14:35:39Z</time>
      </trkpt>
      <trkpt lat="47.93382" lon="3.44381">
        <ele>93</ele>
        <time>2014-04-14T14:35:43Z</time>
      </trkpt>
      <trkpt lat="47.93376" lon="3.44382">
        <ele>93</ele>
        <time>2014-04-14T14:35:48Z</time>
      </trkpt>
      <trkpt lat="47.93372" lon="3.44384">
        <ele>93</ele>
        <time>2014-04-14T14:35:52Z</time>
      </trkpt>
      <trkpt lat="47.93367" lon="3.44386">
        <ele>93</ele>
        <time>2014-04-14T14:35:57Z</time>
      </trkpt>
      <trkpt lat="47.93362" lon="3.44386">
        <ele>93</ele>
        <time>2014-04-14T14:36:02Z</time>
      </trkpt>
      <trkpt lat="47.93357" lon="3.44389">
        <ele>93</ele>
        <time>2014-04-14T14:36:07Z</time>
      </trkpt>
      <trkpt lat="47.93352" lon="3.44392">
        <ele>93</ele>
        <time>2014-04-14T14:36:12Z</time>
      </trkpt>
      <trkpt lat="47.93347" lon="3.44393">
        <ele>93</ele>
        <time>2014-04-14T14:36:16Z</time>
      </trkpt>
      <trkpt lat="47.93342" lon="3.44394">
        <ele>94</ele>
        <time>2014-04-14T14:36:21Z</time>
      </trkpt>
      <trkpt lat="47.93337" lon="3.44395">
        <ele>94</ele>
        <time>2014-04-14T14:36:25Z</time>
      </trkpt>
      <trkpt lat="47.93332" lon="3.44396">
        <ele>95</ele>
        <time>2014-04-14T14:36:29Z</time>
      </trkpt>
      <trkpt lat="47.93327" lon="3.44396">
        <ele>95</ele>
        <time>2014-04-14T14:36:33Z</time>
      </trkpt>
      <trkpt lat="47.93322" lon="3.44398">
        <ele>95</ele>
        <time>2014-04-14T14:36:38Z</time>
      </trkpt>
      <trkpt lat="47.93317" lon="3.44398">
        <ele>95</ele>
        <time>2014-04-14T14:36:43Z</time>
      </trkpt>
      <trkpt lat="47.93312" lon="3.44399">
        <ele>95</ele>
        <time>2014-04-14T14:36:47Z</time>
      </trkpt>
      <trkpt lat="47.93307" lon="3.444">
        <ele>95</ele>
        <time>2014-04-14T14:36:51Z</time>
      </trkpt>
      <trkpt lat="47.93302" lon="3.444">
        <ele>95</ele>
        <time>2014-04-14T14:36:55Z</time>
      </trkpt>
      <trkpt lat="47.93297" lon="3.44401">
        <ele>95</ele>
        <time>2014-04-14T14:37:00Z</time>
      </trkpt>
      <trkpt lat="47.93292" lon="3.44401">
        <ele>95</ele>
        <time>2014-04-14T14:37:05Z</time>
      </trkpt>
      <trkpt lat="47.93287" lon="3.44402">
        <ele>95</ele>
        <time>2014-04-14T14:37:23Z</time>
      </trkpt>
      <trkpt lat="47.93282" lon="3.44401">
        <ele>95</ele>
        <time>2014-04-14T14:37:28Z</time>
      </trkpt>
      <trkpt lat="47.93277" lon="3.444">
        <ele>95</ele>
        <time>2014-04-14T14:37:32Z</time>
      </trkpt>
      <trkpt lat="47.93273" lon="3.44401">
        <ele>96</ele>
        <time>2014-04-14T14:37:36Z</time>
      </trkpt>
      <trkpt lat="47.93268" lon="3.44401">
        <ele>96</ele>
        <time>2014-04-14T14:37:40Z</time>
      </trkpt>
      <trkpt lat="47.93263" lon="3.444">
        <ele>96</ele>
        <time>2014-04-14T14:37:46Z</time>
      </trkpt>
      <trkpt lat="47.93257" lon="3.44399">
        <ele>96</ele>
        <time>2014-04-14T14:37:51Z</time>
      </trkpt>
      <trkpt lat="47.93253" lon="3.44395">
        <ele>96</ele>
        <time>2014-04-14T14:37:54Z</time>
      </trkpt>
      <trkpt lat="47.93248" lon="3.44395">
        <ele>97</ele>
        <time>2014-04-14T14:37:58Z</time>
      </trkpt>
      <trkpt lat="47.93243" lon="3.44394">
        <ele>97</ele>
        <time>2014-04-14T14:38:02Z</time>
      </trkpt>
      <trkpt lat="47.93238" lon="3.44394">
        <ele>97</ele>
        <time>2014-04-14T14:38:07Z</time>
      </trkpt>
      <trkpt lat="47.93233" lon="3.44393">
        <ele>97</ele>
        <time>2014-04-14T14:38:11Z</time>
      </trkpt>
      <trkpt lat="47.93228" lon="3.44391">
        <ele>97</ele>
        <time>2014-04-14T14:38:15Z</time>
      </trkpt>
      <trkpt lat="47.93223" lon="3.44391">
        <ele>97</ele>
        <time>2014-04-14T14:38:20Z</time>
      </trkpt>
      <trkpt lat="47.93218" lon="3.44389">
        <ele>97</ele>
        <time>2014-04-14T14:38:25Z</time>
      </trkpt>
      <trkpt lat="47.93213" lon="3.44389">
        <ele>97</ele>
        <time>2014-04-14T14:38:30Z</time>
      </trkpt>
      <trkpt lat="47.93209" lon="3.44389">
        <ele>97</ele>
        <time>2014-04-14T14:38:34Z</time>
      </trkpt>
      <trkpt lat="47.93204" lon="3.44389">
        <ele>97</ele>
        <time>2014-04-14T14:38:39Z</time>
      </trkpt>
      <trkpt lat="47.93199" lon="3.44387">
        <ele>97</ele>
        <time>2014-04-14T14:38:44Z</time>
      </trkpt>
      <trkpt lat="47.93194" lon="3.44386">
        <ele>97</ele>
        <time>2014-04-14T14:38:49Z</time>
      </trkpt>
      <trkpt lat="47.9319" lon="3.44396">
        <ele>97</ele>
        <time>2014-04-14T14:38:52Z</time>
      </trkpt>
      <trkpt lat="47.93184" lon="3.44394">
        <ele>97</ele>
        <time>2014-04-14T14:38:56Z</time>
      </trkpt>
      <trkpt lat="47.93179" lon="3.44391">
        <ele>97</ele>
        <time>2014-04-14T14:39:01Z</time>
      </trkpt>
      <trkpt lat="47.93174" lon="3.44389">
        <ele>97</ele>
        <time>2014-04-14T14:39:06Z</time>
      </trkpt>
      <trkpt lat="47.93169" lon="3.44387">
        <ele>97</ele>
        <time>2014-04-14T14:39:10Z</time>
      </trkpt>
      <trkpt lat="47.93164" lon="3.44387">
        <ele>96</ele>
        <time>2014-04-14T14:39:14Z</time>
      </trkpt>
      <trkpt lat="47.93158" lon="3.44385">
        <ele>96</ele>
        <time>2014-04-14T14:39:19Z</time>
      </trkpt>
      <trkpt lat="47.93154" lon="3.44382">
        <ele>96</ele>
        <time>2014-04-14T14:39:24Z</time>
      </trkpt>
      <trkpt lat="47.93149" lon="3.4438">
        <ele>96</ele>
        <time>2014-04-14T14:39:29Z</time>
      </trkpt>
      <trkpt lat="47.93144" lon="3.4438">
        <ele>96</ele>
        <time>2014-04-14T14:39:33Z</time>
      </trkpt>
      <trkpt lat="47.9314" lon="3.4438">
        <ele>96</ele>
        <time>2014-04-14T14:39:37Z</time>
      </trkpt>
      <trkpt lat="47.93134" lon="3.4438">
        <ele>96</ele>
        <time>2014-04-14T14:39:43Z</time>
      </trkpt>
      <trkpt lat="47.93129" lon="3.44379">
        <ele>95</ele>
        <time>2014-04-14T14:39:47Z</time>
      </trkpt>
      <trkpt lat="47.93123" lon="3.44379">
        <ele>95</ele>
        <time>2014-04-14T14:39:52Z</time>
      </trkpt>
      <trkpt lat="47.93118" lon="3.44379">
        <ele>95</ele>
        <time>2014-04-14T14:39:56Z</time>
      </trkpt>
      <trkpt lat="47.93113" lon="3.4438">
        <ele>95</ele>
        <time>2014-04-14T14:39:59Z</time>
      </trkpt>
      <trkpt lat="47.93109" lon="3.44378">
        <ele>95</ele>
        <time>2014-04-14T14:40:03Z</time>
      </trkpt>
      <trkpt lat="47.93104" lon="3.44376">
        <ele>95</ele>
        <time>2014-04-14T14:40:07Z</time>
      </trkpt>
      <trkpt lat="47.931" lon="3.44375">
        <ele>95</ele>
        <time>2014-04-14T14:40:12Z</time>
      </trkpt>
      <trkpt lat="47.93095" lon="3.44374">
        <ele>95</ele>
        <time>2014-04-14T14:40:17Z</time>
      </trkpt>
      <trkpt lat="47.93089" lon="3.44376">
        <ele>95</ele>
        <time>2014-04-14T14:40:20Z</time>
      </trkpt>
      <trkpt lat="47.93084" lon="3.44378">
        <ele>95</ele>
        <time>2014-04-14T14:40:23Z</time>
      </trkpt>
      <trkpt lat="47.93081" lon="3.44373">
        <ele>93</ele>
        <time>2014-04-14T14:40:29Z</time>
      </trkpt>
      <trkpt lat="47.93078" lon="3.44367">
        <ele>92</ele>
        <time>2014-04-14T14:40:36Z</time>
      </trkpt>
      <trkpt lat="47.93073" lon="3.44366">
        <ele>92</ele>
        <time>2014-04-14T14:40:41Z</time>
      </trkpt>
      <trkpt lat="47.93068" lon="3.44366">
        <ele>92</ele>
        <time>2014-04-14T14:40:45Z</time>
      </trkpt>
      <trkpt lat="47.93063" lon="3.44363">
        <ele>92</ele>
        <time>2014-04-14T14:40:49Z</time>
      </trkpt>
      <trkpt lat="47.93059" lon="3.44359">
        <ele>92</ele>
        <time>2014-04-14T14:40:54Z</time>
      </trkpt>
      <trkpt lat="47.93054" lon="3.44357">
        <ele>92</ele>
        <time>2014-04-14T14:40:58Z</time>
      </trkpt>
      <trkpt lat="47.93049" lon="3.44354">
        <ele>92</ele>
        <time>2014-04-14T14:41:02Z</time>
      </trkpt>
      <trkpt lat="47.93044" lon="3.44352">
        <ele>92</ele>
        <time>2014-04-14T14:41:07Z</time>
      </trkpt>
      <trkpt lat="47.93039" lon="3.44351">
        <ele>91</ele>
        <time>2014-04-14T14:41:12Z</time>
      </trkpt>
      <trkpt lat="47.93034" lon="3.44348">
        <ele>91</ele>
        <time>2014-04-14T14:41:17Z</time>
      </trkpt>
      <trkpt lat="47.9303" lon="3.44345">
        <ele>91</ele>
        <time>2014-04-14T14:41:23Z</time>
      </trkpt>
      <trkpt lat="47.93025" lon="3.44343">
        <ele>91</ele>
        <time>2014-04-14T14:41:27Z</time>
      </trkpt>
      <trkpt lat="47.9302" lon="3.4434">
        <ele>90</ele>
        <time>2014-04-14T14:41:31Z</time>
      </trkpt>
      <trkpt lat="47.93014" lon="3.44339">
        <ele>90</ele>
        <time>2014-04-14T14:41:36Z</time>
      </trkpt>
      <trkpt lat="47.93009" lon="3.44338">
        <ele>89</ele>
        <time>2014-04-14T14:41:41Z</time>
      </trkpt>
      <trkpt lat="47.93005" lon="3.44337">
        <ele>89</ele>
        <time>2014-04-14T14:41:46Z</time>
      </trkpt>
      <trkpt lat="47.92999" lon="3.44336">
        <ele>88</ele>
        <time>2014-04-14T14:41:50Z</time>
      </trkpt>
      <trkpt lat="47.92993" lon="3.44337">
        <ele>89</ele>
        <time>2014-04-14T14:41:56Z</time>
      </trkpt>
      <trkpt lat="47.92989" lon="3.44336">
        <ele>89</ele>
        <time>2014-04-14T14:42:00Z</time>
      </trkpt>
      <trkpt lat="47.92984" lon="3.44333">
        <ele>88</ele>
        <time>2014-04-14T14:42:04Z</time>
      </trkpt>
      <trkpt lat="47.92979" lon="3.44332">
        <ele>88</ele>
        <time>2014-04-14T14:42:08Z</time>
      </trkpt>
      <trkpt lat="47.92974" lon="3.4433">
        <ele>88</ele>
        <time>2014-04-14T14:42:12Z</time>
      </trkpt>
      <trkpt lat="47.9297" lon="3.44326">
        <ele>88</ele>
        <time>2014-04-14T14:42:16Z</time>
      </trkpt>
      <trkpt lat="47.92966" lon="3.44325">
        <ele>88</ele>
        <time>2014-04-14T14:42:20Z</time>
      </trkpt>
      <trkpt lat="47.92961" lon="3.44323">
        <ele>88</ele>
        <time>2014-04-14T14:42:25Z</time>
      </trkpt>
      <trkpt lat="47.92957" lon="3.44322">
        <ele>88</ele>
        <time>2014-04-14T14:42:30Z</time>
      </trkpt>
      <trkpt lat="47.92952" lon="3.44321">
        <ele>88</ele>
        <time>2014-04-14T14:42:34Z</time>
      </trkpt>
      <trkpt lat="47.92948" lon="3.4432">
        <ele>88</ele>
        <time>2014-04-14T14:42:38Z</time>
      </trkpt>
      <trkpt lat="47.92942" lon="3.44318">
        <ele>89</ele>
        <time>2014-04-14T14:42:43Z</time>
      </trkpt>
      <trkpt lat="47.92938" lon="3.44315">
        <ele>89</ele>
        <time>2014-04-14T14:42:48Z</time>
      </trkpt>
      <trkpt lat="47.92933" lon="3.44314">
        <ele>89</ele>
        <time>2014-04-14T14:42:52Z</time>
      </trkpt>
      <trkpt lat="47.92928" lon="3.44312">
        <ele>89</ele>
        <time>2014-04-14T14:42:57Z</time>
      </trkpt>
      <trkpt lat="47.92924" lon="3.4431">
        <ele>89</ele>
        <time>2014-04-14T14:43:01Z</time>
      </trkpt>
      <trkpt lat="47.92919" lon="3.44306">
        <ele>89</ele>
        <time>2014-04-14T14:43:06Z</time>
      </trkpt>
      <trkpt lat="47.92914" lon="3.44302">
        <ele>89</ele>
        <time>2014-04-14T14:43:11Z</time>
      </trkpt>
      <trkpt lat="47.92909" lon="3.44301">
        <ele>89</ele>
        <time>2014-04-14T14:43:19Z</time>
      </trkpt>
      <trkpt lat="47.92904" lon="3.44299">
        <ele>89</ele>
        <time>2014-04-14T14:43:26Z</time>
      </trkpt>
      <trkpt lat="47.929" lon="3.44297">
        <ele>89</ele>
        <time>2014-04-14T14:43:30Z</time>
      </trkpt>
      <trkpt lat="47.92895" lon="3.44295">
        <ele>89</ele>
        <time>2014-04-14T14:43:35Z</time>
      </trkpt>
      <trkpt lat="47.92891" lon="3.44293">
        <ele>89</ele>
        <time>2014-04-14T14:43:40Z</time>
      </trkpt>
      <trkpt lat="47.92885" lon="3.4429">
        <ele>89</ele>
        <time>2014-04-14T14:43:45Z</time>
      </trkpt>
      <trkpt lat="47.92881" lon="3.4429">
        <ele>89</ele>
        <time>2014-04-14T14:43:51Z</time>
      </trkpt>
      <trkpt lat="47.92876" lon="3.44286">
        <ele>89</ele>
        <time>2014-04-14T14:43:55Z</time>
      </trkpt>
      <trkpt lat="47.92871" lon="3.44282">
        <ele>89</ele>
        <time>2014-04-14T14:43:59Z</time>
      </trkpt>
      <trkpt lat="47.92866" lon="3.44279">
        <ele>89</ele>
        <time>2014-04-14T14:44:03Z</time>
      </trkpt>
      <trkpt lat="47.92861" lon="3.44276">
        <ele>89</ele>
        <time>2014-04-14T14:44:09Z</time>
      </trkpt>
      <trkpt lat="47.92856" lon="3.44273">
        <ele>89</ele>
        <time>2014-04-14T14:44:14Z</time>
      </trkpt>
      <trkpt lat="47.92851" lon="3.44269">
        <ele>89</ele>
        <time>2014-04-14T14:44:18Z</time>
      </trkpt>
      <trkpt lat="47.92846" lon="3.44268">
        <ele>89</ele>
        <time>2014-04-14T14:44:23Z</time>
      </trkpt>
      <trkpt lat="47.92841" lon="3.44266">
        <ele>89</ele>
        <time>2014-04-14T14:44:27Z</time>
      </trkpt>
      <trkpt lat="47.92836" lon="3.44263">
        <ele>88</ele>
        <time>2014-04-14T14:44:31Z</time>
      </trkpt>
      <trkpt lat="47.92831" lon="3.44261">
        <ele>88</ele>
        <time>2014-04-14T14:44:36Z</time>
      </trkpt>
      <trkpt lat="47.92827" lon="3.44259">
        <ele>88</ele>
        <time>2014-04-14T14:44:41Z</time>
      </trkpt>
      <trkpt lat="47.92823" lon="3.44255">
        <ele>88</ele>
        <time>2014-04-14T14:44:45Z</time>
      </trkpt>
      <trkpt lat="47.92818" lon="3.44252">
        <ele>89</ele>
        <time>2014-04-14T14:44:50Z</time>
      </trkpt>
      <trkpt lat="47.92815" lon="3.44246">
        <ele>88</ele>
        <time>2014-04-14T14:44:54Z</time>
      </trkpt>
      <trkpt lat="47.92811" lon="3.44242">
        <ele>88</ele>
        <time>2014-04-14T14:44:58Z</time>
      </trkpt>
      <trkpt lat="47.92805" lon="3.44242">
        <ele>88</ele>
        <time>2014-04-14T14:45:03Z</time>
      </trkpt>
      <trkpt lat="47.928" lon="3.4424">
        <ele>88</ele>
        <time>2014-04-14T14:45:10Z</time>
      </trkpt>
      <trkpt lat="47.92795" lon="3.44239">
        <ele>88</ele>
        <time>2014-04-14T14:45:15Z</time>
      </trkpt>
      <trkpt lat="47.9279" lon="3.44236">
        <ele>88</ele>
        <time>2014-04-14T14:45:19Z</time>
      </trkpt>
      <trkpt lat="47.92786" lon="3.44234">
        <ele>88</ele>
        <time>2014-04-14T14:45:22Z</time>
      </trkpt>
      <trkpt lat="47.9278" lon="3.44233">
        <ele>88</ele>
        <time>2014-04-14T14:45:26Z</time>
      </trkpt>
      <trkpt lat="47.92776" lon="3.4423">
        <ele>88</ele>
        <time>2014-04-14T14:45:30Z</time>
      </trkpt>
      <trkpt lat="47.92771" lon="3.44229">
        <ele>88</ele>
        <time>2014-04-14T14:45:34Z</time>
      </trkpt>
      <trkpt lat="47.92766" lon="3.44228">
        <ele>88</ele>
        <time>2014-04-14T14:45:39Z</time>
      </trkpt>
      <trkpt lat="47.92762" lon="3.44227">
        <ele>88</ele>
        <time>2014-04-14T14:45:44Z</time>
      </trkpt>
      <trkpt lat="47.92757" lon="3.44224">
        <ele>88</ele>
        <time>2014-04-14T14:45:48Z</time>
      </trkpt>
      <trkpt lat="47.92752" lon="3.44222">
        <ele>88</ele>
        <time>2014-04-14T14:45:52Z</time>
      </trkpt>
      <trkpt lat="47.92747" lon="3.44221">
        <ele>88</ele>
        <time>2014-04-14T14:45:57Z</time>
      </trkpt>
      <trkpt lat="47.92742" lon="3.44217">
        <ele>88</ele>
        <time>2014-04-14T14:46:02Z</time>
      </trkpt>
      <trkpt lat="47.92738" lon="3.44214">
        <ele>88</ele>
        <time>2014-04-14T14:46:06Z</time>
      </trkpt>
      <trkpt lat="47.92733" lon="3.44212">
        <ele>88</ele>
        <time>2014-04-14T14:46:11Z</time>
      </trkpt>
      <trkpt lat="47.92728" lon="3.44212">
        <ele>88</ele>
        <time>2014-04-14T14:46:15Z</time>
      </trkpt>
      <trkpt lat="47.92723" lon="3.44211">
        <ele>88</ele>
        <time>2014-04-14T14:46:20Z</time>
      </trkpt>
      <trkpt lat="47.92716" lon="3.4421">
        <ele>88</ele>
        <time>2014-04-14T14:46:30Z</time>
      </trkpt>
      <trkpt lat="47.92712" lon="3.44209">
        <ele>88</ele>
        <time>2014-04-14T14:46:34Z</time>
      </trkpt>
      <trkpt lat="47.92707" lon="3.44207">
        <ele>88</ele>
        <time>2014-04-14T14:46:39Z</time>
      </trkpt>
      <trkpt lat="47.92705" lon="3.44215">
        <ele>88</ele>
        <time>2014-04-14T14:47:08Z</time>
      </trkpt>
      <trkpt lat="47.927" lon="3.44213">
        <ele>88</ele>
        <time>2014-04-14T14:47:13Z</time>
      </trkpt>
      <trkpt lat="47.92695" lon="3.4421">
        <ele>88</ele>
        <time>2014-04-14T14:47:17Z</time>
      </trkpt>
      <trkpt lat="47.92691" lon="3.44207">
        <ele>88</ele>
        <time>2014-04-14T14:47:20Z</time>
      </trkpt>
      <trkpt lat="47.92685" lon="3.44206">
        <ele>88</ele>
        <time>2014-04-14T14:47:26Z</time>
      </trkpt>
      <trkpt lat="47.9268" lon="3.44207">
        <ele>88</ele>
        <time>2014-04-14T14:47:33Z</time>
      </trkpt>
      <trkpt lat="47.92676" lon="3.44209">
        <ele>88</ele>
        <time>2014-04-14T14:47:45Z</time>
      </trkpt>
      <trkpt lat="47.92671" lon="3.44211">
        <ele>88</ele>
        <time>2014-04-14T14:48:03Z</time>
      </trkpt>
      <trkpt lat="47.92666" lon="3.44212">
        <ele>89</ele>
        <time>2014-04-14T14:48:08Z</time>
      </trkpt>
      <trkpt lat="47.92661" lon="3.44214">
        <ele>89</ele>
        <time>2014-04-14T14:48:13Z</time>
      </trkpt>
      <trkpt lat="47.92657" lon="3.44216">
        <ele>89</ele>
        <time>2014-04-14T14:48:18Z</time>
      </trkpt>
      <trkpt lat="47.92652" lon="3.44219">
        <ele>89</ele>
        <time>2014-04-14T14:48:23Z</time>
      </trkpt>
      <trkpt lat="47.92647" lon="3.44222">
        <ele>89</ele>
        <time>2014-04-14T14:48:28Z</time>
      </trkpt>
      <trkpt lat="47.92642" lon="3.44223">
        <ele>89</ele>
        <time>2014-04-14T14:48:33Z</time>
      </trkpt>
      <trkpt lat="47.92639" lon="3.44227">
        <ele>89</ele>
        <time>2014-04-14T14:48:37Z</time>
      </trkpt>
      <trkpt lat="47.92634" lon="3.44232">
        <ele>89</ele>
        <time>2014-04-14T14:48:41Z</time>
      </trkpt>
      <trkpt lat="47.92629" lon="3.44235">
        <ele>89</ele>
        <time>2014-04-14T14:48:46Z</time>
      </trkpt>
      <trkpt lat="47.92626" lon="3.4424">
        <ele>89</ele>
        <time>2014-04-14T14:48:52Z</time>
      </trkpt>
      <trkpt lat="47.92624" lon="3.44247">
        <ele>89</ele>
        <time>2014-04-14T14:48:56Z</time>
      </trkpt>
      <trkpt lat="47.9262" lon="3.44253">
        <ele>89</ele>
        <time>2014-04-14T14:49:00Z</time>
      </trkpt>
      <trkpt lat="47.92615" lon="3.44258">
        <ele>89</ele>
        <time>2014-04-14T14:49:04Z</time>
      </trkpt>
      <trkpt lat="47.92611" lon="3.44263">
        <ele>89</ele>
        <time>2014-04-14T14:49:08Z</time>
      </trkpt>
      <trkpt lat="47.92608" lon="3.44268">
        <ele>89</ele>
        <time>2014-04-14T14:49:12Z</time>
      </trkpt>
      <trkpt lat="47.92604" lon="3.44273">
        <ele>89</ele>
        <time>2014-04-14T14:49:17Z</time>
      </trkpt>
      <trkpt lat="47.926" lon="3.44277">
        <ele>89</ele>
        <time>2014-04-14T14:49:21Z</time>
      </trkpt>
      <trkpt lat="47.92596" lon="3.44282">
        <ele>89</ele>
        <time>2014-04-14T14:49:25Z</time>
      </trkpt>
      <trkpt lat="47.92591" lon="3.44285">
        <ele>89</ele>
        <time>2014-04-14T14:49:29Z</time>
      </trkpt>
      <trkpt lat="47.92587" lon="3.44288">
        <ele>89</ele>
        <time>2014-04-14T14:49:34Z</time>
      </trkpt>
      <trkpt lat="47.92585" lon="3.44291">
        <ele>89</ele>
        <time>2014-04-14T14:49:41Z</time>
      </trkpt>
      <trkpt lat="47.92581" lon="3.44292">
        <ele>91</ele>
        <time>2014-04-14T14:49:54Z</time>
      </trkpt>
      <trkpt lat="47.92577" lon="3.44288">
        <ele>91</ele>
        <time>2014-04-14T14:49:59Z</time>
      </trkpt>
      <trkpt lat="47.92573" lon="3.44284">
        <ele>91</ele>
        <time>2014-04-14T14:50:03Z</time>
      </trkpt>
      <trkpt lat="47.92568" lon="3.4428">
        <ele>91</ele>
        <time>2014-04-14T14:50:08Z</time>
      </trkpt>
      <trkpt lat="47.92564" lon="3.44277">
        <ele>91</ele>
        <time>2014-04-14T14:50:12Z</time>
      </trkpt>
      <trkpt lat="47.92559" lon="3.44274">
        <ele>92</ele>
        <time>2014-04-14T14:50:17Z</time>
      </trkpt>
      <trkpt lat="47.92555" lon="3.4427">
        <ele>92</ele>
        <time>2014-04-14T14:50:21Z</time>
      </trkpt>
      <trkpt lat="47.9255" lon="3.44267">
        <ele>92</ele>
        <time>2014-04-14T14:50:25Z</time>
      </trkpt>
      <trkpt lat="47.92545" lon="3.44265">
        <ele>92</ele>
        <time>2014-04-14T14:50:30Z</time>
      </trkpt>
      <trkpt lat="47.9254" lon="3.44262">
        <ele>92</ele>
        <time>2014-04-14T14:50:35Z</time>
      </trkpt>
      <trkpt lat="47.92535" lon="3.44261">
        <ele>92</ele>
        <time>2014-04-14T14:50:39Z</time>
      </trkpt>
      <trkpt lat="47.9253" lon="3.4426">
        <ele>93</ele>
        <time>2014-04-14T14:50:43Z</time>
      </trkpt>
      <trkpt lat="47.92526" lon="3.44258">
        <ele>93</ele>
        <time>2014-04-14T14:50:47Z</time>
      </trkpt>
      <trkpt lat="47.92521" lon="3.44255">
        <ele>93</ele>
        <time>2014-04-14T14:50:51Z</time>
      </trkpt>
      <trkpt lat="47.92517" lon="3.44254">
        <ele>93</ele>
        <time>2014-04-14T14:50:56Z</time>
      </trkpt>
      <trkpt lat="47.92512" lon="3.44256">
        <ele>94</ele>
        <time>2014-04-14T14:51:01Z</time>
      </trkpt>
      <trkpt lat="47.92506" lon="3.44257">
        <ele>94</ele>
        <time>2014-04-14T14:51:05Z</time>
      </trkpt>
      <trkpt lat="47.92501" lon="3.44256">
        <ele>94</ele>
        <time>2014-04-14T14:51:09Z</time>
      </trkpt>
      <trkpt lat="47.92496" lon="3.44254">
        <ele>95</ele>
        <time>2014-04-14T14:51:12Z</time>
      </trkpt>
      <trkpt lat="47.92492" lon="3.44255">
        <ele>94</ele>
        <time>2014-04-14T14:51:16Z</time>
      </trkpt>
      <trkpt lat="47.92487" lon="3.44252">
        <ele>94</ele>
        <time>2014-04-14T14:51:22Z</time>
      </trkpt>
      <trkpt lat="47.92483" lon="3.44248">
        <ele>93</ele>
        <time>2014-04-14T14:51:26Z</time>
      </trkpt>
      <trkpt lat="47.92477" lon="3.44246">
        <ele>93</ele>
        <time>2014-04-14T14:51:30Z</time>
      </trkpt>
      <trkpt lat="47.92472" lon="3.44246">
        <ele>93</ele>
        <time>2014-04-14T14:51:35Z</time>
      </trkpt>
      <trkpt lat="47.92467" lon="3.44247">
        <ele>93</ele>
        <time>2014-04-14T14:51:41Z</time>
      </trkpt>
      <trkpt lat="47.92462" lon="3.44246">
        <ele>92</ele>
        <time>2014-04-14T14:51:46Z</time>
      </trkpt>
      <trkpt lat="47.92457" lon="3.44245">
        <ele>92</ele>
        <time>2014-04-14T14:51:50Z</time>
      </trkpt>
      <trkpt lat="47.92453" lon="3.44244">
        <ele>92</ele>
        <time>2014-04-14T14:51:55Z</time>
      </trkpt>
      <trkpt lat="47.92447" lon="3.44245">
        <ele>92</ele>
        <time>2014-04-14T14:51:59Z</time>
      </trkpt>
      <trkpt lat="47.92442" lon="3.44244">
        <ele>92</ele>
        <time>2014-04-14T14:52:03Z</time>
      </trkpt>
      <trkpt lat="47.92438" lon="3.44241">
        <ele>92</ele>
        <time>2014-04-14T14:52:07Z</time>
      </trkpt>
      <trkpt lat="47.92434" lon="3.44238">
        <ele>92</ele>
        <time>2014-04-14T14:52:11Z</time>
      </trkpt>
      <trkpt lat="47.92429" lon="3.44238">
        <ele>91</ele>
        <time>2014-04-14T14:52:15Z</time>
      </trkpt>
      <trkpt lat="47.92423" lon="3.44237">
        <ele>91</ele>
        <time>2014-04-14T14:52:19Z</time>
      </trkpt>
      <trkpt lat="47.92419" lon="3.44235">
        <ele>91</ele>
        <time>2014-04-14T14:52:23Z</time>
      </trkpt>
      <trkpt lat="47.92414" lon="3.44233">
        <ele>91</ele>
        <time>2014-04-14T14:52:27Z</time>
      </trkpt>
      <trkpt lat="47.9241" lon="3.44229">
        <ele>91</ele>
        <time>2014-04-14T14:52:33Z</time>
      </trkpt>
      <trkpt lat="47.92405" lon="3.44226">
        <ele>91</ele>
        <time>2014-04-14T14:52:38Z</time>
      </trkpt>
      <trkpt lat="47.92401" lon="3.44222">
        <ele>91</ele>
        <time>2014-04-14T14:52:42Z</time>
      </trkpt>
      <trkpt lat="47.92398" lon="3.44217">
        <ele>91</ele>
        <time>2014-04-14T14:53:18Z</time>
      </trkpt>
      <trkpt lat="47.92393" lon="3.44213">
        <ele>91</ele>
        <time>2014-04-14T14:53:22Z</time>
      </trkpt>
      <trkpt lat="47.92388" lon="3.4421">
        <ele>91</ele>
        <time>2014-04-14T14:53:26Z</time>
      </trkpt>
      <trkpt lat="47.92384" lon="3.44206">
        <ele>91</ele>
        <time>2014-04-14T14:53:30Z</time>
      </trkpt>
      <trkpt lat="47.92379" lon="3.44201">
        <ele>91</ele>
        <time>2014-04-14T14:53:37Z</time>
      </trkpt>
      <trkpt lat="47.92374" lon="3.44197">
        <ele>91</ele>
        <time>2014-04-14T14:53:41Z</time>
      </trkpt>
      <trkpt lat="47.9237" lon="3.44193">
        <ele>91</ele>
        <time>2014-04-14T14:53:46Z</time>
      </trkpt>
      <trkpt lat="47.92365" lon="3.44187">
        <ele>91</ele>
        <time>2014-04-14T14:53:51Z</time>
      </trkpt>
      <trkpt lat="47.9236" lon="3.44183">
        <ele>91</ele>
        <time>2014-04-14T14:53:54Z</time>
      </trkpt>
      <trkpt lat="47.92356" lon="3.4418">
        <ele>91</ele>
        <time>2014-04-14T14:53:57Z</time>
      </trkpt>
      <trkpt lat="47.92351" lon="3.44177">
        <ele>91</ele>
        <time>2014-04-14T14:54:03Z</time>
      </trkpt>
      <trkpt lat="47.92346" lon="3.44174">
        <ele>91</ele>
        <time>2014-04-14T14:54:07Z</time>
      </trkpt>
      <trkpt lat="47.92341" lon="3.44171">
        <ele>92</ele>
        <time>2014-04-14T14:54:12Z</time>
      </trkpt>
      <trkpt lat="47.92337" lon="3.44166">
        <ele>92</ele>
        <time>2014-04-14T14:54:16Z</time>
      </trkpt>
      <trkpt lat="47.92332" lon="3.44163">
        <ele>92</ele>
        <time>2014-04-14T14:54:20Z</time>
      </trkpt>
      <trkpt lat="47.92328" lon="3.44157">
        <ele>93</ele>
        <time>2014-04-14T14:54:24Z</time>
      </trkpt>
      <trkpt lat="47.92323" lon="3.44153">
        <ele>93</ele>
        <time>2014-04-14T14:54:29Z</time>
      </trkpt>
      <trkpt lat="47.92319" lon="3.44147">
        <ele>93</ele>
        <time>2014-04-14T14:54:33Z</time>
      </trkpt>
      <trkpt lat="47.92315" lon="3.44142">
        <ele>93</ele>
        <time>2014-04-14T14:54:37Z</time>
      </trkpt>
      <trkpt lat="47.92311" lon="3.44138">
        <ele>94</ele>
        <time>2014-04-14T14:54:42Z</time>
      </trkpt>
      <trkpt lat="47.92306" lon="3.44133">
        <ele>94</ele>
        <time>2014-04-14T14:54:47Z</time>
      </trkpt>
      <trkpt lat="47.92302" lon="3.4413">
        <ele>94</ele>
        <time>2014-04-14T14:54:51Z</time>
      </trkpt>
      <trkpt lat="47.92299" lon="3.44123">
        <ele>94</ele>
        <time>2014-04-14T14:54:55Z</time>
      </trkpt>
      <trkpt lat="47.92291" lon="3.44101">
        <ele>94</ele>
        <time>2014-04-14T14:55:08Z</time>
      </trkpt>
      <trkpt lat="47.92289" lon="3.44094">
        <ele>95</ele>
        <time>2014-04-14T14:55:12Z</time>
      </trkpt>
      <trkpt lat="47.92286" lon="3.44089">
        <ele>95</ele>
        <time>2014-04-14T14:55:17Z</time>
      </trkpt>
      <trkpt lat="47.92284" lon="3.44083">
        <ele>96</ele>
        <time>2014-04-14T14:55:24Z</time>
      </trkpt>
      <trkpt lat="47.92278" lon="3.44083">
        <ele>96</ele>
        <time>2014-04-14T14:55:29Z</time>
      </trkpt>
      <trkpt lat="47.92273" lon="3.44085">
        <ele>95</ele>
        <time>2014-04-14T14:55:33Z</time>
      </trkpt>
      <trkpt lat="47.92266" lon="3.44087">
        <ele>95</ele>
        <time>2014-04-14T14:55:57Z</time>
      </trkpt>
      <trkpt lat="47.92262" lon="3.44086">
        <ele>95</ele>
        <time>2014-04-14T14:56:02Z</time>
      </trkpt>
      <trkpt lat="47.92257" lon="3.44087">
        <ele>95</ele>
        <time>2014-04-14T14:56:06Z</time>
      </trkpt>
      <trkpt lat="47.92252" lon="3.44088">
        <ele>96</ele>
        <time>2014-04-14T14:56:10Z</time>
      </trkpt>
      <trkpt lat="47.92248" lon="3.44089">
        <ele>96</ele>
        <time>2014-04-14T14:56:14Z</time>
      </trkpt>
      <trkpt lat="47.92242" lon="3.44091">
        <ele>95</ele>
        <time>2014-04-14T14:56:18Z</time>
      </trkpt>
      <trkpt lat="47.92237" lon="3.4409">
        <ele>95</ele>
        <time>2014-04-14T14:56:23Z</time>
      </trkpt>
      <trkpt lat="47.92232" lon="3.44093">
        <ele>95</ele>
        <time>2014-04-14T14:56:28Z</time>
      </trkpt>
      <trkpt lat="47.92228" lon="3.44092">
        <ele>95</ele>
        <time>2014-04-14T14:56:32Z</time>
      </trkpt>
      <trkpt lat="47.92223" lon="3.44092">
        <ele>95</ele>
        <time>2014-04-14T14:56:36Z</time>
      </trkpt>
      <trkpt lat="47.92218" lon="3.44094">
        <ele>95</ele>
        <time>2014-04-14T14:56:41Z</time>
      </trkpt>
      <trkpt lat="47.92213" lon="3.44097">
        <ele>95</ele>
        <time>2014-04-14T14:56:46Z</time>
      </trkpt>
      <trkpt lat="47.92208" lon="3.44099">
        <ele>95</ele>
        <time>2014-04-14T14:56:50Z</time>
      </trkpt>
      <trkpt lat="47.92204" lon="3.44101">
        <ele>95</ele>
        <time>2014-04-14T14:56:54Z</time>
      </trkpt>
      <trkpt lat="47.92199" lon="3.44105">
        <ele>95</ele>
        <time>2014-04-14T14:57:00Z</time>
      </trkpt>
      <trkpt lat="47.92195" lon="3.44106">
        <ele>95</ele>
        <time>2014-04-14T14:57:04Z</time>
      </trkpt>
      <trkpt lat="47.9219" lon="3.44106">
        <ele>95</ele>
        <time>2014-04-14T14:57:08Z</time>
      </trkpt>
      <trkpt lat="47.92185" lon="3.44108">
        <ele>95</ele>
        <time>2014-04-14T14:57:12Z</time>
      </trkpt>
      <trkpt lat="47.9218" lon="3.44107">
        <ele>95</ele>
        <time>2014-04-14T14:57:19Z</time>
      </trkpt>
      <trkpt lat="47.92175" lon="3.44109">
        <ele>95</ele>
        <time>2014-04-14T14:57:25Z</time>
      </trkpt>
      <trkpt lat="47.9217" lon="3.44113">
        <ele>95</ele>
        <time>2014-04-14T14:57:29Z</time>
      </trkpt>
      <trkpt lat="47.92164" lon="3.44116">
        <ele>95</ele>
        <time>2014-04-14T14:57:33Z</time>
      </trkpt>
      <trkpt lat="47.92159" lon="3.44118">
        <ele>95</ele>
        <time>2014-04-14T14:57:37Z</time>
      </trkpt>
      <trkpt lat="47.92154" lon="3.4412">
        <ele>95</ele>
        <time>2014-04-14T14:57:41Z</time>
      </trkpt>
      <trkpt lat="47.9215" lon="3.44122">
        <ele>95</ele>
        <time>2014-04-14T14:57:45Z</time>
      </trkpt>
      <trkpt lat="47.92145" lon="3.44125">
        <ele>95</ele>
        <time>2014-04-14T14:57:49Z</time>
      </trkpt>
      <trkpt lat="47.9214" lon="3.44127">
        <ele>95</ele>
        <time>2014-04-14T14:57:53Z</time>
      </trkpt>
      <trkpt lat="47.92136" lon="3.44129">
        <ele>95</ele>
        <time>2014-04-14T14:57:57Z</time>
      </trkpt>
      <trkpt lat="47.92131" lon="3.44132">
        <ele>95</ele>
        <time>2014-04-14T14:58:01Z</time>
      </trkpt>
      <trkpt lat="47.92126" lon="3.44133">
        <ele>95</ele>
        <time>2014-04-14T14:58:05Z</time>
      </trkpt>
      <trkpt lat="47.92124" lon="3.44135">
        <ele>95</ele>
        <time>2014-04-14T14:58:13Z</time>
      </trkpt>
      <trkpt lat="47.92121" lon="3.44139">
        <ele>95</ele>
        <time>2014-04-14T14:58:37Z</time>
      </trkpt>
      <trkpt lat="47.92115" lon="3.44142">
        <ele>96</ele>
        <time>2014-04-14T14:58:49Z</time>
      </trkpt>
      <trkpt lat="47.92111" lon="3.44143">
        <ele>96</ele>
        <time>2014-04-14T14:58:53Z</time>
      </trkpt>
      <trkpt lat="47.92106" lon="3.44145">
        <ele>96</ele>
        <time>2014-04-14T14:58:57Z</time>
      </trkpt>
      <trkpt lat="47.92101" lon="3.44148">
        <ele>96</ele>
        <time>2014-04-14T14:59:02Z</time>
      </trkpt>
      <trkpt lat="47.92096" lon="3.44151">
        <ele>96</ele>
        <time>2014-04-14T14:59:07Z</time>
      </trkpt>
      <trkpt lat="47.92091" lon="3.44153">
        <ele>96</ele>
        <time>2014-04-14T14:59:12Z</time>
      </trkpt>
      <trkpt lat="47.92086" lon="3.44156">
        <ele>96</ele>
        <time>2014-04-14T14:59:17Z</time>
      </trkpt>
      <trkpt lat="47.92081" lon="3.44158">
        <ele>96</ele>
        <time>2014-04-14T14:59:21Z</time>
      </trkpt>
      <trkpt lat="47.92076" lon="3.44159">
        <ele>97</ele>
        <time>2014-04-14T14:59:25Z</time>
      </trkpt>
      <trkpt lat="47.92071" lon="3.44161">
        <ele>97</ele>
        <time>2014-04-14T14:59:30Z</time>
      </trkpt>
      <trkpt lat="47.92065" lon="3.44162">
        <ele>97</ele>
        <time>2014-04-14T14:59:35Z</time>
      </trkpt>
      <trkpt lat="47.9206" lon="3.44164">
        <ele>97</ele>
        <time>2014-04-14T14:59:40Z</time>
      </trkpt>
      <trkpt lat="47.92055" lon="3.44168">
        <ele>96</ele>
        <time>2014-04-14T14:59:45Z</time>
      </trkpt>
      <trkpt lat="47.92051" lon="3.44171">
        <ele>96</ele>
        <time>2014-04-14T14:59:49Z</time>
      </trkpt>
      <trkpt lat="47.92046" lon="3.44173">
        <ele>96</ele>
        <time>2014-04-14T14:59:54Z</time>
      </trkpt>
      <trkpt lat="47.92041" lon="3.44174">
        <ele>97</ele>
        <time>2014-04-14T14:59:58Z</time>
      </trkpt>
      <trkpt lat="47.92038" lon="3.44179">
        <ele>97</ele>
        <time>2014-04-14T15:00:05Z</time>
      </trkpt>
      <trkpt lat="47.92033" lon="3.44182">
        <ele>97</ele>
        <time>2014-04-14T15:00:10Z</time>
      </trkpt>
      <trkpt lat="47.92028" lon="3.44184">
        <ele>97</ele>
        <time>2014-04-14T15:00:13Z</time>
      </trkpt>
      <trkpt lat="47.92024" lon="3.44187">
        <ele>97</ele>
        <time>2014-04-14T15:00:17Z</time>
      </trkpt>
      <trkpt lat="47.92019" lon="3.44189">
        <ele>97</ele>
        <time>2014-04-14T15:00:22Z</time>
      </trkpt>
      <trkpt lat="47.92015" lon="3.44192">
        <ele>97</ele>
        <time>2014-04-14T15:00:26Z</time>
      </trkpt>
      <trkpt lat="47.92009" lon="3.44194">
        <ele>97</ele>
        <time>2014-04-14T15:00:31Z</time>
      </trkpt>
      <trkpt lat="47.92005" lon="3.44195">
        <ele>97</ele>
        <time>2014-04-14T15:00:34Z</time>
      </trkpt>
      <trkpt lat="47.92001" lon="3.44197">
        <ele>97</ele>
        <time>2014-04-14T15:00:37Z</time>
      </trkpt>
      <trkpt lat="47.91996" lon="3.442">
        <ele>98</ele>
        <time>2014-04-14T15:00:41Z</time>
      </trkpt>
      <trkpt lat="47.91991" lon="3.44202">
        <ele>98</ele>
        <time>2014-04-14T15:00:46Z</time>
      </trkpt>
      <trkpt lat="47.91987" lon="3.44206">
        <ele>98</ele>
        <time>2014-04-14T15:00:50Z</time>
      </trkpt>
      <trkpt lat="47.91984" lon="3.4421">
        <ele>98</ele>
        <time>2014-04-14T15:00:54Z</time>
      </trkpt>
      <trkpt lat="47.91979" lon="3.44214">
        <ele>98</ele>
        <time>2014-04-14T15:00:58Z</time>
      </trkpt>
      <trkpt lat="47.91975" lon="3.44217">
        <ele>98</ele>
        <time>2014-04-14T15:01:02Z</time>
      </trkpt>
      <trkpt lat="47.91971" lon="3.4422">
        <ele>98</ele>
        <time>2014-04-14T15:01:06Z</time>
      </trkpt>
      <trkpt lat="47.91967" lon="3.44224">
        <ele>98</ele>
        <time>2014-04-14T15:01:09Z</time>
      </trkpt>
      <trkpt lat="47.91962" lon="3.44226">
        <ele>99</ele>
        <time>2014-04-14T15:01:14Z</time>
      </trkpt>
      <trkpt lat="47.91958" lon="3.44229">
        <ele>99</ele>
        <time>2014-04-14T15:01:19Z</time>
      </trkpt>
      <trkpt lat="47.91953" lon="3.44231">
        <ele>99</ele>
        <time>2014-04-14T15:01:23Z</time>
      </trkpt>
      <trkpt lat="47.91948" lon="3.44232">
        <ele>99</ele>
        <time>2014-04-14T15:01:27Z</time>
      </trkpt>
      <trkpt lat="47.91944" lon="3.44233">
        <ele>99</ele>
        <time>2014-04-14T15:01:31Z</time>
      </trkpt>
      <trkpt lat="47.9194" lon="3.44236">
        <ele>99</ele>
        <time>2014-04-14T15:01:35Z</time>
      </trkpt>
      <trkpt lat="47.91934" lon="3.44238">
        <ele>99</ele>
        <time>2014-04-14T15:01:40Z</time>
      </trkpt>
      <trkpt lat="47.9193" lon="3.44242">
        <ele>99</ele>
        <time>2014-04-14T15:01:44Z</time>
      </trkpt>
      <trkpt lat="47.91926" lon="3.44244">
        <ele>100</ele>
        <time>2014-04-14T15:01:48Z</time>
      </trkpt>
      <trkpt lat="47.91921" lon="3.44247">
        <ele>100</ele>
        <time>2014-04-14T15:01:53Z</time>
      </trkpt>
      <trkpt lat="47.91916" lon="3.4425">
        <ele>100</ele>
        <time>2014-04-14T15:01:58Z</time>
      </trkpt>
      <trkpt lat="47.91912" lon="3.44251">
        <ele>100</ele>
        <time>2014-04-14T15:02:02Z</time>
      </trkpt>
      <trkpt lat="47.91906" lon="3.44254">
        <ele>100</ele>
        <time>2014-04-14T15:02:07Z</time>
      </trkpt>
      <trkpt lat="47.91901" lon="3.44255">
        <ele>100</ele>
        <time>2014-04-14T15:02:11Z</time>
      </trkpt>
      <trkpt lat="47.91896" lon="3.44257">
        <ele>100</ele>
        <time>2014-04-14T15:02:15Z</time>
      </trkpt>
      <trkpt lat="47.91892" lon="3.44261">
        <ele>100</ele>
        <time>2014-04-14T15:02:20Z</time>
      </trkpt>
      <trkpt lat="47.91888" lon="3.44266">
        <ele>100</ele>
        <time>2014-04-14T15:02:25Z</time>
      </trkpt>
      <trkpt lat="47.91882" lon="3.44267">
        <ele>100</ele>
        <time>2014-04-14T15:02:34Z</time>
      </trkpt>
      <trkpt lat="47.91877" lon="3.44268">
        <ele>100</ele>
        <time>2014-04-14T15:02:37Z</time>
      </trkpt>
      <trkpt lat="47.91872" lon="3.44269">
        <ele>100</ele>
        <time>2014-04-14T15:02:39Z</time>
      </trkpt>
      <trkpt lat="47.91866" lon="3.44269">
        <ele>100</ele>
        <time>2014-04-14T15:02:42Z</time>
      </trkpt>
      <trkpt lat="47.91862" lon="3.44271">
        <ele>100</ele>
        <time>2014-04-14T15:02:45Z</time>
      </trkpt>
      <trkpt lat="47.91858" lon="3.44273">
        <ele>100</ele>
        <time>2014-04-14T15:02:48Z</time>
      </trkpt>
      <trkpt lat="47.91854" lon="3.44277">
        <ele>100</ele>
        <time>2014-04-14T15:02:53Z</time>
      </trkpt>
      <trkpt lat="47.91848" lon="3.4428">
        <ele>100</ele>
        <time>2014-04-14T15:02:57Z</time>
      </trkpt>
      <trkpt lat="47.91843" lon="3.44283">
        <ele>100</ele>
        <time>2014-04-14T15:03:01Z</time>
      </trkpt>
      <trkpt lat="47.91839" lon="3.44285">
        <ele>100</ele>
        <time>2014-04-14T15:03:06Z</time>
      </trkpt>
      <trkpt lat="47.91834" lon="3.44288">
        <ele>100</ele>
        <time>2014-04-14T15:03:11Z</time>
      </trkpt>
      <trkpt lat="47.9183" lon="3.44293">
        <ele>101</ele>
        <time>2014-04-14T15:03:18Z</time>
      </trkpt>
      <trkpt lat="47.91826" lon="3.44295">
        <ele>101</ele>
        <time>2014-04-14T15:03:22Z</time>
      </trkpt>
      <trkpt lat="47.91821" lon="3.44298">
        <ele>101</ele>
        <time>2014-04-14T15:03:26Z</time>
      </trkpt>
      <trkpt lat="47.91817" lon="3.443">
        <ele>101</ele>
        <time>2014-04-14T15:03:30Z</time>
      </trkpt>
      <trkpt lat="47.91812" lon="3.44302">
        <ele>101</ele>
        <time>2014-04-14T15:03:35Z</time>
      </trkpt>
      <trkpt lat="47.91805" lon="3.44303">
        <ele>102</ele>
        <time>2014-04-14T15:03:39Z</time>
      </trkpt>
      <trkpt lat="47.918" lon="3.44304">
        <ele>102</ele>
        <time>2014-04-14T15:03:43Z</time>
      </trkpt>
      <trkpt lat="47.91794" lon="3.44305">
        <ele>102</ele>
        <time>2014-04-14T15:03:47Z</time>
      </trkpt>
      <trkpt lat="47.91789" lon="3.44306">
        <ele>102</ele>
        <time>2014-04-14T15:03:51Z</time>
      </trkpt>
      <trkpt lat="47.91784" lon="3.44306">
        <ele>102</ele>
        <time>2014-04-14T15:03:55Z</time>
      </trkpt>
      <trkpt lat="47.91779" lon="3.44307">
        <ele>102</ele>
        <time>2014-04-14T15:04:00Z</time>
      </trkpt>
      <trkpt lat="47.91774" lon="3.44308">
        <ele>102</ele>
        <time>2014-04-14T15:04:04Z</time>
      </trkpt>
      <trkpt lat="47.9177" lon="3.44309">
        <ele>102</ele>
        <time>2014-04-14T15:04:08Z</time>
      </trkpt>
      <trkpt lat="47.91765" lon="3.44311">
        <ele>102</ele>
        <time>2014-04-14T15:04:13Z</time>
      </trkpt>
      <trkpt lat="47.91761" lon="3.44312">
        <ele>102</ele>
        <time>2014-04-14T15:04:17Z</time>
      </trkpt>
      <trkpt lat="47.91756" lon="3.44313">
        <ele>102</ele>
        <time>2014-04-14T15:04:22Z</time>
      </trkpt>
      <trkpt lat="47.91751" lon="3.44314">
        <ele>102</ele>
        <time>2014-04-14T15:04:26Z</time>
      </trkpt>
      <trkpt lat="47.91747" lon="3.44314">
        <ele>103</ele>
        <time>2014-04-14T15:04:30Z</time>
      </trkpt>
      <trkpt lat="47.91742" lon="3.44318">
        <ele>103</ele>
        <time>2014-04-14T15:04:35Z</time>
      </trkpt>
      <trkpt lat="47.91738" lon="3.44318">
        <ele>103</ele>
        <time>2014-04-14T15:04:39Z</time>
      </trkpt>
      <trkpt lat="47.91733" lon="3.44317">
        <ele>103</ele>
        <time>2014-04-14T15:04:42Z</time>
      </trkpt>
      <trkpt lat="47.91728" lon="3.44317">
        <ele>103</ele>
        <time>2014-04-14T15:04:45Z</time>
      </trkpt>
      <trkpt lat="47.91723" lon="3.44318">
        <ele>103</ele>
        <time>2014-04-14T15:04:49Z</time>
      </trkpt>
      <trkpt lat="47.91719" lon="3.44319">
        <ele>103</ele>
        <time>2014-04-14T15:04:53Z</time>
      </trkpt>
      <trkpt lat="47.91713" lon="3.4432">
        <ele>103</ele>
        <time>2014-04-14T15:04:57Z</time>
      </trkpt>
      <trkpt lat="47.91708" lon="3.4432">
        <ele>104</ele>
        <time>2014-04-14T15:05:01Z</time>
      </trkpt>
      <trkpt lat="47.91703" lon="3.44321">
        <ele>104</ele>
        <time>2014-04-14T15:05:06Z</time>
      </trkpt>
      <trkpt lat="47.91699" lon="3.44321">
        <ele>104</ele>
        <time>2014-04-14T15:05:12Z</time>
      </trkpt>
      <trkpt lat="47.91694" lon="3.44319">
        <ele>104</ele>
        <time>2014-04-14T15:05:16Z</time>
      </trkpt>
      <trkpt lat="47.91688" lon="3.44316">
        <ele>104</ele>
        <time>2014-04-14T15:05:20Z</time>
      </trkpt>
      <trkpt lat="47.91684" lon="3.44317">
        <ele>104</ele>
        <time>2014-04-14T15:05:24Z</time>
      </trkpt>
      <trkpt lat="47.91678" lon="3.44318">
        <ele>104</ele>
        <time>2014-04-14T15:05:28Z</time>
      </trkpt>
      <trkpt lat="47.91673" lon="3.44318">
        <ele>104</ele>
        <time>2014-04-14T15:05:32Z</time>
      </trkpt>
      <trkpt lat="47.91668" lon="3.44322">
        <ele>104</ele>
        <time>2014-04-14T15:05:36Z</time>
      </trkpt>
      <trkpt lat="47.91664" lon="3.44323">
        <ele>104</ele>
        <time>2014-04-14T15:05:40Z</time>
      </trkpt>
      <trkpt lat="47.91658" lon="3.44324">
        <ele>104</ele>
        <time>2014-04-14T15:05:44Z</time>
      </trkpt>
      <trkpt lat="47.91653" lon="3.44325">
        <ele>104</ele>
        <time>2014-04-14T15:05:49Z</time>
      </trkpt>
      <trkpt lat="47.91648" lon="3.44323">
        <ele>104</ele>
        <time>2014-04-14T15:05:53Z</time>
      </trkpt>
      <trkpt lat="47.91643" lon="3.44323">
        <ele>104</ele>
        <time>2014-04-14T15:05:59Z</time>
      </trkpt>
      <trkpt lat="47.91639" lon="3.44319">
        <ele>104</ele>
        <time>2014-04-14T15:06:03Z</time>
      </trkpt>
      <trkpt lat="47.91634" lon="3.4432">
        <ele>104</ele>
        <time>2014-04-14T15:06:07Z</time>
      </trkpt>
      <trkpt lat="47.91629" lon="3.44321">
        <ele>104</ele>
        <time>2014-04-14T15:06:11Z</time>
      </trkpt>
      <trkpt lat="47.91624" lon="3.44321">
        <ele>104</ele>
        <time>2014-04-14T15:06:15Z</time>
      </trkpt>
      <trkpt lat="47.91619" lon="3.4432">
        <ele>104</ele>
        <time>2014-04-14T15:06:19Z</time>
      </trkpt>
      <trkpt lat="47.91614" lon="3.44319">
        <ele>104</ele>
        <time>2014-04-14T15:06:24Z</time>
      </trkpt>
      <trkpt lat="47.91609" lon="3.44318">
        <ele>104</ele>
        <time>2014-04-14T15:06:28Z</time>
      </trkpt>
      <trkpt lat="47.91604" lon="3.44319">
        <ele>104</ele>
        <time>2014-04-14T15:06:32Z</time>
      </trkpt>
      <trkpt lat="47.91599" lon="3.4432">
        <ele>104</ele>
        <time>2014-04-14T15:06:37Z</time>
      </trkpt>
      <trkpt lat="47.91594" lon="3.4432">
        <ele>104</ele>
        <time>2014-04-14T15:06:41Z</time>
      </trkpt>
      <trkpt lat="47.91589" lon="3.4432">
        <ele>104</ele>
        <time>2014-04-14T15:06:46Z</time>
      </trkpt>
      <trkpt lat="47.91584" lon="3.4432">
        <ele>104</ele>
        <time>2014-04-14T15:06:50Z</time>
      </trkpt>
      <trkpt lat="47.91579" lon="3.4432">
        <ele>104</ele>
        <time>2014-04-14T15:06:54Z</time>
      </trkpt>
      <trkpt lat="47.91574" lon="3.4432">
        <ele>104</ele>
        <time>2014-04-14T15:06:58Z</time>
      </trkpt>
      <trkpt lat="47.91568" lon="3.4432">
        <ele>104</ele>
        <time>2014-04-14T15:07:03Z</time>
      </trkpt>
      <trkpt lat="47.91563" lon="3.4432">
        <ele>104</ele>
        <time>2014-04-14T15:07:07Z</time>
      </trkpt>
      <trkpt lat="47.91558" lon="3.44319">
        <ele>104</ele>
        <time>2014-04-14T15:07:11Z</time>
      </trkpt>
      <trkpt lat="47.91554" lon="3.44318">
        <ele>104</ele>
        <time>2014-04-14T15:07:16Z</time>
      </trkpt>
      <trkpt lat="47.91547" lon="3.44319">
        <ele>104</ele>
        <time>2014-04-14T15:07:26Z</time>
      </trkpt>
      <trkpt lat="47.91542" lon="3.44318">
        <ele>104</ele>
        <time>2014-04-14T15:07:30Z</time>
      </trkpt>
      <trkpt lat="47.9154" lon="3.44317">
        <ele>104</ele>
        <time>2014-04-14T15:07:36Z</time>
      </trkpt>
      <trkpt lat="47.91535" lon="3.44318">
        <ele>104</ele>
        <time>2014-04-14T15:07:47Z</time>
      </trkpt>
      <trkpt lat="47.91531" lon="3.44317">
        <ele>104</ele>
        <time>2014-04-14T15:07:51Z</time>
      </trkpt>
      <trkpt lat="47.91526" lon="3.44317">
        <ele>104</ele>
        <time>2014-04-14T15:07:56Z</time>
      </trkpt>
      <trkpt lat="47.9152" lon="3.44314">
        <ele>104</ele>
        <time>2014-04-14T15:08:01Z</time>
      </trkpt>
      <trkpt lat="47.91516" lon="3.44314">
        <ele>104</ele>
        <time>2014-04-14T15:08:07Z</time>
      </trkpt>
      <trkpt lat="47.9151" lon="3.44307">
        <ele>104</ele>
        <time>2014-04-14T15:08:17Z</time>
      </trkpt>
      <trkpt lat="47.91504" lon="3.44306">
        <ele>104</ele>
        <time>2014-04-14T15:08:22Z</time>
      </trkpt>
      <trkpt lat="47.91499" lon="3.44305">
        <ele>103</ele>
        <time>2014-04-14T15:08:27Z</time>
      </trkpt>
      <trkpt lat="47.91495" lon="3.44305">
        <ele>103</ele>
        <time>2014-04-14T15:08:36Z</time>
      </trkpt>
      <trkpt lat="47.9149" lon="3.44305">
        <ele>103</ele>
        <time>2014-04-14T15:08:49Z</time>
      </trkpt>
      <trkpt lat="47.91485" lon="3.44306">
        <ele>103</ele>
        <time>2014-04-14T15:08:53Z</time>
      </trkpt>
      <trkpt lat="47.9148" lon="3.44308">
        <ele>103</ele>
        <time>2014-04-14T15:08:58Z</time>
      </trkpt>
      <trkpt lat="47.91475" lon="3.44307">
        <ele>103</ele>
        <time>2014-04-14T15:09:02Z</time>
      </trkpt>
      <trkpt lat="47.91469" lon="3.44308">
        <ele>103</ele>
        <time>2014-04-14T15:09:06Z</time>
      </trkpt>
      <trkpt lat="47.91464" lon="3.44307">
        <ele>103</ele>
        <time>2014-04-14T15:09:11Z</time>
      </trkpt>
      <trkpt lat="47.91459" lon="3.44306">
        <ele>103</ele>
        <time>2014-04-14T15:09:15Z</time>
      </trkpt>
      <trkpt lat="47.91454" lon="3.44307">
        <ele>103</ele>
        <time>2014-04-14T15:09:20Z</time>
      </trkpt>
      <trkpt lat="47.91449" lon="3.44307">
        <ele>103</ele>
        <time>2014-04-14T15:09:25Z</time>
      </trkpt>
      <trkpt lat="47.91443" lon="3.44304">
        <ele>103</ele>
        <time>2014-04-14T15:09:30Z</time>
      </trkpt>
      <trkpt lat="47.91438" lon="3.44303">
        <ele>103</ele>
        <time>2014-04-14T15:09:34Z</time>
      </trkpt>
      <trkpt lat="47.91433" lon="3.44303">
        <ele>103</ele>
        <time>2014-04-14T15:09:38Z</time>
      </trkpt>
      <trkpt lat="47.91427" lon="3.44303">
        <ele>103</ele>
        <time>2014-04-14T15:09:42Z</time>
      </trkpt>
      <trkpt lat="47.91422" lon="3.44303">
        <ele>103</ele>
        <time>2014-04-14T15:09:45Z</time>
      </trkpt>
      <trkpt lat="47.91418" lon="3.44302">
        <ele>103</ele>
        <time>2014-04-14T15:09:49Z</time>
      </trkpt>
      <trkpt lat="47.91413" lon="3.443">
        <ele>103</ele>
        <time>2014-04-14T15:09:54Z</time>
      </trkpt>
      <trkpt lat="47.91408" lon="3.44298">
        <ele>103</ele>
        <time>2014-04-14T15:09:58Z</time>
      </trkpt>
      <trkpt lat="47.91403" lon="3.44297">
        <ele>103</ele>
        <time>2014-04-14T15:10:03Z</time>
      </trkpt>
      <trkpt lat="47.91397" lon="3.44296">
        <ele>103</ele>
        <time>2014-04-14T15:10:09Z</time>
      </trkpt>
      <trkpt lat="47.91392" lon="3.44294">
        <ele>102</ele>
        <time>2014-04-14T15:10:13Z</time>
      </trkpt>
      <trkpt lat="47.91387" lon="3.44295">
        <ele>102</ele>
        <time>2014-04-14T15:10:16Z</time>
      </trkpt>
      <trkpt lat="47.91382" lon="3.44297">
        <ele>102</ele>
        <time>2014-04-14T15:10:20Z</time>
      </trkpt>
      <trkpt lat="47.91377" lon="3.44296">
        <ele>102</ele>
        <time>2014-04-14T15:10:25Z</time>
      </trkpt>
      <trkpt lat="47.91372" lon="3.44298">
        <ele>102</ele>
        <time>2014-04-14T15:10:29Z</time>
      </trkpt>
      <trkpt lat="47.91367" lon="3.44299">
        <ele>102</ele>
        <time>2014-04-14T15:10:33Z</time>
      </trkpt>
      <trkpt lat="47.91362" lon="3.44298">
        <ele>102</ele>
        <time>2014-04-14T15:10:38Z</time>
      </trkpt>
      <trkpt lat="47.91358" lon="3.44295">
        <ele>102</ele>
        <time>2014-04-14T15:10:45Z</time>
      </trkpt>
      <trkpt lat="47.91353" lon="3.4429">
        <ele>102</ele>
        <time>2014-04-14T15:10:50Z</time>
      </trkpt>
      <trkpt lat="47.91349" lon="3.44284">
        <ele>102</ele>
        <time>2014-04-14T15:10:54Z</time>
      </trkpt>
      <trkpt lat="47.91349" lon="3.44277">
        <ele>102</ele>
        <time>2014-04-14T15:10:59Z</time>
      </trkpt>
      <trkpt lat="47.91352" lon="3.44267">
        <ele>102</ele>
        <time>2014-04-14T15:11:05Z</time>
      </trkpt>
      <trkpt lat="47.91353" lon="3.4426">
        <ele>102</ele>
        <time>2014-04-14T15:11:09Z</time>
      </trkpt>
      <trkpt lat="47.91354" lon="3.44252">
        <ele>102</ele>
        <time>2014-04-14T15:11:14Z</time>
      </trkpt>
      <trkpt lat="47.91355" lon="3.44245">
        <ele>102</ele>
        <time>2014-04-14T15:11:19Z</time>
      </trkpt>
      <trkpt lat="47.91356" lon="3.44237">
        <ele>102</ele>
        <time>2014-04-14T15:11:22Z</time>
      </trkpt>
      <trkpt lat="47.91357" lon="3.44228">
        <ele>102</ele>
        <time>2014-04-14T15:11:25Z</time>
      </trkpt>
      <trkpt lat="47.91358" lon="3.4422">
        <ele>102</ele>
        <time>2014-04-14T15:11:28Z</time>
      </trkpt>
      <trkpt lat="47.9136" lon="3.44212">
        <ele>103</ele>
        <time>2014-04-14T15:11:33Z</time>
      </trkpt>
      <trkpt lat="47.91359" lon="3.44203">
        <ele>103</ele>
        <time>2014-04-14T15:11:41Z</time>
      </trkpt>
      <trkpt lat="47.9136" lon="3.44196">
        <ele>103</ele>
        <time>2014-04-14T15:11:44Z</time>
      </trkpt>
      <trkpt lat="47.91361" lon="3.44189">
        <ele>103</ele>
        <time>2014-04-14T15:11:49Z</time>
      </trkpt>
      <trkpt lat="47.91362" lon="3.44181">
        <ele>103</ele>
        <time>2014-04-14T15:11:56Z</time>
      </trkpt>
      <trkpt lat="47.91364" lon="3.44173">
        <ele>103</ele>
        <time>2014-04-14T15:12:00Z</time>
      </trkpt>
      <trkpt lat="47.91364" lon="3.44165">
        <ele>104</ele>
        <time>2014-04-14T15:12:05Z</time>
      </trkpt>
      <trkpt lat="47.9136" lon="3.44161">
        <ele>104</ele>
        <time>2014-04-14T15:12:09Z</time>
      </trkpt>
      <trkpt lat="47.91355" lon="3.44159">
        <ele>104</ele>
        <time>2014-04-14T15:12:13Z</time>
      </trkpt>
      <trkpt lat="47.91349" lon="3.44158">
        <ele>104</ele>
        <time>2014-04-14T15:12:16Z</time>
      </trkpt>
      <trkpt lat="47.91344" lon="3.44154">
        <ele>104</ele>
        <time>2014-04-14T15:12:20Z</time>
      </trkpt>
      <trkpt lat="47.91339" lon="3.44154">
        <ele>104</ele>
        <time>2014-04-14T15:12:26Z</time>
      </trkpt>
      <trkpt lat="47.91333" lon="3.44155">
        <ele>103</ele>
        <time>2014-04-14T15:12:30Z</time>
      </trkpt>
      <trkpt lat="47.91324" lon="3.44155">
        <ele>103</ele>
        <time>2014-04-14T15:12:37Z</time>
      </trkpt>
      <trkpt lat="47.91315" lon="3.4415">
        <ele>104</ele>
        <time>2014-04-14T15:12:41Z</time>
      </trkpt>
      <trkpt lat="47.91309" lon="3.44148">
        <ele>104</ele>
        <time>2014-04-14T15:12:45Z</time>
      </trkpt>
      <trkpt lat="47.91304" lon="3.44148">
        <ele>104</ele>
        <time>2014-04-14T15:12:49Z</time>
      </trkpt>
      <trkpt lat="47.91299" lon="3.44148">
        <ele>104</ele>
        <time>2014-04-14T15:12:55Z</time>
      </trkpt>
      <trkpt lat="47.91294" lon="3.44148">
        <ele>104</ele>
        <time>2014-04-14T15:13:02Z</time>
      </trkpt>
      <trkpt lat="47.91284" lon="3.44147">
        <ele>104</ele>
        <time>2014-04-14T15:13:08Z</time>
      </trkpt>
      <trkpt lat="47.91278" lon="3.44145">
        <ele>104</ele>
        <time>2014-04-14T15:13:15Z</time>
      </trkpt>
      <trkpt lat="47.91273" lon="3.44145">
        <ele>103</ele>
        <time>2014-04-14T15:13:21Z</time>
      </trkpt>
      <trkpt lat="47.91269" lon="3.44144">
        <ele>103</ele>
        <time>2014-04-14T15:13:24Z</time>
      </trkpt>
      <trkpt lat="47.91261" lon="3.44141">
        <ele>103</ele>
        <time>2014-04-14T15:13:28Z</time>
      </trkpt>
      <trkpt lat="47.91256" lon="3.44141">
        <ele>103</ele>
        <time>2014-04-14T15:13:33Z</time>
      </trkpt>
      <trkpt lat="47.91251" lon="3.4414">
        <ele>103</ele>
        <time>2014-04-14T15:13:37Z</time>
      </trkpt>
      <trkpt lat="47.91246" lon="3.44138">
        <ele>103</ele>
        <time>2014-04-14T15:13:43Z</time>
      </trkpt>
      <trkpt lat="47.91242" lon="3.44137">
        <ele>103</ele>
        <time>2014-04-14T15:13:47Z</time>
      </trkpt>
      <trkpt lat="47.91236" lon="3.44136">
        <ele>103</ele>
        <time>2014-04-14T15:13:51Z</time>
      </trkpt>
      <trkpt lat="47.9123" lon="3.44135">
        <ele>104</ele>
        <time>2014-04-14T15:13:56Z</time>
      </trkpt>
      <trkpt lat="47.91226" lon="3.44134">
        <ele>104</ele>
        <time>2014-04-14T15:14:03Z</time>
      </trkpt>
      <trkpt lat="47.91222" lon="3.44133">
        <ele>104</ele>
        <time>2014-04-14T15:14:12Z</time>
      </trkpt>
      <trkpt lat="47.91218" lon="3.4413">
        <ele>104</ele>
        <time>2014-04-14T15:14:26Z</time>
      </trkpt>
      <trkpt lat="47.91213" lon="3.44128">
        <ele>104</ele>
        <time>2014-04-14T15:14:31Z</time>
      </trkpt>
      <trkpt lat="47.91207" lon="3.44126">
        <ele>104</ele>
        <time>2014-04-14T15:14:35Z</time>
      </trkpt>
      <trkpt lat="47.91202" lon="3.44124">
        <ele>104</ele>
        <time>2014-04-14T15:14:39Z</time>
      </trkpt>
      <trkpt lat="47.91197" lon="3.44125">
        <ele>104</ele>
        <time>2014-04-14T15:14:44Z</time>
      </trkpt>
      <trkpt lat="47.9119" lon="3.44124">
        <ele>104</ele>
        <time>2014-04-14T15:15:02Z</time>
      </trkpt>
      <trkpt lat="47.91184" lon="3.44124">
        <ele>104</ele>
        <time>2014-04-14T15:15:05Z</time>
      </trkpt>
      <trkpt lat="47.91178" lon="3.44124">
        <ele>104</ele>
        <time>2014-04-14T15:15:08Z</time>
      </trkpt>
      <trkpt lat="47.91173" lon="3.44122">
        <ele>104</ele>
        <time>2014-04-14T15:15:12Z</time>
      </trkpt>
      <trkpt lat="47.91168" lon="3.44119">
        <ele>104</ele>
        <time>2014-04-14T15:15:17Z</time>
      </trkpt>
      <trkpt lat="47.91163" lon="3.44117">
        <ele>104</ele>
        <time>2014-04-14T15:15:21Z</time>
      </trkpt>
      <trkpt lat="47.91157" lon="3.44116">
        <ele>104</ele>
        <time>2014-04-14T15:15:24Z</time>
      </trkpt>
      <trkpt lat="47.91154" lon="3.44113">
        <ele>104</ele>
        <time>2014-04-14T15:16:48Z</time>
      </trkpt>
      <trkpt lat="47.91149" lon="3.44112">
        <ele>104</ele>
        <time>2014-04-14T15:16:53Z</time>
      </trkpt>
      <trkpt lat="47.91144" lon="3.44111">
        <ele>104</ele>
        <time>2014-04-14T15:16:58Z</time>
      </trkpt>
      <trkpt lat="47.91139" lon="3.44109">
        <ele>104</ele>
        <time>2014-04-14T15:17:03Z</time>
      </trkpt>
      <trkpt lat="47.91134" lon="3.44108">
        <ele>105</ele>
        <time>2014-04-14T15:17:08Z</time>
      </trkpt>
      <trkpt lat="47.9113" lon="3.44107">
        <ele>105</ele>
        <time>2014-04-14T15:17:13Z</time>
      </trkpt>
      <trkpt lat="47.91128" lon="3.44105">
        <ele>105</ele>
        <time>2014-04-14T15:17:51Z</time>
      </trkpt>
      <trkpt lat="47.91123" lon="3.44105">
        <ele>105</ele>
        <time>2014-04-14T15:17:56Z</time>
      </trkpt>
      <trkpt lat="47.91118" lon="3.44103">
        <ele>105</ele>
        <time>2014-04-14T15:18:01Z</time>
      </trkpt>
      <trkpt lat="47.91113" lon="3.44102">
        <ele>105</ele>
        <time>2014-04-14T15:18:05Z</time>
      </trkpt>
      <trkpt lat="47.91107" lon="3.44101">
        <ele>105</ele>
        <time>2014-04-14T15:18:13Z</time>
      </trkpt>
      <trkpt lat="47.91101" lon="3.44101">
        <ele>105</ele>
        <time>2014-04-14T15:18:17Z</time>
      </trkpt>
      <trkpt lat="47.91096" lon="3.44099">
        <ele>105</ele>
        <time>2014-04-14T15:18:21Z</time>
      </trkpt>
      <trkpt lat="47.91093" lon="3.44099">
        <ele>105</ele>
        <time>2014-04-14T15:18:30Z</time>
      </trkpt>
      <trkpt lat="47.91089" lon="3.44097">
        <ele>105</ele>
        <time>2014-04-14T15:18:39Z</time>
      </trkpt>
      <trkpt lat="47.91084" lon="3.44096">
        <ele>105</ele>
        <time>2014-04-14T15:18:43Z</time>
      </trkpt>
      <trkpt lat="47.91079" lon="3.44096">
        <ele>105</ele>
        <time>2014-04-14T15:18:48Z</time>
      </trkpt>
      <trkpt lat="47.91073" lon="3.44096">
        <ele>105</ele>
        <time>2014-04-14T15:18:52Z</time>
      </trkpt>
      <trkpt lat="47.91067" lon="3.44096">
        <ele>105</ele>
        <time>2014-04-14T15:18:55Z</time>
      </trkpt>
      <trkpt lat="47.91062" lon="3.44099">
        <ele>105</ele>
        <time>2014-04-14T15:18:59Z</time>
      </trkpt>
      <trkpt lat="47.91058" lon="3.44095">
        <ele>105</ele>
        <time>2014-04-14T15:19:06Z</time>
      </trkpt>
      <trkpt lat="47.91053" lon="3.44092">
        <ele>105</ele>
        <time>2014-04-14T15:19:11Z</time>
      </trkpt>
      <trkpt lat="47.91048" lon="3.4409">
        <ele>105</ele>
        <time>2014-04-14T15:19:16Z</time>
      </trkpt>
      <trkpt lat="47.91043" lon="3.44087">
        <ele>105</ele>
        <time>2014-04-14T15:19:20Z</time>
      </trkpt>
      <trkpt lat="47.91038" lon="3.44084">
        <ele>105</ele>
        <time>2014-04-14T15:19:24Z</time>
      </trkpt>
      <trkpt lat="47.91033" lon="3.44084">
        <ele>105</ele>
        <time>2014-04-14T15:19:29Z</time>
      </trkpt>
      <trkpt lat="47.91028" lon="3.44084">
        <ele>105</ele>
        <time>2014-04-14T15:19:33Z</time>
      </trkpt>
      <trkpt lat="47.91022" lon="3.44082">
        <ele>106</ele>
        <time>2014-04-14T15:19:38Z</time>
      </trkpt>
      <trkpt lat="47.91017" lon="3.44081">
        <ele>106</ele>
        <time>2014-04-14T15:19:42Z</time>
      </trkpt>
      <trkpt lat="47.91012" lon="3.4408">
        <ele>106</ele>
        <time>2014-04-14T15:19:46Z</time>
      </trkpt>
      <trkpt lat="47.91007" lon="3.44078">
        <ele>105</ele>
        <time>2014-04-14T15:19:52Z</time>
      </trkpt>
      <trkpt lat="47.91002" lon="3.44079">
        <ele>105</ele>
        <time>2014-04-14T15:19:57Z</time>
      </trkpt>
      <trkpt lat="47.90997" lon="3.44077">
        <ele>105</ele>
        <time>2014-04-14T15:20:03Z</time>
      </trkpt>
      <trkpt lat="47.90992" lon="3.44075">
        <ele>105</ele>
        <time>2014-04-14T15:20:06Z</time>
      </trkpt>
      <trkpt lat="47.90987" lon="3.44074">
        <ele>105</ele>
        <time>2014-04-14T15:20:10Z</time>
      </trkpt>
      <trkpt lat="47.90982" lon="3.44073">
        <ele>105</ele>
        <time>2014-04-14T15:20:14Z</time>
      </trkpt>
      <trkpt lat="47.90978" lon="3.44071">
        <ele>105</ele>
        <time>2014-04-14T15:20:18Z</time>
      </trkpt>
      <trkpt lat="47.90974" lon="3.44066">
        <ele>105</ele>
        <time>2014-04-14T15:20:23Z</time>
      </trkpt>
      <trkpt lat="47.9097" lon="3.44062">
        <ele>105</ele>
        <time>2014-04-14T15:20:27Z</time>
      </trkpt>
      <trkpt lat="47.90965" lon="3.44061">
        <ele>105</ele>
        <time>2014-04-14T15:20:32Z</time>
      </trkpt>
      <trkpt lat="47.90961" lon="3.44056">
        <ele>105</ele>
        <time>2014-04-14T15:20:36Z</time>
      </trkpt>
      <trkpt lat="47.90956" lon="3.44052">
        <ele>105</ele>
        <time>2014-04-14T15:20:39Z</time>
      </trkpt>
      <trkpt lat="47.90951" lon="3.44051">
        <ele>105</ele>
        <time>2014-04-14T15:20:43Z</time>
      </trkpt>
      <trkpt lat="47.90946" lon="3.44051">
        <ele>105</ele>
        <time>2014-04-14T15:20:50Z</time>
      </trkpt>
      <trkpt lat="47.90941" lon="3.44051">
        <ele>105</ele>
        <time>2014-04-14T15:20:55Z</time>
      </trkpt>
      <trkpt lat="47.90937" lon="3.44048">
        <ele>105</ele>
        <time>2014-04-14T15:20:59Z</time>
      </trkpt>
      <trkpt lat="47.90932" lon="3.44045">
        <ele>105</ele>
        <time>2014-04-14T15:21:03Z</time>
      </trkpt>
      <trkpt lat="47.90927" lon="3.44045">
        <ele>105</ele>
        <time>2014-04-14T15:21:07Z</time>
      </trkpt>
      <trkpt lat="47.90923" lon="3.44045">
        <ele>105</ele>
        <time>2014-04-14T15:21:11Z</time>
      </trkpt>
      <trkpt lat="47.90918" lon="3.44043">
        <ele>105</ele>
        <time>2014-04-14T15:21:15Z</time>
      </trkpt>
      <trkpt lat="47.90913" lon="3.44041">
        <ele>104</ele>
        <time>2014-04-14T15:21:18Z</time>
      </trkpt>
      <trkpt lat="47.90908" lon="3.44042">
        <ele>104</ele>
        <time>2014-04-14T15:21:23Z</time>
      </trkpt>
      <trkpt lat="47.90903" lon="3.4404">
        <ele>104</ele>
        <time>2014-04-14T15:21:28Z</time>
      </trkpt>
      <trkpt lat="47.90898" lon="3.4404">
        <ele>104</ele>
        <time>2014-04-14T15:21:31Z</time>
      </trkpt>
      <trkpt lat="47.90892" lon="3.44041">
        <ele>103</ele>
        <time>2014-04-14T15:21:34Z</time>
      </trkpt>
      <trkpt lat="47.90888" lon="3.44038">
        <ele>104</ele>
        <time>2014-04-14T15:21:39Z</time>
      </trkpt>
      <trkpt lat="47.90884" lon="3.44032">
        <ele>104</ele>
        <time>2014-04-14T15:21:44Z</time>
      </trkpt>
      <trkpt lat="47.9088" lon="3.44031">
        <ele>103</ele>
        <time>2014-04-14T15:21:49Z</time>
      </trkpt>
      <trkpt lat="47.90875" lon="3.44028">
        <ele>103</ele>
        <time>2014-04-14T15:21:54Z</time>
      </trkpt>
      <trkpt lat="47.90869" lon="3.44026">
        <ele>103</ele>
        <time>2014-04-14T15:22:00Z</time>
      </trkpt>
      <trkpt lat="47.90865" lon="3.44025">
        <ele>103</ele>
        <time>2014-04-14T15:22:03Z</time>
      </trkpt>
      <trkpt lat="47.90861" lon="3.44022">
        <ele>103</ele>
        <time>2014-04-14T15:22:07Z</time>
      </trkpt>
      <trkpt lat="47.90856" lon="3.44018">
        <ele>103</ele>
        <time>2014-04-14T15:22:12Z</time>
      </trkpt>
      <trkpt lat="47.90851" lon="3.44016">
        <ele>103</ele>
        <time>2014-04-14T15:22:17Z</time>
      </trkpt>
      <trkpt lat="47.90846" lon="3.44013">
        <ele>103</ele>
        <time>2014-04-14T15:22:21Z</time>
      </trkpt>
      <trkpt lat="47.90842" lon="3.44009">
        <ele>103</ele>
        <time>2014-04-14T15:22:26Z</time>
      </trkpt>
      <trkpt lat="47.90836" lon="3.44009">
        <ele>103</ele>
        <time>2014-04-14T15:22:30Z</time>
      </trkpt>
      <trkpt lat="47.9083" lon="3.44011">
        <ele>102</ele>
        <time>2014-04-14T15:22:34Z</time>
      </trkpt>
      <trkpt lat="47.90827" lon="3.44006">
        <ele>102</ele>
        <time>2014-04-14T15:22:44Z</time>
      </trkpt>
      <trkpt lat="47.90823" lon="3.44003">
        <ele>102</ele>
        <time>2014-04-14T15:22:48Z</time>
      </trkpt>
      <trkpt lat="47.90819" lon="3.44">
        <ele>103</ele>
        <time>2014-04-14T15:22:54Z</time>
      </trkpt>
      <trkpt lat="47.90813" lon="3.44">
        <ele>102</ele>
        <time>2014-04-14T15:22:58Z</time>
      </trkpt>
      <trkpt lat="47.90808" lon="3.43998">
        <ele>103</ele>
        <time>2014-04-14T15:23:03Z</time>
      </trkpt>
      <trkpt lat="47.90804" lon="3.43995">
        <ele>103</ele>
        <time>2014-04-14T15:23:08Z</time>
      </trkpt>
      <trkpt lat="47.90799" lon="3.43991">
        <ele>103</ele>
        <time>2014-04-14T15:23:12Z</time>
      </trkpt>
      <trkpt lat="47.90794" lon="3.43991">
        <ele>103</ele>
        <time>2014-04-14T15:23:16Z</time>
      </trkpt>
      <trkpt lat="47.90789" lon="3.43988">
        <ele>103</ele>
        <time>2014-04-14T15:23:21Z</time>
      </trkpt>
      <trkpt lat="47.90786" lon="3.43982">
        <ele>103</ele>
        <time>2014-04-14T15:23:25Z</time>
      </trkpt>
      <trkpt lat="47.90781" lon="3.4398">
        <ele>103</ele>
        <time>2014-04-14T15:23:29Z</time>
      </trkpt>
      <trkpt lat="47.90776" lon="3.43979">
        <ele>103</ele>
        <time>2014-04-14T15:23:33Z</time>
      </trkpt>
      <trkpt lat="47.90772" lon="3.43978">
        <ele>103</ele>
        <time>2014-04-14T15:23:38Z</time>
      </trkpt>
      <trkpt lat="47.90767" lon="3.43977">
        <ele>103</ele>
        <time>2014-04-14T15:23:42Z</time>
      </trkpt>
      <trkpt lat="47.90763" lon="3.43974">
        <ele>103</ele>
        <time>2014-04-14T15:23:45Z</time>
      </trkpt>
      <trkpt lat="47.90758" lon="3.43971">
        <ele>103</ele>
        <time>2014-04-14T15:23:50Z</time>
      </trkpt>
      <trkpt lat="47.90753" lon="3.43967">
        <ele>103</ele>
        <time>2014-04-14T15:23:55Z</time>
      </trkpt>
      <trkpt lat="47.9075" lon="3.43962">
        <ele>104</ele>
        <time>2014-04-14T15:24:02Z</time>
      </trkpt>
      <trkpt lat="47.90745" lon="3.4396">
        <ele>104</ele>
        <time>2014-04-14T15:24:06Z</time>
      </trkpt>
      <trkpt lat="47.9074" lon="3.4396">
        <ele>104</ele>
        <time>2014-04-14T15:24:10Z</time>
      </trkpt>
      <trkpt lat="47.90735" lon="3.43961">
        <ele>104</ele>
        <time>2014-04-14T15:24:13Z</time>
      </trkpt>
      <trkpt lat="47.9073" lon="3.43961">
        <ele>104</ele>
        <time>2014-04-14T15:24:16Z</time>
      </trkpt>
      <trkpt lat="47.90726" lon="3.43961">
        <ele>104</ele>
        <time>2014-04-14T15:24:20Z</time>
      </trkpt>
      <trkpt lat="47.90722" lon="3.43956">
        <ele>104</ele>
        <time>2014-04-14T15:24:24Z</time>
      </trkpt>
      <trkpt lat="47.90719" lon="3.43951">
        <ele>104</ele>
        <time>2014-04-14T15:24:29Z</time>
      </trkpt>
      <trkpt lat="47.90714" lon="3.43948">
        <ele>104</ele>
        <time>2014-04-14T15:24:34Z</time>
      </trkpt>
      <trkpt lat="47.90709" lon="3.43949">
        <ele>104</ele>
        <time>2014-04-14T15:24:38Z</time>
      </trkpt>
      <trkpt lat="47.90704" lon="3.4395">
        <ele>104</ele>
        <time>2014-04-14T15:24:42Z</time>
      </trkpt>
      <trkpt lat="47.907" lon="3.43945">
        <ele>104</ele>
        <time>2014-04-14T15:25:24Z</time>
      </trkpt>
      <trkpt lat="47.90695" lon="3.43943">
        <ele>104</ele>
        <time>2014-04-14T15:25:30Z</time>
      </trkpt>
      <trkpt lat="47.9069" lon="3.43942">
        <ele>104</ele>
        <time>2014-04-14T15:25:36Z</time>
      </trkpt>
      <trkpt lat="47.90686" lon="3.4394">
        <ele>105</ele>
        <time>2014-04-14T15:25:40Z</time>
      </trkpt>
      <trkpt lat="47.90681" lon="3.43938">
        <ele>105</ele>
        <time>2014-04-14T15:25:44Z</time>
      </trkpt>
      <trkpt lat="47.90675" lon="3.43937">
        <ele>105</ele>
        <time>2014-04-14T15:25:49Z</time>
      </trkpt>
      <trkpt lat="47.90671" lon="3.43935">
        <ele>105</ele>
        <time>2014-04-14T15:25:53Z</time>
      </trkpt>
      <trkpt lat="47.90665" lon="3.43932">
        <ele>105</ele>
        <time>2014-04-14T15:25:58Z</time>
      </trkpt>
      <trkpt lat="47.90661" lon="3.43929">
        <ele>105</ele>
        <time>2014-04-14T15:26:02Z</time>
      </trkpt>
      <trkpt lat="47.90656" lon="3.43927">
        <ele>105</ele>
        <time>2014-04-14T15:26:06Z</time>
      </trkpt>
      <trkpt lat="47.90652" lon="3.43922">
        <ele>105</ele>
        <time>2014-04-14T15:26:11Z</time>
      </trkpt>
      <trkpt lat="47.90647" lon="3.43919">
        <ele>105</ele>
        <time>2014-04-14T15:26:15Z</time>
      </trkpt>
      <trkpt lat="47.90642" lon="3.43918">
        <ele>105</ele>
        <time>2014-04-14T15:26:19Z</time>
      </trkpt>
      <trkpt lat="47.90638" lon="3.43917">
        <ele>105</ele>
        <time>2014-04-14T15:26:23Z</time>
      </trkpt>
      <trkpt lat="47.90633" lon="3.43917">
        <ele>105</ele>
        <time>2014-04-14T15:26:27Z</time>
      </trkpt>
      <trkpt lat="47.90629" lon="3.43915">
        <ele>106</ele>
        <time>2014-04-14T15:26:31Z</time>
      </trkpt>
      <trkpt lat="47.90624" lon="3.43913">
        <ele>106</ele>
        <time>2014-04-14T15:26:35Z</time>
      </trkpt>
      <trkpt lat="47.9062" lon="3.4391">
        <ele>106</ele>
        <time>2014-04-14T15:26:39Z</time>
      </trkpt>
      <trkpt lat="47.90615" lon="3.43907">
        <ele>106</ele>
        <time>2014-04-14T15:26:43Z</time>
      </trkpt>
      <trkpt lat="47.9061" lon="3.43904">
        <ele>106</ele>
        <time>2014-04-14T15:26:47Z</time>
      </trkpt>
      <trkpt lat="47.90606" lon="3.43903">
        <ele>106</ele>
        <time>2014-04-14T15:26:51Z</time>
      </trkpt>
      <trkpt lat="47.90601" lon="3.43901">
        <ele>106</ele>
        <time>2014-04-14T15:26:59Z</time>
      </trkpt>
      <trkpt lat="47.90597" lon="3.43897">
        <ele>106</ele>
        <time>2014-04-14T15:27:05Z</time>
      </trkpt>
      <trkpt lat="47.90591" lon="3.43895">
        <ele>106</ele>
        <time>2014-04-14T15:27:10Z</time>
      </trkpt>
      <trkpt lat="47.90586" lon="3.43891">
        <ele>106</ele>
        <time>2014-04-14T15:27:14Z</time>
      </trkpt>
      <trkpt lat="47.90582" lon="3.43889">
        <ele>106</ele>
        <time>2014-04-14T15:27:18Z</time>
      </trkpt>
      <trkpt lat="47.90577" lon="3.43889">
        <ele>106</ele>
        <time>2014-04-14T15:27:22Z</time>
      </trkpt>
      <trkpt lat="47.90571" lon="3.43884">
        <ele>106</ele>
        <time>2014-04-14T15:27:35Z</time>
      </trkpt>
      <trkpt lat="47.90566" lon="3.43881">
        <ele>106</ele>
        <time>2014-04-14T15:27:39Z</time>
      </trkpt>
      <trkpt lat="47.9056" lon="3.4388">
        <ele>106</ele>
        <time>2014-04-14T15:27:43Z</time>
      </trkpt>
      <trkpt lat="47.90556" lon="3.43876">
        <ele>106</ele>
        <time>2014-04-14T15:27:48Z</time>
      </trkpt>
      <trkpt lat="47.90551" lon="3.43874">
        <ele>106</ele>
        <time>2014-04-14T15:27:52Z</time>
      </trkpt>
      <trkpt lat="47.90546" lon="3.43872">
        <ele>106</ele>
        <time>2014-04-14T15:27:56Z</time>
      </trkpt>
      <trkpt lat="47.90541" lon="3.43869">
        <ele>106</ele>
        <time>2014-04-14T15:28:01Z</time>
      </trkpt>
      <trkpt lat="47.90536" lon="3.43866">
        <ele>106</ele>
        <time>2014-04-14T15:28:05Z</time>
      </trkpt>
      <trkpt lat="47.90531" lon="3.43864">
        <ele>106</ele>
        <time>2014-04-14T15:28:09Z</time>
      </trkpt>
      <trkpt lat="47.90526" lon="3.43862">
        <ele>106</ele>
        <time>2014-04-14T15:28:14Z</time>
      </trkpt>
      <trkpt lat="47.90521" lon="3.43862">
        <ele>106</ele>
        <time>2014-04-14T15:28:18Z</time>
      </trkpt>
      <trkpt lat="47.90516" lon="3.43862">
        <ele>106</ele>
        <time>2014-04-14T15:28:22Z</time>
      </trkpt>
      <trkpt lat="47.90512" lon="3.4386">
        <ele>106</ele>
        <time>2014-04-14T15:28:27Z</time>
      </trkpt>
      <trkpt lat="47.90507" lon="3.43857">
        <ele>106</ele>
        <time>2014-04-14T15:28:31Z</time>
      </trkpt>
      <trkpt lat="47.90503" lon="3.43856">
        <ele>106</ele>
        <time>2014-04-14T15:28:35Z</time>
      </trkpt>
      <trkpt lat="47.90498" lon="3.43853">
        <ele>106</ele>
        <time>2014-04-14T15:28:40Z</time>
      </trkpt>
      <trkpt lat="47.90493" lon="3.43851">
        <ele>106</ele>
        <time>2014-04-14T15:28:44Z</time>
      </trkpt>
      <trkpt lat="47.90488" lon="3.43849">
        <ele>106</ele>
        <time>2014-04-14T15:28:49Z</time>
      </trkpt>
      <trkpt lat="47.90484" lon="3.43847">
        <ele>106</ele>
        <time>2014-04-14T15:28:53Z</time>
      </trkpt>
      <trkpt lat="47.90479" lon="3.43845">
        <ele>106</ele>
        <time>2014-04-14T15:28:57Z</time>
      </trkpt>
      <trkpt lat="47.90474" lon="3.43842">
        <ele>106</ele>
        <time>2014-04-14T15:29:01Z</time>
      </trkpt>
      <trkpt lat="47.90469" lon="3.43841">
        <ele>106</ele>
        <time>2014-04-14T15:29:06Z</time>
      </trkpt>
      <trkpt lat="47.90465" lon="3.43839">
        <ele>106</ele>
        <time>2014-04-14T15:29:11Z</time>
      </trkpt>
      <trkpt lat="47.9046" lon="3.43841">
        <ele>106</ele>
        <time>2014-04-14T15:29:19Z</time>
      </trkpt>
      <trkpt lat="47.90455" lon="3.43839">
        <ele>106</ele>
        <time>2014-04-14T15:29:25Z</time>
      </trkpt>
      <trkpt lat="47.90455" lon="3.43846">
        <ele>106</ele>
        <time>2014-04-14T15:29:31Z</time>
      </trkpt>
      <trkpt lat="47.90453" lon="3.43852">
        <ele>106</ele>
        <time>2014-04-14T15:29:36Z</time>
      </trkpt>
      <trkpt lat="47.90452" lon="3.43861">
        <ele>106</ele>
        <time>2014-04-14T15:29:40Z</time>
      </trkpt>
      <trkpt lat="47.9045" lon="3.43868">
        <ele>106</ele>
        <time>2014-04-14T15:29:48Z</time>
      </trkpt>
      <trkpt lat="47.90448" lon="3.43874">
        <ele>106</ele>
        <time>2014-04-14T15:29:52Z</time>
      </trkpt>
      <trkpt lat="47.90446" lon="3.43882">
        <ele>106</ele>
        <time>2014-04-14T15:29:56Z</time>
      </trkpt>
      <trkpt lat="47.90443" lon="3.43892">
        <ele>106</ele>
        <time>2014-04-14T15:30:01Z</time>
      </trkpt>
      <trkpt lat="47.90441" lon="3.43897">
        <ele>106</ele>
        <time>2014-04-14T15:30:06Z</time>
      </trkpt>
      <trkpt lat="47.90439" lon="3.43906">
        <ele>106</ele>
        <time>2014-04-14T15:30:12Z</time>
      </trkpt>
      <trkpt lat="47.90437" lon="3.43912">
        <ele>106</ele>
        <time>2014-04-14T15:30:15Z</time>
      </trkpt>
      <trkpt lat="47.90435" lon="3.43918">
        <ele>105</ele>
        <time>2014-04-14T15:30:18Z</time>
      </trkpt>
      <trkpt lat="47.90434" lon="3.43926">
        <ele>105</ele>
        <time>2014-04-14T15:30:23Z</time>
      </trkpt>
      <trkpt lat="47.90434" lon="3.43934">
        <ele>105</ele>
        <time>2014-04-14T15:30:28Z</time>
      </trkpt>
      <trkpt lat="47.90433" lon="3.43941">
        <ele>104</ele>
        <time>2014-04-14T15:30:32Z</time>
      </trkpt>
      <trkpt lat="47.9043" lon="3.43947">
        <ele>104</ele>
        <time>2014-04-14T15:30:35Z</time>
      </trkpt>
      <trkpt lat="47.90427" lon="3.43954">
        <ele>104</ele>
        <time>2014-04-14T15:30:39Z</time>
      </trkpt>
      <trkpt lat="47.90424" lon="3.4396">
        <ele>104</ele>
        <time>2014-04-14T15:30:43Z</time>
      </trkpt>
      <trkpt lat="47.90423" lon="3.43967">
        <ele>104</ele>
        <time>2014-04-14T15:30:48Z</time>
      </trkpt>
      <trkpt lat="47.90423" lon="3.43974">
        <ele>104</ele>
        <time>2014-04-14T15:30:53Z</time>
      </trkpt>
      <trkpt lat="47.90421" lon="3.43981">
        <ele>104</ele>
        <time>2014-04-14T15:31:00Z</time>
      </trkpt>
      <trkpt lat="47.90419" lon="3.43988">
        <ele>104</ele>
        <time>2014-04-14T15:31:04Z</time>
      </trkpt>
      <trkpt lat="47.90416" lon="3.43995">
        <ele>103</ele>
        <time>2014-04-14T15:31:08Z</time>
      </trkpt>
      <trkpt lat="47.90414" lon="3.44002">
        <ele>103</ele>
        <time>2014-04-14T15:31:12Z</time>
      </trkpt>
      <trkpt lat="47.90411" lon="3.44009">
        <ele>103</ele>
        <time>2014-04-14T15:31:16Z</time>
      </trkpt>
      <trkpt lat="47.90407" lon="3.44016">
        <ele>102</ele>
        <time>2014-04-14T15:31:19Z</time>
      </trkpt>
      <trkpt lat="47.90405" lon="3.44025">
        <ele>102</ele>
        <time>2014-04-14T15:31:32Z</time>
      </trkpt>
      <trkpt lat="47.90403" lon="3.44032">
        <ele>102</ele>
        <time>2014-04-14T15:31:36Z</time>
      </trkpt>
      <trkpt lat="47.90401" lon="3.44039">
        <ele>102</ele>
        <time>2014-04-14T15:31:40Z</time>
      </trkpt>
      <trkpt lat="47.90399" lon="3.44046">
        <ele>101</ele>
        <time>2014-04-14T15:31:44Z</time>
      </trkpt>
      <trkpt lat="47.90397" lon="3.44052">
        <ele>101</ele>
        <time>2014-04-14T15:31:48Z</time>
      </trkpt>
      <trkpt lat="47.90397" lon="3.44059">
        <ele>101</ele>
        <time>2014-04-14T15:31:53Z</time>
      </trkpt>
      <trkpt lat="47.90394" lon="3.44065">
        <ele>101</ele>
        <time>2014-04-14T15:31:57Z</time>
      </trkpt>
      <trkpt lat="47.90393" lon="3.44072">
        <ele>101</ele>
        <time>2014-04-14T15:32:02Z</time>
      </trkpt>
      <trkpt lat="47.90393" lon="3.44079">
        <ele>101</ele>
        <time>2014-04-14T15:32:07Z</time>
      </trkpt>
      <trkpt lat="47.90393" lon="3.44083">
        <ele>101</ele>
        <time>2014-04-14T15:32:13Z</time>
      </trkpt>
      <trkpt lat="47.90394" lon="3.4409">
        <ele>99</ele>
        <time>2014-04-14T15:32:20Z</time>
      </trkpt>
      <trkpt lat="47.90394" lon="3.44098">
        <ele>99</ele>
        <time>2014-04-14T15:32:25Z</time>
      </trkpt>
      <trkpt lat="47.90393" lon="3.44106">
        <ele>99</ele>
        <time>2014-04-14T15:32:30Z</time>
      </trkpt>
      <trkpt lat="47.90391" lon="3.44112">
        <ele>99</ele>
        <time>2014-04-14T15:32:34Z</time>
      </trkpt>
      <trkpt lat="47.90388" lon="3.44119">
        <ele>99</ele>
        <time>2014-04-14T15:32:39Z</time>
      </trkpt>
      <trkpt lat="47.90387" lon="3.44127">
        <ele>99</ele>
        <time>2014-04-14T15:32:45Z</time>
      </trkpt>
      <trkpt lat="47.90385" lon="3.44134">
        <ele>99</ele>
        <time>2014-04-14T15:32:51Z</time>
      </trkpt>
      <trkpt lat="47.90384" lon="3.44141">
        <ele>99</ele>
        <time>2014-04-14T15:32:55Z</time>
      </trkpt>
      <trkpt lat="47.90383" lon="3.44148">
        <ele>99</ele>
        <time>2014-04-14T15:33:00Z</time>
      </trkpt>
      <trkpt lat="47.90378" lon="3.4415">
        <ele>99</ele>
        <time>2014-04-14T15:33:04Z</time>
      </trkpt>
      <trkpt lat="47.90373" lon="3.4415">
        <ele>99</ele>
        <time>2014-04-14T15:33:07Z</time>
      </trkpt>
      <trkpt lat="47.90367" lon="3.44149">
        <ele>99</ele>
        <time>2014-04-14T15:33:11Z</time>
      </trkpt>
      <trkpt lat="47.90362" lon="3.44149">
        <ele>99</ele>
        <time>2014-04-14T15:33:15Z</time>
      </trkpt>
      <trkpt lat="47.90358" lon="3.44151">
        <ele>99</ele>
        <time>2014-04-14T15:33:19Z</time>
      </trkpt>
      <trkpt lat="47.90353" lon="3.44155">
        <ele>99</ele>
        <time>2014-04-14T15:33:24Z</time>
      </trkpt>
      <trkpt lat="47.90348" lon="3.44154">
        <ele>99</ele>
        <time>2014-04-14T15:33:28Z</time>
      </trkpt>
      <trkpt lat="47.90343" lon="3.44153">
        <ele>99</ele>
        <time>2014-04-14T15:33:32Z</time>
      </trkpt>
      <trkpt lat="47.90338" lon="3.44151">
        <ele>99</ele>
        <time>2014-04-14T15:33:36Z</time>
      </trkpt>
      <trkpt lat="47.90333" lon="3.44149">
        <ele>99</ele>
        <time>2014-04-14T15:33:39Z</time>
      </trkpt>
      <trkpt lat="47.90328" lon="3.44145">
        <ele>99</ele>
        <time>2014-04-14T15:33:43Z</time>
      </trkpt>
      <trkpt lat="47.90324" lon="3.44143">
        <ele>99</ele>
        <time>2014-04-14T15:33:46Z</time>
      </trkpt>
      <trkpt lat="47.90318" lon="3.44141">
        <ele>99</ele>
        <time>2014-04-14T15:33:50Z</time>
      </trkpt>
      <trkpt lat="47.90314" lon="3.44137">
        <ele>99</ele>
        <time>2014-04-14T15:33:55Z</time>
      </trkpt>
      <trkpt lat="47.9031" lon="3.44134">
        <ele>99</ele>
        <time>2014-04-14T15:33:59Z</time>
      </trkpt>
      <trkpt lat="47.90306" lon="3.4413">
        <ele>99</ele>
        <time>2014-04-14T15:34:03Z</time>
      </trkpt>
      <trkpt lat="47.90302" lon="3.44126">
        <ele>99</ele>
        <time>2014-04-14T15:34:08Z</time>
      </trkpt>
      <trkpt lat="47.90297" lon="3.44123">
        <ele>99</ele>
        <time>2014-04-14T15:34:13Z</time>
      </trkpt>
      <trkpt lat="47.90292" lon="3.4412">
        <ele>99</ele>
        <time>2014-04-14T15:34:17Z</time>
      </trkpt>
      <trkpt lat="47.90287" lon="3.44118">
        <ele>99</ele>
        <time>2014-04-14T15:34:21Z</time>
      </trkpt>
      <trkpt lat="47.90282" lon="3.44117">
        <ele>99</ele>
        <time>2014-04-14T15:34:25Z</time>
      </trkpt>
      <trkpt lat="47.90277" lon="3.44115">
        <ele>99</ele>
        <time>2014-04-14T15:34:29Z</time>
      </trkpt>
      <trkpt lat="47.90273" lon="3.44112">
        <ele>99</ele>
        <time>2014-04-14T15:34:34Z</time>
      </trkpt>
      <trkpt lat="47.90268" lon="3.4411">
        <ele>99</ele>
        <time>2014-04-14T15:34:41Z</time>
      </trkpt>
      <trkpt lat="47.90263" lon="3.44108">
        <ele>99</ele>
        <time>2014-04-14T15:34:47Z</time>
      </trkpt>
      <trkpt lat="47.90258" lon="3.44105">
        <ele>99</ele>
        <time>2014-04-14T15:34:51Z</time>
      </trkpt>
      <trkpt lat="47.90254" lon="3.44103">
        <ele>99</ele>
        <time>2014-04-14T15:34:54Z</time>
      </trkpt>
      <trkpt lat="47.90249" lon="3.44104">
        <ele>98</ele>
        <time>2014-04-14T15:34:57Z</time>
      </trkpt>
      <trkpt lat="47.90244" lon="3.44105">
        <ele>98</ele>
        <time>2014-04-14T15:35:00Z</time>
      </trkpt>
      <trkpt lat="47.90239" lon="3.44104">
        <ele>98</ele>
        <time>2014-04-14T15:35:04Z</time>
      </trkpt>
      <trkpt lat="47.90233" lon="3.44102">
        <ele>98</ele>
        <time>2014-04-14T15:35:08Z</time>
      </trkpt>
      <trkpt lat="47.90229" lon="3.44098">
        <ele>98</ele>
        <time>2014-04-14T15:35:13Z</time>
      </trkpt>
      <trkpt lat="47.90226" lon="3.44092">
        <ele>98</ele>
        <time>2014-04-14T15:35:15Z</time>
      </trkpt>
      <trkpt lat="47.90222" lon="3.44088">
        <ele>98</ele>
        <time>2014-04-14T15:35:17Z</time>
      </trkpt>
      <trkpt lat="47.90218" lon="3.44084">
        <ele>98</ele>
        <time>2014-04-14T15:35:20Z</time>
      </trkpt>
      <trkpt lat="47.90215" lon="3.44079">
        <ele>98</ele>
        <time>2014-04-14T15:35:26Z</time>
      </trkpt>
      <trkpt lat="47.90209" lon="3.44075">
        <ele>98</ele>
        <time>2014-04-14T15:35:30Z</time>
      </trkpt>
      <trkpt lat="47.90205" lon="3.44072">
        <ele>98</ele>
        <time>2014-04-14T15:35:34Z</time>
      </trkpt>
      <trkpt lat="47.90201" lon="3.44068">
        <ele>98</ele>
        <time>2014-04-14T15:35:38Z</time>
      </trkpt>
      <trkpt lat="47.90197" lon="3.44064">
        <ele>98</ele>
        <time>2014-04-14T15:35:45Z</time>
      </trkpt>
      <trkpt lat="47.90193" lon="3.44064">
        <ele>98</ele>
        <time>2014-04-14T15:35:49Z</time>
      </trkpt>
      <trkpt lat="47.90187" lon="3.44065">
        <ele>98</ele>
        <time>2014-04-14T15:35:53Z</time>
      </trkpt>
      <trkpt lat="47.90182" lon="3.44065">
        <ele>98</ele>
        <time>2014-04-14T15:35:57Z</time>
      </trkpt>
      <trkpt lat="47.90177" lon="3.44063">
        <ele>98</ele>
        <time>2014-04-14T15:36:02Z</time>
      </trkpt>
      <trkpt lat="47.90173" lon="3.44062">
        <ele>98</ele>
        <time>2014-04-14T15:36:06Z</time>
      </trkpt>
      <trkpt lat="47.90168" lon="3.4406">
        <ele>98</ele>
        <time>2014-04-14T15:36:10Z</time>
      </trkpt>
      <trkpt lat="47.90163" lon="3.4406">
        <ele>98</ele>
        <time>2014-04-14T15:36:15Z</time>
      </trkpt>
      <trkpt lat="47.90158" lon="3.4406">
        <ele>98</ele>
        <time>2014-04-14T15:36:19Z</time>
      </trkpt>
      <trkpt lat="47.90152" lon="3.44059">
        <ele>98</ele>
        <time>2014-04-14T15:36:23Z</time>
      </trkpt>
      <trkpt lat="47.90147" lon="3.44058">
        <ele>98</ele>
        <time>2014-04-14T15:36:27Z</time>
      </trkpt>
      <trkpt lat="47.90142" lon="3.44057">
        <ele>98</ele>
        <time>2014-04-14T15:36:30Z</time>
      </trkpt>
      <trkpt lat="47.90138" lon="3.44053">
        <ele>98</ele>
        <time>2014-04-14T15:36:35Z</time>
      </trkpt>
      <trkpt lat="47.90133" lon="3.44051">
        <ele>98</ele>
        <time>2014-04-14T15:36:40Z</time>
      </trkpt>
      <trkpt lat="47.90129" lon="3.44048">
        <ele>98</ele>
        <time>2014-04-14T15:36:44Z</time>
      </trkpt>
      <trkpt lat="47.90124" lon="3.44047">
        <ele>98</ele>
        <time>2014-04-14T15:36:48Z</time>
      </trkpt>
      <trkpt lat="47.9012" lon="3.44041">
        <ele>98</ele>
        <time>2014-04-14T15:36:55Z</time>
      </trkpt>
      <trkpt lat="47.90116" lon="3.44036">
        <ele>98</ele>
        <time>2014-04-14T15:36:59Z</time>
      </trkpt>
      <trkpt lat="47.90113" lon="3.4403">
        <ele>98</ele>
        <time>2014-04-14T15:37:03Z</time>
      </trkpt>
      <trkpt lat="47.90108" lon="3.44025">
        <ele>98</ele>
        <time>2014-04-14T15:37:07Z</time>
      </trkpt>
      <trkpt lat="47.90103" lon="3.44023">
        <ele>98</ele>
        <time>2014-04-14T15:37:11Z</time>
      </trkpt>
      <trkpt lat="47.90099" lon="3.44022">
        <ele>98</ele>
        <time>2014-04-14T15:37:16Z</time>
      </trkpt>
      <trkpt lat="47.90094" lon="3.44021">
        <ele>98</ele>
        <time>2014-04-14T15:37:21Z</time>
      </trkpt>
      <trkpt lat="47.90089" lon="3.44017">
        <ele>98</ele>
        <time>2014-04-14T15:37:24Z</time>
      </trkpt>
      <trkpt lat="47.90085" lon="3.44015">
        <ele>98</ele>
        <time>2014-04-14T15:37:27Z</time>
      </trkpt>
      <trkpt lat="47.9008" lon="3.44018">
        <ele>99</ele>
        <time>2014-04-14T15:37:36Z</time>
      </trkpt>
      <trkpt lat="47.90076" lon="3.44017">
        <ele>99</ele>
        <time>2014-04-14T15:37:40Z</time>
      </trkpt>
      <trkpt lat="47.9007" lon="3.44012">
        <ele>99</ele>
        <time>2014-04-14T15:37:43Z</time>
      </trkpt>
      <trkpt lat="47.90066" lon="3.44009">
        <ele>99</ele>
        <time>2014-04-14T15:37:47Z</time>
      </trkpt>
      <trkpt lat="47.9006" lon="3.44007">
        <ele>99</ele>
        <time>2014-04-14T15:37:51Z</time>
      </trkpt>
      <trkpt lat="47.90056" lon="3.44004">
        <ele>99</ele>
        <time>2014-04-14T15:37:54Z</time>
      </trkpt>
      <trkpt lat="47.90053" lon="3.43999">
        <ele>99</ele>
        <time>2014-04-14T15:37:59Z</time>
      </trkpt>
      <trkpt lat="47.90048" lon="3.43995">
        <ele>99</ele>
        <time>2014-04-14T15:38:06Z</time>
      </trkpt>
      <trkpt lat="47.90043" lon="3.43991">
        <ele>99</ele>
        <time>2014-04-14T15:38:11Z</time>
      </trkpt>
      <trkpt lat="47.90037" lon="3.43989">
        <ele>99</ele>
        <time>2014-04-14T15:38:14Z</time>
      </trkpt>
      <trkpt lat="47.90033" lon="3.43986">
        <ele>99</ele>
        <time>2014-04-14T15:38:17Z</time>
      </trkpt>
      <trkpt lat="47.9003" lon="3.4398">
        <ele>99</ele>
        <time>2014-04-14T15:38:22Z</time>
      </trkpt>
      <trkpt lat="47.90027" lon="3.43974">
        <ele>99</ele>
        <time>2014-04-14T15:38:29Z</time>
      </trkpt>
      <trkpt lat="47.90023" lon="3.43972">
        <ele>99</ele>
        <time>2014-04-14T15:38:37Z</time>
      </trkpt>
      <trkpt lat="47.90018" lon="3.43969">
        <ele>99</ele>
        <time>2014-04-14T15:38:41Z</time>
      </trkpt>
      <trkpt lat="47.90013" lon="3.43964">
        <ele>99</ele>
        <time>2014-04-14T15:38:47Z</time>
      </trkpt>
      <trkpt lat="47.90008" lon="3.43961">
        <ele>99</ele>
        <time>2014-04-14T15:38:51Z</time>
      </trkpt>
      <trkpt lat="47.90004" lon="3.43958">
        <ele>99</ele>
        <time>2014-04-14T15:38:54Z</time>
      </trkpt>
      <trkpt lat="47.89999" lon="3.43955">
        <ele>99</ele>
        <time>2014-04-14T15:38:58Z</time>
      </trkpt>
      <trkpt lat="47.89994" lon="3.43952">
        <ele>99</ele>
        <time>2014-04-14T15:39:02Z</time>
      </trkpt>
      <trkpt lat="47.8999" lon="3.43948">
        <ele>99</ele>
        <time>2014-04-14T15:39:07Z</time>
      </trkpt>
      <trkpt lat="47.89985" lon="3.43945">
        <ele>99</ele>
        <time>2014-04-14T15:39:13Z</time>
      </trkpt>
      <trkpt lat="47.89981" lon="3.43942">
        <ele>99</ele>
        <time>2014-04-14T15:39:18Z</time>
      </trkpt>
      <trkpt lat="47.89977" lon="3.43938">
        <ele>99</ele>
        <time>2014-04-14T15:39:24Z</time>
      </trkpt>
      <trkpt lat="47.89973" lon="3.43935">
        <ele>99</ele>
        <time>2014-04-14T15:39:27Z</time>
      </trkpt>
      <trkpt lat="47.89968" lon="3.4393">
        <ele>99</ele>
        <time>2014-04-14T15:39:32Z</time>
      </trkpt>
      <trkpt lat="47.89967" lon="3.43926">
        <ele>99</ele>
        <time>2014-04-14T15:39:54Z</time>
      </trkpt>
      <trkpt lat="47.89961" lon="3.43922">
        <ele>99</ele>
        <time>2014-04-14T15:40:12Z</time>
      </trkpt>
      <trkpt lat="47.89957" lon="3.43918">
        <ele>99</ele>
        <time>2014-04-14T15:40:16Z</time>
      </trkpt>
      <trkpt lat="47.89953" lon="3.43916">
        <ele>99</ele>
        <time>2014-04-14T15:40:25Z</time>
      </trkpt>
      <trkpt lat="47.89951" lon="3.43913">
        <ele>99</ele>
        <time>2014-04-14T15:40:37Z</time>
      </trkpt>
      <trkpt lat="47.89947" lon="3.43908">
        <ele>99</ele>
        <time>2014-04-14T15:40:43Z</time>
      </trkpt>
      <trkpt lat="47.89943" lon="3.43904">
        <ele>99</ele>
        <time>2014-04-14T15:40:48Z</time>
      </trkpt>
      <trkpt lat="47.89939" lon="3.439">
        <ele>98</ele>
        <time>2014-04-14T15:40:53Z</time>
      </trkpt>
      <trkpt lat="47.89935" lon="3.43894">
        <ele>98</ele>
        <time>2014-04-14T15:40:58Z</time>
      </trkpt>
      <trkpt lat="47.89931" lon="3.4389">
        <ele>98</ele>
        <time>2014-04-14T15:41:01Z</time>
      </trkpt>
      <trkpt lat="47.89928" lon="3.43884">
        <ele>98</ele>
        <time>2014-04-14T15:41:06Z</time>
      </trkpt>
      <trkpt lat="47.89923" lon="3.4388">
        <ele>98</ele>
        <time>2014-04-14T15:41:10Z</time>
      </trkpt>
      <trkpt lat="47.89917" lon="3.43876">
        <ele>98</ele>
        <time>2014-04-14T15:41:13Z</time>
      </trkpt>
      <trkpt lat="47.89914" lon="3.43871">
        <ele>99</ele>
        <time>2014-04-14T15:41:17Z</time>
      </trkpt>
      <trkpt lat="47.89911" lon="3.43866">
        <ele>99</ele>
        <time>2014-04-14T15:41:22Z</time>
      </trkpt>
      <trkpt lat="47.89907" lon="3.43861">
        <ele>99</ele>
        <time>2014-04-14T15:41:27Z</time>
      </trkpt>
      <trkpt lat="47.89902" lon="3.43859">
        <ele>99</ele>
        <time>2014-04-14T15:41:33Z</time>
      </trkpt>
      <trkpt lat="47.89898" lon="3.43855">
        <ele>99</ele>
        <time>2014-04-14T15:41:36Z</time>
      </trkpt>
      <trkpt lat="47.89895" lon="3.43849">
        <ele>99</ele>
        <time>2014-04-14T15:41:42Z</time>
      </trkpt>
      <trkpt lat="47.89891" lon="3.43843">
        <ele>99</ele>
        <time>2014-04-14T15:41:49Z</time>
      </trkpt>
      <trkpt lat="47.89888" lon="3.43837">
        <ele>99</ele>
        <time>2014-04-14T15:41:53Z</time>
      </trkpt>
      <trkpt lat="47.89885" lon="3.43832">
        <ele>99</ele>
        <time>2014-04-14T15:41:58Z</time>
      </trkpt>
      <trkpt lat="47.8988" lon="3.43827">
        <ele>100</ele>
        <time>2014-04-14T15:42:03Z</time>
      </trkpt>
      <trkpt lat="47.89876" lon="3.43823">
        <ele>100</ele>
        <time>2014-04-14T15:42:07Z</time>
      </trkpt>
      <trkpt lat="47.89872" lon="3.43818">
        <ele>100</ele>
        <time>2014-04-14T15:42:11Z</time>
      </trkpt>
      <trkpt lat="47.89869" lon="3.43812">
        <ele>100</ele>
        <time>2014-04-14T15:42:15Z</time>
      </trkpt>
      <trkpt lat="47.89864" lon="3.43808">
        <ele>100</ele>
        <time>2014-04-14T15:42:20Z</time>
      </trkpt>
      <trkpt lat="47.89859" lon="3.43805">
        <ele>100</ele>
        <time>2014-04-14T15:42:24Z</time>
      </trkpt>
      <trkpt lat="47.89855" lon="3.438">
        <ele>100</ele>
        <time>2014-04-14T15:42:29Z</time>
      </trkpt>
      <trkpt lat="47.89853" lon="3.43794">
        <ele>100</ele>
        <time>2014-04-14T15:42:34Z</time>
      </trkpt>
      <trkpt lat="47.89851" lon="3.43788">
        <ele>100</ele>
        <time>2014-04-14T15:42:42Z</time>
      </trkpt>
      <trkpt lat="47.89848" lon="3.43782">
        <ele>100</ele>
        <time>2014-04-14T15:42:48Z</time>
      </trkpt>
      <trkpt lat="47.89843" lon="3.43778">
        <ele>100</ele>
        <time>2014-04-14T15:42:51Z</time>
      </trkpt>
      <trkpt lat="47.89843" lon="3.43773">
        <ele>100</ele>
        <time>2014-04-14T15:43:00Z</time>
      </trkpt>
      <trkpt lat="47.89839" lon="3.4377">
        <ele>100</ele>
        <time>2014-04-14T15:43:09Z</time>
      </trkpt>
      <trkpt lat="47.89835" lon="3.43765">
        <ele>100</ele>
        <time>2014-04-14T15:43:17Z</time>
      </trkpt>
      <trkpt lat="47.89839" lon="3.43761">
        <ele>100</ele>
        <time>2014-04-14T15:43:21Z</time>
      </trkpt>
      <trkpt lat="47.89834" lon="3.43758">
        <ele>100</ele>
        <time>2014-04-14T15:43:40Z</time>
      </trkpt>
      <trkpt lat="47.89832" lon="3.43756">
        <ele>100</ele>
        <time>2014-04-14T15:43:47Z</time>
      </trkpt>
      <trkpt lat="47.89827" lon="3.43753">
        <ele>100</ele>
        <time>2014-04-14T15:43:53Z</time>
      </trkpt>
      <trkpt lat="47.89823" lon="3.4375">
        <ele>100</ele>
        <time>2014-04-14T15:43:56Z</time>
      </trkpt>
      <trkpt lat="47.89818" lon="3.43746">
        <ele>100</ele>
        <time>2014-04-14T15:44:01Z</time>
      </trkpt>
      <trkpt lat="47.89814" lon="3.43741">
        <ele>100</ele>
        <time>2014-04-14T15:44:04Z</time>
      </trkpt>
      <trkpt lat="47.8981" lon="3.43738">
        <ele>100</ele>
        <time>2014-04-14T15:44:07Z</time>
      </trkpt>
      <trkpt lat="47.89805" lon="3.43735">
        <ele>100</ele>
        <time>2014-04-14T15:44:12Z</time>
      </trkpt>
      <trkpt lat="47.89801" lon="3.43729">
        <ele>101</ele>
        <time>2014-04-14T15:44:16Z</time>
      </trkpt>
      <trkpt lat="47.89798" lon="3.43722">
        <ele>101</ele>
        <time>2014-04-14T15:44:19Z</time>
      </trkpt>
      <trkpt lat="47.89784" lon="3.43701">
        <ele>100</ele>
        <time>2014-04-14T15:44:33Z</time>
      </trkpt>
      <trkpt lat="47.8978" lon="3.43696">
        <ele>100</ele>
        <time>2014-04-14T15:44:37Z</time>
      </trkpt>
      <trkpt lat="47.89777" lon="3.4369">
        <ele>100</ele>
        <time>2014-04-14T15:44:42Z</time>
      </trkpt>
      <trkpt lat="47.89773" lon="3.43686">
        <ele>100</ele>
        <time>2014-04-14T15:44:48Z</time>
      </trkpt>
      <trkpt lat="47.8977" lon="3.43681">
        <ele>100</ele>
        <time>2014-04-14T15:44:53Z</time>
      </trkpt>
      <trkpt lat="47.89765" lon="3.43678">
        <ele>100</ele>
        <time>2014-04-14T15:44:59Z</time>
      </trkpt>
      <trkpt lat="47.89761" lon="3.43673">
        <ele>100</ele>
        <time>2014-04-14T15:45:03Z</time>
      </trkpt>
      <trkpt lat="47.89757" lon="3.43668">
        <ele>100</ele>
        <time>2014-04-14T15:45:07Z</time>
      </trkpt>
      <trkpt lat="47.89753" lon="3.43663">
        <ele>100</ele>
        <time>2014-04-14T15:45:11Z</time>
      </trkpt>
      <trkpt lat="47.89749" lon="3.43658">
        <ele>100</ele>
        <time>2014-04-14T15:45:16Z</time>
      </trkpt>
      <trkpt lat="47.89745" lon="3.43654">
        <ele>100</ele>
        <time>2014-04-14T15:45:19Z</time>
      </trkpt>
      <trkpt lat="47.8974" lon="3.43649">
        <ele>100</ele>
        <time>2014-04-14T15:45:23Z</time>
      </trkpt>
      <trkpt lat="47.89735" lon="3.43644">
        <ele>100</ele>
        <time>2014-04-14T15:45:34Z</time>
      </trkpt>
      <trkpt lat="47.8973" lon="3.43639">
        <ele>100</ele>
        <time>2014-04-14T15:45:38Z</time>
      </trkpt>
      <trkpt lat="47.89727" lon="3.43633">
        <ele>100</ele>
        <time>2014-04-14T15:45:41Z</time>
      </trkpt>
      <trkpt lat="47.89723" lon="3.43628">
        <ele>100</ele>
        <time>2014-04-14T15:45:44Z</time>
      </trkpt>
      <trkpt lat="47.8972" lon="3.43622">
        <ele>100</ele>
        <time>2014-04-14T15:45:47Z</time>
      </trkpt>
      <trkpt lat="47.89716" lon="3.43619">
        <ele>100</ele>
        <time>2014-04-14T15:45:50Z</time>
      </trkpt>
      <trkpt lat="47.89712" lon="3.43613">
        <ele>100</ele>
        <time>2014-04-14T15:45:54Z</time>
      </trkpt>
      <trkpt lat="47.89707" lon="3.43607">
        <ele>100</ele>
        <time>2014-04-14T15:45:58Z</time>
      </trkpt>
      <trkpt lat="47.89703" lon="3.43603">
        <ele>100</ele>
        <time>2014-04-14T15:46:01Z</time>
      </trkpt>
      <trkpt lat="47.89698" lon="3.436">
        <ele>100</ele>
        <time>2014-04-14T15:46:08Z</time>
      </trkpt>
      <trkpt lat="47.89695" lon="3.43594">
        <ele>100</ele>
        <time>2014-04-14T15:46:12Z</time>
      </trkpt>
      <trkpt lat="47.89693" lon="3.43587">
        <ele>100</ele>
        <time>2014-04-14T15:46:16Z</time>
      </trkpt>
      <trkpt lat="47.89691" lon="3.4358">
        <ele>101</ele>
        <time>2014-04-14T15:46:36Z</time>
      </trkpt>
      <trkpt lat="47.89687" lon="3.43576">
        <ele>101</ele>
        <time>2014-04-14T15:46:41Z</time>
      </trkpt>
      <trkpt lat="47.89684" lon="3.4357">
        <ele>101</ele>
        <time>2014-04-14T15:46:45Z</time>
      </trkpt>
      <trkpt lat="47.89681" lon="3.43563">
        <ele>101</ele>
        <time>2014-04-14T15:46:50Z</time>
      </trkpt>
      <trkpt lat="47.89677" lon="3.43558">
        <ele>101</ele>
        <time>2014-04-14T15:46:55Z</time>
      </trkpt>
      <trkpt lat="47.89673" lon="3.43552">
        <ele>101</ele>
        <time>2014-04-14T15:46:59Z</time>
      </trkpt>
      <trkpt lat="47.8967" lon="3.43547">
        <ele>101</ele>
        <time>2014-04-14T15:47:03Z</time>
      </trkpt>
      <trkpt lat="47.89666" lon="3.43543">
        <ele>100</ele>
        <time>2014-04-14T15:47:23Z</time>
      </trkpt>
      <trkpt lat="47.89662" lon="3.43537">
        <ele>101</ele>
        <time>2014-04-14T15:47:27Z</time>
      </trkpt>
      <trkpt lat="47.89658" lon="3.43533">
        <ele>101</ele>
        <time>2014-04-14T15:47:32Z</time>
      </trkpt>
      <trkpt lat="47.89655" lon="3.43527">
        <ele>101</ele>
        <time>2014-04-14T15:47:37Z</time>
      </trkpt>
      <trkpt lat="47.89651" lon="3.43522">
        <ele>101</ele>
        <time>2014-04-14T15:47:42Z</time>
      </trkpt>
      <trkpt lat="47.89647" lon="3.43518">
        <ele>101</ele>
        <time>2014-04-14T15:47:46Z</time>
      </trkpt>
      <trkpt lat="47.89643" lon="3.43514">
        <ele>101</ele>
        <time>2014-04-14T15:47:50Z</time>
      </trkpt>
      <trkpt lat="47.8964" lon="3.43508">
        <ele>101</ele>
        <time>2014-04-14T15:47:56Z</time>
      </trkpt>
      <trkpt lat="47.89636" lon="3.43503">
        <ele>101</ele>
        <time>2014-04-14T15:48:02Z</time>
      </trkpt>
      <trkpt lat="47.89633" lon="3.43497">
        <ele>101</ele>
        <time>2014-04-14T15:48:07Z</time>
      </trkpt>
      <trkpt lat="47.89629" lon="3.43491">
        <ele>101</ele>
        <time>2014-04-14T15:48:11Z</time>
      </trkpt>
      <trkpt lat="47.89625" lon="3.43486">
        <ele>101</ele>
        <time>2014-04-14T15:48:14Z</time>
      </trkpt>
      <trkpt lat="47.89621" lon="3.43482">
        <ele>101</ele>
        <time>2014-04-14T15:48:18Z</time>
      </trkpt>
      <trkpt lat="47.89618" lon="3.43477">
        <ele>101</ele>
        <time>2014-04-14T15:48:23Z</time>
      </trkpt>
      <trkpt lat="47.89614" lon="3.43472">
        <ele>101</ele>
        <time>2014-04-14T15:48:26Z</time>
      </trkpt>
      <trkpt lat="47.8961" lon="3.43468">
        <ele>101</ele>
        <time>2014-04-14T15:48:29Z</time>
      </trkpt>
      <trkpt lat="47.89605" lon="3.43461">
        <ele>102</ele>
        <time>2014-04-14T15:48:41Z</time>
      </trkpt>
      <trkpt lat="47.89601" lon="3.43457">
        <ele>102</ele>
        <time>2014-04-14T15:48:45Z</time>
      </trkpt>
      <trkpt lat="47.89597" lon="3.43452">
        <ele>102</ele>
        <time>2014-04-14T15:48:48Z</time>
      </trkpt>
      <trkpt lat="47.89594" lon="3.43447">
        <ele>102</ele>
        <time>2014-04-14T15:48:52Z</time>
      </trkpt>
      <trkpt lat="47.89589" lon="3.43444">
        <ele>102</ele>
        <time>2014-04-14T15:48:59Z</time>
      </trkpt>
      <trkpt lat="47.89585" lon="3.4344">
        <ele>102</ele>
        <time>2014-04-14T15:49:06Z</time>
      </trkpt>
      <trkpt lat="47.89584" lon="3.4343">
        <ele>102</ele>
        <time>2014-04-14T15:49:16Z</time>
      </trkpt>
      <trkpt lat="47.8958" lon="3.43424">
        <ele>102</ele>
        <time>2014-04-14T15:49:20Z</time>
      </trkpt>
      <trkpt lat="47.89576" lon="3.43419">
        <ele>102</ele>
        <time>2014-04-14T15:49:25Z</time>
      </trkpt>
      <trkpt lat="47.89573" lon="3.43413">
        <ele>102</ele>
        <time>2014-04-14T15:49:29Z</time>
      </trkpt>
      <trkpt lat="47.89569" lon="3.43408">
        <ele>102</ele>
        <time>2014-04-14T15:49:34Z</time>
      </trkpt>
      <trkpt lat="47.89566" lon="3.43401">
        <ele>102</ele>
        <time>2014-04-14T15:49:39Z</time>
      </trkpt>
      <trkpt lat="47.89564" lon="3.43394">
        <ele>102</ele>
        <time>2014-04-14T15:49:42Z</time>
      </trkpt>
      <trkpt lat="47.89563" lon="3.43387">
        <ele>102</ele>
        <time>2014-04-14T15:49:45Z</time>
      </trkpt>
      <trkpt lat="47.89559" lon="3.43382">
        <ele>102</ele>
        <time>2014-04-14T15:49:48Z</time>
      </trkpt>
      <trkpt lat="47.89555" lon="3.43379">
        <ele>102</ele>
        <time>2014-04-14T15:49:51Z</time>
      </trkpt>
      <trkpt lat="47.8955" lon="3.43374">
        <ele>102</ele>
        <time>2014-04-14T15:49:55Z</time>
      </trkpt>
      <trkpt lat="47.89546" lon="3.4337">
        <ele>102</ele>
        <time>2014-04-14T15:49:59Z</time>
      </trkpt>
      <trkpt lat="47.89542" lon="3.43367">
        <ele>102</ele>
        <time>2014-04-14T15:50:03Z</time>
      </trkpt>
      <trkpt lat="47.89537" lon="3.43367">
        <ele>102</ele>
        <time>2014-04-14T15:50:08Z</time>
      </trkpt>
      <trkpt lat="47.89534" lon="3.43361">
        <ele>102</ele>
        <time>2014-04-14T15:50:13Z</time>
      </trkpt>
      <trkpt lat="47.89532" lon="3.43355">
        <ele>102</ele>
        <time>2014-04-14T15:50:17Z</time>
      </trkpt>
      <trkpt lat="47.8953" lon="3.43349">
        <ele>102</ele>
        <time>2014-04-14T15:50:23Z</time>
      </trkpt>
      <trkpt lat="47.89526" lon="3.43344">
        <ele>102</ele>
        <time>2014-04-14T15:50:27Z</time>
      </trkpt>
      <trkpt lat="47.89521" lon="3.43339">
        <ele>102</ele>
        <time>2014-04-14T15:50:31Z</time>
      </trkpt>
      <trkpt lat="47.89517" lon="3.43337">
        <ele>102</ele>
        <time>2014-04-14T15:50:35Z</time>
      </trkpt>
      <trkpt lat="47.89512" lon="3.43335">
        <ele>102</ele>
        <time>2014-04-14T15:50:38Z</time>
      </trkpt>
      <trkpt lat="47.89507" lon="3.43331">
        <ele>102</ele>
        <time>2014-04-14T15:50:42Z</time>
      </trkpt>
      <trkpt lat="47.89504" lon="3.43326">
        <ele>102</ele>
        <time>2014-04-14T15:50:47Z</time>
      </trkpt>
      <trkpt lat="47.89504" lon="3.43319">
        <ele>102</ele>
        <time>2014-04-14T15:50:53Z</time>
      </trkpt>
      <trkpt lat="47.89502" lon="3.4331">
        <ele>102</ele>
        <time>2014-04-14T15:50:57Z</time>
      </trkpt>
      <trkpt lat="47.89498" lon="3.43304">
        <ele>101</ele>
        <time>2014-04-14T15:51:01Z</time>
      </trkpt>
      <trkpt lat="47.89494" lon="3.43299">
        <ele>101</ele>
        <time>2014-04-14T15:51:05Z</time>
      </trkpt>
      <trkpt lat="47.89489" lon="3.43295">
        <ele>102</ele>
        <time>2014-04-14T15:51:10Z</time>
      </trkpt>
      <trkpt lat="47.89484" lon="3.43292">
        <ele>102</ele>
        <time>2014-04-14T15:51:14Z</time>
      </trkpt>
      <trkpt lat="47.89479" lon="3.43287">
        <ele>102</ele>
        <time>2014-04-14T15:51:18Z</time>
      </trkpt>
      <trkpt lat="47.89474" lon="3.43283">
        <ele>102</ele>
        <time>2014-04-14T15:51:23Z</time>
      </trkpt>
      <trkpt lat="47.8947" lon="3.43281">
        <ele>102</ele>
        <time>2014-04-14T15:51:26Z</time>
      </trkpt>
      <trkpt lat="47.89465" lon="3.43278">
        <ele>102</ele>
        <time>2014-04-14T15:51:30Z</time>
      </trkpt>
      <trkpt lat="47.8946" lon="3.43273">
        <ele>102</ele>
        <time>2014-04-14T15:51:34Z</time>
      </trkpt>
      <trkpt lat="47.89456" lon="3.4327">
        <ele>102</ele>
        <time>2014-04-14T15:51:37Z</time>
      </trkpt>
      <trkpt lat="47.89452" lon="3.43265">
        <ele>102</ele>
        <time>2014-04-14T15:51:41Z</time>
      </trkpt>
      <trkpt lat="47.89448" lon="3.43259">
        <ele>102</ele>
        <time>2014-04-14T15:51:45Z</time>
      </trkpt>
      <trkpt lat="47.89444" lon="3.43253">
        <ele>102</ele>
        <time>2014-04-14T15:51:49Z</time>
      </trkpt>
      <trkpt lat="47.89442" lon="3.43246">
        <ele>102</ele>
        <time>2014-04-14T15:51:52Z</time>
      </trkpt>
      <trkpt lat="47.89439" lon="3.43249">
        <ele>102</ele>
        <time>2014-04-14T15:52:52Z</time>
      </trkpt>
      <trkpt lat="47.89435" lon="3.43247">
        <ele>102</ele>
        <time>2014-04-14T15:53:16Z</time>
      </trkpt>
      <trkpt lat="47.8943" lon="3.43248">
        <ele>102</ele>
        <time>2014-04-14T15:53:24Z</time>
      </trkpt>
      <trkpt lat="47.89428" lon="3.43254">
        <ele>102</ele>
        <time>2014-04-14T15:53:31Z</time>
      </trkpt>
      <trkpt lat="47.89425" lon="3.4326">
        <ele>102</ele>
        <time>2014-04-14T15:53:36Z</time>
      </trkpt>
      <trkpt lat="47.89422" lon="3.43266">
        <ele>102</ele>
        <time>2014-04-14T15:53:41Z</time>
      </trkpt>
      <trkpt lat="47.89418" lon="3.4327">
        <ele>102</ele>
        <time>2014-04-14T15:53:49Z</time>
      </trkpt>
      <trkpt lat="47.89415" lon="3.43274">
        <ele>102</ele>
        <time>2014-04-14T15:53:53Z</time>
      </trkpt>
      <trkpt lat="47.89411" lon="3.43279">
        <ele>103</ele>
        <time>2014-04-14T15:53:56Z</time>
      </trkpt>
      <trkpt lat="47.89409" lon="3.43286">
        <ele>103</ele>
        <time>2014-04-14T15:53:59Z</time>
      </trkpt>
      <trkpt lat="47.89408" lon="3.43293">
        <ele>103</ele>
        <time>2014-04-14T15:54:03Z</time>
      </trkpt>
      <trkpt lat="47.89404" lon="3.43297">
        <ele>103</ele>
        <time>2014-04-14T15:54:06Z</time>
      </trkpt>
      <trkpt lat="47.89399" lon="3.43298">
        <ele>103</ele>
        <time>2014-04-14T15:54:12Z</time>
      </trkpt>
      <trkpt lat="47.89395" lon="3.43302">
        <ele>103</ele>
        <time>2014-04-14T15:54:18Z</time>
      </trkpt>
      <trkpt lat="47.89391" lon="3.43306">
        <ele>103</ele>
        <time>2014-04-14T15:54:23Z</time>
      </trkpt>
      <trkpt lat="47.89388" lon="3.43311">
        <ele>103</ele>
        <time>2014-04-14T15:54:27Z</time>
      </trkpt>
      <trkpt lat="47.89383" lon="3.43316">
        <ele>103</ele>
        <time>2014-04-14T15:54:32Z</time>
      </trkpt>
      <trkpt lat="47.8938" lon="3.43322">
        <ele>103</ele>
        <time>2014-04-14T15:54:39Z</time>
      </trkpt>
      <trkpt lat="47.89377" lon="3.4333">
        <ele>103</ele>
        <time>2014-04-14T15:54:45Z</time>
      </trkpt>
      <trkpt lat="47.89372" lon="3.43334">
        <ele>102</ele>
        <time>2014-04-14T15:54:51Z</time>
      </trkpt>
      <trkpt lat="47.89368" lon="3.43337">
        <ele>102</ele>
        <time>2014-04-14T15:54:55Z</time>
      </trkpt>
      <trkpt lat="47.89362" lon="3.43341">
        <ele>102</ele>
        <time>2014-04-14T15:54:58Z</time>
      </trkpt>
      <trkpt lat="47.89358" lon="3.43346">
        <ele>102</ele>
        <time>2014-04-14T15:55:01Z</time>
      </trkpt>
      <trkpt lat="47.89355" lon="3.43353">
        <ele>102</ele>
        <time>2014-04-14T15:55:07Z</time>
      </trkpt>
      <trkpt lat="47.89351" lon="3.43357">
        <ele>102</ele>
        <time>2014-04-14T15:55:11Z</time>
      </trkpt>
      <trkpt lat="47.89345" lon="3.43361">
        <ele>102</ele>
        <time>2014-04-14T15:55:15Z</time>
      </trkpt>
      <trkpt lat="47.89341" lon="3.43365">
        <ele>102</ele>
        <time>2014-04-14T15:55:19Z</time>
      </trkpt>
      <trkpt lat="47.89336" lon="3.43368">
        <ele>102</ele>
        <time>2014-04-14T15:55:23Z</time>
      </trkpt>
      <trkpt lat="47.89331" lon="3.43372">
        <ele>102</ele>
        <time>2014-04-14T15:55:28Z</time>
      </trkpt>
      <trkpt lat="47.89327" lon="3.43378">
        <ele>102</ele>
        <time>2014-04-14T15:55:32Z</time>
      </trkpt>
      <trkpt lat="47.89323" lon="3.43383">
        <ele>102</ele>
        <time>2014-04-14T15:55:36Z</time>
      </trkpt>
      <trkpt lat="47.8932" lon="3.43389">
        <ele>102</ele>
        <time>2014-04-14T15:55:40Z</time>
      </trkpt>
      <trkpt lat="47.89317" lon="3.43395">
        <ele>102</ele>
        <time>2014-04-14T15:55:44Z</time>
      </trkpt>
      <trkpt lat="47.89313" lon="3.434">
        <ele>102</ele>
        <time>2014-04-14T15:55:48Z</time>
      </trkpt>
      <trkpt lat="47.89309" lon="3.43405">
        <ele>102</ele>
        <time>2014-04-14T15:55:53Z</time>
      </trkpt>
      <trkpt lat="47.89305" lon="3.4341">
        <ele>102</ele>
        <time>2014-04-14T15:55:58Z</time>
      </trkpt>
      <trkpt lat="47.893" lon="3.43415">
        <ele>102</ele>
        <time>2014-04-14T15:56:04Z</time>
      </trkpt>
      <trkpt lat="47.89296" lon="3.4342">
        <ele>101</ele>
        <time>2014-04-14T15:56:09Z</time>
      </trkpt>
      <trkpt lat="47.89293" lon="3.43426">
        <ele>101</ele>
        <time>2014-04-14T15:56:13Z</time>
      </trkpt>
      <trkpt lat="47.89289" lon="3.43429">
        <ele>101</ele>
        <time>2014-04-14T15:56:18Z</time>
      </trkpt>
      <trkpt lat="47.89286" lon="3.43436">
        <ele>101</ele>
        <time>2014-04-14T15:56:23Z</time>
      </trkpt>
      <trkpt lat="47.89283" lon="3.43441">
        <ele>101</ele>
        <time>2014-04-14T15:56:27Z</time>
      </trkpt>
      <trkpt lat="47.89279" lon="3.43446">
        <ele>101</ele>
        <time>2014-04-14T15:56:31Z</time>
      </trkpt>
      <trkpt lat="47.89275" lon="3.43451">
        <ele>101</ele>
        <time>2014-04-14T15:56:36Z</time>
      </trkpt>
      <trkpt lat="47.89271" lon="3.43456">
        <ele>101</ele>
        <time>2014-04-14T15:56:40Z</time>
      </trkpt>
      <trkpt lat="47.89268" lon="3.4346">
        <ele>101</ele>
        <time>2014-04-14T15:56:44Z</time>
      </trkpt>
      <trkpt lat="47.89264" lon="3.43464">
        <ele>101</ele>
        <time>2014-04-14T15:56:48Z</time>
      </trkpt>
      <trkpt lat="47.8926" lon="3.43468">
        <ele>102</ele>
        <time>2014-04-14T15:56:53Z</time>
      </trkpt>
      <trkpt lat="47.89256" lon="3.43472">
        <ele>102</ele>
        <time>2014-04-14T15:56:58Z</time>
      </trkpt>
      <trkpt lat="47.89252" lon="3.43476">
        <ele>102</ele>
        <time>2014-04-14T15:57:03Z</time>
      </trkpt>
      <trkpt lat="47.89248" lon="3.43481">
        <ele>104</ele>
        <time>2014-04-14T15:57:07Z</time>
      </trkpt>
      <trkpt lat="47.89244" lon="3.43485">
        <ele>104</ele>
        <time>2014-04-14T15:57:13Z</time>
      </trkpt>
      <trkpt lat="47.8924" lon="3.43488">
        <ele>104</ele>
        <time>2014-04-14T15:57:18Z</time>
      </trkpt>
      <trkpt lat="47.89238" lon="3.43496">
        <ele>104</ele>
        <time>2014-04-14T15:57:22Z</time>
      </trkpt>
      <trkpt lat="47.89236" lon="3.43503">
        <ele>105</ele>
        <time>2014-04-14T15:57:26Z</time>
      </trkpt>
      <trkpt lat="47.89234" lon="3.4351">
        <ele>106</ele>
        <time>2014-04-14T15:57:32Z</time>
      </trkpt>
      <trkpt lat="47.89239" lon="3.43512">
        <ele>105</ele>
        <time>2014-04-14T15:57:36Z</time>
      </trkpt>
      <trkpt lat="47.89241" lon="3.43519">
        <ele>106</ele>
        <time>2014-04-14T15:57:39Z</time>
      </trkpt>
      <trkpt lat="47.89241" lon="3.43527">
        <ele>106</ele>
        <time>2014-04-14T15:57:44Z</time>
      </trkpt>
      <trkpt lat="47.89243" lon="3.43529">
        <ele>106</ele>
        <time>2014-04-14T15:57:51Z</time>
      </trkpt>
      <trkpt lat="47.89242" lon="3.43534">
        <ele>107</ele>
        <time>2014-04-14T15:58:23Z</time>
      </trkpt>
      <trkpt lat="47.89242" lon="3.43542">
        <ele>107</ele>
        <time>2014-04-14T15:58:27Z</time>
      </trkpt>
      <trkpt lat="47.8924" lon="3.43549">
        <ele>107</ele>
        <time>2014-04-14T15:58:31Z</time>
      </trkpt>
      <trkpt lat="47.89236" lon="3.43553">
        <ele>107</ele>
        <time>2014-04-14T15:58:36Z</time>
      </trkpt>
      <trkpt lat="47.89232" lon="3.43558">
        <ele>107</ele>
        <time>2014-04-14T15:58:41Z</time>
      </trkpt>
      <trkpt lat="47.89228" lon="3.43563">
        <ele>107</ele>
        <time>2014-04-14T15:58:46Z</time>
      </trkpt>
      <trkpt lat="47.89228" lon="3.43568">
        <ele>107</ele>
        <time>2014-04-14T15:58:54Z</time>
      </trkpt>
      <trkpt lat="47.89232" lon="3.43571">
        <ele>107</ele>
        <time>2014-04-14T15:59:03Z</time>
      </trkpt>
      <trkpt lat="47.89236" lon="3.43569">
        <ele>107</ele>
        <time>2014-04-14T15:59:09Z</time>
      </trkpt>
      <trkpt lat="47.89232" lon="3.43568">
        <ele>107</ele>
        <time>2014-04-14T15:59:38Z</time>
      </trkpt>
      <trkpt lat="47.89228" lon="3.43564">
        <ele>108</ele>
        <time>2014-04-14T15:59:43Z</time>
      </trkpt>
      <trkpt lat="47.89223" lon="3.43563">
        <ele>108</ele>
        <time>2014-04-14T15:59:50Z</time>
      </trkpt>
      <trkpt lat="47.89223" lon="3.43572">
        <ele>108</ele>
        <time>2014-04-14T16:00:09Z</time>
      </trkpt>
      <trkpt lat="47.89219" lon="3.43576">
        <ele>108</ele>
        <time>2014-04-14T16:00:38Z</time>
      </trkpt>
      <trkpt lat="47.89216" lon="3.43577">
        <ele>108</ele>
        <time>2014-04-14T16:01:28Z</time>
      </trkpt>
    </trkseg>
  </trk>
</gpx>